<?xml version="1.0" encoding="UTF-8" standalone="no" ?>
<gpx xmlns="http://www.topografix.com/GPX/1/1" xmlns:xsi="http://www.w3.org/2001/XMLSchema-instance" xsi:schemaLocation="http://www.topografix.com/GPX/1/1 http://www.topografix.com/GPX/1/1/gpx.xsd" version="1.1" creator="VisuGPX - https://www.visugpx.com">
  <metadata>
    <name>Vélo - Rando de la Cité</name>
    <desc><![CDATA[Avec Philippe et Stéphane]]></desc>
  </metadata>
  <trk>
    <name><![CDATA[2015-06-14 13:02:16]]></name>
    <trkseg>
      <trkpt lat="43.21358" lon="2.34115">
        <ele>114.05</ele>
        <time>2015-06-14T05:53:56Z</time>
      </trkpt>
      <trkpt lat="43.21356" lon="2.3412">
        <ele>114.53</ele>
        <time>2015-06-14T05:54:18Z</time>
      </trkpt>
      <trkpt lat="43.21357" lon="2.34123">
        <ele>117.9</ele>
        <time>2015-06-14T05:54:30Z</time>
      </trkpt>
      <trkpt lat="43.21356" lon="2.34126">
        <ele>117.9</ele>
        <time>2015-06-14T05:54:32Z</time>
      </trkpt>
      <trkpt lat="43.21352" lon="2.34127">
        <ele>117.9</ele>
        <time>2015-06-14T05:54:35Z</time>
      </trkpt>
      <trkpt lat="43.2131" lon="2.34116">
        <ele>119.82</ele>
        <time>2015-06-14T05:54:48Z</time>
      </trkpt>
      <trkpt lat="43.21302" lon="2.34116">
        <ele>119.82</ele>
        <time>2015-06-14T05:54:50Z</time>
      </trkpt>
      <trkpt lat="43.21285" lon="2.34114">
        <ele>119.82</ele>
        <time>2015-06-14T05:54:54Z</time>
      </trkpt>
      <trkpt lat="43.21277" lon="2.34112">
        <ele>119.82</ele>
        <time>2015-06-14T05:54:56Z</time>
      </trkpt>
      <trkpt lat="43.21273" lon="2.34112">
        <ele>119.82</ele>
        <time>2015-06-14T05:54:57Z</time>
      </trkpt>
      <trkpt lat="43.21264" lon="2.34111">
        <ele>119.82</ele>
        <time>2015-06-14T05:54:59Z</time>
      </trkpt>
      <trkpt lat="43.21193" lon="2.341">
        <ele>121.26</ele>
        <time>2015-06-14T05:55:17Z</time>
      </trkpt>
      <trkpt lat="43.21191" lon="2.34098">
        <ele>121.74</ele>
        <time>2015-06-14T05:55:18Z</time>
      </trkpt>
      <trkpt lat="43.21189" lon="2.34094">
        <ele>121.74</ele>
        <time>2015-06-14T05:55:19Z</time>
      </trkpt>
      <trkpt lat="43.21188" lon="2.34088">
        <ele>121.74</ele>
        <time>2015-06-14T05:55:20Z</time>
      </trkpt>
      <trkpt lat="43.2119" lon="2.34077">
        <ele>121.74</ele>
        <time>2015-06-14T05:55:22Z</time>
      </trkpt>
      <trkpt lat="43.21192" lon="2.34039">
        <ele>122.22</ele>
        <time>2015-06-14T05:55:28Z</time>
      </trkpt>
      <trkpt lat="43.21191" lon="2.34034">
        <ele>121.74</ele>
        <time>2015-06-14T05:55:29Z</time>
      </trkpt>
      <trkpt lat="43.21187" lon="2.34031">
        <ele>121.74</ele>
        <time>2015-06-14T05:55:30Z</time>
      </trkpt>
      <trkpt lat="43.21182" lon="2.3403">
        <ele>121.26</ele>
        <time>2015-06-14T05:55:31Z</time>
      </trkpt>
      <trkpt lat="43.21177" lon="2.34029">
        <ele>121.26</ele>
        <time>2015-06-14T05:55:32Z</time>
      </trkpt>
      <trkpt lat="43.21173" lon="2.34029">
        <ele>121.26</ele>
        <time>2015-06-14T05:55:33Z</time>
      </trkpt>
      <trkpt lat="43.21107" lon="2.34026">
        <ele>121.74</ele>
        <time>2015-06-14T05:55:48Z</time>
      </trkpt>
      <trkpt lat="43.21093" lon="2.34028">
        <ele>121.74</ele>
        <time>2015-06-14T05:55:53Z</time>
      </trkpt>
      <trkpt lat="43.21092" lon="2.34031">
        <ele>121.74</ele>
        <time>2015-06-14T05:55:54Z</time>
      </trkpt>
      <trkpt lat="43.21091" lon="2.34035">
        <ele>122.22</ele>
        <time>2015-06-14T05:55:55Z</time>
      </trkpt>
      <trkpt lat="43.21084" lon="2.34099">
        <ele>122.22</ele>
        <time>2015-06-14T05:56:08Z</time>
      </trkpt>
      <trkpt lat="43.21083" lon="2.34117">
        <ele>122.71</ele>
        <time>2015-06-14T05:56:12Z</time>
      </trkpt>
      <trkpt lat="43.21086" lon="2.3416">
        <ele>123.19</ele>
        <time>2015-06-14T05:56:18Z</time>
      </trkpt>
      <trkpt lat="43.21084" lon="2.34217">
        <ele>124.15</ele>
        <time>2015-06-14T05:56:25Z</time>
      </trkpt>
      <trkpt lat="43.21083" lon="2.34225">
        <ele>124.15</ele>
        <time>2015-06-14T05:56:26Z</time>
      </trkpt>
      <trkpt lat="43.21079" lon="2.3433">
        <ele>126.07</ele>
        <time>2015-06-14T05:56:40Z</time>
      </trkpt>
      <trkpt lat="43.21079" lon="2.34337">
        <ele>126.55</ele>
        <time>2015-06-14T05:56:41Z</time>
      </trkpt>
      <trkpt lat="43.21079" lon="2.34344">
        <ele>126.55</ele>
        <time>2015-06-14T05:56:42Z</time>
      </trkpt>
      <trkpt lat="43.21063" lon="2.34454">
        <ele>127.99</ele>
        <time>2015-06-14T05:56:59Z</time>
      </trkpt>
      <trkpt lat="43.21055" lon="2.3449">
        <ele>127.99</ele>
        <time>2015-06-14T05:57:05Z</time>
      </trkpt>
      <trkpt lat="43.21052" lon="2.34495">
        <ele>128.47</ele>
        <time>2015-06-14T05:57:06Z</time>
      </trkpt>
      <trkpt lat="43.21048" lon="2.34497">
        <ele>128.47</ele>
        <time>2015-06-14T05:57:07Z</time>
      </trkpt>
      <trkpt lat="43.21044" lon="2.34498">
        <ele>128.95</ele>
        <time>2015-06-14T05:57:08Z</time>
      </trkpt>
      <trkpt lat="43.21039" lon="2.34498">
        <ele>128.95</ele>
        <time>2015-06-14T05:57:09Z</time>
      </trkpt>
      <trkpt lat="43.21034" lon="2.34498">
        <ele>128.95</ele>
        <time>2015-06-14T05:57:10Z</time>
      </trkpt>
      <trkpt lat="43.2103" lon="2.34499">
        <ele>128.95</ele>
        <time>2015-06-14T05:57:11Z</time>
      </trkpt>
      <trkpt lat="43.20948" lon="2.34497">
        <ele>131.84</ele>
        <time>2015-06-14T05:57:28Z</time>
      </trkpt>
      <trkpt lat="43.20889" lon="2.34494">
        <ele>132.32</ele>
        <time>2015-06-14T05:57:40Z</time>
      </trkpt>
      <trkpt lat="43.20852" lon="2.34488">
        <ele>133.28</ele>
        <time>2015-06-14T05:57:51Z</time>
      </trkpt>
      <trkpt lat="43.20836" lon="2.3448">
        <ele>133.28</ele>
        <time>2015-06-14T05:58:00Z</time>
      </trkpt>
      <trkpt lat="43.20834" lon="2.34476">
        <ele>133.76</ele>
        <time>2015-06-14T05:58:18Z</time>
      </trkpt>
      <trkpt lat="43.20833" lon="2.34474">
        <ele>129.92</ele>
        <time>2015-06-14T05:58:34Z</time>
      </trkpt>
      <trkpt lat="43.20833" lon="2.34476">
        <ele>126.55</ele>
        <time>2015-06-14T05:59:01Z</time>
      </trkpt>
      <trkpt lat="43.20832" lon="2.34476">
        <ele>124.15</ele>
        <time>2015-06-14T05:59:30Z</time>
      </trkpt>
      <trkpt lat="43.20834" lon="2.34475">
        <ele>126.07</ele>
        <time>2015-06-14T06:00:08Z</time>
      </trkpt>
      <trkpt lat="43.20834" lon="2.34474">
        <ele>126.55</ele>
        <time>2015-06-14T06:00:43Z</time>
      </trkpt>
      <trkpt lat="43.20837" lon="2.34474">
        <ele>128.95</ele>
        <time>2015-06-14T06:01:28Z</time>
      </trkpt>
      <trkpt lat="43.20837" lon="2.34473">
        <ele>129.92</ele>
        <time>2015-06-14T06:02:06Z</time>
      </trkpt>
      <trkpt lat="43.20836" lon="2.34471">
        <ele>130.4</ele>
        <time>2015-06-14T06:02:45Z</time>
      </trkpt>
      <trkpt lat="43.20835" lon="2.34474">
        <ele>130.88</ele>
        <time>2015-06-14T06:02:59Z</time>
      </trkpt>
      <trkpt lat="43.20834" lon="2.34475">
        <ele>131.36</ele>
        <time>2015-06-14T06:03:14Z</time>
      </trkpt>
      <trkpt lat="43.20835" lon="2.34475">
        <ele>131.84</ele>
        <time>2015-06-14T06:03:18Z</time>
      </trkpt>
      <trkpt lat="43.20853" lon="2.34485">
        <ele>132.32</ele>
        <time>2015-06-14T06:03:28Z</time>
      </trkpt>
      <trkpt lat="43.20886" lon="2.34493">
        <ele>132.32</ele>
        <time>2015-06-14T06:03:41Z</time>
      </trkpt>
      <trkpt lat="43.20933" lon="2.34499">
        <ele>133.28</ele>
        <time>2015-06-14T06:03:55Z</time>
      </trkpt>
      <trkpt lat="43.20979" lon="2.345">
        <ele>134.72</ele>
        <time>2015-06-14T06:04:06Z</time>
      </trkpt>
      <trkpt lat="43.2104" lon="2.34504">
        <ele>136.16</ele>
        <time>2015-06-14T06:04:20Z</time>
      </trkpt>
      <trkpt lat="43.21045" lon="2.34507">
        <ele>136.16</ele>
        <time>2015-06-14T06:04:21Z</time>
      </trkpt>
      <trkpt lat="43.21049" lon="2.34512">
        <ele>135.68</ele>
        <time>2015-06-14T06:04:22Z</time>
      </trkpt>
      <trkpt lat="43.21051" lon="2.34519">
        <ele>135.68</ele>
        <time>2015-06-14T06:04:23Z</time>
      </trkpt>
      <trkpt lat="43.21052" lon="2.34525">
        <ele>135.2</ele>
        <time>2015-06-14T06:04:24Z</time>
      </trkpt>
      <trkpt lat="43.21052" lon="2.34531">
        <ele>135.2</ele>
        <time>2015-06-14T06:04:25Z</time>
      </trkpt>
      <trkpt lat="43.21051" lon="2.34537">
        <ele>135.2</ele>
        <time>2015-06-14T06:04:26Z</time>
      </trkpt>
      <trkpt lat="43.2105" lon="2.34544">
        <ele>135.2</ele>
        <time>2015-06-14T06:04:27Z</time>
      </trkpt>
      <trkpt lat="43.21049" lon="2.3455">
        <ele>135.2</ele>
        <time>2015-06-14T06:04:28Z</time>
      </trkpt>
      <trkpt lat="43.21048" lon="2.34557">
        <ele>135.2</ele>
        <time>2015-06-14T06:04:29Z</time>
      </trkpt>
      <trkpt lat="43.21047" lon="2.34564">
        <ele>135.2</ele>
        <time>2015-06-14T06:04:30Z</time>
      </trkpt>
      <trkpt lat="43.21047" lon="2.34579">
        <ele>135.68</ele>
        <time>2015-06-14T06:04:32Z</time>
      </trkpt>
      <trkpt lat="43.21046" lon="2.34586">
        <ele>135.68</ele>
        <time>2015-06-14T06:04:33Z</time>
      </trkpt>
      <trkpt lat="43.2104" lon="2.34622">
        <ele>135.2</ele>
        <time>2015-06-14T06:04:38Z</time>
      </trkpt>
      <trkpt lat="43.21039" lon="2.34629">
        <ele>135.2</ele>
        <time>2015-06-14T06:04:39Z</time>
      </trkpt>
      <trkpt lat="43.21038" lon="2.34636">
        <ele>135.2</ele>
        <time>2015-06-14T06:04:40Z</time>
      </trkpt>
      <trkpt lat="43.21037" lon="2.34643">
        <ele>135.2</ele>
        <time>2015-06-14T06:04:41Z</time>
      </trkpt>
      <trkpt lat="43.21037" lon="2.3465">
        <ele>135.2</ele>
        <time>2015-06-14T06:04:42Z</time>
      </trkpt>
      <trkpt lat="43.21036" lon="2.34656">
        <ele>134.72</ele>
        <time>2015-06-14T06:04:43Z</time>
      </trkpt>
      <trkpt lat="43.21035" lon="2.34663">
        <ele>134.72</ele>
        <time>2015-06-14T06:04:44Z</time>
      </trkpt>
      <trkpt lat="43.21035" lon="2.3467">
        <ele>134.72</ele>
        <time>2015-06-14T06:04:45Z</time>
      </trkpt>
      <trkpt lat="43.21036" lon="2.34677">
        <ele>134.72</ele>
        <time>2015-06-14T06:04:46Z</time>
      </trkpt>
      <trkpt lat="43.21039" lon="2.34683">
        <ele>135.2</ele>
        <time>2015-06-14T06:04:47Z</time>
      </trkpt>
      <trkpt lat="43.21045" lon="2.34685">
        <ele>135.2</ele>
        <time>2015-06-14T06:04:48Z</time>
      </trkpt>
      <trkpt lat="43.21049" lon="2.34685">
        <ele>134.72</ele>
        <time>2015-06-14T06:04:49Z</time>
      </trkpt>
      <trkpt lat="43.21054" lon="2.34685">
        <ele>134.72</ele>
        <time>2015-06-14T06:04:50Z</time>
      </trkpt>
      <trkpt lat="43.21059" lon="2.34684">
        <ele>134.72</ele>
        <time>2015-06-14T06:04:51Z</time>
      </trkpt>
      <trkpt lat="43.2115" lon="2.34661">
        <ele>134.24</ele>
        <time>2015-06-14T06:05:08Z</time>
      </trkpt>
      <trkpt lat="43.21213" lon="2.34645">
        <ele>131.84</ele>
        <time>2015-06-14T06:05:20Z</time>
      </trkpt>
      <trkpt lat="43.21287" lon="2.3463">
        <ele>131.36</ele>
        <time>2015-06-14T06:05:34Z</time>
      </trkpt>
      <trkpt lat="43.21292" lon="2.34631">
        <ele>131.36</ele>
        <time>2015-06-14T06:05:35Z</time>
      </trkpt>
      <trkpt lat="43.21298" lon="2.34633">
        <ele>131.36</ele>
        <time>2015-06-14T06:05:36Z</time>
      </trkpt>
      <trkpt lat="43.21307" lon="2.34638">
        <ele>130.88</ele>
        <time>2015-06-14T06:05:38Z</time>
      </trkpt>
      <trkpt lat="43.21312" lon="2.34642">
        <ele>130.4</ele>
        <time>2015-06-14T06:05:39Z</time>
      </trkpt>
      <trkpt lat="43.21317" lon="2.34645">
        <ele>130.4</ele>
        <time>2015-06-14T06:05:40Z</time>
      </trkpt>
      <trkpt lat="43.21398" lon="2.34698">
        <ele>129.92</ele>
        <time>2015-06-14T06:05:57Z</time>
      </trkpt>
      <trkpt lat="43.21413" lon="2.34707">
        <ele>130.4</ele>
        <time>2015-06-14T06:06:00Z</time>
      </trkpt>
      <trkpt lat="43.21418" lon="2.3471">
        <ele>129.92</ele>
        <time>2015-06-14T06:06:01Z</time>
      </trkpt>
      <trkpt lat="43.21507" lon="2.34768">
        <ele>127.51</ele>
        <time>2015-06-14T06:06:18Z</time>
      </trkpt>
      <trkpt lat="43.21525" lon="2.3478">
        <ele>127.03</ele>
        <time>2015-06-14T06:06:21Z</time>
      </trkpt>
      <trkpt lat="43.21536" lon="2.34787">
        <ele>126.07</ele>
        <time>2015-06-14T06:06:23Z</time>
      </trkpt>
      <trkpt lat="43.21561" lon="2.34805">
        <ele>124.63</ele>
        <time>2015-06-14T06:06:28Z</time>
      </trkpt>
      <trkpt lat="43.21567" lon="2.34808">
        <ele>124.63</ele>
        <time>2015-06-14T06:06:29Z</time>
      </trkpt>
      <trkpt lat="43.21578" lon="2.34816">
        <ele>124.15</ele>
        <time>2015-06-14T06:06:31Z</time>
      </trkpt>
      <trkpt lat="43.21583" lon="2.3482">
        <ele>123.67</ele>
        <time>2015-06-14T06:06:32Z</time>
      </trkpt>
      <trkpt lat="43.21588" lon="2.34823">
        <ele>123.67</ele>
        <time>2015-06-14T06:06:33Z</time>
      </trkpt>
      <trkpt lat="43.21593" lon="2.34826">
        <ele>123.19</ele>
        <time>2015-06-14T06:06:34Z</time>
      </trkpt>
      <trkpt lat="43.21598" lon="2.3483">
        <ele>123.19</ele>
        <time>2015-06-14T06:06:35Z</time>
      </trkpt>
      <trkpt lat="43.21632" lon="2.3485">
        <ele>121.26</ele>
        <time>2015-06-14T06:06:41Z</time>
      </trkpt>
      <trkpt lat="43.21638" lon="2.34851">
        <ele>121.26</ele>
        <time>2015-06-14T06:06:42Z</time>
      </trkpt>
      <trkpt lat="43.21645" lon="2.3485">
        <ele>121.26</ele>
        <time>2015-06-14T06:06:43Z</time>
      </trkpt>
      <trkpt lat="43.21651" lon="2.34848">
        <ele>120.78</ele>
        <time>2015-06-14T06:06:44Z</time>
      </trkpt>
      <trkpt lat="43.21656" lon="2.34843">
        <ele>120.78</ele>
        <time>2015-06-14T06:06:45Z</time>
      </trkpt>
      <trkpt lat="43.21661" lon="2.34837">
        <ele>120.78</ele>
        <time>2015-06-14T06:06:46Z</time>
      </trkpt>
      <trkpt lat="43.21663" lon="2.34831">
        <ele>120.78</ele>
        <time>2015-06-14T06:06:47Z</time>
      </trkpt>
      <trkpt lat="43.21666" lon="2.34824">
        <ele>120.78</ele>
        <time>2015-06-14T06:06:48Z</time>
      </trkpt>
      <trkpt lat="43.21707" lon="2.34706">
        <ele>123.19</ele>
        <time>2015-06-14T06:07:06Z</time>
      </trkpt>
      <trkpt lat="43.21741" lon="2.34608">
        <ele>126.07</ele>
        <time>2015-06-14T06:07:22Z</time>
      </trkpt>
      <trkpt lat="43.2177" lon="2.3454">
        <ele>128.47</ele>
        <time>2015-06-14T06:07:34Z</time>
      </trkpt>
      <trkpt lat="43.2178" lon="2.34525">
        <ele>128.95</ele>
        <time>2015-06-14T06:07:37Z</time>
      </trkpt>
      <trkpt lat="43.21807" lon="2.34485">
        <ele>129.43</ele>
        <time>2015-06-14T06:07:45Z</time>
      </trkpt>
      <trkpt lat="43.21811" lon="2.34481">
        <ele>129.92</ele>
        <time>2015-06-14T06:07:46Z</time>
      </trkpt>
      <trkpt lat="43.21815" lon="2.34478">
        <ele>130.4</ele>
        <time>2015-06-14T06:07:47Z</time>
      </trkpt>
      <trkpt lat="43.2182" lon="2.34475">
        <ele>130.4</ele>
        <time>2015-06-14T06:07:48Z</time>
      </trkpt>
      <trkpt lat="43.21824" lon="2.34472">
        <ele>130.88</ele>
        <time>2015-06-14T06:07:49Z</time>
      </trkpt>
      <trkpt lat="43.21833" lon="2.34466">
        <ele>131.36</ele>
        <time>2015-06-14T06:07:51Z</time>
      </trkpt>
      <trkpt lat="43.21844" lon="2.34454">
        <ele>132.32</ele>
        <time>2015-06-14T06:07:54Z</time>
      </trkpt>
      <trkpt lat="43.21849" lon="2.34451">
        <ele>132.32</ele>
        <time>2015-06-14T06:07:55Z</time>
      </trkpt>
      <trkpt lat="43.21862" lon="2.34442">
        <ele>133.28</ele>
        <time>2015-06-14T06:07:58Z</time>
      </trkpt>
      <trkpt lat="43.21881" lon="2.34433">
        <ele>133.76</ele>
        <time>2015-06-14T06:08:02Z</time>
      </trkpt>
      <trkpt lat="43.2195" lon="2.34401">
        <ele>133.76</ele>
        <time>2015-06-14T06:08:16Z</time>
      </trkpt>
      <trkpt lat="43.21955" lon="2.344">
        <ele>132.32</ele>
        <time>2015-06-14T06:08:17Z</time>
      </trkpt>
      <trkpt lat="43.22026" lon="2.34403">
        <ele>130.88</ele>
        <time>2015-06-14T06:08:30Z</time>
      </trkpt>
      <trkpt lat="43.22031" lon="2.34404">
        <ele>130.88</ele>
        <time>2015-06-14T06:08:31Z</time>
      </trkpt>
      <trkpt lat="43.22063" lon="2.34417">
        <ele>131.36</ele>
        <time>2015-06-14T06:08:37Z</time>
      </trkpt>
      <trkpt lat="43.22147" lon="2.34475">
        <ele>130.4</ele>
        <time>2015-06-14T06:08:53Z</time>
      </trkpt>
      <trkpt lat="43.22239" lon="2.34525">
        <ele>127.51</ele>
        <time>2015-06-14T06:09:08Z</time>
      </trkpt>
      <trkpt lat="43.22345" lon="2.34583">
        <ele>123.19</ele>
        <time>2015-06-14T06:09:25Z</time>
      </trkpt>
      <trkpt lat="43.2235" lon="2.34588">
        <ele>122.71</ele>
        <time>2015-06-14T06:09:26Z</time>
      </trkpt>
      <trkpt lat="43.22354" lon="2.34594">
        <ele>122.22</ele>
        <time>2015-06-14T06:09:27Z</time>
      </trkpt>
      <trkpt lat="43.22374" lon="2.34616">
        <ele>121.74</ele>
        <time>2015-06-14T06:09:31Z</time>
      </trkpt>
      <trkpt lat="43.22379" lon="2.34619">
        <ele>121.74</ele>
        <time>2015-06-14T06:09:32Z</time>
      </trkpt>
      <trkpt lat="43.22384" lon="2.34622">
        <ele>121.26</ele>
        <time>2015-06-14T06:09:33Z</time>
      </trkpt>
      <trkpt lat="43.22402" lon="2.34632">
        <ele>120.78</ele>
        <time>2015-06-14T06:09:36Z</time>
      </trkpt>
      <trkpt lat="43.22408" lon="2.34636">
        <ele>120.3</ele>
        <time>2015-06-14T06:09:37Z</time>
      </trkpt>
      <trkpt lat="43.22418" lon="2.34647">
        <ele>120.3</ele>
        <time>2015-06-14T06:09:39Z</time>
      </trkpt>
      <trkpt lat="43.22447" lon="2.34682">
        <ele>119.82</ele>
        <time>2015-06-14T06:09:45Z</time>
      </trkpt>
      <trkpt lat="43.22456" lon="2.34692">
        <ele>119.82</ele>
        <time>2015-06-14T06:09:47Z</time>
      </trkpt>
      <trkpt lat="43.22462" lon="2.34696">
        <ele>119.82</ele>
        <time>2015-06-14T06:09:48Z</time>
      </trkpt>
      <trkpt lat="43.22467" lon="2.347">
        <ele>120.3</ele>
        <time>2015-06-14T06:09:49Z</time>
      </trkpt>
      <trkpt lat="43.22473" lon="2.34703">
        <ele>120.3</ele>
        <time>2015-06-14T06:09:50Z</time>
      </trkpt>
      <trkpt lat="43.22479" lon="2.34705">
        <ele>120.3</ele>
        <time>2015-06-14T06:09:51Z</time>
      </trkpt>
      <trkpt lat="43.22484" lon="2.34706">
        <ele>119.82</ele>
        <time>2015-06-14T06:09:52Z</time>
      </trkpt>
      <trkpt lat="43.2249" lon="2.34707">
        <ele>119.82</ele>
        <time>2015-06-14T06:09:53Z</time>
      </trkpt>
      <trkpt lat="43.22496" lon="2.34707">
        <ele>120.3</ele>
        <time>2015-06-14T06:09:54Z</time>
      </trkpt>
      <trkpt lat="43.22502" lon="2.34706">
        <ele>120.3</ele>
        <time>2015-06-14T06:09:55Z</time>
      </trkpt>
      <trkpt lat="43.22525" lon="2.34705">
        <ele>120.3</ele>
        <time>2015-06-14T06:09:59Z</time>
      </trkpt>
      <trkpt lat="43.2253" lon="2.34707">
        <ele>120.3</ele>
        <time>2015-06-14T06:10:00Z</time>
      </trkpt>
      <trkpt lat="43.22535" lon="2.3471">
        <ele>120.3</ele>
        <time>2015-06-14T06:10:01Z</time>
      </trkpt>
      <trkpt lat="43.22539" lon="2.34715">
        <ele>120.3</ele>
        <time>2015-06-14T06:10:02Z</time>
      </trkpt>
      <trkpt lat="43.22543" lon="2.34721">
        <ele>119.82</ele>
        <time>2015-06-14T06:10:03Z</time>
      </trkpt>
      <trkpt lat="43.22544" lon="2.34728">
        <ele>119.82</ele>
        <time>2015-06-14T06:10:04Z</time>
      </trkpt>
      <trkpt lat="43.22545" lon="2.34736">
        <ele>119.34</ele>
        <time>2015-06-14T06:10:05Z</time>
      </trkpt>
      <trkpt lat="43.22544" lon="2.34744">
        <ele>119.34</ele>
        <time>2015-06-14T06:10:06Z</time>
      </trkpt>
      <trkpt lat="43.22542" lon="2.3482">
        <ele>118.86</ele>
        <time>2015-06-14T06:10:15Z</time>
      </trkpt>
      <trkpt lat="43.22543" lon="2.34828">
        <ele>118.86</ele>
        <time>2015-06-14T06:10:16Z</time>
      </trkpt>
      <trkpt lat="43.22545" lon="2.34836">
        <ele>118.38</ele>
        <time>2015-06-14T06:10:17Z</time>
      </trkpt>
      <trkpt lat="43.22547" lon="2.34845">
        <ele>118.38</ele>
        <time>2015-06-14T06:10:18Z</time>
      </trkpt>
      <trkpt lat="43.2255" lon="2.34852">
        <ele>117.9</ele>
        <time>2015-06-14T06:10:19Z</time>
      </trkpt>
      <trkpt lat="43.22554" lon="2.34859">
        <ele>118.38</ele>
        <time>2015-06-14T06:10:20Z</time>
      </trkpt>
      <trkpt lat="43.22559" lon="2.34867">
        <ele>118.38</ele>
        <time>2015-06-14T06:10:21Z</time>
      </trkpt>
      <trkpt lat="43.22563" lon="2.34873">
        <ele>118.38</ele>
        <time>2015-06-14T06:10:22Z</time>
      </trkpt>
      <trkpt lat="43.22568" lon="2.34879">
        <ele>118.38</ele>
        <time>2015-06-14T06:10:23Z</time>
      </trkpt>
      <trkpt lat="43.22573" lon="2.34884">
        <ele>118.38</ele>
        <time>2015-06-14T06:10:24Z</time>
      </trkpt>
      <trkpt lat="43.22578" lon="2.34888">
        <ele>118.38</ele>
        <time>2015-06-14T06:10:25Z</time>
      </trkpt>
      <trkpt lat="43.22584" lon="2.34893">
        <ele>117.9</ele>
        <time>2015-06-14T06:10:26Z</time>
      </trkpt>
      <trkpt lat="43.22588" lon="2.34898">
        <ele>117.9</ele>
        <time>2015-06-14T06:10:27Z</time>
      </trkpt>
      <trkpt lat="43.22593" lon="2.34903">
        <ele>117.9</ele>
        <time>2015-06-14T06:10:28Z</time>
      </trkpt>
      <trkpt lat="43.22597" lon="2.3491">
        <ele>117.9</ele>
        <time>2015-06-14T06:10:29Z</time>
      </trkpt>
      <trkpt lat="43.226" lon="2.34917">
        <ele>117.9</ele>
        <time>2015-06-14T06:10:30Z</time>
      </trkpt>
      <trkpt lat="43.22602" lon="2.34924">
        <ele>117.9</ele>
        <time>2015-06-14T06:10:31Z</time>
      </trkpt>
      <trkpt lat="43.22633" lon="2.35018">
        <ele>118.86</ele>
        <time>2015-06-14T06:10:44Z</time>
      </trkpt>
      <trkpt lat="43.22633" lon="2.35025">
        <ele>118.86</ele>
        <time>2015-06-14T06:10:45Z</time>
      </trkpt>
      <trkpt lat="43.22634" lon="2.35032">
        <ele>119.34</ele>
        <time>2015-06-14T06:10:46Z</time>
      </trkpt>
      <trkpt lat="43.22635" lon="2.35039">
        <ele>119.34</ele>
        <time>2015-06-14T06:10:47Z</time>
      </trkpt>
      <trkpt lat="43.22638" lon="2.35045">
        <ele>119.34</ele>
        <time>2015-06-14T06:10:48Z</time>
      </trkpt>
      <trkpt lat="43.22642" lon="2.3505">
        <ele>118.86</ele>
        <time>2015-06-14T06:10:49Z</time>
      </trkpt>
      <trkpt lat="43.22645" lon="2.35056">
        <ele>119.34</ele>
        <time>2015-06-14T06:10:50Z</time>
      </trkpt>
      <trkpt lat="43.22648" lon="2.35063">
        <ele>119.34</ele>
        <time>2015-06-14T06:10:51Z</time>
      </trkpt>
      <trkpt lat="43.22667" lon="2.35119">
        <ele>119.34</ele>
        <time>2015-06-14T06:10:59Z</time>
      </trkpt>
      <trkpt lat="43.2267" lon="2.35127">
        <ele>119.34</ele>
        <time>2015-06-14T06:11:00Z</time>
      </trkpt>
      <trkpt lat="43.22714" lon="2.35268">
        <ele>118.38</ele>
        <time>2015-06-14T06:11:19Z</time>
      </trkpt>
      <trkpt lat="43.22735" lon="2.35334">
        <ele>118.86</ele>
        <time>2015-06-14T06:11:28Z</time>
      </trkpt>
      <trkpt lat="43.22742" lon="2.35355">
        <ele>119.34</ele>
        <time>2015-06-14T06:11:31Z</time>
      </trkpt>
      <trkpt lat="43.22755" lon="2.35402">
        <ele>120.78</ele>
        <time>2015-06-14T06:11:38Z</time>
      </trkpt>
      <trkpt lat="43.22756" lon="2.3541">
        <ele>121.26</ele>
        <time>2015-06-14T06:11:39Z</time>
      </trkpt>
      <trkpt lat="43.22765" lon="2.35455">
        <ele>122.22</ele>
        <time>2015-06-14T06:11:45Z</time>
      </trkpt>
      <trkpt lat="43.22778" lon="2.35582">
        <ele>123.67</ele>
        <time>2015-06-14T06:12:01Z</time>
      </trkpt>
      <trkpt lat="43.22801" lon="2.35727">
        <ele>126.55</ele>
        <time>2015-06-14T06:12:19Z</time>
      </trkpt>
      <trkpt lat="43.2285" lon="2.3582">
        <ele>127.99</ele>
        <time>2015-06-14T06:12:33Z</time>
      </trkpt>
      <trkpt lat="43.22852" lon="2.35827">
        <ele>127.99</ele>
        <time>2015-06-14T06:12:34Z</time>
      </trkpt>
      <trkpt lat="43.22856" lon="2.35855">
        <ele>128.95</ele>
        <time>2015-06-14T06:12:38Z</time>
      </trkpt>
      <trkpt lat="43.22857" lon="2.35862">
        <ele>129.43</ele>
        <time>2015-06-14T06:12:39Z</time>
      </trkpt>
      <trkpt lat="43.22857" lon="2.35869">
        <ele>129.43</ele>
        <time>2015-06-14T06:12:40Z</time>
      </trkpt>
      <trkpt lat="43.22856" lon="2.35875">
        <ele>129.92</ele>
        <time>2015-06-14T06:12:41Z</time>
      </trkpt>
      <trkpt lat="43.22855" lon="2.35882">
        <ele>130.4</ele>
        <time>2015-06-14T06:12:42Z</time>
      </trkpt>
      <trkpt lat="43.22854" lon="2.35889">
        <ele>130.88</ele>
        <time>2015-06-14T06:12:43Z</time>
      </trkpt>
      <trkpt lat="43.22852" lon="2.35895">
        <ele>130.88</ele>
        <time>2015-06-14T06:12:44Z</time>
      </trkpt>
      <trkpt lat="43.2284" lon="2.35948">
        <ele>134.24</ele>
        <time>2015-06-14T06:12:53Z</time>
      </trkpt>
      <trkpt lat="43.22841" lon="2.35954">
        <ele>134.24</ele>
        <time>2015-06-14T06:12:54Z</time>
      </trkpt>
      <trkpt lat="43.22844" lon="2.35959">
        <ele>134.72</ele>
        <time>2015-06-14T06:12:55Z</time>
      </trkpt>
      <trkpt lat="43.22848" lon="2.35963">
        <ele>135.2</ele>
        <time>2015-06-14T06:12:56Z</time>
      </trkpt>
      <trkpt lat="43.22852" lon="2.35966">
        <ele>135.2</ele>
        <time>2015-06-14T06:12:57Z</time>
      </trkpt>
      <trkpt lat="43.22857" lon="2.35968">
        <ele>135.2</ele>
        <time>2015-06-14T06:12:58Z</time>
      </trkpt>
      <trkpt lat="43.22863" lon="2.3597">
        <ele>135.68</ele>
        <time>2015-06-14T06:12:59Z</time>
      </trkpt>
      <trkpt lat="43.22868" lon="2.35973">
        <ele>135.68</ele>
        <time>2015-06-14T06:13:00Z</time>
      </trkpt>
      <trkpt lat="43.22961" lon="2.36019">
        <ele>135.2</ele>
        <time>2015-06-14T06:13:16Z</time>
      </trkpt>
      <trkpt lat="43.2307" lon="2.36078">
        <ele>132.32</ele>
        <time>2015-06-14T06:13:32Z</time>
      </trkpt>
      <trkpt lat="43.23176" lon="2.3615">
        <ele>120.78</ele>
        <time>2015-06-14T06:13:43Z</time>
      </trkpt>
      <trkpt lat="43.2332" lon="2.36238">
        <ele>110.21</ele>
        <time>2015-06-14T06:13:57Z</time>
      </trkpt>
      <trkpt lat="43.2349" lon="2.36318">
        <ele>103.48</ele>
        <time>2015-06-14T06:14:13Z</time>
      </trkpt>
      <trkpt lat="43.23518" lon="2.36334">
        <ele>103</ele>
        <time>2015-06-14T06:14:16Z</time>
      </trkpt>
      <trkpt lat="43.23525" lon="2.36341">
        <ele>103</ele>
        <time>2015-06-14T06:14:17Z</time>
      </trkpt>
      <trkpt lat="43.23532" lon="2.36347">
        <ele>103</ele>
        <time>2015-06-14T06:14:18Z</time>
      </trkpt>
      <trkpt lat="43.23538" lon="2.36356">
        <ele>103</ele>
        <time>2015-06-14T06:14:19Z</time>
      </trkpt>
      <trkpt lat="43.23565" lon="2.36382">
        <ele>103.48</ele>
        <time>2015-06-14T06:14:24Z</time>
      </trkpt>
      <trkpt lat="43.23584" lon="2.36367">
        <ele>103.96</ele>
        <time>2015-06-14T06:14:27Z</time>
      </trkpt>
      <trkpt lat="43.23592" lon="2.36363">
        <ele>103.48</ele>
        <time>2015-06-14T06:14:28Z</time>
      </trkpt>
      <trkpt lat="43.23599" lon="2.36361">
        <ele>103.48</ele>
        <time>2015-06-14T06:14:29Z</time>
      </trkpt>
      <trkpt lat="43.23607" lon="2.3636">
        <ele>103.48</ele>
        <time>2015-06-14T06:14:30Z</time>
      </trkpt>
      <trkpt lat="43.23719" lon="2.36372">
        <ele>103.48</ele>
        <time>2015-06-14T06:14:43Z</time>
      </trkpt>
      <trkpt lat="43.2385" lon="2.36381">
        <ele>105.88</ele>
        <time>2015-06-14T06:15:00Z</time>
      </trkpt>
      <trkpt lat="43.23971" lon="2.36357">
        <ele>109.25</ele>
        <time>2015-06-14T06:15:18Z</time>
      </trkpt>
      <trkpt lat="43.24088" lon="2.36344">
        <ele>110.69</ele>
        <time>2015-06-14T06:15:36Z</time>
      </trkpt>
      <trkpt lat="43.24177" lon="2.36379">
        <ele>109.73</ele>
        <time>2015-06-14T06:15:51Z</time>
      </trkpt>
      <trkpt lat="43.24197" lon="2.36393">
        <ele>109.25</ele>
        <time>2015-06-14T06:15:55Z</time>
      </trkpt>
      <trkpt lat="43.24202" lon="2.36397">
        <ele>109.25</ele>
        <time>2015-06-14T06:15:56Z</time>
      </trkpt>
      <trkpt lat="43.24207" lon="2.36402">
        <ele>109.25</ele>
        <time>2015-06-14T06:15:57Z</time>
      </trkpt>
      <trkpt lat="43.24215" lon="2.36414">
        <ele>107.81</ele>
        <time>2015-06-14T06:15:59Z</time>
      </trkpt>
      <trkpt lat="43.2422" lon="2.36419">
        <ele>107.81</ele>
        <time>2015-06-14T06:16:00Z</time>
      </trkpt>
      <trkpt lat="43.24226" lon="2.36423">
        <ele>107.32</ele>
        <time>2015-06-14T06:16:01Z</time>
      </trkpt>
      <trkpt lat="43.24232" lon="2.36425">
        <ele>107.32</ele>
        <time>2015-06-14T06:16:02Z</time>
      </trkpt>
      <trkpt lat="43.24239" lon="2.36424">
        <ele>107.32</ele>
        <time>2015-06-14T06:16:03Z</time>
      </trkpt>
      <trkpt lat="43.24245" lon="2.36422">
        <ele>107.32</ele>
        <time>2015-06-14T06:16:04Z</time>
      </trkpt>
      <trkpt lat="43.24251" lon="2.3642">
        <ele>107.32</ele>
        <time>2015-06-14T06:16:05Z</time>
      </trkpt>
      <trkpt lat="43.24258" lon="2.36419">
        <ele>107.32</ele>
        <time>2015-06-14T06:16:06Z</time>
      </trkpt>
      <trkpt lat="43.24265" lon="2.36419">
        <ele>107.32</ele>
        <time>2015-06-14T06:16:07Z</time>
      </trkpt>
      <trkpt lat="43.24272" lon="2.3642">
        <ele>106.84</ele>
        <time>2015-06-14T06:16:08Z</time>
      </trkpt>
      <trkpt lat="43.24278" lon="2.36422">
        <ele>106.84</ele>
        <time>2015-06-14T06:16:09Z</time>
      </trkpt>
      <trkpt lat="43.24285" lon="2.36424">
        <ele>106.84</ele>
        <time>2015-06-14T06:16:10Z</time>
      </trkpt>
      <trkpt lat="43.2441" lon="2.36473">
        <ele>108.77</ele>
        <time>2015-06-14T06:16:30Z</time>
      </trkpt>
      <trkpt lat="43.24436" lon="2.36483">
        <ele>109.25</ele>
        <time>2015-06-14T06:16:35Z</time>
      </trkpt>
      <trkpt lat="43.2444" lon="2.36485">
        <ele>109.25</ele>
        <time>2015-06-14T06:16:36Z</time>
      </trkpt>
      <trkpt lat="43.24494" lon="2.36504">
        <ele>111.65</ele>
        <time>2015-06-14T06:16:48Z</time>
      </trkpt>
      <trkpt lat="43.24498" lon="2.36506">
        <ele>112.13</ele>
        <time>2015-06-14T06:16:49Z</time>
      </trkpt>
      <trkpt lat="43.24525" lon="2.36518">
        <ele>112.61</ele>
        <time>2015-06-14T06:16:55Z</time>
      </trkpt>
      <trkpt lat="43.24604" lon="2.36569">
        <ele>114.05</ele>
        <time>2015-06-14T06:17:11Z</time>
      </trkpt>
      <trkpt lat="43.24629" lon="2.36589">
        <ele>114.05</ele>
        <time>2015-06-14T06:17:16Z</time>
      </trkpt>
      <trkpt lat="43.24643" lon="2.36603">
        <ele>114.53</ele>
        <time>2015-06-14T06:17:19Z</time>
      </trkpt>
      <trkpt lat="43.24648" lon="2.36605">
        <ele>114.53</ele>
        <time>2015-06-14T06:17:20Z</time>
      </trkpt>
      <trkpt lat="43.24654" lon="2.36603">
        <ele>115.01</ele>
        <time>2015-06-14T06:17:21Z</time>
      </trkpt>
      <trkpt lat="43.24658" lon="2.36598">
        <ele>115.01</ele>
        <time>2015-06-14T06:17:22Z</time>
      </trkpt>
      <trkpt lat="43.24661" lon="2.36592">
        <ele>115.5</ele>
        <time>2015-06-14T06:17:23Z</time>
      </trkpt>
      <trkpt lat="43.24665" lon="2.36584">
        <ele>115.5</ele>
        <time>2015-06-14T06:17:24Z</time>
      </trkpt>
      <trkpt lat="43.24668" lon="2.36577">
        <ele>115.5</ele>
        <time>2015-06-14T06:17:25Z</time>
      </trkpt>
      <trkpt lat="43.24672" lon="2.3657">
        <ele>115.5</ele>
        <time>2015-06-14T06:17:26Z</time>
      </trkpt>
      <trkpt lat="43.24676" lon="2.36564">
        <ele>115.5</ele>
        <time>2015-06-14T06:17:27Z</time>
      </trkpt>
      <trkpt lat="43.24681" lon="2.36558">
        <ele>115.5</ele>
        <time>2015-06-14T06:17:28Z</time>
      </trkpt>
      <trkpt lat="43.24685" lon="2.36553">
        <ele>115.5</ele>
        <time>2015-06-14T06:17:29Z</time>
      </trkpt>
      <trkpt lat="43.2469" lon="2.36548">
        <ele>115.98</ele>
        <time>2015-06-14T06:17:30Z</time>
      </trkpt>
      <trkpt lat="43.24771" lon="2.36491">
        <ele>117.9</ele>
        <time>2015-06-14T06:17:45Z</time>
      </trkpt>
      <trkpt lat="43.24874" lon="2.36436">
        <ele>119.34</ele>
        <time>2015-06-14T06:18:02Z</time>
      </trkpt>
      <trkpt lat="43.24968" lon="2.36391">
        <ele>119.34</ele>
        <time>2015-06-14T06:18:17Z</time>
      </trkpt>
      <trkpt lat="43.24974" lon="2.36389">
        <ele>119.82</ele>
        <time>2015-06-14T06:18:18Z</time>
      </trkpt>
      <trkpt lat="43.2498" lon="2.36388">
        <ele>119.82</ele>
        <time>2015-06-14T06:18:19Z</time>
      </trkpt>
      <trkpt lat="43.24987" lon="2.36388">
        <ele>119.82</ele>
        <time>2015-06-14T06:18:20Z</time>
      </trkpt>
      <trkpt lat="43.24993" lon="2.36388">
        <ele>119.82</ele>
        <time>2015-06-14T06:18:21Z</time>
      </trkpt>
      <trkpt lat="43.24999" lon="2.3639">
        <ele>119.82</ele>
        <time>2015-06-14T06:18:22Z</time>
      </trkpt>
      <trkpt lat="43.25006" lon="2.36393">
        <ele>119.82</ele>
        <time>2015-06-14T06:18:23Z</time>
      </trkpt>
      <trkpt lat="43.25085" lon="2.36406">
        <ele>120.78</ele>
        <time>2015-06-14T06:18:36Z</time>
      </trkpt>
      <trkpt lat="43.25091" lon="2.36408">
        <ele>120.78</ele>
        <time>2015-06-14T06:18:37Z</time>
      </trkpt>
      <trkpt lat="43.25095" lon="2.36413">
        <ele>121.26</ele>
        <time>2015-06-14T06:18:38Z</time>
      </trkpt>
      <trkpt lat="43.25099" lon="2.3642">
        <ele>121.26</ele>
        <time>2015-06-14T06:18:39Z</time>
      </trkpt>
      <trkpt lat="43.25103" lon="2.36426">
        <ele>121.74</ele>
        <time>2015-06-14T06:18:40Z</time>
      </trkpt>
      <trkpt lat="43.25119" lon="2.36451">
        <ele>121.26</ele>
        <time>2015-06-14T06:18:44Z</time>
      </trkpt>
      <trkpt lat="43.25124" lon="2.36456">
        <ele>121.26</ele>
        <time>2015-06-14T06:18:45Z</time>
      </trkpt>
      <trkpt lat="43.25129" lon="2.3646">
        <ele>121.26</ele>
        <time>2015-06-14T06:18:46Z</time>
      </trkpt>
      <trkpt lat="43.25134" lon="2.36464">
        <ele>120.78</ele>
        <time>2015-06-14T06:18:47Z</time>
      </trkpt>
      <trkpt lat="43.25139" lon="2.36465">
        <ele>120.78</ele>
        <time>2015-06-14T06:18:48Z</time>
      </trkpt>
      <trkpt lat="43.25145" lon="2.36465">
        <ele>120.3</ele>
        <time>2015-06-14T06:18:49Z</time>
      </trkpt>
      <trkpt lat="43.2515" lon="2.36466">
        <ele>119.82</ele>
        <time>2015-06-14T06:18:50Z</time>
      </trkpt>
      <trkpt lat="43.25155" lon="2.36469">
        <ele>119.82</ele>
        <time>2015-06-14T06:18:51Z</time>
      </trkpt>
      <trkpt lat="43.25159" lon="2.36473">
        <ele>119.34</ele>
        <time>2015-06-14T06:18:52Z</time>
      </trkpt>
      <trkpt lat="43.25161" lon="2.36479">
        <ele>118.86</ele>
        <time>2015-06-14T06:18:53Z</time>
      </trkpt>
      <trkpt lat="43.25161" lon="2.36486">
        <ele>118.86</ele>
        <time>2015-06-14T06:18:54Z</time>
      </trkpt>
      <trkpt lat="43.2516" lon="2.36493">
        <ele>118.86</ele>
        <time>2015-06-14T06:18:55Z</time>
      </trkpt>
      <trkpt lat="43.25158" lon="2.365">
        <ele>118.86</ele>
        <time>2015-06-14T06:18:56Z</time>
      </trkpt>
      <trkpt lat="43.25153" lon="2.36529">
        <ele>118.86</ele>
        <time>2015-06-14T06:19:00Z</time>
      </trkpt>
      <trkpt lat="43.25152" lon="2.36537">
        <ele>118.38</ele>
        <time>2015-06-14T06:19:01Z</time>
      </trkpt>
      <trkpt lat="43.25149" lon="2.36566">
        <ele>117.42</ele>
        <time>2015-06-14T06:19:05Z</time>
      </trkpt>
      <trkpt lat="43.25149" lon="2.366">
        <ele>116.46</ele>
        <time>2015-06-14T06:19:10Z</time>
      </trkpt>
      <trkpt lat="43.25149" lon="2.36606">
        <ele>115.98</ele>
        <time>2015-06-14T06:19:11Z</time>
      </trkpt>
      <trkpt lat="43.2515" lon="2.36612">
        <ele>115.5</ele>
        <time>2015-06-14T06:19:12Z</time>
      </trkpt>
      <trkpt lat="43.25151" lon="2.36618">
        <ele>115.5</ele>
        <time>2015-06-14T06:19:13Z</time>
      </trkpt>
      <trkpt lat="43.25152" lon="2.36624">
        <ele>115.01</ele>
        <time>2015-06-14T06:19:14Z</time>
      </trkpt>
      <trkpt lat="43.25156" lon="2.3663">
        <ele>115.01</ele>
        <time>2015-06-14T06:19:15Z</time>
      </trkpt>
      <trkpt lat="43.2516" lon="2.36634">
        <ele>115.01</ele>
        <time>2015-06-14T06:19:16Z</time>
      </trkpt>
      <trkpt lat="43.25164" lon="2.36638">
        <ele>114.53</ele>
        <time>2015-06-14T06:19:17Z</time>
      </trkpt>
      <trkpt lat="43.25173" lon="2.36646">
        <ele>114.53</ele>
        <time>2015-06-14T06:19:19Z</time>
      </trkpt>
      <trkpt lat="43.25178" lon="2.36649">
        <ele>114.53</ele>
        <time>2015-06-14T06:19:20Z</time>
      </trkpt>
      <trkpt lat="43.25183" lon="2.36651">
        <ele>115.01</ele>
        <time>2015-06-14T06:19:21Z</time>
      </trkpt>
      <trkpt lat="43.25188" lon="2.36652">
        <ele>115.01</ele>
        <time>2015-06-14T06:19:22Z</time>
      </trkpt>
      <trkpt lat="43.25194" lon="2.36652">
        <ele>115.5</ele>
        <time>2015-06-14T06:19:23Z</time>
      </trkpt>
      <trkpt lat="43.25205" lon="2.36651">
        <ele>115.98</ele>
        <time>2015-06-14T06:19:25Z</time>
      </trkpt>
      <trkpt lat="43.25279" lon="2.36634">
        <ele>118.86</ele>
        <time>2015-06-14T06:19:38Z</time>
      </trkpt>
      <trkpt lat="43.25284" lon="2.36635">
        <ele>119.34</ele>
        <time>2015-06-14T06:19:39Z</time>
      </trkpt>
      <trkpt lat="43.25289" lon="2.3664">
        <ele>118.38</ele>
        <time>2015-06-14T06:19:40Z</time>
      </trkpt>
      <trkpt lat="43.25291" lon="2.36646">
        <ele>118.38</ele>
        <time>2015-06-14T06:19:41Z</time>
      </trkpt>
      <trkpt lat="43.25293" lon="2.36653">
        <ele>117.9</ele>
        <time>2015-06-14T06:19:42Z</time>
      </trkpt>
      <trkpt lat="43.25294" lon="2.36661">
        <ele>117.42</ele>
        <time>2015-06-14T06:19:43Z</time>
      </trkpt>
      <trkpt lat="43.25326" lon="2.36801">
        <ele>114.05</ele>
        <time>2015-06-14T06:20:00Z</time>
      </trkpt>
      <trkpt lat="43.25367" lon="2.3692">
        <ele>114.05</ele>
        <time>2015-06-14T06:20:14Z</time>
      </trkpt>
      <trkpt lat="43.25434" lon="2.3702">
        <ele>113.57</ele>
        <time>2015-06-14T06:20:29Z</time>
      </trkpt>
      <trkpt lat="43.25498" lon="2.37121">
        <ele>115.5</ele>
        <time>2015-06-14T06:20:44Z</time>
      </trkpt>
      <trkpt lat="43.25574" lon="2.37219">
        <ele>115.98</ele>
        <time>2015-06-14T06:21:00Z</time>
      </trkpt>
      <trkpt lat="43.25668" lon="2.37287">
        <ele>116.94</ele>
        <time>2015-06-14T06:21:16Z</time>
      </trkpt>
      <trkpt lat="43.25723" lon="2.37332">
        <ele>117.42</ele>
        <time>2015-06-14T06:21:26Z</time>
      </trkpt>
      <trkpt lat="43.25738" lon="2.37351">
        <ele>117.9</ele>
        <time>2015-06-14T06:21:29Z</time>
      </trkpt>
      <trkpt lat="43.25784" lon="2.37428">
        <ele>118.38</ele>
        <time>2015-06-14T06:21:40Z</time>
      </trkpt>
      <trkpt lat="43.25787" lon="2.37438">
        <ele>118.38</ele>
        <time>2015-06-14T06:21:41Z</time>
      </trkpt>
      <trkpt lat="43.25788" lon="2.37447">
        <ele>118.38</ele>
        <time>2015-06-14T06:21:42Z</time>
      </trkpt>
      <trkpt lat="43.25789" lon="2.37456">
        <ele>118.38</ele>
        <time>2015-06-14T06:21:43Z</time>
      </trkpt>
      <trkpt lat="43.25788" lon="2.37466">
        <ele>118.86</ele>
        <time>2015-06-14T06:21:44Z</time>
      </trkpt>
      <trkpt lat="43.25787" lon="2.37475">
        <ele>118.86</ele>
        <time>2015-06-14T06:21:45Z</time>
      </trkpt>
      <trkpt lat="43.25785" lon="2.37485">
        <ele>118.86</ele>
        <time>2015-06-14T06:21:46Z</time>
      </trkpt>
      <trkpt lat="43.25782" lon="2.37493">
        <ele>118.86</ele>
        <time>2015-06-14T06:21:47Z</time>
      </trkpt>
      <trkpt lat="43.25761" lon="2.37579">
        <ele>120.3</ele>
        <time>2015-06-14T06:21:58Z</time>
      </trkpt>
      <trkpt lat="43.25761" lon="2.37588">
        <ele>120.3</ele>
        <time>2015-06-14T06:21:59Z</time>
      </trkpt>
      <trkpt lat="43.25761" lon="2.37597">
        <ele>120.3</ele>
        <time>2015-06-14T06:22:00Z</time>
      </trkpt>
      <trkpt lat="43.25763" lon="2.37605">
        <ele>120.3</ele>
        <time>2015-06-14T06:22:01Z</time>
      </trkpt>
      <trkpt lat="43.25766" lon="2.37612">
        <ele>120.78</ele>
        <time>2015-06-14T06:22:02Z</time>
      </trkpt>
      <trkpt lat="43.2577" lon="2.37618">
        <ele>121.26</ele>
        <time>2015-06-14T06:22:03Z</time>
      </trkpt>
      <trkpt lat="43.25774" lon="2.37623">
        <ele>121.74</ele>
        <time>2015-06-14T06:22:04Z</time>
      </trkpt>
      <trkpt lat="43.25779" lon="2.37627">
        <ele>122.22</ele>
        <time>2015-06-14T06:22:05Z</time>
      </trkpt>
      <trkpt lat="43.25784" lon="2.3763">
        <ele>122.71</ele>
        <time>2015-06-14T06:22:06Z</time>
      </trkpt>
      <trkpt lat="43.25789" lon="2.37632">
        <ele>123.19</ele>
        <time>2015-06-14T06:22:07Z</time>
      </trkpt>
      <trkpt lat="43.25845" lon="2.37659">
        <ele>127.03</ele>
        <time>2015-06-14T06:22:19Z</time>
      </trkpt>
      <trkpt lat="43.25849" lon="2.37663">
        <ele>127.03</ele>
        <time>2015-06-14T06:22:20Z</time>
      </trkpt>
      <trkpt lat="43.25857" lon="2.37672">
        <ele>127.99</ele>
        <time>2015-06-14T06:22:22Z</time>
      </trkpt>
      <trkpt lat="43.2586" lon="2.37677">
        <ele>127.99</ele>
        <time>2015-06-14T06:22:23Z</time>
      </trkpt>
      <trkpt lat="43.25862" lon="2.37683">
        <ele>128.47</ele>
        <time>2015-06-14T06:22:24Z</time>
      </trkpt>
      <trkpt lat="43.25878" lon="2.37765">
        <ele>130.4</ele>
        <time>2015-06-14T06:22:36Z</time>
      </trkpt>
      <trkpt lat="43.25883" lon="2.37825">
        <ele>130.4</ele>
        <time>2015-06-14T06:22:44Z</time>
      </trkpt>
      <trkpt lat="43.25882" lon="2.37841">
        <ele>130.88</ele>
        <time>2015-06-14T06:22:46Z</time>
      </trkpt>
      <trkpt lat="43.25883" lon="2.3785">
        <ele>130.88</ele>
        <time>2015-06-14T06:22:47Z</time>
      </trkpt>
      <trkpt lat="43.25888" lon="2.37976">
        <ele>131.36</ele>
        <time>2015-06-14T06:23:02Z</time>
      </trkpt>
      <trkpt lat="43.25891" lon="2.38132">
        <ele>122.22</ele>
        <time>2015-06-14T06:23:16Z</time>
      </trkpt>
      <trkpt lat="43.2591" lon="2.38277">
        <ele>120.3</ele>
        <time>2015-06-14T06:23:30Z</time>
      </trkpt>
      <trkpt lat="43.25966" lon="2.38401">
        <ele>123.67</ele>
        <time>2015-06-14T06:23:47Z</time>
      </trkpt>
      <trkpt lat="43.26022" lon="2.38539">
        <ele>126.07</ele>
        <time>2015-06-14T06:24:05Z</time>
      </trkpt>
      <trkpt lat="43.26045" lon="2.38644">
        <ele>128.95</ele>
        <time>2015-06-14T06:24:18Z</time>
      </trkpt>
      <trkpt lat="43.26075" lon="2.38746">
        <ele>129.43</ele>
        <time>2015-06-14T06:24:31Z</time>
      </trkpt>
      <trkpt lat="43.26134" lon="2.38875">
        <ele>130.88</ele>
        <time>2015-06-14T06:24:48Z</time>
      </trkpt>
      <trkpt lat="43.26188" lon="2.38992">
        <ele>132.8</ele>
        <time>2015-06-14T06:25:04Z</time>
      </trkpt>
      <trkpt lat="43.26265" lon="2.39128">
        <ele>133.76</ele>
        <time>2015-06-14T06:25:23Z</time>
      </trkpt>
      <trkpt lat="43.26322" lon="2.39238">
        <ele>136.16</ele>
        <time>2015-06-14T06:25:38Z</time>
      </trkpt>
      <trkpt lat="43.26325" lon="2.39246">
        <ele>136.16</ele>
        <time>2015-06-14T06:25:39Z</time>
      </trkpt>
      <trkpt lat="43.26328" lon="2.39255">
        <ele>136.16</ele>
        <time>2015-06-14T06:25:40Z</time>
      </trkpt>
      <trkpt lat="43.26329" lon="2.39264">
        <ele>136.16</ele>
        <time>2015-06-14T06:25:41Z</time>
      </trkpt>
      <trkpt lat="43.26331" lon="2.39273">
        <ele>136.16</ele>
        <time>2015-06-14T06:25:42Z</time>
      </trkpt>
      <trkpt lat="43.26331" lon="2.39282">
        <ele>136.16</ele>
        <time>2015-06-14T06:25:43Z</time>
      </trkpt>
      <trkpt lat="43.26331" lon="2.39291">
        <ele>136.16</ele>
        <time>2015-06-14T06:25:44Z</time>
      </trkpt>
      <trkpt lat="43.26331" lon="2.39299">
        <ele>136.16</ele>
        <time>2015-06-14T06:25:45Z</time>
      </trkpt>
      <trkpt lat="43.26327" lon="2.39412">
        <ele>135.2</ele>
        <time>2015-06-14T06:25:57Z</time>
      </trkpt>
      <trkpt lat="43.26346" lon="2.39534">
        <ele>135.68</ele>
        <time>2015-06-14T06:26:10Z</time>
      </trkpt>
      <trkpt lat="43.26358" lon="2.39641">
        <ele>134.72</ele>
        <time>2015-06-14T06:26:23Z</time>
      </trkpt>
      <trkpt lat="43.26364" lon="2.39688">
        <ele>133.28</ele>
        <time>2015-06-14T06:26:33Z</time>
      </trkpt>
      <trkpt lat="43.26366" lon="2.39692">
        <ele>133.28</ele>
        <time>2015-06-14T06:26:34Z</time>
      </trkpt>
      <trkpt lat="43.26369" lon="2.39696">
        <ele>133.28</ele>
        <time>2015-06-14T06:26:35Z</time>
      </trkpt>
      <trkpt lat="43.26373" lon="2.39699">
        <ele>133.28</ele>
        <time>2015-06-14T06:26:36Z</time>
      </trkpt>
      <trkpt lat="43.26376" lon="2.39701">
        <ele>133.28</ele>
        <time>2015-06-14T06:26:37Z</time>
      </trkpt>
      <trkpt lat="43.26381" lon="2.39702">
        <ele>132.8</ele>
        <time>2015-06-14T06:26:38Z</time>
      </trkpt>
      <trkpt lat="43.26385" lon="2.39704">
        <ele>132.8</ele>
        <time>2015-06-14T06:26:39Z</time>
      </trkpt>
      <trkpt lat="43.26441" lon="2.39718">
        <ele>134.72</ele>
        <time>2015-06-14T06:26:50Z</time>
      </trkpt>
      <trkpt lat="43.26519" lon="2.39742">
        <ele>136.16</ele>
        <time>2015-06-14T06:27:03Z</time>
      </trkpt>
      <trkpt lat="43.26627" lon="2.39778">
        <ele>130.4</ele>
        <time>2015-06-14T06:27:16Z</time>
      </trkpt>
      <trkpt lat="43.26733" lon="2.39778">
        <ele>128.95</ele>
        <time>2015-06-14T06:27:28Z</time>
      </trkpt>
      <trkpt lat="43.26821" lon="2.39723">
        <ele>131.84</ele>
        <time>2015-06-14T06:27:41Z</time>
      </trkpt>
      <trkpt lat="43.26922" lon="2.39627">
        <ele>133.28</ele>
        <time>2015-06-14T06:27:58Z</time>
      </trkpt>
      <trkpt lat="43.27019" lon="2.39563">
        <ele>132.32</ele>
        <time>2015-06-14T06:28:13Z</time>
      </trkpt>
      <trkpt lat="43.2711" lon="2.39562">
        <ele>130.4</ele>
        <time>2015-06-14T06:28:25Z</time>
      </trkpt>
      <trkpt lat="43.27247" lon="2.39604">
        <ele>129.92</ele>
        <time>2015-06-14T06:28:44Z</time>
      </trkpt>
      <trkpt lat="43.27339" lon="2.39671">
        <ele>130.4</ele>
        <time>2015-06-14T06:28:58Z</time>
      </trkpt>
      <trkpt lat="43.27397" lon="2.39779">
        <ele>130.88</ele>
        <time>2015-06-14T06:29:11Z</time>
      </trkpt>
      <trkpt lat="43.2747" lon="2.39947">
        <ele>130.88</ele>
        <time>2015-06-14T06:29:30Z</time>
      </trkpt>
      <trkpt lat="43.27552" lon="2.40021">
        <ele>131.36</ele>
        <time>2015-06-14T06:29:43Z</time>
      </trkpt>
      <trkpt lat="43.27659" lon="2.4005">
        <ele>131.36</ele>
        <time>2015-06-14T06:29:58Z</time>
      </trkpt>
      <trkpt lat="43.27788" lon="2.40076">
        <ele>131.36</ele>
        <time>2015-06-14T06:30:17Z</time>
      </trkpt>
      <trkpt lat="43.27933" lon="2.40102">
        <ele>134.24</ele>
        <time>2015-06-14T06:30:39Z</time>
      </trkpt>
      <trkpt lat="43.28082" lon="2.40129">
        <ele>136.16</ele>
        <time>2015-06-14T06:31:01Z</time>
      </trkpt>
      <trkpt lat="43.28178" lon="2.40114">
        <ele>139.53</ele>
        <time>2015-06-14T06:31:15Z</time>
      </trkpt>
      <trkpt lat="43.28257" lon="2.4008">
        <ele>140.97</ele>
        <time>2015-06-14T06:31:27Z</time>
      </trkpt>
      <trkpt lat="43.28338" lon="2.4009">
        <ele>141.93</ele>
        <time>2015-06-14T06:31:40Z</time>
      </trkpt>
      <trkpt lat="43.28431" lon="2.40109">
        <ele>142.41</ele>
        <time>2015-06-14T06:31:55Z</time>
      </trkpt>
      <trkpt lat="43.28532" lon="2.40136">
        <ele>142.89</ele>
        <time>2015-06-14T06:32:11Z</time>
      </trkpt>
      <trkpt lat="43.28572" lon="2.4015">
        <ele>144.34</ele>
        <time>2015-06-14T06:32:18Z</time>
      </trkpt>
      <trkpt lat="43.28579" lon="2.40151">
        <ele>144.82</ele>
        <time>2015-06-14T06:32:19Z</time>
      </trkpt>
      <trkpt lat="43.28586" lon="2.4015">
        <ele>145.3</ele>
        <time>2015-06-14T06:32:20Z</time>
      </trkpt>
      <trkpt lat="43.28593" lon="2.40147">
        <ele>146.26</ele>
        <time>2015-06-14T06:32:21Z</time>
      </trkpt>
      <trkpt lat="43.28599" lon="2.40143">
        <ele>146.74</ele>
        <time>2015-06-14T06:32:22Z</time>
      </trkpt>
      <trkpt lat="43.28605" lon="2.40138">
        <ele>147.7</ele>
        <time>2015-06-14T06:32:23Z</time>
      </trkpt>
      <trkpt lat="43.2861" lon="2.40132">
        <ele>148.18</ele>
        <time>2015-06-14T06:32:24Z</time>
      </trkpt>
      <trkpt lat="43.28614" lon="2.40124">
        <ele>148.18</ele>
        <time>2015-06-14T06:32:25Z</time>
      </trkpt>
      <trkpt lat="43.28618" lon="2.40116">
        <ele>148.66</ele>
        <time>2015-06-14T06:32:26Z</time>
      </trkpt>
      <trkpt lat="43.28621" lon="2.40108">
        <ele>149.14</ele>
        <time>2015-06-14T06:32:27Z</time>
      </trkpt>
      <trkpt lat="43.28624" lon="2.401">
        <ele>149.62</ele>
        <time>2015-06-14T06:32:28Z</time>
      </trkpt>
      <trkpt lat="43.28641" lon="2.4005">
        <ele>151.54</ele>
        <time>2015-06-14T06:32:34Z</time>
      </trkpt>
      <trkpt lat="43.28662" lon="2.40014">
        <ele>152.99</ele>
        <time>2015-06-14T06:32:39Z</time>
      </trkpt>
      <trkpt lat="43.28668" lon="2.40008">
        <ele>153.47</ele>
        <time>2015-06-14T06:32:40Z</time>
      </trkpt>
      <trkpt lat="43.28673" lon="2.40003">
        <ele>153.47</ele>
        <time>2015-06-14T06:32:41Z</time>
      </trkpt>
      <trkpt lat="43.28679" lon="2.39999">
        <ele>153.95</ele>
        <time>2015-06-14T06:32:42Z</time>
      </trkpt>
      <trkpt lat="43.28686" lon="2.39995">
        <ele>153.95</ele>
        <time>2015-06-14T06:32:43Z</time>
      </trkpt>
      <trkpt lat="43.28693" lon="2.39992">
        <ele>154.43</ele>
        <time>2015-06-14T06:32:44Z</time>
      </trkpt>
      <trkpt lat="43.28771" lon="2.3998">
        <ele>158.27</ele>
        <time>2015-06-14T06:32:55Z</time>
      </trkpt>
      <trkpt lat="43.28878" lon="2.39975">
        <ele>161.64</ele>
        <time>2015-06-14T06:33:10Z</time>
      </trkpt>
      <trkpt lat="43.28935" lon="2.39971">
        <ele>163.56</ele>
        <time>2015-06-14T06:33:18Z</time>
      </trkpt>
      <trkpt lat="43.28942" lon="2.39973">
        <ele>163.08</ele>
        <time>2015-06-14T06:33:19Z</time>
      </trkpt>
      <trkpt lat="43.28949" lon="2.39976">
        <ele>163.08</ele>
        <time>2015-06-14T06:33:20Z</time>
      </trkpt>
      <trkpt lat="43.29037" lon="2.40051">
        <ele>163.08</ele>
        <time>2015-06-14T06:33:34Z</time>
      </trkpt>
      <trkpt lat="43.29119" lon="2.40146">
        <ele>162.6</ele>
        <time>2015-06-14T06:33:49Z</time>
      </trkpt>
      <trkpt lat="43.29231" lon="2.40222">
        <ele>161.64</ele>
        <time>2015-06-14T06:34:07Z</time>
      </trkpt>
      <trkpt lat="43.29318" lon="2.40233">
        <ele>162.6</ele>
        <time>2015-06-14T06:34:19Z</time>
      </trkpt>
      <trkpt lat="43.29419" lon="2.40185">
        <ele>163.56</ele>
        <time>2015-06-14T06:34:33Z</time>
      </trkpt>
      <trkpt lat="43.29467" lon="2.40167">
        <ele>165</ele>
        <time>2015-06-14T06:34:39Z</time>
      </trkpt>
      <trkpt lat="43.29476" lon="2.40166">
        <ele>165</ele>
        <time>2015-06-14T06:34:40Z</time>
      </trkpt>
      <trkpt lat="43.29485" lon="2.40166">
        <ele>165</ele>
        <time>2015-06-14T06:34:41Z</time>
      </trkpt>
      <trkpt lat="43.29494" lon="2.40168">
        <ele>165.48</ele>
        <time>2015-06-14T06:34:42Z</time>
      </trkpt>
      <trkpt lat="43.29502" lon="2.4017">
        <ele>165.48</ele>
        <time>2015-06-14T06:34:43Z</time>
      </trkpt>
      <trkpt lat="43.29511" lon="2.40171">
        <ele>165.96</ele>
        <time>2015-06-14T06:34:44Z</time>
      </trkpt>
      <trkpt lat="43.29519" lon="2.40171">
        <ele>165.96</ele>
        <time>2015-06-14T06:34:45Z</time>
      </trkpt>
      <trkpt lat="43.29528" lon="2.40169">
        <ele>166.45</ele>
        <time>2015-06-14T06:34:46Z</time>
      </trkpt>
      <trkpt lat="43.29536" lon="2.40166">
        <ele>166.45</ele>
        <time>2015-06-14T06:34:47Z</time>
      </trkpt>
      <trkpt lat="43.29544" lon="2.40162">
        <ele>166.93</ele>
        <time>2015-06-14T06:34:48Z</time>
      </trkpt>
      <trkpt lat="43.29552" lon="2.40155">
        <ele>167.41</ele>
        <time>2015-06-14T06:34:49Z</time>
      </trkpt>
      <trkpt lat="43.29558" lon="2.40148">
        <ele>167.41</ele>
        <time>2015-06-14T06:34:50Z</time>
      </trkpt>
      <trkpt lat="43.29564" lon="2.40139">
        <ele>167.41</ele>
        <time>2015-06-14T06:34:51Z</time>
      </trkpt>
      <trkpt lat="43.29569" lon="2.4013">
        <ele>167.89</ele>
        <time>2015-06-14T06:34:52Z</time>
      </trkpt>
      <trkpt lat="43.29575" lon="2.40121">
        <ele>167.89</ele>
        <time>2015-06-14T06:34:53Z</time>
      </trkpt>
      <trkpt lat="43.2958" lon="2.40111">
        <ele>167.89</ele>
        <time>2015-06-14T06:34:54Z</time>
      </trkpt>
      <trkpt lat="43.29586" lon="2.40103">
        <ele>167.89</ele>
        <time>2015-06-14T06:34:55Z</time>
      </trkpt>
      <trkpt lat="43.29593" lon="2.40096">
        <ele>168.37</ele>
        <time>2015-06-14T06:34:56Z</time>
      </trkpt>
      <trkpt lat="43.296" lon="2.4009">
        <ele>168.37</ele>
        <time>2015-06-14T06:34:57Z</time>
      </trkpt>
      <trkpt lat="43.29608" lon="2.40084">
        <ele>168.37</ele>
        <time>2015-06-14T06:34:58Z</time>
      </trkpt>
      <trkpt lat="43.29651" lon="2.40048">
        <ele>170.29</ele>
        <time>2015-06-14T06:35:04Z</time>
      </trkpt>
      <trkpt lat="43.29658" lon="2.40041">
        <ele>170.29</ele>
        <time>2015-06-14T06:35:05Z</time>
      </trkpt>
      <trkpt lat="43.2967" lon="2.40023">
        <ele>170.29</ele>
        <time>2015-06-14T06:35:07Z</time>
      </trkpt>
      <trkpt lat="43.29676" lon="2.40014">
        <ele>170.29</ele>
        <time>2015-06-14T06:35:08Z</time>
      </trkpt>
      <trkpt lat="43.29741" lon="2.39875">
        <ele>169.33</ele>
        <time>2015-06-14T06:35:21Z</time>
      </trkpt>
      <trkpt lat="43.29759" lon="2.39843">
        <ele>168.85</ele>
        <time>2015-06-14T06:35:24Z</time>
      </trkpt>
      <trkpt lat="43.29805" lon="2.3978">
        <ele>169.33</ele>
        <time>2015-06-14T06:35:31Z</time>
      </trkpt>
      <trkpt lat="43.2981" lon="2.39771">
        <ele>169.33</ele>
        <time>2015-06-14T06:35:32Z</time>
      </trkpt>
      <trkpt lat="43.29883" lon="2.3963">
        <ele>169.33</ele>
        <time>2015-06-14T06:35:48Z</time>
      </trkpt>
      <trkpt lat="43.29959" lon="2.39571">
        <ele>168.85</ele>
        <time>2015-06-14T06:35:59Z</time>
      </trkpt>
      <trkpt lat="43.3008" lon="2.39504">
        <ele>169.81</ele>
        <time>2015-06-14T06:36:15Z</time>
      </trkpt>
      <trkpt lat="43.3017" lon="2.39459">
        <ele>173.17</ele>
        <time>2015-06-14T06:36:27Z</time>
      </trkpt>
      <trkpt lat="43.30264" lon="2.39443">
        <ele>173.66</ele>
        <time>2015-06-14T06:36:40Z</time>
      </trkpt>
      <trkpt lat="43.30354" lon="2.39418">
        <ele>176.54</ele>
        <time>2015-06-14T06:36:54Z</time>
      </trkpt>
      <trkpt lat="43.30461" lon="2.39376">
        <ele>177.98</ele>
        <time>2015-06-14T06:37:12Z</time>
      </trkpt>
      <trkpt lat="43.3056" lon="2.39363">
        <ele>174.62</ele>
        <time>2015-06-14T06:37:27Z</time>
      </trkpt>
      <trkpt lat="43.30579" lon="2.39356">
        <ele>174.62</ele>
        <time>2015-06-14T06:37:30Z</time>
      </trkpt>
      <trkpt lat="43.30668" lon="2.39289">
        <ele>171.73</ele>
        <time>2015-06-14T06:37:45Z</time>
      </trkpt>
      <trkpt lat="43.30741" lon="2.39239">
        <ele>171.25</ele>
        <time>2015-06-14T06:37:57Z</time>
      </trkpt>
      <trkpt lat="43.30748" lon="2.39236">
        <ele>171.25</ele>
        <time>2015-06-14T06:37:58Z</time>
      </trkpt>
      <trkpt lat="43.30755" lon="2.39235">
        <ele>171.25</ele>
        <time>2015-06-14T06:37:59Z</time>
      </trkpt>
      <trkpt lat="43.30762" lon="2.39235">
        <ele>171.73</ele>
        <time>2015-06-14T06:38:00Z</time>
      </trkpt>
      <trkpt lat="43.3077" lon="2.39236">
        <ele>171.73</ele>
        <time>2015-06-14T06:38:01Z</time>
      </trkpt>
      <trkpt lat="43.30776" lon="2.39238">
        <ele>171.73</ele>
        <time>2015-06-14T06:38:02Z</time>
      </trkpt>
      <trkpt lat="43.30783" lon="2.3924">
        <ele>171.25</ele>
        <time>2015-06-14T06:38:03Z</time>
      </trkpt>
      <trkpt lat="43.30871" lon="2.39264">
        <ele>173.66</ele>
        <time>2015-06-14T06:38:16Z</time>
      </trkpt>
      <trkpt lat="43.30942" lon="2.39262">
        <ele>173.17</ele>
        <time>2015-06-14T06:38:26Z</time>
      </trkpt>
      <trkpt lat="43.31005" lon="2.39284">
        <ele>170.77</ele>
        <time>2015-06-14T06:38:36Z</time>
      </trkpt>
      <trkpt lat="43.3105" lon="2.39322">
        <ele>169.33</ele>
        <time>2015-06-14T06:38:44Z</time>
      </trkpt>
      <trkpt lat="43.31136" lon="2.39361">
        <ele>171.25</ele>
        <time>2015-06-14T06:38:58Z</time>
      </trkpt>
      <trkpt lat="43.31174" lon="2.39385">
        <ele>173.17</ele>
        <time>2015-06-14T06:39:05Z</time>
      </trkpt>
      <trkpt lat="43.31192" lon="2.39393">
        <ele>173.66</ele>
        <time>2015-06-14T06:39:08Z</time>
      </trkpt>
      <trkpt lat="43.31198" lon="2.39394">
        <ele>173.66</ele>
        <time>2015-06-14T06:39:09Z</time>
      </trkpt>
      <trkpt lat="43.31211" lon="2.39397">
        <ele>173.66</ele>
        <time>2015-06-14T06:39:11Z</time>
      </trkpt>
      <trkpt lat="43.31312" lon="2.39399">
        <ele>177.02</ele>
        <time>2015-06-14T06:39:26Z</time>
      </trkpt>
      <trkpt lat="43.31318" lon="2.39396">
        <ele>177.02</ele>
        <time>2015-06-14T06:39:27Z</time>
      </trkpt>
      <trkpt lat="43.31324" lon="2.39392">
        <ele>177.5</ele>
        <time>2015-06-14T06:39:28Z</time>
      </trkpt>
      <trkpt lat="43.31329" lon="2.39387">
        <ele>177.5</ele>
        <time>2015-06-14T06:39:29Z</time>
      </trkpt>
      <trkpt lat="43.31334" lon="2.39381">
        <ele>177.5</ele>
        <time>2015-06-14T06:39:30Z</time>
      </trkpt>
      <trkpt lat="43.31339" lon="2.39374">
        <ele>177.5</ele>
        <time>2015-06-14T06:39:31Z</time>
      </trkpt>
      <trkpt lat="43.31343" lon="2.39367">
        <ele>177.5</ele>
        <time>2015-06-14T06:39:32Z</time>
      </trkpt>
      <trkpt lat="43.31346" lon="2.3936">
        <ele>177.5</ele>
        <time>2015-06-14T06:39:33Z</time>
      </trkpt>
      <trkpt lat="43.31358" lon="2.39337">
        <ele>177.98</ele>
        <time>2015-06-14T06:39:36Z</time>
      </trkpt>
      <trkpt lat="43.31421" lon="2.39251">
        <ele>178.94</ele>
        <time>2015-06-14T06:39:49Z</time>
      </trkpt>
      <trkpt lat="43.31509" lon="2.39191">
        <ele>182.31</ele>
        <time>2015-06-14T06:40:03Z</time>
      </trkpt>
      <trkpt lat="43.3159" lon="2.39111">
        <ele>182.79</ele>
        <time>2015-06-14T06:40:17Z</time>
      </trkpt>
      <trkpt lat="43.31639" lon="2.39056">
        <ele>184.71</ele>
        <time>2015-06-14T06:40:26Z</time>
      </trkpt>
      <trkpt lat="43.31642" lon="2.39048">
        <ele>184.71</ele>
        <time>2015-06-14T06:40:27Z</time>
      </trkpt>
      <trkpt lat="43.31684" lon="2.38923">
        <ele>186.63</ele>
        <time>2015-06-14T06:40:41Z</time>
      </trkpt>
      <trkpt lat="43.31737" lon="2.38836">
        <ele>186.15</ele>
        <time>2015-06-14T06:40:53Z</time>
      </trkpt>
      <trkpt lat="43.31819" lon="2.38753">
        <ele>187.11</ele>
        <time>2015-06-14T06:41:08Z</time>
      </trkpt>
      <trkpt lat="43.31903" lon="2.3869">
        <ele>186.15</ele>
        <time>2015-06-14T06:41:22Z</time>
      </trkpt>
      <trkpt lat="43.32014" lon="2.38635">
        <ele>189.04</ele>
        <time>2015-06-14T06:41:40Z</time>
      </trkpt>
      <trkpt lat="43.32027" lon="2.3863">
        <ele>189.52</ele>
        <time>2015-06-14T06:41:42Z</time>
      </trkpt>
      <trkpt lat="43.32059" lon="2.38623">
        <ele>191.44</ele>
        <time>2015-06-14T06:41:47Z</time>
      </trkpt>
      <trkpt lat="43.32072" lon="2.38623">
        <ele>191.92</ele>
        <time>2015-06-14T06:41:49Z</time>
      </trkpt>
      <trkpt lat="43.32105" lon="2.38626">
        <ele>193.36</ele>
        <time>2015-06-14T06:41:54Z</time>
      </trkpt>
      <trkpt lat="43.32112" lon="2.38625">
        <ele>193.36</ele>
        <time>2015-06-14T06:41:55Z</time>
      </trkpt>
      <trkpt lat="43.3217" lon="2.38603">
        <ele>194.8</ele>
        <time>2015-06-14T06:42:04Z</time>
      </trkpt>
      <trkpt lat="43.32177" lon="2.38603">
        <ele>194.8</ele>
        <time>2015-06-14T06:42:05Z</time>
      </trkpt>
      <trkpt lat="43.32212" lon="2.38608">
        <ele>195.77</ele>
        <time>2015-06-14T06:42:10Z</time>
      </trkpt>
      <trkpt lat="43.32218" lon="2.38607">
        <ele>195.77</ele>
        <time>2015-06-14T06:42:11Z</time>
      </trkpt>
      <trkpt lat="43.32225" lon="2.38606">
        <ele>196.25</ele>
        <time>2015-06-14T06:42:12Z</time>
      </trkpt>
      <trkpt lat="43.32287" lon="2.38602">
        <ele>195.77</ele>
        <time>2015-06-14T06:42:21Z</time>
      </trkpt>
      <trkpt lat="43.32364" lon="2.38607">
        <ele>198.17</ele>
        <time>2015-06-14T06:42:32Z</time>
      </trkpt>
      <trkpt lat="43.3237" lon="2.38604">
        <ele>198.65</ele>
        <time>2015-06-14T06:42:33Z</time>
      </trkpt>
      <trkpt lat="43.32467" lon="2.38554">
        <ele>197.69</ele>
        <time>2015-06-14T06:42:48Z</time>
      </trkpt>
      <trkpt lat="43.32527" lon="2.38475">
        <ele>197.21</ele>
        <time>2015-06-14T06:43:00Z</time>
      </trkpt>
      <trkpt lat="43.32593" lon="2.38376">
        <ele>196.25</ele>
        <time>2015-06-14T06:43:14Z</time>
      </trkpt>
      <trkpt lat="43.32599" lon="2.3837">
        <ele>196.25</ele>
        <time>2015-06-14T06:43:15Z</time>
      </trkpt>
      <trkpt lat="43.32605" lon="2.38366">
        <ele>196.25</ele>
        <time>2015-06-14T06:43:16Z</time>
      </trkpt>
      <trkpt lat="43.3267" lon="2.38308">
        <ele>195.77</ele>
        <time>2015-06-14T06:43:27Z</time>
      </trkpt>
      <trkpt lat="43.3269" lon="2.38281">
        <ele>195.77</ele>
        <time>2015-06-14T06:43:31Z</time>
      </trkpt>
      <trkpt lat="43.32697" lon="2.38277">
        <ele>196.25</ele>
        <time>2015-06-14T06:43:32Z</time>
      </trkpt>
      <trkpt lat="43.32703" lon="2.38274">
        <ele>196.25</ele>
        <time>2015-06-14T06:43:33Z</time>
      </trkpt>
      <trkpt lat="43.3271" lon="2.38272">
        <ele>196.25</ele>
        <time>2015-06-14T06:43:34Z</time>
      </trkpt>
      <trkpt lat="43.32717" lon="2.38273">
        <ele>196.25</ele>
        <time>2015-06-14T06:43:35Z</time>
      </trkpt>
      <trkpt lat="43.32725" lon="2.38274">
        <ele>196.25</ele>
        <time>2015-06-14T06:43:36Z</time>
      </trkpt>
      <trkpt lat="43.32732" lon="2.38276">
        <ele>196.25</ele>
        <time>2015-06-14T06:43:37Z</time>
      </trkpt>
      <trkpt lat="43.32739" lon="2.38279">
        <ele>195.77</ele>
        <time>2015-06-14T06:43:38Z</time>
      </trkpt>
      <trkpt lat="43.32745" lon="2.38283">
        <ele>195.77</ele>
        <time>2015-06-14T06:43:39Z</time>
      </trkpt>
      <trkpt lat="43.32752" lon="2.38289">
        <ele>195.77</ele>
        <time>2015-06-14T06:43:40Z</time>
      </trkpt>
      <trkpt lat="43.32756" lon="2.38297">
        <ele>195.28</ele>
        <time>2015-06-14T06:43:41Z</time>
      </trkpt>
      <trkpt lat="43.3276" lon="2.38306">
        <ele>195.28</ele>
        <time>2015-06-14T06:43:42Z</time>
      </trkpt>
      <trkpt lat="43.32763" lon="2.38315">
        <ele>195.28</ele>
        <time>2015-06-14T06:43:43Z</time>
      </trkpt>
      <trkpt lat="43.32765" lon="2.38325">
        <ele>194.8</ele>
        <time>2015-06-14T06:43:44Z</time>
      </trkpt>
      <trkpt lat="43.32768" lon="2.38334">
        <ele>194.8</ele>
        <time>2015-06-14T06:43:45Z</time>
      </trkpt>
      <trkpt lat="43.32772" lon="2.38342">
        <ele>194.8</ele>
        <time>2015-06-14T06:43:46Z</time>
      </trkpt>
      <trkpt lat="43.32777" lon="2.38348">
        <ele>194.8</ele>
        <time>2015-06-14T06:43:47Z</time>
      </trkpt>
      <trkpt lat="43.32784" lon="2.38351">
        <ele>194.8</ele>
        <time>2015-06-14T06:43:48Z</time>
      </trkpt>
      <trkpt lat="43.3279" lon="2.3835">
        <ele>194.8</ele>
        <time>2015-06-14T06:43:49Z</time>
      </trkpt>
      <trkpt lat="43.32797" lon="2.38346">
        <ele>195.28</ele>
        <time>2015-06-14T06:43:50Z</time>
      </trkpt>
      <trkpt lat="43.32804" lon="2.38341">
        <ele>195.77</ele>
        <time>2015-06-14T06:43:51Z</time>
      </trkpt>
      <trkpt lat="43.3281" lon="2.38337">
        <ele>195.77</ele>
        <time>2015-06-14T06:43:52Z</time>
      </trkpt>
      <trkpt lat="43.32817" lon="2.38333">
        <ele>196.25</ele>
        <time>2015-06-14T06:43:53Z</time>
      </trkpt>
      <trkpt lat="43.32824" lon="2.3833">
        <ele>196.25</ele>
        <time>2015-06-14T06:43:54Z</time>
      </trkpt>
      <trkpt lat="43.32832" lon="2.38329">
        <ele>196.25</ele>
        <time>2015-06-14T06:43:55Z</time>
      </trkpt>
      <trkpt lat="43.32839" lon="2.38327">
        <ele>196.73</ele>
        <time>2015-06-14T06:43:56Z</time>
      </trkpt>
      <trkpt lat="43.32846" lon="2.38327">
        <ele>196.73</ele>
        <time>2015-06-14T06:43:57Z</time>
      </trkpt>
      <trkpt lat="43.3286" lon="2.38324">
        <ele>196.73</ele>
        <time>2015-06-14T06:43:59Z</time>
      </trkpt>
      <trkpt lat="43.32908" lon="2.38304">
        <ele>198.65</ele>
        <time>2015-06-14T06:44:06Z</time>
      </trkpt>
      <trkpt lat="43.32915" lon="2.38302">
        <ele>198.65</ele>
        <time>2015-06-14T06:44:07Z</time>
      </trkpt>
      <trkpt lat="43.32922" lon="2.38302">
        <ele>199.13</ele>
        <time>2015-06-14T06:44:08Z</time>
      </trkpt>
      <trkpt lat="43.32929" lon="2.38302">
        <ele>199.61</ele>
        <time>2015-06-14T06:44:09Z</time>
      </trkpt>
      <trkpt lat="43.32936" lon="2.38305">
        <ele>199.61</ele>
        <time>2015-06-14T06:44:10Z</time>
      </trkpt>
      <trkpt lat="43.32943" lon="2.38308">
        <ele>200.09</ele>
        <time>2015-06-14T06:44:11Z</time>
      </trkpt>
      <trkpt lat="43.32997" lon="2.38352">
        <ele>201.05</ele>
        <time>2015-06-14T06:44:20Z</time>
      </trkpt>
      <trkpt lat="43.33003" lon="2.38356">
        <ele>201.05</ele>
        <time>2015-06-14T06:44:21Z</time>
      </trkpt>
      <trkpt lat="43.33009" lon="2.38359">
        <ele>201.53</ele>
        <time>2015-06-14T06:44:22Z</time>
      </trkpt>
      <trkpt lat="43.33016" lon="2.38361">
        <ele>201.53</ele>
        <time>2015-06-14T06:44:23Z</time>
      </trkpt>
      <trkpt lat="43.33023" lon="2.38362">
        <ele>202.01</ele>
        <time>2015-06-14T06:44:24Z</time>
      </trkpt>
      <trkpt lat="43.33029" lon="2.38361">
        <ele>202.49</ele>
        <time>2015-06-14T06:44:25Z</time>
      </trkpt>
      <trkpt lat="43.33035" lon="2.38358">
        <ele>202.98</ele>
        <time>2015-06-14T06:44:26Z</time>
      </trkpt>
      <trkpt lat="43.33041" lon="2.38355">
        <ele>203.46</ele>
        <time>2015-06-14T06:44:27Z</time>
      </trkpt>
      <trkpt lat="43.33047" lon="2.3835">
        <ele>203.46</ele>
        <time>2015-06-14T06:44:28Z</time>
      </trkpt>
      <trkpt lat="43.33052" lon="2.38344">
        <ele>203.94</ele>
        <time>2015-06-14T06:44:29Z</time>
      </trkpt>
      <trkpt lat="43.33057" lon="2.38338">
        <ele>204.42</ele>
        <time>2015-06-14T06:44:30Z</time>
      </trkpt>
      <trkpt lat="43.33062" lon="2.38331">
        <ele>204.9</ele>
        <time>2015-06-14T06:44:31Z</time>
      </trkpt>
      <trkpt lat="43.33066" lon="2.38324">
        <ele>205.38</ele>
        <time>2015-06-14T06:44:32Z</time>
      </trkpt>
      <trkpt lat="43.3307" lon="2.38316">
        <ele>205.86</ele>
        <time>2015-06-14T06:44:33Z</time>
      </trkpt>
      <trkpt lat="43.33075" lon="2.38309">
        <ele>206.34</ele>
        <time>2015-06-14T06:44:34Z</time>
      </trkpt>
      <trkpt lat="43.3308" lon="2.38303">
        <ele>206.82</ele>
        <time>2015-06-14T06:44:35Z</time>
      </trkpt>
      <trkpt lat="43.33105" lon="2.38269">
        <ele>207.78</ele>
        <time>2015-06-14T06:44:40Z</time>
      </trkpt>
      <trkpt lat="43.3313" lon="2.38237">
        <ele>206.82</ele>
        <time>2015-06-14T06:44:45Z</time>
      </trkpt>
      <trkpt lat="43.33136" lon="2.38232">
        <ele>206.82</ele>
        <time>2015-06-14T06:44:46Z</time>
      </trkpt>
      <trkpt lat="43.33158" lon="2.38218">
        <ele>206.82</ele>
        <time>2015-06-14T06:44:50Z</time>
      </trkpt>
      <trkpt lat="43.33174" lon="2.38206">
        <ele>206.82</ele>
        <time>2015-06-14T06:44:53Z</time>
      </trkpt>
      <trkpt lat="43.33179" lon="2.382">
        <ele>206.82</ele>
        <time>2015-06-14T06:44:54Z</time>
      </trkpt>
      <trkpt lat="43.33183" lon="2.38194">
        <ele>206.82</ele>
        <time>2015-06-14T06:44:55Z</time>
      </trkpt>
      <trkpt lat="43.33188" lon="2.38188">
        <ele>206.82</ele>
        <time>2015-06-14T06:44:56Z</time>
      </trkpt>
      <trkpt lat="43.33193" lon="2.38182">
        <ele>206.82</ele>
        <time>2015-06-14T06:44:57Z</time>
      </trkpt>
      <trkpt lat="43.33202" lon="2.38168">
        <ele>206.82</ele>
        <time>2015-06-14T06:44:59Z</time>
      </trkpt>
      <trkpt lat="43.33206" lon="2.38161">
        <ele>206.82</ele>
        <time>2015-06-14T06:45:00Z</time>
      </trkpt>
      <trkpt lat="43.3321" lon="2.38154">
        <ele>206.34</ele>
        <time>2015-06-14T06:45:01Z</time>
      </trkpt>
      <trkpt lat="43.33213" lon="2.38146">
        <ele>206.34</ele>
        <time>2015-06-14T06:45:02Z</time>
      </trkpt>
      <trkpt lat="43.33215" lon="2.38138">
        <ele>206.34</ele>
        <time>2015-06-14T06:45:03Z</time>
      </trkpt>
      <trkpt lat="43.33218" lon="2.38131">
        <ele>206.34</ele>
        <time>2015-06-14T06:45:04Z</time>
      </trkpt>
      <trkpt lat="43.33222" lon="2.38124">
        <ele>206.34</ele>
        <time>2015-06-14T06:45:05Z</time>
      </trkpt>
      <trkpt lat="43.33227" lon="2.38117">
        <ele>206.34</ele>
        <time>2015-06-14T06:45:06Z</time>
      </trkpt>
      <trkpt lat="43.33232" lon="2.38113">
        <ele>206.34</ele>
        <time>2015-06-14T06:45:07Z</time>
      </trkpt>
      <trkpt lat="43.33238" lon="2.38109">
        <ele>206.34</ele>
        <time>2015-06-14T06:45:08Z</time>
      </trkpt>
      <trkpt lat="43.33244" lon="2.38107">
        <ele>206.82</ele>
        <time>2015-06-14T06:45:09Z</time>
      </trkpt>
      <trkpt lat="43.3325" lon="2.38104">
        <ele>206.82</ele>
        <time>2015-06-14T06:45:10Z</time>
      </trkpt>
      <trkpt lat="43.33257" lon="2.38102">
        <ele>207.3</ele>
        <time>2015-06-14T06:45:11Z</time>
      </trkpt>
      <trkpt lat="43.33277" lon="2.38099">
        <ele>207.78</ele>
        <time>2015-06-14T06:45:14Z</time>
      </trkpt>
      <trkpt lat="43.33284" lon="2.38099">
        <ele>208.26</ele>
        <time>2015-06-14T06:45:15Z</time>
      </trkpt>
      <trkpt lat="43.33291" lon="2.38101">
        <ele>208.26</ele>
        <time>2015-06-14T06:45:16Z</time>
      </trkpt>
      <trkpt lat="43.33298" lon="2.38104">
        <ele>207.78</ele>
        <time>2015-06-14T06:45:17Z</time>
      </trkpt>
      <trkpt lat="43.33304" lon="2.38108">
        <ele>207.78</ele>
        <time>2015-06-14T06:45:18Z</time>
      </trkpt>
      <trkpt lat="43.3331" lon="2.38112">
        <ele>207.78</ele>
        <time>2015-06-14T06:45:19Z</time>
      </trkpt>
      <trkpt lat="43.33317" lon="2.38116">
        <ele>207.78</ele>
        <time>2015-06-14T06:45:20Z</time>
      </trkpt>
      <trkpt lat="43.33323" lon="2.3812">
        <ele>207.78</ele>
        <time>2015-06-14T06:45:21Z</time>
      </trkpt>
      <trkpt lat="43.33343" lon="2.38128">
        <ele>208.26</ele>
        <time>2015-06-14T06:45:24Z</time>
      </trkpt>
      <trkpt lat="43.33349" lon="2.38129">
        <ele>208.74</ele>
        <time>2015-06-14T06:45:25Z</time>
      </trkpt>
      <trkpt lat="43.33354" lon="2.38125">
        <ele>208.74</ele>
        <time>2015-06-14T06:45:26Z</time>
      </trkpt>
      <trkpt lat="43.33358" lon="2.38117">
        <ele>208.74</ele>
        <time>2015-06-14T06:45:27Z</time>
      </trkpt>
      <trkpt lat="43.3336" lon="2.38107">
        <ele>208.74</ele>
        <time>2015-06-14T06:45:28Z</time>
      </trkpt>
      <trkpt lat="43.33362" lon="2.38097">
        <ele>208.74</ele>
        <time>2015-06-14T06:45:29Z</time>
      </trkpt>
      <trkpt lat="43.33365" lon="2.38078">
        <ele>208.74</ele>
        <time>2015-06-14T06:45:31Z</time>
      </trkpt>
      <trkpt lat="43.33365" lon="2.38069">
        <ele>208.26</ele>
        <time>2015-06-14T06:45:32Z</time>
      </trkpt>
      <trkpt lat="43.33366" lon="2.38016">
        <ele>207.78</ele>
        <time>2015-06-14T06:45:38Z</time>
      </trkpt>
      <trkpt lat="43.33372" lon="2.37882">
        <ele>205.86</ele>
        <time>2015-06-14T06:45:55Z</time>
      </trkpt>
      <trkpt lat="43.33375" lon="2.37853">
        <ele>206.34</ele>
        <time>2015-06-14T06:45:59Z</time>
      </trkpt>
      <trkpt lat="43.33377" lon="2.37846">
        <ele>206.34</ele>
        <time>2015-06-14T06:46:00Z</time>
      </trkpt>
      <trkpt lat="43.3338" lon="2.37839">
        <ele>206.82</ele>
        <time>2015-06-14T06:46:01Z</time>
      </trkpt>
      <trkpt lat="43.33382" lon="2.37833">
        <ele>206.82</ele>
        <time>2015-06-14T06:46:02Z</time>
      </trkpt>
      <trkpt lat="43.33385" lon="2.37827">
        <ele>206.82</ele>
        <time>2015-06-14T06:46:03Z</time>
      </trkpt>
      <trkpt lat="43.3339" lon="2.37821">
        <ele>206.82</ele>
        <time>2015-06-14T06:46:04Z</time>
      </trkpt>
      <trkpt lat="43.33393" lon="2.37818">
        <ele>207.3</ele>
        <time>2015-06-14T06:46:05Z</time>
      </trkpt>
      <trkpt lat="43.33397" lon="2.37813">
        <ele>207.3</ele>
        <time>2015-06-14T06:46:06Z</time>
      </trkpt>
      <trkpt lat="43.33402" lon="2.3781">
        <ele>207.3</ele>
        <time>2015-06-14T06:46:07Z</time>
      </trkpt>
      <trkpt lat="43.33407" lon="2.37806">
        <ele>207.78</ele>
        <time>2015-06-14T06:46:08Z</time>
      </trkpt>
      <trkpt lat="43.33412" lon="2.37804">
        <ele>207.78</ele>
        <time>2015-06-14T06:46:09Z</time>
      </trkpt>
      <trkpt lat="43.33418" lon="2.37803">
        <ele>207.78</ele>
        <time>2015-06-14T06:46:10Z</time>
      </trkpt>
      <trkpt lat="43.33423" lon="2.37803">
        <ele>207.78</ele>
        <time>2015-06-14T06:46:11Z</time>
      </trkpt>
      <trkpt lat="43.33428" lon="2.37804">
        <ele>207.3</ele>
        <time>2015-06-14T06:46:12Z</time>
      </trkpt>
      <trkpt lat="43.33434" lon="2.37806">
        <ele>207.3</ele>
        <time>2015-06-14T06:46:13Z</time>
      </trkpt>
      <trkpt lat="43.33439" lon="2.37808">
        <ele>207.3</ele>
        <time>2015-06-14T06:46:14Z</time>
      </trkpt>
      <trkpt lat="43.33443" lon="2.37811">
        <ele>207.3</ele>
        <time>2015-06-14T06:46:15Z</time>
      </trkpt>
      <trkpt lat="43.33447" lon="2.37815">
        <ele>207.3</ele>
        <time>2015-06-14T06:46:16Z</time>
      </trkpt>
      <trkpt lat="43.3345" lon="2.37819">
        <ele>207.3</ele>
        <time>2015-06-14T06:46:17Z</time>
      </trkpt>
      <trkpt lat="43.33473" lon="2.37855">
        <ele>208.26</ele>
        <time>2015-06-14T06:46:24Z</time>
      </trkpt>
      <trkpt lat="43.33476" lon="2.37867">
        <ele>208.74</ele>
        <time>2015-06-14T06:46:26Z</time>
      </trkpt>
      <trkpt lat="43.33478" lon="2.37886">
        <ele>209.7</ele>
        <time>2015-06-14T06:46:29Z</time>
      </trkpt>
      <trkpt lat="43.33481" lon="2.37915">
        <ele>209.7</ele>
        <time>2015-06-14T06:46:33Z</time>
      </trkpt>
      <trkpt lat="43.33482" lon="2.37922">
        <ele>210.19</ele>
        <time>2015-06-14T06:46:34Z</time>
      </trkpt>
      <trkpt lat="43.33494" lon="2.37982">
        <ele>209.22</ele>
        <time>2015-06-14T06:46:42Z</time>
      </trkpt>
      <trkpt lat="43.33497" lon="2.37988">
        <ele>209.22</ele>
        <time>2015-06-14T06:46:43Z</time>
      </trkpt>
      <trkpt lat="43.335" lon="2.37994">
        <ele>209.22</ele>
        <time>2015-06-14T06:46:44Z</time>
      </trkpt>
      <trkpt lat="43.33504" lon="2.38">
        <ele>209.22</ele>
        <time>2015-06-14T06:46:45Z</time>
      </trkpt>
      <trkpt lat="43.33509" lon="2.38004">
        <ele>209.22</ele>
        <time>2015-06-14T06:46:46Z</time>
      </trkpt>
      <trkpt lat="43.33513" lon="2.38008">
        <ele>209.22</ele>
        <time>2015-06-14T06:46:47Z</time>
      </trkpt>
      <trkpt lat="43.33537" lon="2.38032">
        <ele>211.15</ele>
        <time>2015-06-14T06:46:53Z</time>
      </trkpt>
      <trkpt lat="43.33542" lon="2.38034">
        <ele>211.63</ele>
        <time>2015-06-14T06:46:54Z</time>
      </trkpt>
      <trkpt lat="43.33564" lon="2.38042">
        <ele>214.03</ele>
        <time>2015-06-14T06:46:59Z</time>
      </trkpt>
      <trkpt lat="43.33583" lon="2.38044">
        <ele>215.47</ele>
        <time>2015-06-14T06:47:03Z</time>
      </trkpt>
      <trkpt lat="43.33592" lon="2.38042">
        <ele>215.95</ele>
        <time>2015-06-14T06:47:05Z</time>
      </trkpt>
      <trkpt lat="43.33597" lon="2.38042">
        <ele>216.43</ele>
        <time>2015-06-14T06:47:06Z</time>
      </trkpt>
      <trkpt lat="43.33602" lon="2.38041">
        <ele>216.91</ele>
        <time>2015-06-14T06:47:07Z</time>
      </trkpt>
      <trkpt lat="43.33607" lon="2.38041">
        <ele>217.4</ele>
        <time>2015-06-14T06:47:08Z</time>
      </trkpt>
      <trkpt lat="43.33612" lon="2.38041">
        <ele>217.88</ele>
        <time>2015-06-14T06:47:09Z</time>
      </trkpt>
      <trkpt lat="43.33617" lon="2.38039">
        <ele>218.36</ele>
        <time>2015-06-14T06:47:10Z</time>
      </trkpt>
      <trkpt lat="43.33623" lon="2.38038">
        <ele>218.36</ele>
        <time>2015-06-14T06:47:11Z</time>
      </trkpt>
      <trkpt lat="43.33634" lon="2.38034">
        <ele>218.84</ele>
        <time>2015-06-14T06:47:13Z</time>
      </trkpt>
      <trkpt lat="43.33639" lon="2.38031">
        <ele>219.32</ele>
        <time>2015-06-14T06:47:14Z</time>
      </trkpt>
      <trkpt lat="43.33644" lon="2.38028">
        <ele>219.32</ele>
        <time>2015-06-14T06:47:15Z</time>
      </trkpt>
      <trkpt lat="43.3365" lon="2.38024">
        <ele>219.8</ele>
        <time>2015-06-14T06:47:16Z</time>
      </trkpt>
      <trkpt lat="43.33655" lon="2.38019">
        <ele>219.8</ele>
        <time>2015-06-14T06:47:17Z</time>
      </trkpt>
      <trkpt lat="43.33659" lon="2.38014">
        <ele>219.8</ele>
        <time>2015-06-14T06:47:18Z</time>
      </trkpt>
      <trkpt lat="43.33664" lon="2.38008">
        <ele>219.8</ele>
        <time>2015-06-14T06:47:19Z</time>
      </trkpt>
      <trkpt lat="43.33668" lon="2.38002">
        <ele>219.8</ele>
        <time>2015-06-14T06:47:20Z</time>
      </trkpt>
      <trkpt lat="43.33671" lon="2.37995">
        <ele>219.8</ele>
        <time>2015-06-14T06:47:21Z</time>
      </trkpt>
      <trkpt lat="43.33678" lon="2.37981">
        <ele>219.32</ele>
        <time>2015-06-14T06:47:23Z</time>
      </trkpt>
      <trkpt lat="43.33682" lon="2.37975">
        <ele>219.32</ele>
        <time>2015-06-14T06:47:24Z</time>
      </trkpt>
      <trkpt lat="43.33687" lon="2.3797">
        <ele>219.8</ele>
        <time>2015-06-14T06:47:25Z</time>
      </trkpt>
      <trkpt lat="43.33692" lon="2.37966">
        <ele>219.8</ele>
        <time>2015-06-14T06:47:26Z</time>
      </trkpt>
      <trkpt lat="43.33697" lon="2.37962">
        <ele>219.8</ele>
        <time>2015-06-14T06:47:27Z</time>
      </trkpt>
      <trkpt lat="43.33717" lon="2.37947">
        <ele>221.72</ele>
        <time>2015-06-14T06:47:31Z</time>
      </trkpt>
      <trkpt lat="43.33723" lon="2.37945">
        <ele>221.72</ele>
        <time>2015-06-14T06:47:32Z</time>
      </trkpt>
      <trkpt lat="43.33729" lon="2.37943">
        <ele>222.2</ele>
        <time>2015-06-14T06:47:33Z</time>
      </trkpt>
      <trkpt lat="43.33801" lon="2.37955">
        <ele>223.16</ele>
        <time>2015-06-14T06:47:45Z</time>
      </trkpt>
      <trkpt lat="43.33806" lon="2.37958">
        <ele>223.16</ele>
        <time>2015-06-14T06:47:46Z</time>
      </trkpt>
      <trkpt lat="43.33812" lon="2.37962">
        <ele>223.16</ele>
        <time>2015-06-14T06:47:47Z</time>
      </trkpt>
      <trkpt lat="43.33817" lon="2.37966">
        <ele>223.16</ele>
        <time>2015-06-14T06:47:48Z</time>
      </trkpt>
      <trkpt lat="43.33836" lon="2.37984">
        <ele>223.64</ele>
        <time>2015-06-14T06:47:52Z</time>
      </trkpt>
      <trkpt lat="43.33841" lon="2.37987">
        <ele>223.64</ele>
        <time>2015-06-14T06:47:53Z</time>
      </trkpt>
      <trkpt lat="43.33846" lon="2.3799">
        <ele>224.12</ele>
        <time>2015-06-14T06:47:54Z</time>
      </trkpt>
      <trkpt lat="43.33851" lon="2.37992">
        <ele>224.12</ele>
        <time>2015-06-14T06:47:55Z</time>
      </trkpt>
      <trkpt lat="43.33857" lon="2.37993">
        <ele>224.61</ele>
        <time>2015-06-14T06:47:56Z</time>
      </trkpt>
      <trkpt lat="43.33861" lon="2.37993">
        <ele>224.61</ele>
        <time>2015-06-14T06:47:57Z</time>
      </trkpt>
      <trkpt lat="43.33866" lon="2.3799">
        <ele>225.09</ele>
        <time>2015-06-14T06:47:58Z</time>
      </trkpt>
      <trkpt lat="43.3387" lon="2.37987">
        <ele>225.09</ele>
        <time>2015-06-14T06:47:59Z</time>
      </trkpt>
      <trkpt lat="43.33874" lon="2.37984">
        <ele>225.57</ele>
        <time>2015-06-14T06:48:00Z</time>
      </trkpt>
      <trkpt lat="43.33882" lon="2.37976">
        <ele>226.05</ele>
        <time>2015-06-14T06:48:02Z</time>
      </trkpt>
      <trkpt lat="43.33885" lon="2.37972">
        <ele>226.05</ele>
        <time>2015-06-14T06:48:03Z</time>
      </trkpt>
      <trkpt lat="43.33899" lon="2.3795">
        <ele>227.01</ele>
        <time>2015-06-14T06:48:07Z</time>
      </trkpt>
      <trkpt lat="43.33907" lon="2.37923">
        <ele>227.49</ele>
        <time>2015-06-14T06:48:11Z</time>
      </trkpt>
      <trkpt lat="43.33908" lon="2.37916">
        <ele>227.49</ele>
        <time>2015-06-14T06:48:12Z</time>
      </trkpt>
      <trkpt lat="43.33909" lon="2.37909">
        <ele>227.49</ele>
        <time>2015-06-14T06:48:13Z</time>
      </trkpt>
      <trkpt lat="43.3391" lon="2.3783">
        <ele>228.93</ele>
        <time>2015-06-14T06:48:24Z</time>
      </trkpt>
      <trkpt lat="43.33912" lon="2.37816">
        <ele>228.93</ele>
        <time>2015-06-14T06:48:26Z</time>
      </trkpt>
      <trkpt lat="43.33914" lon="2.37809">
        <ele>228.93</ele>
        <time>2015-06-14T06:48:27Z</time>
      </trkpt>
      <trkpt lat="43.33931" lon="2.37755">
        <ele>229.41</ele>
        <time>2015-06-14T06:48:35Z</time>
      </trkpt>
      <trkpt lat="43.33935" lon="2.3775">
        <ele>229.41</ele>
        <time>2015-06-14T06:48:36Z</time>
      </trkpt>
      <trkpt lat="43.3394" lon="2.37745">
        <ele>229.41</ele>
        <time>2015-06-14T06:48:37Z</time>
      </trkpt>
      <trkpt lat="43.33945" lon="2.37742">
        <ele>229.89</ele>
        <time>2015-06-14T06:48:38Z</time>
      </trkpt>
      <trkpt lat="43.3395" lon="2.37738">
        <ele>229.89</ele>
        <time>2015-06-14T06:48:39Z</time>
      </trkpt>
      <trkpt lat="43.33955" lon="2.37736">
        <ele>230.37</ele>
        <time>2015-06-14T06:48:40Z</time>
      </trkpt>
      <trkpt lat="43.33961" lon="2.37733">
        <ele>230.85</ele>
        <time>2015-06-14T06:48:41Z</time>
      </trkpt>
      <trkpt lat="43.3399" lon="2.37725">
        <ele>231.81</ele>
        <time>2015-06-14T06:48:46Z</time>
      </trkpt>
      <trkpt lat="43.33996" lon="2.37725">
        <ele>231.81</ele>
        <time>2015-06-14T06:48:47Z</time>
      </trkpt>
      <trkpt lat="43.34014" lon="2.37729">
        <ele>232.3</ele>
        <time>2015-06-14T06:48:50Z</time>
      </trkpt>
      <trkpt lat="43.34019" lon="2.37731">
        <ele>231.81</ele>
        <time>2015-06-14T06:48:51Z</time>
      </trkpt>
      <trkpt lat="43.34025" lon="2.37735">
        <ele>231.81</ele>
        <time>2015-06-14T06:48:52Z</time>
      </trkpt>
      <trkpt lat="43.3403" lon="2.37739">
        <ele>231.81</ele>
        <time>2015-06-14T06:48:53Z</time>
      </trkpt>
      <trkpt lat="43.34035" lon="2.37743">
        <ele>231.33</ele>
        <time>2015-06-14T06:48:54Z</time>
      </trkpt>
      <trkpt lat="43.34102" lon="2.378">
        <ele>233.74</ele>
        <time>2015-06-14T06:49:08Z</time>
      </trkpt>
      <trkpt lat="43.34108" lon="2.37801">
        <ele>234.22</ele>
        <time>2015-06-14T06:49:09Z</time>
      </trkpt>
      <trkpt lat="43.34113" lon="2.37801">
        <ele>234.22</ele>
        <time>2015-06-14T06:49:10Z</time>
      </trkpt>
      <trkpt lat="43.34118" lon="2.378">
        <ele>234.7</ele>
        <time>2015-06-14T06:49:11Z</time>
      </trkpt>
      <trkpt lat="43.34123" lon="2.37798">
        <ele>234.7</ele>
        <time>2015-06-14T06:49:12Z</time>
      </trkpt>
      <trkpt lat="43.34128" lon="2.37796">
        <ele>235.18</ele>
        <time>2015-06-14T06:49:13Z</time>
      </trkpt>
      <trkpt lat="43.34133" lon="2.37793">
        <ele>235.18</ele>
        <time>2015-06-14T06:49:14Z</time>
      </trkpt>
      <trkpt lat="43.34138" lon="2.37789">
        <ele>235.66</ele>
        <time>2015-06-14T06:49:15Z</time>
      </trkpt>
      <trkpt lat="43.34142" lon="2.37784">
        <ele>236.14</ele>
        <time>2015-06-14T06:49:16Z</time>
      </trkpt>
      <trkpt lat="43.34172" lon="2.37741">
        <ele>237.58</ele>
        <time>2015-06-14T06:49:24Z</time>
      </trkpt>
      <trkpt lat="43.34177" lon="2.37737">
        <ele>238.06</ele>
        <time>2015-06-14T06:49:25Z</time>
      </trkpt>
      <trkpt lat="43.34256" lon="2.37681">
        <ele>237.58</ele>
        <time>2015-06-14T06:49:41Z</time>
      </trkpt>
      <trkpt lat="43.34261" lon="2.3768">
        <ele>237.1</ele>
        <time>2015-06-14T06:49:42Z</time>
      </trkpt>
      <trkpt lat="43.34267" lon="2.3768">
        <ele>236.62</ele>
        <time>2015-06-14T06:49:43Z</time>
      </trkpt>
      <trkpt lat="43.34273" lon="2.37683">
        <ele>236.14</ele>
        <time>2015-06-14T06:49:44Z</time>
      </trkpt>
      <trkpt lat="43.34278" lon="2.37686">
        <ele>235.66</ele>
        <time>2015-06-14T06:49:45Z</time>
      </trkpt>
      <trkpt lat="43.34283" lon="2.37691">
        <ele>235.18</ele>
        <time>2015-06-14T06:49:46Z</time>
      </trkpt>
      <trkpt lat="43.34287" lon="2.37696">
        <ele>235.18</ele>
        <time>2015-06-14T06:49:47Z</time>
      </trkpt>
      <trkpt lat="43.34291" lon="2.37702">
        <ele>234.7</ele>
        <time>2015-06-14T06:49:48Z</time>
      </trkpt>
      <trkpt lat="43.34294" lon="2.37709">
        <ele>234.22</ele>
        <time>2015-06-14T06:49:49Z</time>
      </trkpt>
      <trkpt lat="43.3432" lon="2.37797">
        <ele>232.78</ele>
        <time>2015-06-14T06:50:01Z</time>
      </trkpt>
      <trkpt lat="43.34328" lon="2.37818">
        <ele>232.3</ele>
        <time>2015-06-14T06:50:04Z</time>
      </trkpt>
      <trkpt lat="43.34332" lon="2.37825">
        <ele>232.3</ele>
        <time>2015-06-14T06:50:05Z</time>
      </trkpt>
      <trkpt lat="43.34337" lon="2.3783">
        <ele>232.3</ele>
        <time>2015-06-14T06:50:06Z</time>
      </trkpt>
      <trkpt lat="43.34342" lon="2.37833">
        <ele>232.3</ele>
        <time>2015-06-14T06:50:07Z</time>
      </trkpt>
      <trkpt lat="43.34348" lon="2.37834">
        <ele>232.78</ele>
        <time>2015-06-14T06:50:08Z</time>
      </trkpt>
      <trkpt lat="43.34354" lon="2.37834">
        <ele>232.78</ele>
        <time>2015-06-14T06:50:09Z</time>
      </trkpt>
      <trkpt lat="43.3436" lon="2.37834">
        <ele>233.26</ele>
        <time>2015-06-14T06:50:10Z</time>
      </trkpt>
      <trkpt lat="43.34365" lon="2.37834">
        <ele>233.26</ele>
        <time>2015-06-14T06:50:11Z</time>
      </trkpt>
      <trkpt lat="43.34447" lon="2.37846">
        <ele>234.7</ele>
        <time>2015-06-14T06:50:25Z</time>
      </trkpt>
      <trkpt lat="43.34468" lon="2.37857">
        <ele>235.18</ele>
        <time>2015-06-14T06:50:29Z</time>
      </trkpt>
      <trkpt lat="43.34472" lon="2.37863">
        <ele>235.18</ele>
        <time>2015-06-14T06:50:30Z</time>
      </trkpt>
      <trkpt lat="43.34475" lon="2.37869">
        <ele>235.18</ele>
        <time>2015-06-14T06:50:31Z</time>
      </trkpt>
      <trkpt lat="43.34484" lon="2.37896">
        <ele>235.66</ele>
        <time>2015-06-14T06:50:35Z</time>
      </trkpt>
      <trkpt lat="43.34488" lon="2.37901">
        <ele>235.66</ele>
        <time>2015-06-14T06:50:36Z</time>
      </trkpt>
      <trkpt lat="43.34493" lon="2.37903">
        <ele>235.66</ele>
        <time>2015-06-14T06:50:37Z</time>
      </trkpt>
      <trkpt lat="43.34499" lon="2.37902">
        <ele>236.14</ele>
        <time>2015-06-14T06:50:38Z</time>
      </trkpt>
      <trkpt lat="43.34504" lon="2.37899">
        <ele>236.14</ele>
        <time>2015-06-14T06:50:39Z</time>
      </trkpt>
      <trkpt lat="43.34508" lon="2.37894">
        <ele>236.14</ele>
        <time>2015-06-14T06:50:40Z</time>
      </trkpt>
      <trkpt lat="43.34511" lon="2.37888">
        <ele>236.62</ele>
        <time>2015-06-14T06:50:41Z</time>
      </trkpt>
      <trkpt lat="43.34514" lon="2.3788">
        <ele>236.62</ele>
        <time>2015-06-14T06:50:42Z</time>
      </trkpt>
      <trkpt lat="43.34517" lon="2.37873">
        <ele>236.14</ele>
        <time>2015-06-14T06:50:43Z</time>
      </trkpt>
      <trkpt lat="43.34519" lon="2.37865">
        <ele>236.62</ele>
        <time>2015-06-14T06:50:44Z</time>
      </trkpt>
      <trkpt lat="43.34541" lon="2.37765">
        <ele>237.58</ele>
        <time>2015-06-14T06:50:57Z</time>
      </trkpt>
      <trkpt lat="43.34544" lon="2.37758">
        <ele>237.58</ele>
        <time>2015-06-14T06:50:58Z</time>
      </trkpt>
      <trkpt lat="43.34547" lon="2.37752">
        <ele>237.58</ele>
        <time>2015-06-14T06:50:59Z</time>
      </trkpt>
      <trkpt lat="43.34551" lon="2.37747">
        <ele>237.58</ele>
        <time>2015-06-14T06:51:00Z</time>
      </trkpt>
      <trkpt lat="43.34557" lon="2.37743">
        <ele>238.06</ele>
        <time>2015-06-14T06:51:01Z</time>
      </trkpt>
      <trkpt lat="43.34562" lon="2.37741">
        <ele>238.06</ele>
        <time>2015-06-14T06:51:02Z</time>
      </trkpt>
      <trkpt lat="43.34568" lon="2.37739">
        <ele>238.06</ele>
        <time>2015-06-14T06:51:03Z</time>
      </trkpt>
      <trkpt lat="43.34574" lon="2.37739">
        <ele>238.06</ele>
        <time>2015-06-14T06:51:04Z</time>
      </trkpt>
      <trkpt lat="43.34579" lon="2.3774">
        <ele>237.58</ele>
        <time>2015-06-14T06:51:05Z</time>
      </trkpt>
      <trkpt lat="43.34585" lon="2.37741">
        <ele>237.58</ele>
        <time>2015-06-14T06:51:06Z</time>
      </trkpt>
      <trkpt lat="43.3459" lon="2.37744">
        <ele>237.58</ele>
        <time>2015-06-14T06:51:07Z</time>
      </trkpt>
      <trkpt lat="43.34595" lon="2.37749">
        <ele>237.1</ele>
        <time>2015-06-14T06:51:08Z</time>
      </trkpt>
      <trkpt lat="43.34599" lon="2.37755">
        <ele>236.62</ele>
        <time>2015-06-14T06:51:09Z</time>
      </trkpt>
      <trkpt lat="43.34603" lon="2.37761">
        <ele>236.62</ele>
        <time>2015-06-14T06:51:10Z</time>
      </trkpt>
      <trkpt lat="43.3461" lon="2.37775">
        <ele>236.14</ele>
        <time>2015-06-14T06:51:12Z</time>
      </trkpt>
      <trkpt lat="43.34613" lon="2.37781">
        <ele>236.14</ele>
        <time>2015-06-14T06:51:13Z</time>
      </trkpt>
      <trkpt lat="43.34617" lon="2.37787">
        <ele>236.14</ele>
        <time>2015-06-14T06:51:14Z</time>
      </trkpt>
      <trkpt lat="43.34624" lon="2.37799">
        <ele>236.14</ele>
        <time>2015-06-14T06:51:16Z</time>
      </trkpt>
      <trkpt lat="43.34633" lon="2.3781">
        <ele>236.14</ele>
        <time>2015-06-14T06:51:18Z</time>
      </trkpt>
      <trkpt lat="43.34681" lon="2.37845">
        <ele>236.14</ele>
        <time>2015-06-14T06:51:27Z</time>
      </trkpt>
      <trkpt lat="43.34686" lon="2.37846">
        <ele>236.62</ele>
        <time>2015-06-14T06:51:28Z</time>
      </trkpt>
      <trkpt lat="43.34692" lon="2.37847">
        <ele>236.62</ele>
        <time>2015-06-14T06:51:29Z</time>
      </trkpt>
      <trkpt lat="43.34739" lon="2.37856">
        <ele>236.62</ele>
        <time>2015-06-14T06:51:37Z</time>
      </trkpt>
      <trkpt lat="43.3475" lon="2.37859">
        <ele>237.1</ele>
        <time>2015-06-14T06:51:39Z</time>
      </trkpt>
      <trkpt lat="43.34756" lon="2.37859">
        <ele>237.1</ele>
        <time>2015-06-14T06:51:40Z</time>
      </trkpt>
      <trkpt lat="43.34833" lon="2.37852">
        <ele>241.91</ele>
        <time>2015-06-14T06:51:53Z</time>
      </trkpt>
      <trkpt lat="43.34881" lon="2.37845">
        <ele>244.79</ele>
        <time>2015-06-14T06:52:01Z</time>
      </trkpt>
      <trkpt lat="43.34966" lon="2.37834">
        <ele>247.2</ele>
        <time>2015-06-14T06:52:15Z</time>
      </trkpt>
      <trkpt lat="43.35027" lon="2.37819">
        <ele>247.2</ele>
        <time>2015-06-14T06:52:25Z</time>
      </trkpt>
      <trkpt lat="43.35039" lon="2.37816">
        <ele>247.68</ele>
        <time>2015-06-14T06:52:27Z</time>
      </trkpt>
      <trkpt lat="43.35044" lon="2.37814">
        <ele>247.68</ele>
        <time>2015-06-14T06:52:28Z</time>
      </trkpt>
      <trkpt lat="43.3505" lon="2.3781">
        <ele>247.68</ele>
        <time>2015-06-14T06:52:29Z</time>
      </trkpt>
      <trkpt lat="43.35055" lon="2.37805">
        <ele>247.68</ele>
        <time>2015-06-14T06:52:30Z</time>
      </trkpt>
      <trkpt lat="43.3506" lon="2.378">
        <ele>247.68</ele>
        <time>2015-06-14T06:52:31Z</time>
      </trkpt>
      <trkpt lat="43.35135" lon="2.37736">
        <ele>249.12</ele>
        <time>2015-06-14T06:52:46Z</time>
      </trkpt>
      <trkpt lat="43.35156" lon="2.37721">
        <ele>249.12</ele>
        <time>2015-06-14T06:52:50Z</time>
      </trkpt>
      <trkpt lat="43.35166" lon="2.37711">
        <ele>249.6</ele>
        <time>2015-06-14T06:52:52Z</time>
      </trkpt>
      <trkpt lat="43.3517" lon="2.37704">
        <ele>249.6</ele>
        <time>2015-06-14T06:52:53Z</time>
      </trkpt>
      <trkpt lat="43.35174" lon="2.37697">
        <ele>249.6</ele>
        <time>2015-06-14T06:52:54Z</time>
      </trkpt>
      <trkpt lat="43.35177" lon="2.3769">
        <ele>249.6</ele>
        <time>2015-06-14T06:52:55Z</time>
      </trkpt>
      <trkpt lat="43.35179" lon="2.37683">
        <ele>249.12</ele>
        <time>2015-06-14T06:52:56Z</time>
      </trkpt>
      <trkpt lat="43.35185" lon="2.37669">
        <ele>249.12</ele>
        <time>2015-06-14T06:52:58Z</time>
      </trkpt>
      <trkpt lat="43.35189" lon="2.37664">
        <ele>249.12</ele>
        <time>2015-06-14T06:52:59Z</time>
      </trkpt>
      <trkpt lat="43.35193" lon="2.37659">
        <ele>249.12</ele>
        <time>2015-06-14T06:53:00Z</time>
      </trkpt>
      <trkpt lat="43.35197" lon="2.37654">
        <ele>249.12</ele>
        <time>2015-06-14T06:53:01Z</time>
      </trkpt>
      <trkpt lat="43.35201" lon="2.3765">
        <ele>249.6</ele>
        <time>2015-06-14T06:53:02Z</time>
      </trkpt>
      <trkpt lat="43.35205" lon="2.37645">
        <ele>250.08</ele>
        <time>2015-06-14T06:53:03Z</time>
      </trkpt>
      <trkpt lat="43.35227" lon="2.3761">
        <ele>251.52</ele>
        <time>2015-06-14T06:53:09Z</time>
      </trkpt>
      <trkpt lat="43.3523" lon="2.37603">
        <ele>251.52</ele>
        <time>2015-06-14T06:53:10Z</time>
      </trkpt>
      <trkpt lat="43.35233" lon="2.37595">
        <ele>251.52</ele>
        <time>2015-06-14T06:53:11Z</time>
      </trkpt>
      <trkpt lat="43.35235" lon="2.37588">
        <ele>251.52</ele>
        <time>2015-06-14T06:53:12Z</time>
      </trkpt>
      <trkpt lat="43.35236" lon="2.3758">
        <ele>251.52</ele>
        <time>2015-06-14T06:53:13Z</time>
      </trkpt>
      <trkpt lat="43.35238" lon="2.37573">
        <ele>251.52</ele>
        <time>2015-06-14T06:53:14Z</time>
      </trkpt>
      <trkpt lat="43.35238" lon="2.37565">
        <ele>251.52</ele>
        <time>2015-06-14T06:53:15Z</time>
      </trkpt>
      <trkpt lat="43.35239" lon="2.37558">
        <ele>251.04</ele>
        <time>2015-06-14T06:53:16Z</time>
      </trkpt>
      <trkpt lat="43.35238" lon="2.3755">
        <ele>251.04</ele>
        <time>2015-06-14T06:53:17Z</time>
      </trkpt>
      <trkpt lat="43.35238" lon="2.37542">
        <ele>251.04</ele>
        <time>2015-06-14T06:53:18Z</time>
      </trkpt>
      <trkpt lat="43.35237" lon="2.37535">
        <ele>251.04</ele>
        <time>2015-06-14T06:53:19Z</time>
      </trkpt>
      <trkpt lat="43.35226" lon="2.37483">
        <ele>250.56</ele>
        <time>2015-06-14T06:53:26Z</time>
      </trkpt>
      <trkpt lat="43.35226" lon="2.37475">
        <ele>250.56</ele>
        <time>2015-06-14T06:53:27Z</time>
      </trkpt>
      <trkpt lat="43.35227" lon="2.37468">
        <ele>250.56</ele>
        <time>2015-06-14T06:53:28Z</time>
      </trkpt>
      <trkpt lat="43.35231" lon="2.37462">
        <ele>250.56</ele>
        <time>2015-06-14T06:53:29Z</time>
      </trkpt>
      <trkpt lat="43.35237" lon="2.37459">
        <ele>250.56</ele>
        <time>2015-06-14T06:53:30Z</time>
      </trkpt>
      <trkpt lat="43.35242" lon="2.37456">
        <ele>251.04</ele>
        <time>2015-06-14T06:53:31Z</time>
      </trkpt>
      <trkpt lat="43.35247" lon="2.37453">
        <ele>251.04</ele>
        <time>2015-06-14T06:53:32Z</time>
      </trkpt>
      <trkpt lat="43.35253" lon="2.37451">
        <ele>251.04</ele>
        <time>2015-06-14T06:53:33Z</time>
      </trkpt>
      <trkpt lat="43.35269" lon="2.37443">
        <ele>252</ele>
        <time>2015-06-14T06:53:36Z</time>
      </trkpt>
      <trkpt lat="43.35274" lon="2.37438">
        <ele>252.48</ele>
        <time>2015-06-14T06:53:37Z</time>
      </trkpt>
      <trkpt lat="43.35292" lon="2.37419">
        <ele>253.93</ele>
        <time>2015-06-14T06:53:41Z</time>
      </trkpt>
      <trkpt lat="43.35297" lon="2.37415">
        <ele>254.41</ele>
        <time>2015-06-14T06:53:42Z</time>
      </trkpt>
      <trkpt lat="43.35303" lon="2.37414">
        <ele>254.89</ele>
        <time>2015-06-14T06:53:43Z</time>
      </trkpt>
      <trkpt lat="43.35308" lon="2.37414">
        <ele>254.89</ele>
        <time>2015-06-14T06:53:44Z</time>
      </trkpt>
      <trkpt lat="43.35313" lon="2.37417">
        <ele>255.37</ele>
        <time>2015-06-14T06:53:45Z</time>
      </trkpt>
      <trkpt lat="43.35318" lon="2.37422">
        <ele>255.85</ele>
        <time>2015-06-14T06:53:46Z</time>
      </trkpt>
      <trkpt lat="43.35323" lon="2.37426">
        <ele>256.33</ele>
        <time>2015-06-14T06:53:47Z</time>
      </trkpt>
      <trkpt lat="43.35327" lon="2.37431">
        <ele>256.81</ele>
        <time>2015-06-14T06:53:48Z</time>
      </trkpt>
      <trkpt lat="43.35336" lon="2.37441">
        <ele>257.77</ele>
        <time>2015-06-14T06:53:50Z</time>
      </trkpt>
      <trkpt lat="43.35341" lon="2.37446">
        <ele>258.25</ele>
        <time>2015-06-14T06:53:51Z</time>
      </trkpt>
      <trkpt lat="43.35346" lon="2.37449">
        <ele>258.73</ele>
        <time>2015-06-14T06:53:52Z</time>
      </trkpt>
      <trkpt lat="43.35351" lon="2.37452">
        <ele>258.73</ele>
        <time>2015-06-14T06:53:53Z</time>
      </trkpt>
      <trkpt lat="43.35357" lon="2.37453">
        <ele>259.21</ele>
        <time>2015-06-14T06:53:54Z</time>
      </trkpt>
      <trkpt lat="43.35364" lon="2.37454">
        <ele>259.21</ele>
        <time>2015-06-14T06:53:55Z</time>
      </trkpt>
      <trkpt lat="43.35369" lon="2.37453">
        <ele>259.69</ele>
        <time>2015-06-14T06:53:56Z</time>
      </trkpt>
      <trkpt lat="43.35374" lon="2.37452">
        <ele>259.69</ele>
        <time>2015-06-14T06:53:57Z</time>
      </trkpt>
      <trkpt lat="43.35379" lon="2.3745">
        <ele>260.17</ele>
        <time>2015-06-14T06:53:58Z</time>
      </trkpt>
      <trkpt lat="43.35388" lon="2.37444">
        <ele>260.65</ele>
        <time>2015-06-14T06:54:00Z</time>
      </trkpt>
      <trkpt lat="43.35393" lon="2.3744">
        <ele>261.14</ele>
        <time>2015-06-14T06:54:01Z</time>
      </trkpt>
      <trkpt lat="43.35398" lon="2.37434">
        <ele>261.62</ele>
        <time>2015-06-14T06:54:02Z</time>
      </trkpt>
      <trkpt lat="43.35403" lon="2.37429">
        <ele>261.62</ele>
        <time>2015-06-14T06:54:03Z</time>
      </trkpt>
      <trkpt lat="43.35408" lon="2.37423">
        <ele>262.1</ele>
        <time>2015-06-14T06:54:04Z</time>
      </trkpt>
      <trkpt lat="43.35413" lon="2.37417">
        <ele>262.58</ele>
        <time>2015-06-14T06:54:05Z</time>
      </trkpt>
      <trkpt lat="43.35454" lon="2.37383">
        <ele>264.98</ele>
        <time>2015-06-14T06:54:13Z</time>
      </trkpt>
      <trkpt lat="43.3546" lon="2.3738">
        <ele>265.46</ele>
        <time>2015-06-14T06:54:14Z</time>
      </trkpt>
      <trkpt lat="43.35466" lon="2.37378">
        <ele>265.94</ele>
        <time>2015-06-14T06:54:15Z</time>
      </trkpt>
      <trkpt lat="43.35473" lon="2.37378">
        <ele>265.94</ele>
        <time>2015-06-14T06:54:16Z</time>
      </trkpt>
      <trkpt lat="43.35479" lon="2.3738">
        <ele>266.42</ele>
        <time>2015-06-14T06:54:17Z</time>
      </trkpt>
      <trkpt lat="43.35484" lon="2.37382">
        <ele>266.42</ele>
        <time>2015-06-14T06:54:18Z</time>
      </trkpt>
      <trkpt lat="43.3549" lon="2.37385">
        <ele>266.42</ele>
        <time>2015-06-14T06:54:19Z</time>
      </trkpt>
      <trkpt lat="43.35496" lon="2.37388">
        <ele>265.94</ele>
        <time>2015-06-14T06:54:20Z</time>
      </trkpt>
      <trkpt lat="43.35501" lon="2.37392">
        <ele>265.94</ele>
        <time>2015-06-14T06:54:21Z</time>
      </trkpt>
      <trkpt lat="43.35506" lon="2.37397">
        <ele>265.94</ele>
        <time>2015-06-14T06:54:22Z</time>
      </trkpt>
      <trkpt lat="43.35511" lon="2.37401">
        <ele>265.46</ele>
        <time>2015-06-14T06:54:23Z</time>
      </trkpt>
      <trkpt lat="43.35515" lon="2.37406">
        <ele>265.46</ele>
        <time>2015-06-14T06:54:24Z</time>
      </trkpt>
      <trkpt lat="43.3552" lon="2.37411">
        <ele>265.46</ele>
        <time>2015-06-14T06:54:25Z</time>
      </trkpt>
      <trkpt lat="43.35524" lon="2.37415">
        <ele>265.46</ele>
        <time>2015-06-14T06:54:26Z</time>
      </trkpt>
      <trkpt lat="43.35539" lon="2.37428">
        <ele>264.98</ele>
        <time>2015-06-14T06:54:29Z</time>
      </trkpt>
      <trkpt lat="43.35559" lon="2.3745">
        <ele>264.98</ele>
        <time>2015-06-14T06:54:33Z</time>
      </trkpt>
      <trkpt lat="43.35563" lon="2.37457">
        <ele>264.5</ele>
        <time>2015-06-14T06:54:34Z</time>
      </trkpt>
      <trkpt lat="43.35566" lon="2.37464">
        <ele>264.5</ele>
        <time>2015-06-14T06:54:35Z</time>
      </trkpt>
      <trkpt lat="43.35568" lon="2.37472">
        <ele>264.5</ele>
        <time>2015-06-14T06:54:36Z</time>
      </trkpt>
      <trkpt lat="43.35569" lon="2.3748">
        <ele>264.02</ele>
        <time>2015-06-14T06:54:37Z</time>
      </trkpt>
      <trkpt lat="43.35569" lon="2.37487">
        <ele>264.02</ele>
        <time>2015-06-14T06:54:38Z</time>
      </trkpt>
      <trkpt lat="43.35569" lon="2.37495">
        <ele>264.5</ele>
        <time>2015-06-14T06:54:39Z</time>
      </trkpt>
      <trkpt lat="43.35569" lon="2.37524">
        <ele>265.46</ele>
        <time>2015-06-14T06:54:43Z</time>
      </trkpt>
      <trkpt lat="43.35568" lon="2.37532">
        <ele>265.94</ele>
        <time>2015-06-14T06:54:44Z</time>
      </trkpt>
      <trkpt lat="43.35572" lon="2.37591">
        <ele>265.46</ele>
        <time>2015-06-14T06:54:52Z</time>
      </trkpt>
      <trkpt lat="43.35589" lon="2.37629">
        <ele>264.5</ele>
        <time>2015-06-14T06:54:58Z</time>
      </trkpt>
      <trkpt lat="43.35593" lon="2.37634">
        <ele>264.5</ele>
        <time>2015-06-14T06:54:59Z</time>
      </trkpt>
      <trkpt lat="43.35601" lon="2.37643">
        <ele>264.5</ele>
        <time>2015-06-14T06:55:01Z</time>
      </trkpt>
      <trkpt lat="43.35611" lon="2.37651">
        <ele>264.98</ele>
        <time>2015-06-14T06:55:03Z</time>
      </trkpt>
      <trkpt lat="43.3566" lon="2.37682">
        <ele>267.38</ele>
        <time>2015-06-14T06:55:13Z</time>
      </trkpt>
      <trkpt lat="43.35665" lon="2.37682">
        <ele>267.38</ele>
        <time>2015-06-14T06:55:14Z</time>
      </trkpt>
      <trkpt lat="43.35671" lon="2.37681">
        <ele>267.38</ele>
        <time>2015-06-14T06:55:15Z</time>
      </trkpt>
      <trkpt lat="43.35676" lon="2.37679">
        <ele>267.38</ele>
        <time>2015-06-14T06:55:16Z</time>
      </trkpt>
      <trkpt lat="43.35681" lon="2.37676">
        <ele>267.38</ele>
        <time>2015-06-14T06:55:17Z</time>
      </trkpt>
      <trkpt lat="43.35686" lon="2.37672">
        <ele>267.38</ele>
        <time>2015-06-14T06:55:18Z</time>
      </trkpt>
      <trkpt lat="43.35691" lon="2.37667">
        <ele>266.9</ele>
        <time>2015-06-14T06:55:19Z</time>
      </trkpt>
      <trkpt lat="43.35761" lon="2.37595">
        <ele>264.98</ele>
        <time>2015-06-14T06:55:34Z</time>
      </trkpt>
      <trkpt lat="43.35834" lon="2.37517">
        <ele>265.94</ele>
        <time>2015-06-14T06:55:51Z</time>
      </trkpt>
      <trkpt lat="43.35844" lon="2.3751">
        <ele>265.94</ele>
        <time>2015-06-14T06:55:53Z</time>
      </trkpt>
      <trkpt lat="43.35849" lon="2.37508">
        <ele>266.42</ele>
        <time>2015-06-14T06:55:54Z</time>
      </trkpt>
      <trkpt lat="43.35854" lon="2.37506">
        <ele>266.9</ele>
        <time>2015-06-14T06:55:55Z</time>
      </trkpt>
      <trkpt lat="43.35865" lon="2.37504">
        <ele>268.35</ele>
        <time>2015-06-14T06:55:57Z</time>
      </trkpt>
      <trkpt lat="43.3587" lon="2.37505">
        <ele>268.83</ele>
        <time>2015-06-14T06:55:58Z</time>
      </trkpt>
      <trkpt lat="43.3588" lon="2.37508">
        <ele>269.79</ele>
        <time>2015-06-14T06:56:00Z</time>
      </trkpt>
      <trkpt lat="43.35885" lon="2.3751">
        <ele>270.27</ele>
        <time>2015-06-14T06:56:01Z</time>
      </trkpt>
      <trkpt lat="43.3589" lon="2.37514">
        <ele>270.27</ele>
        <time>2015-06-14T06:56:02Z</time>
      </trkpt>
      <trkpt lat="43.35895" lon="2.37518">
        <ele>270.75</ele>
        <time>2015-06-14T06:56:03Z</time>
      </trkpt>
      <trkpt lat="43.35899" lon="2.37522">
        <ele>270.75</ele>
        <time>2015-06-14T06:56:04Z</time>
      </trkpt>
      <trkpt lat="43.35903" lon="2.37528">
        <ele>270.75</ele>
        <time>2015-06-14T06:56:05Z</time>
      </trkpt>
      <trkpt lat="43.35907" lon="2.37534">
        <ele>270.75</ele>
        <time>2015-06-14T06:56:06Z</time>
      </trkpt>
      <trkpt lat="43.3591" lon="2.3754">
        <ele>270.75</ele>
        <time>2015-06-14T06:56:07Z</time>
      </trkpt>
      <trkpt lat="43.35913" lon="2.37546">
        <ele>270.75</ele>
        <time>2015-06-14T06:56:08Z</time>
      </trkpt>
      <trkpt lat="43.35915" lon="2.37553">
        <ele>271.23</ele>
        <time>2015-06-14T06:56:09Z</time>
      </trkpt>
      <trkpt lat="43.3592" lon="2.37566">
        <ele>271.71</ele>
        <time>2015-06-14T06:56:11Z</time>
      </trkpt>
      <trkpt lat="43.35922" lon="2.37573">
        <ele>271.71</ele>
        <time>2015-06-14T06:56:12Z</time>
      </trkpt>
      <trkpt lat="43.35925" lon="2.37588">
        <ele>271.23</ele>
        <time>2015-06-14T06:56:14Z</time>
      </trkpt>
      <trkpt lat="43.35926" lon="2.37595">
        <ele>270.75</ele>
        <time>2015-06-14T06:56:15Z</time>
      </trkpt>
      <trkpt lat="43.35927" lon="2.37603">
        <ele>270.75</ele>
        <time>2015-06-14T06:56:16Z</time>
      </trkpt>
      <trkpt lat="43.35927" lon="2.3761">
        <ele>270.75</ele>
        <time>2015-06-14T06:56:17Z</time>
      </trkpt>
      <trkpt lat="43.35926" lon="2.37618">
        <ele>270.75</ele>
        <time>2015-06-14T06:56:18Z</time>
      </trkpt>
      <trkpt lat="43.35925" lon="2.37625">
        <ele>270.75</ele>
        <time>2015-06-14T06:56:19Z</time>
      </trkpt>
      <trkpt lat="43.35924" lon="2.37632">
        <ele>270.75</ele>
        <time>2015-06-14T06:56:20Z</time>
      </trkpt>
      <trkpt lat="43.35922" lon="2.37639">
        <ele>270.27</ele>
        <time>2015-06-14T06:56:21Z</time>
      </trkpt>
      <trkpt lat="43.35919" lon="2.37646">
        <ele>270.27</ele>
        <time>2015-06-14T06:56:22Z</time>
      </trkpt>
      <trkpt lat="43.35916" lon="2.37652">
        <ele>270.75</ele>
        <time>2015-06-14T06:56:23Z</time>
      </trkpt>
      <trkpt lat="43.35913" lon="2.37659">
        <ele>270.75</ele>
        <time>2015-06-14T06:56:24Z</time>
      </trkpt>
      <trkpt lat="43.35909" lon="2.37664">
        <ele>270.75</ele>
        <time>2015-06-14T06:56:25Z</time>
      </trkpt>
      <trkpt lat="43.35896" lon="2.37689">
        <ele>271.23</ele>
        <time>2015-06-14T06:56:29Z</time>
      </trkpt>
      <trkpt lat="43.35893" lon="2.37696">
        <ele>271.71</ele>
        <time>2015-06-14T06:56:30Z</time>
      </trkpt>
      <trkpt lat="43.35892" lon="2.37704">
        <ele>271.23</ele>
        <time>2015-06-14T06:56:31Z</time>
      </trkpt>
      <trkpt lat="43.3588" lon="2.3775">
        <ele>271.71</ele>
        <time>2015-06-14T06:56:37Z</time>
      </trkpt>
      <trkpt lat="43.35877" lon="2.37757">
        <ele>271.71</ele>
        <time>2015-06-14T06:56:38Z</time>
      </trkpt>
      <trkpt lat="43.35873" lon="2.37763">
        <ele>271.71</ele>
        <time>2015-06-14T06:56:39Z</time>
      </trkpt>
      <trkpt lat="43.35868" lon="2.37768">
        <ele>271.71</ele>
        <time>2015-06-14T06:56:40Z</time>
      </trkpt>
      <trkpt lat="43.35863" lon="2.37773">
        <ele>271.71</ele>
        <time>2015-06-14T06:56:41Z</time>
      </trkpt>
      <trkpt lat="43.35854" lon="2.37782">
        <ele>272.19</ele>
        <time>2015-06-14T06:56:43Z</time>
      </trkpt>
      <trkpt lat="43.3585" lon="2.37787">
        <ele>272.19</ele>
        <time>2015-06-14T06:56:44Z</time>
      </trkpt>
      <trkpt lat="43.35847" lon="2.37794">
        <ele>272.19</ele>
        <time>2015-06-14T06:56:45Z</time>
      </trkpt>
      <trkpt lat="43.35844" lon="2.378">
        <ele>272.67</ele>
        <time>2015-06-14T06:56:46Z</time>
      </trkpt>
      <trkpt lat="43.35842" lon="2.37807">
        <ele>272.67</ele>
        <time>2015-06-14T06:56:47Z</time>
      </trkpt>
      <trkpt lat="43.35841" lon="2.37815">
        <ele>272.67</ele>
        <time>2015-06-14T06:56:48Z</time>
      </trkpt>
      <trkpt lat="43.35842" lon="2.37823">
        <ele>273.15</ele>
        <time>2015-06-14T06:56:49Z</time>
      </trkpt>
      <trkpt lat="43.35844" lon="2.3783">
        <ele>273.15</ele>
        <time>2015-06-14T06:56:50Z</time>
      </trkpt>
      <trkpt lat="43.35847" lon="2.37837">
        <ele>273.15</ele>
        <time>2015-06-14T06:56:51Z</time>
      </trkpt>
      <trkpt lat="43.35851" lon="2.37843">
        <ele>273.15</ele>
        <time>2015-06-14T06:56:52Z</time>
      </trkpt>
      <trkpt lat="43.35855" lon="2.37847">
        <ele>273.63</ele>
        <time>2015-06-14T06:56:53Z</time>
      </trkpt>
      <trkpt lat="43.3586" lon="2.3785">
        <ele>274.11</ele>
        <time>2015-06-14T06:56:54Z</time>
      </trkpt>
      <trkpt lat="43.35866" lon="2.37852">
        <ele>274.59</ele>
        <time>2015-06-14T06:56:55Z</time>
      </trkpt>
      <trkpt lat="43.35871" lon="2.37853">
        <ele>274.59</ele>
        <time>2015-06-14T06:56:56Z</time>
      </trkpt>
      <trkpt lat="43.35877" lon="2.37854">
        <ele>275.56</ele>
        <time>2015-06-14T06:56:57Z</time>
      </trkpt>
      <trkpt lat="43.35882" lon="2.37853">
        <ele>276.04</ele>
        <time>2015-06-14T06:56:58Z</time>
      </trkpt>
      <trkpt lat="43.35888" lon="2.37852">
        <ele>276.52</ele>
        <time>2015-06-14T06:56:59Z</time>
      </trkpt>
      <trkpt lat="43.35893" lon="2.37851">
        <ele>277</ele>
        <time>2015-06-14T06:57:00Z</time>
      </trkpt>
      <trkpt lat="43.35899" lon="2.37849">
        <ele>277.96</ele>
        <time>2015-06-14T06:57:01Z</time>
      </trkpt>
      <trkpt lat="43.35921" lon="2.37843">
        <ele>280.36</ele>
        <time>2015-06-14T06:57:05Z</time>
      </trkpt>
      <trkpt lat="43.35927" lon="2.37843">
        <ele>280.84</ele>
        <time>2015-06-14T06:57:06Z</time>
      </trkpt>
      <trkpt lat="43.35933" lon="2.37845">
        <ele>280.84</ele>
        <time>2015-06-14T06:57:07Z</time>
      </trkpt>
      <trkpt lat="43.35938" lon="2.37847">
        <ele>281.32</ele>
        <time>2015-06-14T06:57:08Z</time>
      </trkpt>
      <trkpt lat="43.35943" lon="2.3785">
        <ele>281.32</ele>
        <time>2015-06-14T06:57:09Z</time>
      </trkpt>
      <trkpt lat="43.35948" lon="2.37854">
        <ele>281.8</ele>
        <time>2015-06-14T06:57:10Z</time>
      </trkpt>
      <trkpt lat="43.35952" lon="2.37859">
        <ele>281.8</ele>
        <time>2015-06-14T06:57:11Z</time>
      </trkpt>
      <trkpt lat="43.35955" lon="2.37865">
        <ele>281.8</ele>
        <time>2015-06-14T06:57:12Z</time>
      </trkpt>
      <trkpt lat="43.35958" lon="2.37872">
        <ele>281.8</ele>
        <time>2015-06-14T06:57:13Z</time>
      </trkpt>
      <trkpt lat="43.35961" lon="2.37879">
        <ele>281.32</ele>
        <time>2015-06-14T06:57:14Z</time>
      </trkpt>
      <trkpt lat="43.35962" lon="2.37887">
        <ele>281.32</ele>
        <time>2015-06-14T06:57:15Z</time>
      </trkpt>
      <trkpt lat="43.35964" lon="2.37894">
        <ele>281.8</ele>
        <time>2015-06-14T06:57:16Z</time>
      </trkpt>
      <trkpt lat="43.35964" lon="2.37901">
        <ele>281.8</ele>
        <time>2015-06-14T06:57:17Z</time>
      </trkpt>
      <trkpt lat="43.35965" lon="2.37908">
        <ele>282.28</ele>
        <time>2015-06-14T06:57:18Z</time>
      </trkpt>
      <trkpt lat="43.35966" lon="2.37922">
        <ele>281.8</ele>
        <time>2015-06-14T06:57:20Z</time>
      </trkpt>
      <trkpt lat="43.35962" lon="2.37967">
        <ele>282.28</ele>
        <time>2015-06-14T06:57:26Z</time>
      </trkpt>
      <trkpt lat="43.35957" lon="2.37997">
        <ele>281.8</ele>
        <time>2015-06-14T06:57:30Z</time>
      </trkpt>
      <trkpt lat="43.35955" lon="2.38004">
        <ele>281.8</ele>
        <time>2015-06-14T06:57:31Z</time>
      </trkpt>
      <trkpt lat="43.35952" lon="2.38011">
        <ele>281.8</ele>
        <time>2015-06-14T06:57:32Z</time>
      </trkpt>
      <trkpt lat="43.35924" lon="2.38062">
        <ele>282.28</ele>
        <time>2015-06-14T06:57:40Z</time>
      </trkpt>
      <trkpt lat="43.35898" lon="2.38099">
        <ele>282.77</ele>
        <time>2015-06-14T06:57:47Z</time>
      </trkpt>
      <trkpt lat="43.35896" lon="2.38106">
        <ele>283.25</ele>
        <time>2015-06-14T06:57:48Z</time>
      </trkpt>
      <trkpt lat="43.35897" lon="2.38114">
        <ele>283.25</ele>
        <time>2015-06-14T06:57:49Z</time>
      </trkpt>
      <trkpt lat="43.359" lon="2.3812">
        <ele>283.25</ele>
        <time>2015-06-14T06:57:50Z</time>
      </trkpt>
      <trkpt lat="43.35904" lon="2.38124">
        <ele>283.25</ele>
        <time>2015-06-14T06:57:51Z</time>
      </trkpt>
      <trkpt lat="43.35909" lon="2.38126">
        <ele>283.25</ele>
        <time>2015-06-14T06:57:52Z</time>
      </trkpt>
      <trkpt lat="43.35915" lon="2.38127">
        <ele>283.25</ele>
        <time>2015-06-14T06:57:53Z</time>
      </trkpt>
      <trkpt lat="43.35921" lon="2.38128">
        <ele>283.25</ele>
        <time>2015-06-14T06:57:54Z</time>
      </trkpt>
      <trkpt lat="43.35927" lon="2.38127">
        <ele>283.25</ele>
        <time>2015-06-14T06:57:55Z</time>
      </trkpt>
      <trkpt lat="43.35933" lon="2.38125">
        <ele>283.25</ele>
        <time>2015-06-14T06:57:56Z</time>
      </trkpt>
      <trkpt lat="43.35938" lon="2.38124">
        <ele>283.25</ele>
        <time>2015-06-14T06:57:57Z</time>
      </trkpt>
      <trkpt lat="43.35944" lon="2.38124">
        <ele>283.25</ele>
        <time>2015-06-14T06:57:58Z</time>
      </trkpt>
      <trkpt lat="43.3595" lon="2.38124">
        <ele>283.25</ele>
        <time>2015-06-14T06:57:59Z</time>
      </trkpt>
      <trkpt lat="43.35955" lon="2.38126">
        <ele>283.73</ele>
        <time>2015-06-14T06:58:00Z</time>
      </trkpt>
      <trkpt lat="43.3596" lon="2.38129">
        <ele>283.73</ele>
        <time>2015-06-14T06:58:01Z</time>
      </trkpt>
      <trkpt lat="43.35965" lon="2.38133">
        <ele>283.73</ele>
        <time>2015-06-14T06:58:02Z</time>
      </trkpt>
      <trkpt lat="43.3597" lon="2.38137">
        <ele>283.73</ele>
        <time>2015-06-14T06:58:03Z</time>
      </trkpt>
      <trkpt lat="43.36046" lon="2.3819">
        <ele>283.73</ele>
        <time>2015-06-14T06:58:18Z</time>
      </trkpt>
      <trkpt lat="43.36096" lon="2.38203">
        <ele>284.69</ele>
        <time>2015-06-14T06:58:27Z</time>
      </trkpt>
      <trkpt lat="43.36102" lon="2.38202">
        <ele>284.69</ele>
        <time>2015-06-14T06:58:28Z</time>
      </trkpt>
      <trkpt lat="43.36113" lon="2.38198">
        <ele>285.17</ele>
        <time>2015-06-14T06:58:30Z</time>
      </trkpt>
      <trkpt lat="43.36118" lon="2.38195">
        <ele>285.17</ele>
        <time>2015-06-14T06:58:31Z</time>
      </trkpt>
      <trkpt lat="43.36149" lon="2.38171">
        <ele>285.17</ele>
        <time>2015-06-14T06:58:38Z</time>
      </trkpt>
      <trkpt lat="43.36193" lon="2.38135">
        <ele>286.13</ele>
        <time>2015-06-14T06:58:47Z</time>
      </trkpt>
      <trkpt lat="43.36196" lon="2.38129">
        <ele>286.13</ele>
        <time>2015-06-14T06:58:48Z</time>
      </trkpt>
      <trkpt lat="43.36199" lon="2.38122">
        <ele>285.65</ele>
        <time>2015-06-14T06:58:49Z</time>
      </trkpt>
      <trkpt lat="43.36201" lon="2.38113">
        <ele>285.65</ele>
        <time>2015-06-14T06:58:50Z</time>
      </trkpt>
      <trkpt lat="43.362" lon="2.38106">
        <ele>285.65</ele>
        <time>2015-06-14T06:58:51Z</time>
      </trkpt>
      <trkpt lat="43.36197" lon="2.38099">
        <ele>285.65</ele>
        <time>2015-06-14T06:58:52Z</time>
      </trkpt>
      <trkpt lat="43.36194" lon="2.38092">
        <ele>285.65</ele>
        <time>2015-06-14T06:58:53Z</time>
      </trkpt>
      <trkpt lat="43.36191" lon="2.38086">
        <ele>285.65</ele>
        <time>2015-06-14T06:58:54Z</time>
      </trkpt>
      <trkpt lat="43.36185" lon="2.38073">
        <ele>286.13</ele>
        <time>2015-06-14T06:58:56Z</time>
      </trkpt>
      <trkpt lat="43.36181" lon="2.3806">
        <ele>286.13</ele>
        <time>2015-06-14T06:58:58Z</time>
      </trkpt>
      <trkpt lat="43.36181" lon="2.38053">
        <ele>286.13</ele>
        <time>2015-06-14T06:58:59Z</time>
      </trkpt>
      <trkpt lat="43.36181" lon="2.38046">
        <ele>286.13</ele>
        <time>2015-06-14T06:59:00Z</time>
      </trkpt>
      <trkpt lat="43.36182" lon="2.38039">
        <ele>285.65</ele>
        <time>2015-06-14T06:59:01Z</time>
      </trkpt>
      <trkpt lat="43.36185" lon="2.38034">
        <ele>286.13</ele>
        <time>2015-06-14T06:59:02Z</time>
      </trkpt>
      <trkpt lat="43.36189" lon="2.38029">
        <ele>286.61</ele>
        <time>2015-06-14T06:59:03Z</time>
      </trkpt>
      <trkpt lat="43.36194" lon="2.38027">
        <ele>287.57</ele>
        <time>2015-06-14T06:59:04Z</time>
      </trkpt>
      <trkpt lat="43.36198" lon="2.38026">
        <ele>288.05</ele>
        <time>2015-06-14T06:59:05Z</time>
      </trkpt>
      <trkpt lat="43.36203" lon="2.38026">
        <ele>289.01</ele>
        <time>2015-06-14T06:59:06Z</time>
      </trkpt>
      <trkpt lat="43.36208" lon="2.38026">
        <ele>289.97</ele>
        <time>2015-06-14T06:59:07Z</time>
      </trkpt>
      <trkpt lat="43.36234" lon="2.38027">
        <ele>292.86</ele>
        <time>2015-06-14T06:59:12Z</time>
      </trkpt>
      <trkpt lat="43.36244" lon="2.38024">
        <ele>293.34</ele>
        <time>2015-06-14T06:59:14Z</time>
      </trkpt>
      <trkpt lat="43.36249" lon="2.38022">
        <ele>293.82</ele>
        <time>2015-06-14T06:59:15Z</time>
      </trkpt>
      <trkpt lat="43.36253" lon="2.38019">
        <ele>293.82</ele>
        <time>2015-06-14T06:59:16Z</time>
      </trkpt>
      <trkpt lat="43.36262" lon="2.38013">
        <ele>293.82</ele>
        <time>2015-06-14T06:59:18Z</time>
      </trkpt>
      <trkpt lat="43.36275" lon="2.38002">
        <ele>293.82</ele>
        <time>2015-06-14T06:59:21Z</time>
      </trkpt>
      <trkpt lat="43.36322" lon="2.37914">
        <ele>293.82</ele>
        <time>2015-06-14T06:59:36Z</time>
      </trkpt>
      <trkpt lat="43.36327" lon="2.37876">
        <ele>293.34</ele>
        <time>2015-06-14T06:59:41Z</time>
      </trkpt>
      <trkpt lat="43.36312" lon="2.37748">
        <ele>292.38</ele>
        <time>2015-06-14T06:59:58Z</time>
      </trkpt>
      <trkpt lat="43.36309" lon="2.37725">
        <ele>292.86</ele>
        <time>2015-06-14T07:00:01Z</time>
      </trkpt>
      <trkpt lat="43.36308" lon="2.3771">
        <ele>293.34</ele>
        <time>2015-06-14T07:00:03Z</time>
      </trkpt>
      <trkpt lat="43.36308" lon="2.37703">
        <ele>293.34</ele>
        <time>2015-06-14T07:00:04Z</time>
      </trkpt>
      <trkpt lat="43.36309" lon="2.37695">
        <ele>293.34</ele>
        <time>2015-06-14T07:00:05Z</time>
      </trkpt>
      <trkpt lat="43.3631" lon="2.37688">
        <ele>293.82</ele>
        <time>2015-06-14T07:00:06Z</time>
      </trkpt>
      <trkpt lat="43.36312" lon="2.37681">
        <ele>293.82</ele>
        <time>2015-06-14T07:00:07Z</time>
      </trkpt>
      <trkpt lat="43.36314" lon="2.37674">
        <ele>294.3</ele>
        <time>2015-06-14T07:00:08Z</time>
      </trkpt>
      <trkpt lat="43.36319" lon="2.37661">
        <ele>294.78</ele>
        <time>2015-06-14T07:00:10Z</time>
      </trkpt>
      <trkpt lat="43.36322" lon="2.37655">
        <ele>294.78</ele>
        <time>2015-06-14T07:00:11Z</time>
      </trkpt>
      <trkpt lat="43.36325" lon="2.3765">
        <ele>294.78</ele>
        <time>2015-06-14T07:00:12Z</time>
      </trkpt>
      <trkpt lat="43.36333" lon="2.37639">
        <ele>294.78</ele>
        <time>2015-06-14T07:00:14Z</time>
      </trkpt>
      <trkpt lat="43.36337" lon="2.37635">
        <ele>294.78</ele>
        <time>2015-06-14T07:00:15Z</time>
      </trkpt>
      <trkpt lat="43.36359" lon="2.37616">
        <ele>296.22</ele>
        <time>2015-06-14T07:00:20Z</time>
      </trkpt>
      <trkpt lat="43.36364" lon="2.37613">
        <ele>296.22</ele>
        <time>2015-06-14T07:00:21Z</time>
      </trkpt>
      <trkpt lat="43.36386" lon="2.37606">
        <ele>297.67</ele>
        <time>2015-06-14T07:00:25Z</time>
      </trkpt>
      <trkpt lat="43.36392" lon="2.37606">
        <ele>297.67</ele>
        <time>2015-06-14T07:00:26Z</time>
      </trkpt>
      <trkpt lat="43.36397" lon="2.37608">
        <ele>298.15</ele>
        <time>2015-06-14T07:00:27Z</time>
      </trkpt>
      <trkpt lat="43.36403" lon="2.3761">
        <ele>298.63</ele>
        <time>2015-06-14T07:00:28Z</time>
      </trkpt>
      <trkpt lat="43.36408" lon="2.37613">
        <ele>298.63</ele>
        <time>2015-06-14T07:00:29Z</time>
      </trkpt>
      <trkpt lat="43.36413" lon="2.37616">
        <ele>298.63</ele>
        <time>2015-06-14T07:00:30Z</time>
      </trkpt>
      <trkpt lat="43.36417" lon="2.3762">
        <ele>298.63</ele>
        <time>2015-06-14T07:00:31Z</time>
      </trkpt>
      <trkpt lat="43.36421" lon="2.37624">
        <ele>298.63</ele>
        <time>2015-06-14T07:00:32Z</time>
      </trkpt>
      <trkpt lat="43.36424" lon="2.3763">
        <ele>297.67</ele>
        <time>2015-06-14T07:00:33Z</time>
      </trkpt>
      <trkpt lat="43.36427" lon="2.37636">
        <ele>297.18</ele>
        <time>2015-06-14T07:00:34Z</time>
      </trkpt>
      <trkpt lat="43.3643" lon="2.37642">
        <ele>296.22</ele>
        <time>2015-06-14T07:00:35Z</time>
      </trkpt>
      <trkpt lat="43.36442" lon="2.37684">
        <ele>293.82</ele>
        <time>2015-06-14T07:00:41Z</time>
      </trkpt>
      <trkpt lat="43.36445" lon="2.37691">
        <ele>293.34</ele>
        <time>2015-06-14T07:00:42Z</time>
      </trkpt>
      <trkpt lat="43.36448" lon="2.37697">
        <ele>293.34</ele>
        <time>2015-06-14T07:00:43Z</time>
      </trkpt>
      <trkpt lat="43.3645" lon="2.37704">
        <ele>293.34</ele>
        <time>2015-06-14T07:00:44Z</time>
      </trkpt>
      <trkpt lat="43.36453" lon="2.3771">
        <ele>293.34</ele>
        <time>2015-06-14T07:00:45Z</time>
      </trkpt>
      <trkpt lat="43.36456" lon="2.37716">
        <ele>293.34</ele>
        <time>2015-06-14T07:00:46Z</time>
      </trkpt>
      <trkpt lat="43.36463" lon="2.37727">
        <ele>293.82</ele>
        <time>2015-06-14T07:00:48Z</time>
      </trkpt>
      <trkpt lat="43.36466" lon="2.37731">
        <ele>294.3</ele>
        <time>2015-06-14T07:00:49Z</time>
      </trkpt>
      <trkpt lat="43.36471" lon="2.37735">
        <ele>294.78</ele>
        <time>2015-06-14T07:00:50Z</time>
      </trkpt>
      <trkpt lat="43.36476" lon="2.37738">
        <ele>294.78</ele>
        <time>2015-06-14T07:00:51Z</time>
      </trkpt>
      <trkpt lat="43.36481" lon="2.37739">
        <ele>295.26</ele>
        <time>2015-06-14T07:00:52Z</time>
      </trkpt>
      <trkpt lat="43.36487" lon="2.37739">
        <ele>295.26</ele>
        <time>2015-06-14T07:00:53Z</time>
      </trkpt>
      <trkpt lat="43.36492" lon="2.37738">
        <ele>295.26</ele>
        <time>2015-06-14T07:00:54Z</time>
      </trkpt>
      <trkpt lat="43.36498" lon="2.37736">
        <ele>295.26</ele>
        <time>2015-06-14T07:00:55Z</time>
      </trkpt>
      <trkpt lat="43.36503" lon="2.37734">
        <ele>295.26</ele>
        <time>2015-06-14T07:00:56Z</time>
      </trkpt>
      <trkpt lat="43.36569" lon="2.37683">
        <ele>296.7</ele>
        <time>2015-06-14T07:01:10Z</time>
      </trkpt>
      <trkpt lat="43.36636" lon="2.37599">
        <ele>299.59</ele>
        <time>2015-06-14T07:01:26Z</time>
      </trkpt>
      <trkpt lat="43.36642" lon="2.37596">
        <ele>299.59</ele>
        <time>2015-06-14T07:01:27Z</time>
      </trkpt>
      <trkpt lat="43.36648" lon="2.37594">
        <ele>300.07</ele>
        <time>2015-06-14T07:01:28Z</time>
      </trkpt>
      <trkpt lat="43.36653" lon="2.37594">
        <ele>300.55</ele>
        <time>2015-06-14T07:01:29Z</time>
      </trkpt>
      <trkpt lat="43.36659" lon="2.37594">
        <ele>300.55</ele>
        <time>2015-06-14T07:01:30Z</time>
      </trkpt>
      <trkpt lat="43.36665" lon="2.37596">
        <ele>301.03</ele>
        <time>2015-06-14T07:01:31Z</time>
      </trkpt>
      <trkpt lat="43.36671" lon="2.37598">
        <ele>301.03</ele>
        <time>2015-06-14T07:01:32Z</time>
      </trkpt>
      <trkpt lat="43.36677" lon="2.376">
        <ele>301.03</ele>
        <time>2015-06-14T07:01:33Z</time>
      </trkpt>
      <trkpt lat="43.36724" lon="2.3762">
        <ele>301.03</ele>
        <time>2015-06-14T07:01:41Z</time>
      </trkpt>
      <trkpt lat="43.36731" lon="2.37621">
        <ele>301.03</ele>
        <time>2015-06-14T07:01:42Z</time>
      </trkpt>
      <trkpt lat="43.36737" lon="2.37619">
        <ele>301.03</ele>
        <time>2015-06-14T07:01:43Z</time>
      </trkpt>
      <trkpt lat="43.36743" lon="2.37615">
        <ele>300.55</ele>
        <time>2015-06-14T07:01:44Z</time>
      </trkpt>
      <trkpt lat="43.36747" lon="2.37609">
        <ele>301.03</ele>
        <time>2015-06-14T07:01:45Z</time>
      </trkpt>
      <trkpt lat="43.3675" lon="2.37601">
        <ele>300.55</ele>
        <time>2015-06-14T07:01:46Z</time>
      </trkpt>
      <trkpt lat="43.36751" lon="2.37593">
        <ele>300.07</ele>
        <time>2015-06-14T07:01:47Z</time>
      </trkpt>
      <trkpt lat="43.36752" lon="2.37584">
        <ele>300.07</ele>
        <time>2015-06-14T07:01:48Z</time>
      </trkpt>
      <trkpt lat="43.36752" lon="2.37576">
        <ele>299.59</ele>
        <time>2015-06-14T07:01:49Z</time>
      </trkpt>
      <trkpt lat="43.36753" lon="2.37559">
        <ele>299.59</ele>
        <time>2015-06-14T07:01:51Z</time>
      </trkpt>
      <trkpt lat="43.36754" lon="2.37542">
        <ele>299.11</ele>
        <time>2015-06-14T07:01:53Z</time>
      </trkpt>
      <trkpt lat="43.36756" lon="2.37533">
        <ele>299.11</ele>
        <time>2015-06-14T07:01:54Z</time>
      </trkpt>
      <trkpt lat="43.36758" lon="2.37526">
        <ele>299.11</ele>
        <time>2015-06-14T07:01:55Z</time>
      </trkpt>
      <trkpt lat="43.36766" lon="2.37496">
        <ele>299.59</ele>
        <time>2015-06-14T07:01:59Z</time>
      </trkpt>
      <trkpt lat="43.36766" lon="2.37489">
        <ele>299.59</ele>
        <time>2015-06-14T07:02:00Z</time>
      </trkpt>
      <trkpt lat="43.36764" lon="2.37482">
        <ele>299.59</ele>
        <time>2015-06-14T07:02:01Z</time>
      </trkpt>
      <trkpt lat="43.36762" lon="2.37474">
        <ele>299.59</ele>
        <time>2015-06-14T07:02:02Z</time>
      </trkpt>
      <trkpt lat="43.36759" lon="2.37467">
        <ele>299.11</ele>
        <time>2015-06-14T07:02:03Z</time>
      </trkpt>
      <trkpt lat="43.36755" lon="2.37461">
        <ele>299.11</ele>
        <time>2015-06-14T07:02:04Z</time>
      </trkpt>
      <trkpt lat="43.36751" lon="2.37455">
        <ele>299.11</ele>
        <time>2015-06-14T07:02:05Z</time>
      </trkpt>
      <trkpt lat="43.36747" lon="2.37448">
        <ele>299.11</ele>
        <time>2015-06-14T07:02:06Z</time>
      </trkpt>
      <trkpt lat="43.36743" lon="2.37442">
        <ele>299.11</ele>
        <time>2015-06-14T07:02:07Z</time>
      </trkpt>
      <trkpt lat="43.36739" lon="2.37435">
        <ele>299.11</ele>
        <time>2015-06-14T07:02:08Z</time>
      </trkpt>
      <trkpt lat="43.36736" lon="2.37428">
        <ele>299.11</ele>
        <time>2015-06-14T07:02:09Z</time>
      </trkpt>
      <trkpt lat="43.36734" lon="2.37421">
        <ele>299.11</ele>
        <time>2015-06-14T07:02:10Z</time>
      </trkpt>
      <trkpt lat="43.36732" lon="2.37413">
        <ele>299.11</ele>
        <time>2015-06-14T07:02:11Z</time>
      </trkpt>
      <trkpt lat="43.36731" lon="2.37405">
        <ele>299.11</ele>
        <time>2015-06-14T07:02:12Z</time>
      </trkpt>
      <trkpt lat="43.36732" lon="2.37397">
        <ele>299.11</ele>
        <time>2015-06-14T07:02:13Z</time>
      </trkpt>
      <trkpt lat="43.36734" lon="2.3739">
        <ele>299.59</ele>
        <time>2015-06-14T07:02:14Z</time>
      </trkpt>
      <trkpt lat="43.36736" lon="2.37383">
        <ele>299.59</ele>
        <time>2015-06-14T07:02:15Z</time>
      </trkpt>
      <trkpt lat="43.36747" lon="2.3735">
        <ele>300.55</ele>
        <time>2015-06-14T07:02:20Z</time>
      </trkpt>
      <trkpt lat="43.36748" lon="2.37343">
        <ele>300.55</ele>
        <time>2015-06-14T07:02:21Z</time>
      </trkpt>
      <trkpt lat="43.36749" lon="2.37336">
        <ele>300.55</ele>
        <time>2015-06-14T07:02:22Z</time>
      </trkpt>
      <trkpt lat="43.3675" lon="2.37321">
        <ele>301.03</ele>
        <time>2015-06-14T07:02:24Z</time>
      </trkpt>
      <trkpt lat="43.3675" lon="2.37314">
        <ele>301.03</ele>
        <time>2015-06-14T07:02:25Z</time>
      </trkpt>
      <trkpt lat="43.36747" lon="2.37223">
        <ele>301.51</ele>
        <time>2015-06-14T07:02:37Z</time>
      </trkpt>
      <trkpt lat="43.36741" lon="2.37113">
        <ele>305.36</ele>
        <time>2015-06-14T07:02:52Z</time>
      </trkpt>
      <trkpt lat="43.36742" lon="2.37091">
        <ele>306.32</ele>
        <time>2015-06-14T07:02:55Z</time>
      </trkpt>
      <trkpt lat="43.36744" lon="2.37084">
        <ele>306.8</ele>
        <time>2015-06-14T07:02:56Z</time>
      </trkpt>
      <trkpt lat="43.36746" lon="2.37077">
        <ele>307.28</ele>
        <time>2015-06-14T07:02:57Z</time>
      </trkpt>
      <trkpt lat="43.3675" lon="2.37071">
        <ele>307.28</ele>
        <time>2015-06-14T07:02:58Z</time>
      </trkpt>
      <trkpt lat="43.36754" lon="2.37066">
        <ele>307.76</ele>
        <time>2015-06-14T07:02:59Z</time>
      </trkpt>
      <trkpt lat="43.36767" lon="2.37053">
        <ele>308.24</ele>
        <time>2015-06-14T07:03:02Z</time>
      </trkpt>
      <trkpt lat="43.36782" lon="2.37029">
        <ele>309.68</ele>
        <time>2015-06-14T07:03:06Z</time>
      </trkpt>
      <trkpt lat="43.36784" lon="2.37022">
        <ele>310.16</ele>
        <time>2015-06-14T07:03:07Z</time>
      </trkpt>
      <trkpt lat="43.36789" lon="2.37008">
        <ele>311.12</ele>
        <time>2015-06-14T07:03:09Z</time>
      </trkpt>
      <trkpt lat="43.36796" lon="2.3697">
        <ele>313.53</ele>
        <time>2015-06-14T07:03:14Z</time>
      </trkpt>
      <trkpt lat="43.36797" lon="2.36955">
        <ele>314.49</ele>
        <time>2015-06-14T07:03:16Z</time>
      </trkpt>
      <trkpt lat="43.36797" lon="2.36947">
        <ele>314.49</ele>
        <time>2015-06-14T07:03:17Z</time>
      </trkpt>
      <trkpt lat="43.36796" lon="2.36939">
        <ele>314.97</ele>
        <time>2015-06-14T07:03:18Z</time>
      </trkpt>
      <trkpt lat="43.36795" lon="2.36931">
        <ele>315.45</ele>
        <time>2015-06-14T07:03:19Z</time>
      </trkpt>
      <trkpt lat="43.36793" lon="2.36924">
        <ele>315.93</ele>
        <time>2015-06-14T07:03:20Z</time>
      </trkpt>
      <trkpt lat="43.36782" lon="2.36869">
        <ele>317.37</ele>
        <time>2015-06-14T07:03:27Z</time>
      </trkpt>
      <trkpt lat="43.36782" lon="2.36851">
        <ele>317.37</ele>
        <time>2015-06-14T07:03:29Z</time>
      </trkpt>
      <trkpt lat="43.36782" lon="2.36843">
        <ele>316.41</ele>
        <time>2015-06-14T07:03:30Z</time>
      </trkpt>
      <trkpt lat="43.36784" lon="2.36835">
        <ele>315.93</ele>
        <time>2015-06-14T07:03:31Z</time>
      </trkpt>
      <trkpt lat="43.36785" lon="2.36827">
        <ele>315.45</ele>
        <time>2015-06-14T07:03:32Z</time>
      </trkpt>
      <trkpt lat="43.36788" lon="2.36821">
        <ele>314.97</ele>
        <time>2015-06-14T07:03:33Z</time>
      </trkpt>
      <trkpt lat="43.36792" lon="2.36815">
        <ele>314.97</ele>
        <time>2015-06-14T07:03:34Z</time>
      </trkpt>
      <trkpt lat="43.36797" lon="2.36812">
        <ele>315.45</ele>
        <time>2015-06-14T07:03:35Z</time>
      </trkpt>
      <trkpt lat="43.36801" lon="2.36809">
        <ele>315.45</ele>
        <time>2015-06-14T07:03:36Z</time>
      </trkpt>
      <trkpt lat="43.36812" lon="2.36798">
        <ele>315.93</ele>
        <time>2015-06-14T07:03:39Z</time>
      </trkpt>
      <trkpt lat="43.36815" lon="2.36794">
        <ele>316.41</ele>
        <time>2015-06-14T07:03:40Z</time>
      </trkpt>
      <trkpt lat="43.36817" lon="2.3679">
        <ele>316.41</ele>
        <time>2015-06-14T07:03:41Z</time>
      </trkpt>
      <trkpt lat="43.36819" lon="2.36786">
        <ele>316.89</ele>
        <time>2015-06-14T07:03:42Z</time>
      </trkpt>
      <trkpt lat="43.3682" lon="2.36782">
        <ele>316.89</ele>
        <time>2015-06-14T07:03:43Z</time>
      </trkpt>
      <trkpt lat="43.36821" lon="2.36778">
        <ele>316.41</ele>
        <time>2015-06-14T07:03:44Z</time>
      </trkpt>
      <trkpt lat="43.36823" lon="2.36774">
        <ele>316.41</ele>
        <time>2015-06-14T07:03:45Z</time>
      </trkpt>
      <trkpt lat="43.36826" lon="2.36769">
        <ele>315.93</ele>
        <time>2015-06-14T07:03:46Z</time>
      </trkpt>
      <trkpt lat="43.36853" lon="2.36711">
        <ele>313.05</ele>
        <time>2015-06-14T07:03:59Z</time>
      </trkpt>
      <trkpt lat="43.36864" lon="2.36688">
        <ele>312.57</ele>
        <time>2015-06-14T07:04:13Z</time>
      </trkpt>
      <trkpt lat="43.36867" lon="2.36685">
        <ele>314.01</ele>
        <time>2015-06-14T07:04:37Z</time>
      </trkpt>
      <trkpt lat="43.36863" lon="2.36687">
        <ele>314.97</ele>
        <time>2015-06-14T07:05:03Z</time>
      </trkpt>
      <trkpt lat="43.36859" lon="2.36686">
        <ele>315.45</ele>
        <time>2015-06-14T07:05:29Z</time>
      </trkpt>
      <trkpt lat="43.36865" lon="2.36683">
        <ele>314.49</ele>
        <time>2015-06-14T07:05:59Z</time>
      </trkpt>
      <trkpt lat="43.36865" lon="2.36682">
        <ele>317.37</ele>
        <time>2015-06-14T07:06:20Z</time>
      </trkpt>
      <trkpt lat="43.36864" lon="2.36684">
        <ele>314.01</ele>
        <time>2015-06-14T07:06:50Z</time>
      </trkpt>
      <trkpt lat="43.36862" lon="2.36685">
        <ele>317.37</ele>
        <time>2015-06-14T07:07:20Z</time>
      </trkpt>
      <trkpt lat="43.36862" lon="2.36686">
        <ele>316.41</ele>
        <time>2015-06-14T07:08:00Z</time>
      </trkpt>
      <trkpt lat="43.36858" lon="2.36682">
        <ele>315.93</ele>
        <time>2015-06-14T07:08:31Z</time>
      </trkpt>
      <trkpt lat="43.36858" lon="2.36685">
        <ele>313.53</ele>
        <time>2015-06-14T07:09:03Z</time>
      </trkpt>
      <trkpt lat="43.36855" lon="2.36689">
        <ele>323.14</ele>
        <time>2015-06-14T07:09:36Z</time>
      </trkpt>
      <trkpt lat="43.36859" lon="2.36686">
        <ele>327.47</ele>
        <time>2015-06-14T07:10:03Z</time>
      </trkpt>
      <trkpt lat="43.36859" lon="2.36684">
        <ele>328.43</ele>
        <time>2015-06-14T07:10:31Z</time>
      </trkpt>
      <trkpt lat="43.36857" lon="2.36685">
        <ele>329.87</ele>
        <time>2015-06-14T07:10:54Z</time>
      </trkpt>
      <trkpt lat="43.36858" lon="2.36681">
        <ele>330.35</ele>
        <time>2015-06-14T07:11:17Z</time>
      </trkpt>
      <trkpt lat="43.36864" lon="2.36676">
        <ele>326.99</ele>
        <time>2015-06-14T07:11:41Z</time>
      </trkpt>
      <trkpt lat="43.36868" lon="2.36676">
        <ele>321.7</ele>
        <time>2015-06-14T07:12:07Z</time>
      </trkpt>
      <trkpt lat="43.36869" lon="2.36678">
        <ele>320.26</ele>
        <time>2015-06-14T07:12:31Z</time>
      </trkpt>
      <trkpt lat="43.36867" lon="2.36682">
        <ele>321.22</ele>
        <time>2015-06-14T07:13:00Z</time>
      </trkpt>
      <trkpt lat="43.36869" lon="2.36685">
        <ele>315.93</ele>
        <time>2015-06-14T07:13:25Z</time>
      </trkpt>
      <trkpt lat="43.36867" lon="2.36687">
        <ele>315.45</ele>
        <time>2015-06-14T07:13:27Z</time>
      </trkpt>
      <trkpt lat="43.36865" lon="2.36691">
        <ele>313.05</ele>
        <time>2015-06-14T07:13:42Z</time>
      </trkpt>
      <trkpt lat="43.36863" lon="2.36693">
        <ele>314.49</ele>
        <time>2015-06-14T07:13:58Z</time>
      </trkpt>
      <trkpt lat="43.36853" lon="2.3671">
        <ele>313.53</ele>
        <time>2015-06-14T07:14:17Z</time>
      </trkpt>
      <trkpt lat="43.36847" lon="2.36732">
        <ele>312.57</ele>
        <time>2015-06-14T07:14:28Z</time>
      </trkpt>
      <trkpt lat="43.36846" lon="2.36733">
        <ele>312.57</ele>
        <time>2015-06-14T07:14:29Z</time>
      </trkpt>
      <trkpt lat="43.36842" lon="2.36739">
        <ele>312.57</ele>
        <time>2015-06-14T07:14:34Z</time>
      </trkpt>
      <trkpt lat="43.36832" lon="2.3676">
        <ele>312.57</ele>
        <time>2015-06-14T07:14:48Z</time>
      </trkpt>
      <trkpt lat="43.36825" lon="2.36772">
        <ele>313.05</ele>
        <time>2015-06-14T07:14:54Z</time>
      </trkpt>
      <trkpt lat="43.36821" lon="2.36783">
        <ele>313.05</ele>
        <time>2015-06-14T07:14:59Z</time>
      </trkpt>
      <trkpt lat="43.36821" lon="2.36785">
        <ele>313.05</ele>
        <time>2015-06-14T07:15:00Z</time>
      </trkpt>
      <trkpt lat="43.3682" lon="2.36787">
        <ele>313.05</ele>
        <time>2015-06-14T07:15:01Z</time>
      </trkpt>
      <trkpt lat="43.3682" lon="2.36788">
        <ele>313.05</ele>
        <time>2015-06-14T07:15:02Z</time>
      </trkpt>
      <trkpt lat="43.36819" lon="2.3679">
        <ele>313.05</ele>
        <time>2015-06-14T07:15:03Z</time>
      </trkpt>
      <trkpt lat="43.36817" lon="2.36792">
        <ele>313.05</ele>
        <time>2015-06-14T07:15:04Z</time>
      </trkpt>
      <trkpt lat="43.36816" lon="2.36793">
        <ele>313.05</ele>
        <time>2015-06-14T07:15:05Z</time>
      </trkpt>
      <trkpt lat="43.36784" lon="2.36815">
        <ele>310.64</ele>
        <time>2015-06-14T07:15:16Z</time>
      </trkpt>
      <trkpt lat="43.36782" lon="2.36821">
        <ele>310.16</ele>
        <time>2015-06-14T07:15:17Z</time>
      </trkpt>
      <trkpt lat="43.3678" lon="2.36829">
        <ele>310.16</ele>
        <time>2015-06-14T07:15:18Z</time>
      </trkpt>
      <trkpt lat="43.36778" lon="2.36844">
        <ele>310.16</ele>
        <time>2015-06-14T07:15:20Z</time>
      </trkpt>
      <trkpt lat="43.36778" lon="2.36851">
        <ele>309.68</ele>
        <time>2015-06-14T07:15:21Z</time>
      </trkpt>
      <trkpt lat="43.36778" lon="2.36859">
        <ele>309.68</ele>
        <time>2015-06-14T07:15:22Z</time>
      </trkpt>
      <trkpt lat="43.36779" lon="2.36866">
        <ele>309.2</ele>
        <time>2015-06-14T07:15:23Z</time>
      </trkpt>
      <trkpt lat="43.36781" lon="2.36874">
        <ele>309.2</ele>
        <time>2015-06-14T07:15:24Z</time>
      </trkpt>
      <trkpt lat="43.36782" lon="2.36882">
        <ele>309.2</ele>
        <time>2015-06-14T07:15:25Z</time>
      </trkpt>
      <trkpt lat="43.36784" lon="2.3689">
        <ele>309.2</ele>
        <time>2015-06-14T07:15:26Z</time>
      </trkpt>
      <trkpt lat="43.36797" lon="2.36959">
        <ele>308.72</ele>
        <time>2015-06-14T07:15:35Z</time>
      </trkpt>
      <trkpt lat="43.36796" lon="2.36975">
        <ele>308.72</ele>
        <time>2015-06-14T07:15:37Z</time>
      </trkpt>
      <trkpt lat="43.36795" lon="2.36982">
        <ele>309.2</ele>
        <time>2015-06-14T07:15:38Z</time>
      </trkpt>
      <trkpt lat="43.36793" lon="2.3699">
        <ele>309.2</ele>
        <time>2015-06-14T07:15:39Z</time>
      </trkpt>
      <trkpt lat="43.3678" lon="2.37027">
        <ele>309.2</ele>
        <time>2015-06-14T07:15:44Z</time>
      </trkpt>
      <trkpt lat="43.36777" lon="2.37033">
        <ele>309.68</ele>
        <time>2015-06-14T07:15:45Z</time>
      </trkpt>
      <trkpt lat="43.36772" lon="2.37039">
        <ele>309.2</ele>
        <time>2015-06-14T07:15:46Z</time>
      </trkpt>
      <trkpt lat="43.36763" lon="2.37051">
        <ele>309.2</ele>
        <time>2015-06-14T07:15:48Z</time>
      </trkpt>
      <trkpt lat="43.36758" lon="2.37055">
        <ele>309.68</ele>
        <time>2015-06-14T07:15:49Z</time>
      </trkpt>
      <trkpt lat="43.36753" lon="2.3706">
        <ele>309.68</ele>
        <time>2015-06-14T07:15:50Z</time>
      </trkpt>
      <trkpt lat="43.36744" lon="2.37071">
        <ele>309.68</ele>
        <time>2015-06-14T07:15:52Z</time>
      </trkpt>
      <trkpt lat="43.36741" lon="2.37078">
        <ele>309.68</ele>
        <time>2015-06-14T07:15:53Z</time>
      </trkpt>
      <trkpt lat="43.36738" lon="2.37086">
        <ele>309.68</ele>
        <time>2015-06-14T07:15:54Z</time>
      </trkpt>
      <trkpt lat="43.36736" lon="2.37094">
        <ele>309.68</ele>
        <time>2015-06-14T07:15:55Z</time>
      </trkpt>
      <trkpt lat="43.36736" lon="2.37103">
        <ele>309.2</ele>
        <time>2015-06-14T07:15:56Z</time>
      </trkpt>
      <trkpt lat="43.36736" lon="2.37112">
        <ele>308.72</ele>
        <time>2015-06-14T07:15:57Z</time>
      </trkpt>
      <trkpt lat="43.36737" lon="2.37121">
        <ele>308.72</ele>
        <time>2015-06-14T07:15:58Z</time>
      </trkpt>
      <trkpt lat="43.36746" lon="2.37279">
        <ele>305.84</ele>
        <time>2015-06-14T07:16:15Z</time>
      </trkpt>
      <trkpt lat="43.36747" lon="2.37335">
        <ele>304.88</ele>
        <time>2015-06-14T07:16:21Z</time>
      </trkpt>
      <trkpt lat="43.36746" lon="2.37344">
        <ele>304.88</ele>
        <time>2015-06-14T07:16:22Z</time>
      </trkpt>
      <trkpt lat="43.36744" lon="2.37353">
        <ele>304.39</ele>
        <time>2015-06-14T07:16:23Z</time>
      </trkpt>
      <trkpt lat="43.36741" lon="2.37362">
        <ele>304.39</ele>
        <time>2015-06-14T07:16:24Z</time>
      </trkpt>
      <trkpt lat="43.36738" lon="2.3737">
        <ele>303.91</ele>
        <time>2015-06-14T07:16:25Z</time>
      </trkpt>
      <trkpt lat="43.36732" lon="2.37387">
        <ele>303.43</ele>
        <time>2015-06-14T07:16:27Z</time>
      </trkpt>
      <trkpt lat="43.3673" lon="2.37396">
        <ele>302.95</ele>
        <time>2015-06-14T07:16:28Z</time>
      </trkpt>
      <trkpt lat="43.36729" lon="2.37406">
        <ele>302.95</ele>
        <time>2015-06-14T07:16:29Z</time>
      </trkpt>
      <trkpt lat="43.3673" lon="2.37416">
        <ele>302.47</ele>
        <time>2015-06-14T07:16:30Z</time>
      </trkpt>
      <trkpt lat="43.36732" lon="2.37425">
        <ele>301.99</ele>
        <time>2015-06-14T07:16:31Z</time>
      </trkpt>
      <trkpt lat="43.36736" lon="2.37434">
        <ele>301.51</ele>
        <time>2015-06-14T07:16:32Z</time>
      </trkpt>
      <trkpt lat="43.3674" lon="2.37441">
        <ele>301.03</ele>
        <time>2015-06-14T07:16:33Z</time>
      </trkpt>
      <trkpt lat="43.36745" lon="2.37449">
        <ele>301.03</ele>
        <time>2015-06-14T07:16:34Z</time>
      </trkpt>
      <trkpt lat="43.3675" lon="2.37455">
        <ele>300.55</ele>
        <time>2015-06-14T07:16:35Z</time>
      </trkpt>
      <trkpt lat="43.36763" lon="2.37476">
        <ele>300.07</ele>
        <time>2015-06-14T07:16:38Z</time>
      </trkpt>
      <trkpt lat="43.36766" lon="2.37483">
        <ele>299.59</ele>
        <time>2015-06-14T07:16:39Z</time>
      </trkpt>
      <trkpt lat="43.36766" lon="2.37492">
        <ele>299.11</ele>
        <time>2015-06-14T07:16:40Z</time>
      </trkpt>
      <trkpt lat="43.36765" lon="2.375">
        <ele>299.11</ele>
        <time>2015-06-14T07:16:41Z</time>
      </trkpt>
      <trkpt lat="43.36763" lon="2.37507">
        <ele>298.63</ele>
        <time>2015-06-14T07:16:42Z</time>
      </trkpt>
      <trkpt lat="43.36759" lon="2.37515">
        <ele>298.63</ele>
        <time>2015-06-14T07:16:43Z</time>
      </trkpt>
      <trkpt lat="43.36751" lon="2.37538">
        <ele>298.15</ele>
        <time>2015-06-14T07:16:46Z</time>
      </trkpt>
      <trkpt lat="43.36751" lon="2.37547">
        <ele>298.15</ele>
        <time>2015-06-14T07:16:47Z</time>
      </trkpt>
      <trkpt lat="43.36753" lon="2.37555">
        <ele>297.67</ele>
        <time>2015-06-14T07:16:48Z</time>
      </trkpt>
      <trkpt lat="43.36758" lon="2.37561">
        <ele>297.67</ele>
        <time>2015-06-14T07:16:49Z</time>
      </trkpt>
      <trkpt lat="43.36764" lon="2.37563">
        <ele>297.67</ele>
        <time>2015-06-14T07:16:50Z</time>
      </trkpt>
      <trkpt lat="43.36768" lon="2.37563">
        <ele>297.67</ele>
        <time>2015-06-14T07:16:51Z</time>
      </trkpt>
      <trkpt lat="43.36773" lon="2.37563">
        <ele>297.67</ele>
        <time>2015-06-14T07:16:52Z</time>
      </trkpt>
      <trkpt lat="43.36797" lon="2.37561">
        <ele>300.07</ele>
        <time>2015-06-14T07:16:57Z</time>
      </trkpt>
      <trkpt lat="43.36852" lon="2.3757">
        <ele>304.88</ele>
        <time>2015-06-14T07:17:10Z</time>
      </trkpt>
      <trkpt lat="43.36886" lon="2.37608">
        <ele>306.32</ele>
        <time>2015-06-14T07:17:22Z</time>
      </trkpt>
      <trkpt lat="43.36917" lon="2.37679">
        <ele>309.2</ele>
        <time>2015-06-14T07:17:38Z</time>
      </trkpt>
      <trkpt lat="43.36935" lon="2.37741">
        <ele>312.09</ele>
        <time>2015-06-14T07:17:52Z</time>
      </trkpt>
      <trkpt lat="43.36942" lon="2.37753">
        <ele>312.09</ele>
        <time>2015-06-14T07:17:55Z</time>
      </trkpt>
      <trkpt lat="43.36946" lon="2.37755">
        <ele>311.6</ele>
        <time>2015-06-14T07:17:56Z</time>
      </trkpt>
      <trkpt lat="43.3695" lon="2.37755">
        <ele>311.6</ele>
        <time>2015-06-14T07:17:57Z</time>
      </trkpt>
      <trkpt lat="43.36955" lon="2.37753">
        <ele>311.6</ele>
        <time>2015-06-14T07:17:58Z</time>
      </trkpt>
      <trkpt lat="43.36958" lon="2.3775">
        <ele>311.6</ele>
        <time>2015-06-14T07:17:59Z</time>
      </trkpt>
      <trkpt lat="43.36962" lon="2.37747">
        <ele>311.6</ele>
        <time>2015-06-14T07:18:00Z</time>
      </trkpt>
      <trkpt lat="43.36999" lon="2.37711">
        <ele>313.53</ele>
        <time>2015-06-14T07:18:10Z</time>
      </trkpt>
      <trkpt lat="43.37011" lon="2.37702">
        <ele>314.49</ele>
        <time>2015-06-14T07:18:13Z</time>
      </trkpt>
      <trkpt lat="43.37015" lon="2.377">
        <ele>314.49</ele>
        <time>2015-06-14T07:18:14Z</time>
      </trkpt>
      <trkpt lat="43.37038" lon="2.37695">
        <ele>315.45</ele>
        <time>2015-06-14T07:18:19Z</time>
      </trkpt>
      <trkpt lat="43.37042" lon="2.37695">
        <ele>315.45</ele>
        <time>2015-06-14T07:18:20Z</time>
      </trkpt>
      <trkpt lat="43.37103" lon="2.37699">
        <ele>318.81</ele>
        <time>2015-06-14T07:18:34Z</time>
      </trkpt>
      <trkpt lat="43.3714" lon="2.37728">
        <ele>318.81</ele>
        <time>2015-06-14T07:18:45Z</time>
      </trkpt>
      <trkpt lat="43.37163" lon="2.37784">
        <ele>321.22</ele>
        <time>2015-06-14T07:18:58Z</time>
      </trkpt>
      <trkpt lat="43.372" lon="2.37779">
        <ele>324.58</ele>
        <time>2015-06-14T07:19:09Z</time>
      </trkpt>
      <trkpt lat="43.37241" lon="2.378">
        <ele>325.06</ele>
        <time>2015-06-14T07:19:21Z</time>
      </trkpt>
      <trkpt lat="43.37277" lon="2.37875">
        <ele>326.5</ele>
        <time>2015-06-14T07:19:36Z</time>
      </trkpt>
      <trkpt lat="43.3728" lon="2.37879">
        <ele>326.5</ele>
        <time>2015-06-14T07:19:37Z</time>
      </trkpt>
      <trkpt lat="43.37283" lon="2.3788">
        <ele>326.02</ele>
        <time>2015-06-14T07:19:38Z</time>
      </trkpt>
      <trkpt lat="43.37286" lon="2.37879">
        <ele>325.06</ele>
        <time>2015-06-14T07:19:39Z</time>
      </trkpt>
      <trkpt lat="43.37289" lon="2.37875">
        <ele>324.58</ele>
        <time>2015-06-14T07:19:40Z</time>
      </trkpt>
      <trkpt lat="43.3729" lon="2.37871">
        <ele>324.1</ele>
        <time>2015-06-14T07:19:41Z</time>
      </trkpt>
      <trkpt lat="43.3729" lon="2.37867">
        <ele>323.62</ele>
        <time>2015-06-14T07:19:42Z</time>
      </trkpt>
      <trkpt lat="43.37289" lon="2.37864">
        <ele>323.14</ele>
        <time>2015-06-14T07:19:43Z</time>
      </trkpt>
      <trkpt lat="43.37288" lon="2.3786">
        <ele>323.14</ele>
        <time>2015-06-14T07:19:44Z</time>
      </trkpt>
      <trkpt lat="43.3728" lon="2.37812">
        <ele>324.58</ele>
        <time>2015-06-14T07:19:57Z</time>
      </trkpt>
      <trkpt lat="43.37291" lon="2.37767">
        <ele>328.43</ele>
        <time>2015-06-14T07:20:10Z</time>
      </trkpt>
      <trkpt lat="43.37313" lon="2.37723">
        <ele>334.2</ele>
        <time>2015-06-14T07:20:25Z</time>
      </trkpt>
      <trkpt lat="43.37335" lon="2.3769">
        <ele>337.56</ele>
        <time>2015-06-14T07:20:39Z</time>
      </trkpt>
      <trkpt lat="43.37373" lon="2.37683">
        <ele>340.92</ele>
        <time>2015-06-14T07:20:54Z</time>
      </trkpt>
      <trkpt lat="43.37403" lon="2.37687">
        <ele>345.73</ele>
        <time>2015-06-14T07:21:07Z</time>
      </trkpt>
      <trkpt lat="43.3743" lon="2.37686">
        <ele>350.54</ele>
        <time>2015-06-14T07:21:18Z</time>
      </trkpt>
      <trkpt lat="43.37465" lon="2.3768">
        <ele>356.79</ele>
        <time>2015-06-14T07:21:33Z</time>
      </trkpt>
      <trkpt lat="43.37477" lon="2.37703">
        <ele>359.67</ele>
        <time>2015-06-14T07:21:42Z</time>
      </trkpt>
      <trkpt lat="43.37476" lon="2.37706">
        <ele>360.15</ele>
        <time>2015-06-14T07:21:43Z</time>
      </trkpt>
      <trkpt lat="43.37474" lon="2.37708">
        <ele>360.15</ele>
        <time>2015-06-14T07:21:44Z</time>
      </trkpt>
      <trkpt lat="43.37472" lon="2.37711">
        <ele>360.63</ele>
        <time>2015-06-14T07:21:45Z</time>
      </trkpt>
      <trkpt lat="43.37471" lon="2.37712">
        <ele>361.11</ele>
        <time>2015-06-14T07:21:46Z</time>
      </trkpt>
      <trkpt lat="43.37455" lon="2.37749">
        <ele>366.88</ele>
        <time>2015-06-14T07:21:59Z</time>
      </trkpt>
      <trkpt lat="43.37451" lon="2.37796">
        <ele>375.05</ele>
        <time>2015-06-14T07:22:13Z</time>
      </trkpt>
      <trkpt lat="43.37455" lon="2.37851">
        <ele>381.78</ele>
        <time>2015-06-14T07:22:27Z</time>
      </trkpt>
      <trkpt lat="43.3749" lon="2.3788">
        <ele>376.01</ele>
        <time>2015-06-14T07:22:41Z</time>
      </trkpt>
      <trkpt lat="43.37518" lon="2.37911">
        <ele>377.94</ele>
        <time>2015-06-14T07:22:54Z</time>
      </trkpt>
      <trkpt lat="43.3755" lon="2.37963">
        <ele>380.34</ele>
        <time>2015-06-14T07:23:12Z</time>
      </trkpt>
      <trkpt lat="43.37563" lon="2.38009">
        <ele>380.82</ele>
        <time>2015-06-14T07:23:26Z</time>
      </trkpt>
      <trkpt lat="43.37583" lon="2.38055">
        <ele>382.26</ele>
        <time>2015-06-14T07:23:41Z</time>
      </trkpt>
      <trkpt lat="43.37605" lon="2.38082">
        <ele>382.74</ele>
        <time>2015-06-14T07:23:54Z</time>
      </trkpt>
      <trkpt lat="43.37614" lon="2.38121">
        <ele>384.18</ele>
        <time>2015-06-14T07:24:08Z</time>
      </trkpt>
      <trkpt lat="43.37614" lon="2.38123">
        <ele>384.18</ele>
        <time>2015-06-14T07:24:09Z</time>
      </trkpt>
      <trkpt lat="43.37613" lon="2.38142">
        <ele>385.15</ele>
        <time>2015-06-14T07:24:16Z</time>
      </trkpt>
      <trkpt lat="43.37612" lon="2.38145">
        <ele>385.63</ele>
        <time>2015-06-14T07:24:17Z</time>
      </trkpt>
      <trkpt lat="43.37605" lon="2.38189">
        <ele>391.87</ele>
        <time>2015-06-14T07:24:30Z</time>
      </trkpt>
      <trkpt lat="43.37621" lon="2.38233">
        <ele>394.28</ele>
        <time>2015-06-14T07:24:45Z</time>
      </trkpt>
      <trkpt lat="43.37648" lon="2.38253">
        <ele>398.6</ele>
        <time>2015-06-14T07:24:59Z</time>
      </trkpt>
      <trkpt lat="43.37676" lon="2.38278">
        <ele>405.33</ele>
        <time>2015-06-14T07:25:14Z</time>
      </trkpt>
      <trkpt lat="43.37703" lon="2.38306">
        <ele>406.77</ele>
        <time>2015-06-14T07:25:28Z</time>
      </trkpt>
      <trkpt lat="43.37716" lon="2.38349">
        <ele>412.06</ele>
        <time>2015-06-14T07:25:43Z</time>
      </trkpt>
      <trkpt lat="43.37724" lon="2.38397">
        <ele>416.87</ele>
        <time>2015-06-14T07:25:59Z</time>
      </trkpt>
      <trkpt lat="43.37731" lon="2.38413">
        <ele>416.39</ele>
        <time>2015-06-14T07:26:05Z</time>
      </trkpt>
      <trkpt lat="43.37732" lon="2.38414">
        <ele>416.39</ele>
        <time>2015-06-14T07:26:06Z</time>
      </trkpt>
      <trkpt lat="43.37734" lon="2.38415">
        <ele>416.87</ele>
        <time>2015-06-14T07:26:07Z</time>
      </trkpt>
      <trkpt lat="43.37736" lon="2.38416">
        <ele>416.87</ele>
        <time>2015-06-14T07:26:08Z</time>
      </trkpt>
      <trkpt lat="43.37738" lon="2.38416">
        <ele>416.87</ele>
        <time>2015-06-14T07:26:09Z</time>
      </trkpt>
      <trkpt lat="43.37775" lon="2.38425">
        <ele>421.19</ele>
        <time>2015-06-14T07:26:26Z</time>
      </trkpt>
      <trkpt lat="43.3781" lon="2.38435">
        <ele>425.04</ele>
        <time>2015-06-14T07:26:42Z</time>
      </trkpt>
      <trkpt lat="43.37839" lon="2.38458">
        <ele>426</ele>
        <time>2015-06-14T07:26:57Z</time>
      </trkpt>
      <trkpt lat="43.37869" lon="2.38477">
        <ele>426.96</ele>
        <time>2015-06-14T07:27:11Z</time>
      </trkpt>
      <trkpt lat="43.3789" lon="2.3846">
        <ele>434.17</ele>
        <time>2015-06-14T07:27:23Z</time>
      </trkpt>
      <trkpt lat="43.37911" lon="2.38447">
        <ele>443.31</ele>
        <time>2015-06-14T07:27:37Z</time>
      </trkpt>
      <trkpt lat="43.37915" lon="2.38452">
        <ele>446.19</ele>
        <time>2015-06-14T07:27:41Z</time>
      </trkpt>
      <trkpt lat="43.3792" lon="2.38449">
        <ele>446.19</ele>
        <time>2015-06-14T07:27:42Z</time>
      </trkpt>
      <trkpt lat="43.37924" lon="2.38448">
        <ele>446.19</ele>
        <time>2015-06-14T07:27:43Z</time>
      </trkpt>
      <trkpt lat="43.37926" lon="2.38449">
        <ele>446.19</ele>
        <time>2015-06-14T07:27:44Z</time>
      </trkpt>
      <trkpt lat="43.37929" lon="2.38451">
        <ele>446.67</ele>
        <time>2015-06-14T07:27:45Z</time>
      </trkpt>
      <trkpt lat="43.37933" lon="2.38452">
        <ele>446.67</ele>
        <time>2015-06-14T07:27:46Z</time>
      </trkpt>
      <trkpt lat="43.37934" lon="2.38453">
        <ele>447.15</ele>
        <time>2015-06-14T07:27:47Z</time>
      </trkpt>
      <trkpt lat="43.37938" lon="2.38454">
        <ele>447.15</ele>
        <time>2015-06-14T07:27:48Z</time>
      </trkpt>
      <trkpt lat="43.3794" lon="2.38455">
        <ele>447.63</ele>
        <time>2015-06-14T07:27:49Z</time>
      </trkpt>
      <trkpt lat="43.37943" lon="2.38456">
        <ele>447.63</ele>
        <time>2015-06-14T07:27:50Z</time>
      </trkpt>
      <trkpt lat="43.37946" lon="2.38457">
        <ele>448.11</ele>
        <time>2015-06-14T07:27:51Z</time>
      </trkpt>
      <trkpt lat="43.37949" lon="2.38458">
        <ele>448.59</ele>
        <time>2015-06-14T07:27:52Z</time>
      </trkpt>
      <trkpt lat="43.37952" lon="2.38459">
        <ele>449.07</ele>
        <time>2015-06-14T07:27:53Z</time>
      </trkpt>
      <trkpt lat="43.37954" lon="2.38458">
        <ele>449.55</ele>
        <time>2015-06-14T07:27:54Z</time>
      </trkpt>
      <trkpt lat="43.37957" lon="2.38458">
        <ele>450.03</ele>
        <time>2015-06-14T07:27:55Z</time>
      </trkpt>
      <trkpt lat="43.37959" lon="2.38457">
        <ele>450.03</ele>
        <time>2015-06-14T07:27:56Z</time>
      </trkpt>
      <trkpt lat="43.37962" lon="2.38455">
        <ele>450.52</ele>
        <time>2015-06-14T07:27:57Z</time>
      </trkpt>
      <trkpt lat="43.37964" lon="2.38453">
        <ele>451</ele>
        <time>2015-06-14T07:27:58Z</time>
      </trkpt>
      <trkpt lat="43.37966" lon="2.38451">
        <ele>451</ele>
        <time>2015-06-14T07:27:59Z</time>
      </trkpt>
      <trkpt lat="43.37979" lon="2.38442">
        <ele>453.4</ele>
        <time>2015-06-14T07:28:07Z</time>
      </trkpt>
      <trkpt lat="43.37981" lon="2.38442">
        <ele>453.88</ele>
        <time>2015-06-14T07:28:08Z</time>
      </trkpt>
      <trkpt lat="43.37987" lon="2.38444">
        <ele>453.88</ele>
        <time>2015-06-14T07:28:11Z</time>
      </trkpt>
      <trkpt lat="43.38018" lon="2.38462">
        <ele>454.84</ele>
        <time>2015-06-14T07:28:25Z</time>
      </trkpt>
      <trkpt lat="43.38032" lon="2.3848">
        <ele>453.88</ele>
        <time>2015-06-14T07:28:33Z</time>
      </trkpt>
      <trkpt lat="43.38033" lon="2.38483">
        <ele>453.4</ele>
        <time>2015-06-14T07:28:34Z</time>
      </trkpt>
      <trkpt lat="43.38035" lon="2.38486">
        <ele>452.92</ele>
        <time>2015-06-14T07:28:35Z</time>
      </trkpt>
      <trkpt lat="43.38039" lon="2.38489">
        <ele>451.96</ele>
        <time>2015-06-14T07:28:37Z</time>
      </trkpt>
      <trkpt lat="43.3804" lon="2.38492">
        <ele>451.96</ele>
        <time>2015-06-14T07:28:38Z</time>
      </trkpt>
      <trkpt lat="43.38041" lon="2.38495">
        <ele>451.48</ele>
        <time>2015-06-14T07:28:39Z</time>
      </trkpt>
      <trkpt lat="43.38042" lon="2.38498">
        <ele>451.48</ele>
        <time>2015-06-14T07:28:40Z</time>
      </trkpt>
      <trkpt lat="43.38044" lon="2.385">
        <ele>451.48</ele>
        <time>2015-06-14T07:28:41Z</time>
      </trkpt>
      <trkpt lat="43.38045" lon="2.38502">
        <ele>451.48</ele>
        <time>2015-06-14T07:28:42Z</time>
      </trkpt>
      <trkpt lat="43.38047" lon="2.38505">
        <ele>451.96</ele>
        <time>2015-06-14T07:28:43Z</time>
      </trkpt>
      <trkpt lat="43.38071" lon="2.38525">
        <ele>452.92</ele>
        <time>2015-06-14T07:28:56Z</time>
      </trkpt>
      <trkpt lat="43.38088" lon="2.38539">
        <ele>454.84</ele>
        <time>2015-06-14T07:29:06Z</time>
      </trkpt>
      <trkpt lat="43.3809" lon="2.3854">
        <ele>455.32</ele>
        <time>2015-06-14T07:29:07Z</time>
      </trkpt>
      <trkpt lat="43.38113" lon="2.3856">
        <ele>455.32</ele>
        <time>2015-06-14T07:29:20Z</time>
      </trkpt>
      <trkpt lat="43.38132" lon="2.38591">
        <ele>454.84</ele>
        <time>2015-06-14T07:29:32Z</time>
      </trkpt>
      <trkpt lat="43.38156" lon="2.38602">
        <ele>454.84</ele>
        <time>2015-06-14T07:29:44Z</time>
      </trkpt>
      <trkpt lat="43.38178" lon="2.38612">
        <ele>454.84</ele>
        <time>2015-06-14T07:29:55Z</time>
      </trkpt>
      <trkpt lat="43.38181" lon="2.3862">
        <ele>455.32</ele>
        <time>2015-06-14T07:29:58Z</time>
      </trkpt>
      <trkpt lat="43.38181" lon="2.38623">
        <ele>455.32</ele>
        <time>2015-06-14T07:29:59Z</time>
      </trkpt>
      <trkpt lat="43.38182" lon="2.38625">
        <ele>455.8</ele>
        <time>2015-06-14T07:30:00Z</time>
      </trkpt>
      <trkpt lat="43.38183" lon="2.38629">
        <ele>455.8</ele>
        <time>2015-06-14T07:30:01Z</time>
      </trkpt>
      <trkpt lat="43.38183" lon="2.38632">
        <ele>456.28</ele>
        <time>2015-06-14T07:30:02Z</time>
      </trkpt>
      <trkpt lat="43.38185" lon="2.38635">
        <ele>456.28</ele>
        <time>2015-06-14T07:30:03Z</time>
      </trkpt>
      <trkpt lat="43.38186" lon="2.38638">
        <ele>456.76</ele>
        <time>2015-06-14T07:30:04Z</time>
      </trkpt>
      <trkpt lat="43.38201" lon="2.38674">
        <ele>458.69</ele>
        <time>2015-06-14T07:30:17Z</time>
      </trkpt>
      <trkpt lat="43.38201" lon="2.38677">
        <ele>458.69</ele>
        <time>2015-06-14T07:30:18Z</time>
      </trkpt>
      <trkpt lat="43.38202" lon="2.38679">
        <ele>459.17</ele>
        <time>2015-06-14T07:30:19Z</time>
      </trkpt>
      <trkpt lat="43.38202" lon="2.38681">
        <ele>459.65</ele>
        <time>2015-06-14T07:30:20Z</time>
      </trkpt>
      <trkpt lat="43.38202" lon="2.38684">
        <ele>460.13</ele>
        <time>2015-06-14T07:30:21Z</time>
      </trkpt>
      <trkpt lat="43.38202" lon="2.38687">
        <ele>460.61</ele>
        <time>2015-06-14T07:30:22Z</time>
      </trkpt>
      <trkpt lat="43.38202" lon="2.38689">
        <ele>461.09</ele>
        <time>2015-06-14T07:30:23Z</time>
      </trkpt>
      <trkpt lat="43.38202" lon="2.38692">
        <ele>461.57</ele>
        <time>2015-06-14T07:30:24Z</time>
      </trkpt>
      <trkpt lat="43.38205" lon="2.38727">
        <ele>471.18</ele>
        <time>2015-06-14T07:30:36Z</time>
      </trkpt>
      <trkpt lat="43.38209" lon="2.3877">
        <ele>477.91</ele>
        <time>2015-06-14T07:30:49Z</time>
      </trkpt>
      <trkpt lat="43.38225" lon="2.38817">
        <ele>482.24</ele>
        <time>2015-06-14T07:31:04Z</time>
      </trkpt>
      <trkpt lat="43.38236" lon="2.38864">
        <ele>487.05</ele>
        <time>2015-06-14T07:31:18Z</time>
      </trkpt>
      <trkpt lat="43.38246" lon="2.38904">
        <ele>486.56</ele>
        <time>2015-06-14T07:31:31Z</time>
      </trkpt>
      <trkpt lat="43.38259" lon="2.38942">
        <ele>487.05</ele>
        <time>2015-06-14T07:31:44Z</time>
      </trkpt>
      <trkpt lat="43.38277" lon="2.38981">
        <ele>489.45</ele>
        <time>2015-06-14T07:31:58Z</time>
      </trkpt>
      <trkpt lat="43.38283" lon="2.39033">
        <ele>492.81</ele>
        <time>2015-06-14T07:32:12Z</time>
      </trkpt>
      <trkpt lat="43.38284" lon="2.39074">
        <ele>499.54</ele>
        <time>2015-06-14T07:32:23Z</time>
      </trkpt>
      <trkpt lat="43.38302" lon="2.39097">
        <ele>503.39</ele>
        <time>2015-06-14T07:32:33Z</time>
      </trkpt>
      <trkpt lat="43.38311" lon="2.39073">
        <ele>504.35</ele>
        <time>2015-06-14T07:32:43Z</time>
      </trkpt>
      <trkpt lat="43.38301" lon="2.39033">
        <ele>503.39</ele>
        <time>2015-06-14T07:32:54Z</time>
      </trkpt>
      <trkpt lat="43.38297" lon="2.38994">
        <ele>500.5</ele>
        <time>2015-06-14T07:33:04Z</time>
      </trkpt>
      <trkpt lat="43.38296" lon="2.38955">
        <ele>498.1</ele>
        <time>2015-06-14T07:33:15Z</time>
      </trkpt>
      <trkpt lat="43.38295" lon="2.3891">
        <ele>497.62</ele>
        <time>2015-06-14T07:33:28Z</time>
      </trkpt>
      <trkpt lat="43.38301" lon="2.38866">
        <ele>497.14</ele>
        <time>2015-06-14T07:33:42Z</time>
      </trkpt>
      <trkpt lat="43.38312" lon="2.38835">
        <ele>501.95</ele>
        <time>2015-06-14T07:33:54Z</time>
      </trkpt>
      <trkpt lat="43.38331" lon="2.38811">
        <ele>502.43</ele>
        <time>2015-06-14T07:34:06Z</time>
      </trkpt>
      <trkpt lat="43.38343" lon="2.38779">
        <ele>503.87</ele>
        <time>2015-06-14T07:34:17Z</time>
      </trkpt>
      <trkpt lat="43.38336" lon="2.38766">
        <ele>505.79</ele>
        <time>2015-06-14T07:34:22Z</time>
      </trkpt>
      <trkpt lat="43.38335" lon="2.38764">
        <ele>506.27</ele>
        <time>2015-06-14T07:34:23Z</time>
      </trkpt>
      <trkpt lat="43.38333" lon="2.38762">
        <ele>506.75</ele>
        <time>2015-06-14T07:34:24Z</time>
      </trkpt>
      <trkpt lat="43.38331" lon="2.3876">
        <ele>507.71</ele>
        <time>2015-06-14T07:34:25Z</time>
      </trkpt>
      <trkpt lat="43.38329" lon="2.38757">
        <ele>508.67</ele>
        <time>2015-06-14T07:34:26Z</time>
      </trkpt>
      <trkpt lat="43.38328" lon="2.38755">
        <ele>510.12</ele>
        <time>2015-06-14T07:34:27Z</time>
      </trkpt>
      <trkpt lat="43.3832" lon="2.38738">
        <ele>514.92</ele>
        <time>2015-06-14T07:34:34Z</time>
      </trkpt>
      <trkpt lat="43.38319" lon="2.38736">
        <ele>515.4</ele>
        <time>2015-06-14T07:34:35Z</time>
      </trkpt>
      <trkpt lat="43.38318" lon="2.38733">
        <ele>516.37</ele>
        <time>2015-06-14T07:34:36Z</time>
      </trkpt>
      <trkpt lat="43.38318" lon="2.38731">
        <ele>516.85</ele>
        <time>2015-06-14T07:34:37Z</time>
      </trkpt>
      <trkpt lat="43.38318" lon="2.38727">
        <ele>517.81</ele>
        <time>2015-06-14T07:34:38Z</time>
      </trkpt>
      <trkpt lat="43.38318" lon="2.38724">
        <ele>518.29</ele>
        <time>2015-06-14T07:34:39Z</time>
      </trkpt>
      <trkpt lat="43.38319" lon="2.38721">
        <ele>518.77</ele>
        <time>2015-06-14T07:34:40Z</time>
      </trkpt>
      <trkpt lat="43.38319" lon="2.38717">
        <ele>519.73</ele>
        <time>2015-06-14T07:34:41Z</time>
      </trkpt>
      <trkpt lat="43.38333" lon="2.38675">
        <ele>519.25</ele>
        <time>2015-06-14T07:34:54Z</time>
      </trkpt>
      <trkpt lat="43.38343" lon="2.38634">
        <ele>517.33</ele>
        <time>2015-06-14T07:35:07Z</time>
      </trkpt>
      <trkpt lat="43.38343" lon="2.38598">
        <ele>518.77</ele>
        <time>2015-06-14T07:35:18Z</time>
      </trkpt>
      <trkpt lat="43.38327" lon="2.38561">
        <ele>523.58</ele>
        <time>2015-06-14T07:35:31Z</time>
      </trkpt>
      <trkpt lat="43.38316" lon="2.38525">
        <ele>525.98</ele>
        <time>2015-06-14T07:35:45Z</time>
      </trkpt>
      <trkpt lat="43.38316" lon="2.38522">
        <ele>525.5</ele>
        <time>2015-06-14T07:35:46Z</time>
      </trkpt>
      <trkpt lat="43.38316" lon="2.38519">
        <ele>525.5</ele>
        <time>2015-06-14T07:35:47Z</time>
      </trkpt>
      <trkpt lat="43.38316" lon="2.38516">
        <ele>525.02</ele>
        <time>2015-06-14T07:35:48Z</time>
      </trkpt>
      <trkpt lat="43.38315" lon="2.38506">
        <ele>525.02</ele>
        <time>2015-06-14T07:35:52Z</time>
      </trkpt>
      <trkpt lat="43.38315" lon="2.38503">
        <ele>525.02</ele>
        <time>2015-06-14T07:35:53Z</time>
      </trkpt>
      <trkpt lat="43.38313" lon="2.38473">
        <ele>524.54</ele>
        <time>2015-06-14T07:36:04Z</time>
      </trkpt>
      <trkpt lat="43.38317" lon="2.38429">
        <ele>525.5</ele>
        <time>2015-06-14T07:36:17Z</time>
      </trkpt>
      <trkpt lat="43.38314" lon="2.38387">
        <ele>527.42</ele>
        <time>2015-06-14T07:36:29Z</time>
      </trkpt>
      <trkpt lat="43.3829" lon="2.38355">
        <ele>536.07</ele>
        <time>2015-06-14T07:36:43Z</time>
      </trkpt>
      <trkpt lat="43.38264" lon="2.38337">
        <ele>543.28</ele>
        <time>2015-06-14T07:36:56Z</time>
      </trkpt>
      <trkpt lat="43.38254" lon="2.38302">
        <ele>547.13</ele>
        <time>2015-06-14T07:37:08Z</time>
      </trkpt>
      <trkpt lat="43.38234" lon="2.38269">
        <ele>548.57</ele>
        <time>2015-06-14T07:37:21Z</time>
      </trkpt>
      <trkpt lat="43.38209" lon="2.38245">
        <ele>545.2</ele>
        <time>2015-06-14T07:37:35Z</time>
      </trkpt>
      <trkpt lat="43.38197" lon="2.38205">
        <ele>543.28</ele>
        <time>2015-06-14T07:37:49Z</time>
      </trkpt>
      <trkpt lat="43.38198" lon="2.38173">
        <ele>543.76</ele>
        <time>2015-06-14T07:38:00Z</time>
      </trkpt>
      <trkpt lat="43.38199" lon="2.3817">
        <ele>543.76</ele>
        <time>2015-06-14T07:38:01Z</time>
      </trkpt>
      <trkpt lat="43.382" lon="2.38167">
        <ele>543.76</ele>
        <time>2015-06-14T07:38:02Z</time>
      </trkpt>
      <trkpt lat="43.382" lon="2.38164">
        <ele>543.76</ele>
        <time>2015-06-14T07:38:03Z</time>
      </trkpt>
      <trkpt lat="43.38201" lon="2.3816">
        <ele>543.76</ele>
        <time>2015-06-14T07:38:04Z</time>
      </trkpt>
      <trkpt lat="43.38201" lon="2.38157">
        <ele>543.76</ele>
        <time>2015-06-14T07:38:05Z</time>
      </trkpt>
      <trkpt lat="43.38205" lon="2.38138">
        <ele>544.24</ele>
        <time>2015-06-14T07:38:11Z</time>
      </trkpt>
      <trkpt lat="43.38207" lon="2.38135">
        <ele>544.24</ele>
        <time>2015-06-14T07:38:12Z</time>
      </trkpt>
      <trkpt lat="43.38227" lon="2.38109">
        <ele>547.61</ele>
        <time>2015-06-14T07:38:26Z</time>
      </trkpt>
      <trkpt lat="43.38234" lon="2.38116">
        <ele>549.05</ele>
        <time>2015-06-14T07:38:31Z</time>
      </trkpt>
      <trkpt lat="43.38235" lon="2.3812">
        <ele>549.05</ele>
        <time>2015-06-14T07:38:33Z</time>
      </trkpt>
      <trkpt lat="43.38233" lon="2.38123">
        <ele>550.49</ele>
        <time>2015-06-14T07:38:35Z</time>
      </trkpt>
      <trkpt lat="43.38231" lon="2.38125">
        <ele>550.97</ele>
        <time>2015-06-14T07:38:36Z</time>
      </trkpt>
      <trkpt lat="43.38229" lon="2.38128">
        <ele>551.45</ele>
        <time>2015-06-14T07:38:37Z</time>
      </trkpt>
      <trkpt lat="43.38227" lon="2.3813">
        <ele>551.93</ele>
        <time>2015-06-14T07:38:38Z</time>
      </trkpt>
      <trkpt lat="43.38225" lon="2.38132">
        <ele>553.86</ele>
        <time>2015-06-14T07:38:39Z</time>
      </trkpt>
      <trkpt lat="43.38227" lon="2.38162">
        <ele>564.43</ele>
        <time>2015-06-14T07:38:48Z</time>
      </trkpt>
      <trkpt lat="43.38257" lon="2.3819">
        <ele>570.2</ele>
        <time>2015-06-14T07:39:03Z</time>
      </trkpt>
      <trkpt lat="43.38284" lon="2.38208">
        <ele>574.53</ele>
        <time>2015-06-14T07:39:16Z</time>
      </trkpt>
      <trkpt lat="43.3831" lon="2.38239">
        <ele>577.41</ele>
        <time>2015-06-14T07:39:29Z</time>
      </trkpt>
      <trkpt lat="43.38346" lon="2.38277">
        <ele>583.18</ele>
        <time>2015-06-14T07:39:48Z</time>
      </trkpt>
      <trkpt lat="43.38364" lon="2.38297">
        <ele>585.1</ele>
        <time>2015-06-14T07:39:59Z</time>
      </trkpt>
      <trkpt lat="43.38387" lon="2.38323">
        <ele>586.54</ele>
        <time>2015-06-14T07:40:13Z</time>
      </trkpt>
      <trkpt lat="43.38411" lon="2.38353">
        <ele>591.83</ele>
        <time>2015-06-14T07:40:28Z</time>
      </trkpt>
      <trkpt lat="43.38412" lon="2.38355">
        <ele>592.31</ele>
        <time>2015-06-14T07:40:29Z</time>
      </trkpt>
      <trkpt lat="43.38414" lon="2.38358">
        <ele>592.79</ele>
        <time>2015-06-14T07:40:30Z</time>
      </trkpt>
      <trkpt lat="43.38415" lon="2.38361">
        <ele>593.27</ele>
        <time>2015-06-14T07:40:31Z</time>
      </trkpt>
      <trkpt lat="43.38416" lon="2.38363">
        <ele>594.23</ele>
        <time>2015-06-14T07:40:32Z</time>
      </trkpt>
      <trkpt lat="43.38417" lon="2.38365">
        <ele>595.19</ele>
        <time>2015-06-14T07:40:33Z</time>
      </trkpt>
      <trkpt lat="43.38418" lon="2.38368">
        <ele>595.67</ele>
        <time>2015-06-14T07:40:34Z</time>
      </trkpt>
      <trkpt lat="43.38419" lon="2.3837">
        <ele>596.15</ele>
        <time>2015-06-14T07:40:35Z</time>
      </trkpt>
      <trkpt lat="43.38421" lon="2.38372">
        <ele>596.64</ele>
        <time>2015-06-14T07:40:36Z</time>
      </trkpt>
      <trkpt lat="43.3844" lon="2.38411">
        <ele>595.19</ele>
        <time>2015-06-14T07:40:48Z</time>
      </trkpt>
      <trkpt lat="43.38467" lon="2.38443">
        <ele>596.15</ele>
        <time>2015-06-14T07:41:02Z</time>
      </trkpt>
      <trkpt lat="43.38478" lon="2.38481">
        <ele>599.52</ele>
        <time>2015-06-14T07:41:13Z</time>
      </trkpt>
      <trkpt lat="43.38496" lon="2.38523">
        <ele>606.73</ele>
        <time>2015-06-14T07:41:27Z</time>
      </trkpt>
      <trkpt lat="43.38496" lon="2.38524">
        <ele>607.69</ele>
        <time>2015-06-14T07:41:28Z</time>
      </trkpt>
      <trkpt lat="43.38489" lon="2.38553">
        <ele>612.5</ele>
        <time>2015-06-14T07:41:39Z</time>
      </trkpt>
      <trkpt lat="43.38499" lon="2.38563">
        <ele>613.94</ele>
        <time>2015-06-14T07:41:41Z</time>
      </trkpt>
      <trkpt lat="43.38505" lon="2.38568">
        <ele>614.42</ele>
        <time>2015-06-14T07:41:42Z</time>
      </trkpt>
      <trkpt lat="43.3852" lon="2.38613">
        <ele>614.9</ele>
        <time>2015-06-14T07:41:54Z</time>
      </trkpt>
      <trkpt lat="43.38534" lon="2.38656">
        <ele>614.42</ele>
        <time>2015-06-14T07:42:08Z</time>
      </trkpt>
      <trkpt lat="43.38538" lon="2.38664">
        <ele>615.38</ele>
        <time>2015-06-14T07:42:11Z</time>
      </trkpt>
      <trkpt lat="43.38539" lon="2.38667">
        <ele>616.34</ele>
        <time>2015-06-14T07:42:12Z</time>
      </trkpt>
      <trkpt lat="43.38541" lon="2.38669">
        <ele>616.82</ele>
        <time>2015-06-14T07:42:13Z</time>
      </trkpt>
      <trkpt lat="43.38561" lon="2.38709">
        <ele>624.03</ele>
        <time>2015-06-14T07:42:28Z</time>
      </trkpt>
      <trkpt lat="43.38582" lon="2.38751">
        <ele>622.11</ele>
        <time>2015-06-14T07:42:42Z</time>
      </trkpt>
      <trkpt lat="43.38612" lon="2.38757">
        <ele>624.03</ele>
        <time>2015-06-14T07:42:55Z</time>
      </trkpt>
      <trkpt lat="43.38633" lon="2.3873">
        <ele>626.44</ele>
        <time>2015-06-14T07:43:08Z</time>
      </trkpt>
      <trkpt lat="43.38616" lon="2.38691">
        <ele>628.84</ele>
        <time>2015-06-14T07:43:23Z</time>
      </trkpt>
      <trkpt lat="43.38617" lon="2.38655">
        <ele>631.24</ele>
        <time>2015-06-14T07:43:34Z</time>
      </trkpt>
      <trkpt lat="43.38619" lon="2.38613">
        <ele>632.2</ele>
        <time>2015-06-14T07:43:46Z</time>
      </trkpt>
      <trkpt lat="43.38605" lon="2.38567">
        <ele>633.17</ele>
        <time>2015-06-14T07:44:01Z</time>
      </trkpt>
      <trkpt lat="43.38599" lon="2.38534">
        <ele>633.65</ele>
        <time>2015-06-14T07:44:12Z</time>
      </trkpt>
      <trkpt lat="43.38601" lon="2.38498">
        <ele>634.13</ele>
        <time>2015-06-14T07:44:23Z</time>
      </trkpt>
      <trkpt lat="43.38605" lon="2.38455">
        <ele>634.13</ele>
        <time>2015-06-14T07:44:36Z</time>
      </trkpt>
      <trkpt lat="43.38607" lon="2.38414">
        <ele>635.57</ele>
        <time>2015-06-14T07:44:49Z</time>
      </trkpt>
      <trkpt lat="43.38617" lon="2.38384">
        <ele>635.57</ele>
        <time>2015-06-14T07:45:01Z</time>
      </trkpt>
      <trkpt lat="43.38636" lon="2.38396">
        <ele>637.01</ele>
        <time>2015-06-14T07:45:12Z</time>
      </trkpt>
      <trkpt lat="43.38671" lon="2.38381">
        <ele>641.34</ele>
        <time>2015-06-14T07:45:26Z</time>
      </trkpt>
      <trkpt lat="43.38704" lon="2.38351">
        <ele>648.07</ele>
        <time>2015-06-14T07:45:41Z</time>
      </trkpt>
      <trkpt lat="43.38735" lon="2.38324">
        <ele>651.91</ele>
        <time>2015-06-14T07:45:55Z</time>
      </trkpt>
      <trkpt lat="43.38757" lon="2.38327">
        <ele>655.76</ele>
        <time>2015-06-14T07:46:05Z</time>
      </trkpt>
      <trkpt lat="43.38793" lon="2.38315">
        <ele>662.01</ele>
        <time>2015-06-14T07:46:18Z</time>
      </trkpt>
      <trkpt lat="43.38816" lon="2.38268">
        <ele>663.93</ele>
        <time>2015-06-14T07:46:31Z</time>
      </trkpt>
      <trkpt lat="43.38827" lon="2.38211">
        <ele>663.93</ele>
        <time>2015-06-14T07:46:43Z</time>
      </trkpt>
      <trkpt lat="43.38833" lon="2.38188">
        <ele>664.41</ele>
        <time>2015-06-14T07:46:48Z</time>
      </trkpt>
      <trkpt lat="43.38833" lon="2.38183">
        <ele>664.41</ele>
        <time>2015-06-14T07:46:49Z</time>
      </trkpt>
      <trkpt lat="43.38833" lon="2.38178">
        <ele>664.41</ele>
        <time>2015-06-14T07:46:50Z</time>
      </trkpt>
      <trkpt lat="43.38833" lon="2.38174">
        <ele>664.41</ele>
        <time>2015-06-14T07:46:51Z</time>
      </trkpt>
      <trkpt lat="43.38832" lon="2.3817">
        <ele>664.41</ele>
        <time>2015-06-14T07:46:52Z</time>
      </trkpt>
      <trkpt lat="43.38837" lon="2.38125">
        <ele>665.37</ele>
        <time>2015-06-14T07:47:03Z</time>
      </trkpt>
      <trkpt lat="43.3884" lon="2.38074">
        <ele>666.33</ele>
        <time>2015-06-14T07:47:12Z</time>
      </trkpt>
      <trkpt lat="43.38841" lon="2.38061">
        <ele>666.81</ele>
        <time>2015-06-14T07:47:14Z</time>
      </trkpt>
      <trkpt lat="43.38846" lon="2.38034">
        <ele>667.29</ele>
        <time>2015-06-14T07:47:18Z</time>
      </trkpt>
      <trkpt lat="43.38848" lon="2.38028">
        <ele>667.29</ele>
        <time>2015-06-14T07:47:19Z</time>
      </trkpt>
      <trkpt lat="43.3885" lon="2.38022">
        <ele>667.29</ele>
        <time>2015-06-14T07:47:20Z</time>
      </trkpt>
      <trkpt lat="43.38851" lon="2.38015">
        <ele>667.29</ele>
        <time>2015-06-14T07:47:21Z</time>
      </trkpt>
      <trkpt lat="43.38853" lon="2.38008">
        <ele>667.29</ele>
        <time>2015-06-14T07:47:22Z</time>
      </trkpt>
      <trkpt lat="43.38857" lon="2.37989">
        <ele>667.29</ele>
        <time>2015-06-14T07:47:25Z</time>
      </trkpt>
      <trkpt lat="43.38857" lon="2.37983">
        <ele>667.29</ele>
        <time>2015-06-14T07:47:26Z</time>
      </trkpt>
      <trkpt lat="43.38857" lon="2.37977">
        <ele>667.29</ele>
        <time>2015-06-14T07:47:27Z</time>
      </trkpt>
      <trkpt lat="43.38858" lon="2.37972">
        <ele>667.29</ele>
        <time>2015-06-14T07:47:28Z</time>
      </trkpt>
      <trkpt lat="43.38859" lon="2.37967">
        <ele>667.29</ele>
        <time>2015-06-14T07:47:29Z</time>
      </trkpt>
      <trkpt lat="43.38863" lon="2.37919">
        <ele>668.25</ele>
        <time>2015-06-14T07:47:39Z</time>
      </trkpt>
      <trkpt lat="43.38866" lon="2.3791">
        <ele>668.73</ele>
        <time>2015-06-14T07:47:41Z</time>
      </trkpt>
      <trkpt lat="43.38874" lon="2.37862">
        <ele>671.14</ele>
        <time>2015-06-14T07:47:51Z</time>
      </trkpt>
      <trkpt lat="43.38875" lon="2.37852">
        <ele>671.62</ele>
        <time>2015-06-14T07:47:53Z</time>
      </trkpt>
      <trkpt lat="43.38877" lon="2.3785">
        <ele>672.1</ele>
        <time>2015-06-14T07:47:54Z</time>
      </trkpt>
      <trkpt lat="43.38878" lon="2.37849">
        <ele>672.1</ele>
        <time>2015-06-14T07:47:55Z</time>
      </trkpt>
      <trkpt lat="43.38882" lon="2.37847">
        <ele>673.06</ele>
        <time>2015-06-14T07:47:57Z</time>
      </trkpt>
      <trkpt lat="43.38884" lon="2.37847">
        <ele>673.06</ele>
        <time>2015-06-14T07:47:58Z</time>
      </trkpt>
      <trkpt lat="43.38912" lon="2.37855">
        <ele>675.94</ele>
        <time>2015-06-14T07:48:09Z</time>
      </trkpt>
      <trkpt lat="43.3892" lon="2.37859">
        <ele>676.91</ele>
        <time>2015-06-14T07:48:13Z</time>
      </trkpt>
      <trkpt lat="43.38924" lon="2.37861">
        <ele>676.42</ele>
        <time>2015-06-14T07:48:15Z</time>
      </trkpt>
      <trkpt lat="43.38926" lon="2.37862">
        <ele>676.42</ele>
        <time>2015-06-14T07:48:16Z</time>
      </trkpt>
      <trkpt lat="43.38928" lon="2.37863">
        <ele>675.94</ele>
        <time>2015-06-14T07:48:17Z</time>
      </trkpt>
      <trkpt lat="43.3893" lon="2.37865">
        <ele>675.94</ele>
        <time>2015-06-14T07:48:18Z</time>
      </trkpt>
      <trkpt lat="43.38932" lon="2.37865">
        <ele>675.46</ele>
        <time>2015-06-14T07:48:19Z</time>
      </trkpt>
      <trkpt lat="43.38934" lon="2.37866">
        <ele>675.46</ele>
        <time>2015-06-14T07:48:20Z</time>
      </trkpt>
      <trkpt lat="43.38936" lon="2.37867">
        <ele>675.46</ele>
        <time>2015-06-14T07:48:21Z</time>
      </trkpt>
      <trkpt lat="43.38938" lon="2.37869">
        <ele>675.46</ele>
        <time>2015-06-14T07:48:22Z</time>
      </trkpt>
      <trkpt lat="43.3894" lon="2.3787">
        <ele>675.46</ele>
        <time>2015-06-14T07:48:23Z</time>
      </trkpt>
      <trkpt lat="43.38943" lon="2.37871">
        <ele>675.94</ele>
        <time>2015-06-14T07:48:24Z</time>
      </trkpt>
      <trkpt lat="43.38945" lon="2.37872">
        <ele>676.91</ele>
        <time>2015-06-14T07:48:25Z</time>
      </trkpt>
      <trkpt lat="43.38948" lon="2.37873">
        <ele>677.87</ele>
        <time>2015-06-14T07:48:26Z</time>
      </trkpt>
      <trkpt lat="43.38951" lon="2.37875">
        <ele>677.87</ele>
        <time>2015-06-14T07:48:27Z</time>
      </trkpt>
      <trkpt lat="43.38985" lon="2.37903">
        <ele>672.58</ele>
        <time>2015-06-14T07:48:42Z</time>
      </trkpt>
      <trkpt lat="43.3901" lon="2.37902">
        <ele>674.98</ele>
        <time>2015-06-14T07:48:52Z</time>
      </trkpt>
      <trkpt lat="43.39032" lon="2.37868">
        <ele>680.27</ele>
        <time>2015-06-14T07:49:04Z</time>
      </trkpt>
      <trkpt lat="43.39035" lon="2.37864">
        <ele>680.75</ele>
        <time>2015-06-14T07:49:06Z</time>
      </trkpt>
      <trkpt lat="43.39037" lon="2.37862">
        <ele>680.75</ele>
        <time>2015-06-14T07:49:07Z</time>
      </trkpt>
      <trkpt lat="43.39038" lon="2.37859">
        <ele>680.75</ele>
        <time>2015-06-14T07:49:08Z</time>
      </trkpt>
      <trkpt lat="43.39039" lon="2.37856">
        <ele>681.23</ele>
        <time>2015-06-14T07:49:09Z</time>
      </trkpt>
      <trkpt lat="43.39041" lon="2.37854">
        <ele>681.23</ele>
        <time>2015-06-14T07:49:10Z</time>
      </trkpt>
      <trkpt lat="43.39043" lon="2.37851">
        <ele>681.23</ele>
        <time>2015-06-14T07:49:11Z</time>
      </trkpt>
      <trkpt lat="43.39045" lon="2.37847">
        <ele>681.23</ele>
        <time>2015-06-14T07:49:12Z</time>
      </trkpt>
      <trkpt lat="43.39047" lon="2.37843">
        <ele>681.71</ele>
        <time>2015-06-14T07:49:13Z</time>
      </trkpt>
      <trkpt lat="43.39048" lon="2.3784">
        <ele>681.71</ele>
        <time>2015-06-14T07:49:14Z</time>
      </trkpt>
      <trkpt lat="43.3905" lon="2.37837">
        <ele>681.71</ele>
        <time>2015-06-14T07:49:15Z</time>
      </trkpt>
      <trkpt lat="43.39069" lon="2.37798">
        <ele>683.63</ele>
        <time>2015-06-14T07:49:27Z</time>
      </trkpt>
      <trkpt lat="43.39073" lon="2.3776">
        <ele>686.04</ele>
        <time>2015-06-14T07:49:39Z</time>
      </trkpt>
      <trkpt lat="43.39073" lon="2.37757">
        <ele>686.04</ele>
        <time>2015-06-14T07:49:40Z</time>
      </trkpt>
      <trkpt lat="43.39075" lon="2.37741">
        <ele>687</ele>
        <time>2015-06-14T07:49:45Z</time>
      </trkpt>
      <trkpt lat="43.39076" lon="2.37737">
        <ele>687</ele>
        <time>2015-06-14T07:49:46Z</time>
      </trkpt>
      <trkpt lat="43.39083" lon="2.37698">
        <ele>688.44</ele>
        <time>2015-06-14T07:49:57Z</time>
      </trkpt>
      <trkpt lat="43.39086" lon="2.37689">
        <ele>688.92</ele>
        <time>2015-06-14T07:50:00Z</time>
      </trkpt>
      <trkpt lat="43.39086" lon="2.37686">
        <ele>688.92</ele>
        <time>2015-06-14T07:50:01Z</time>
      </trkpt>
      <trkpt lat="43.391" lon="2.37655">
        <ele>689.88</ele>
        <time>2015-06-14T07:50:11Z</time>
      </trkpt>
      <trkpt lat="43.39117" lon="2.37649">
        <ele>690.36</ele>
        <time>2015-06-14T07:50:21Z</time>
      </trkpt>
      <trkpt lat="43.39145" lon="2.37658">
        <ele>695.65</ele>
        <time>2015-06-14T07:50:33Z</time>
      </trkpt>
      <trkpt lat="43.39173" lon="2.3763">
        <ele>699.02</ele>
        <time>2015-06-14T07:50:45Z</time>
      </trkpt>
      <trkpt lat="43.39196" lon="2.3762">
        <ele>700.46</ele>
        <time>2015-06-14T07:50:55Z</time>
      </trkpt>
      <trkpt lat="43.39232" lon="2.37618">
        <ele>702.38</ele>
        <time>2015-06-14T07:51:06Z</time>
      </trkpt>
      <trkpt lat="43.39244" lon="2.37619">
        <ele>702.86</ele>
        <time>2015-06-14T07:51:10Z</time>
      </trkpt>
      <trkpt lat="43.39247" lon="2.37618">
        <ele>703.34</ele>
        <time>2015-06-14T07:51:11Z</time>
      </trkpt>
      <trkpt lat="43.3925" lon="2.37617">
        <ele>703.34</ele>
        <time>2015-06-14T07:51:12Z</time>
      </trkpt>
      <trkpt lat="43.39253" lon="2.37615">
        <ele>703.82</ele>
        <time>2015-06-14T07:51:13Z</time>
      </trkpt>
      <trkpt lat="43.39258" lon="2.37613">
        <ele>704.3</ele>
        <time>2015-06-14T07:51:14Z</time>
      </trkpt>
      <trkpt lat="43.39262" lon="2.37611">
        <ele>704.78</ele>
        <time>2015-06-14T07:51:15Z</time>
      </trkpt>
      <trkpt lat="43.39266" lon="2.37608">
        <ele>705.26</ele>
        <time>2015-06-14T07:51:16Z</time>
      </trkpt>
      <trkpt lat="43.3927" lon="2.37605">
        <ele>705.75</ele>
        <time>2015-06-14T07:51:17Z</time>
      </trkpt>
      <trkpt lat="43.39274" lon="2.37602">
        <ele>706.23</ele>
        <time>2015-06-14T07:51:18Z</time>
      </trkpt>
      <trkpt lat="43.39278" lon="2.37598">
        <ele>706.71</ele>
        <time>2015-06-14T07:51:19Z</time>
      </trkpt>
      <trkpt lat="43.39282" lon="2.37595">
        <ele>707.19</ele>
        <time>2015-06-14T07:51:20Z</time>
      </trkpt>
      <trkpt lat="43.39286" lon="2.3759">
        <ele>707.19</ele>
        <time>2015-06-14T07:51:21Z</time>
      </trkpt>
      <trkpt lat="43.3929" lon="2.37586">
        <ele>707.67</ele>
        <time>2015-06-14T07:51:22Z</time>
      </trkpt>
      <trkpt lat="43.39294" lon="2.3758">
        <ele>707.67</ele>
        <time>2015-06-14T07:51:23Z</time>
      </trkpt>
      <trkpt lat="43.39297" lon="2.37574">
        <ele>707.67</ele>
        <time>2015-06-14T07:51:24Z</time>
      </trkpt>
      <trkpt lat="43.39299" lon="2.37568">
        <ele>707.67</ele>
        <time>2015-06-14T07:51:25Z</time>
      </trkpt>
      <trkpt lat="43.39301" lon="2.37563">
        <ele>708.15</ele>
        <time>2015-06-14T07:51:26Z</time>
      </trkpt>
      <trkpt lat="43.39302" lon="2.37557">
        <ele>708.15</ele>
        <time>2015-06-14T07:51:27Z</time>
      </trkpt>
      <trkpt lat="43.39317" lon="2.37506">
        <ele>709.11</ele>
        <time>2015-06-14T07:51:38Z</time>
      </trkpt>
      <trkpt lat="43.39352" lon="2.37444">
        <ele>712.47</ele>
        <time>2015-06-14T07:51:54Z</time>
      </trkpt>
      <trkpt lat="43.39384" lon="2.37401">
        <ele>715.84</ele>
        <time>2015-06-14T07:52:08Z</time>
      </trkpt>
      <trkpt lat="43.39419" lon="2.37375">
        <ele>720.16</ele>
        <time>2015-06-14T07:52:23Z</time>
      </trkpt>
      <trkpt lat="43.39452" lon="2.37365">
        <ele>725.93</ele>
        <time>2015-06-14T07:52:36Z</time>
      </trkpt>
      <trkpt lat="43.39478" lon="2.37359">
        <ele>730.74</ele>
        <time>2015-06-14T07:52:47Z</time>
      </trkpt>
      <trkpt lat="43.39508" lon="2.37321">
        <ele>731.22</ele>
        <time>2015-06-14T07:53:01Z</time>
      </trkpt>
      <trkpt lat="43.39509" lon="2.37312">
        <ele>731.22</ele>
        <time>2015-06-14T07:53:04Z</time>
      </trkpt>
      <trkpt lat="43.3951" lon="2.37309">
        <ele>731.22</ele>
        <time>2015-06-14T07:53:05Z</time>
      </trkpt>
      <trkpt lat="43.39513" lon="2.3727">
        <ele>731.7</ele>
        <time>2015-06-14T07:53:16Z</time>
      </trkpt>
      <trkpt lat="43.39515" lon="2.37266">
        <ele>731.7</ele>
        <time>2015-06-14T07:53:17Z</time>
      </trkpt>
      <trkpt lat="43.39517" lon="2.37263">
        <ele>731.7</ele>
        <time>2015-06-14T07:53:18Z</time>
      </trkpt>
      <trkpt lat="43.39539" lon="2.37233">
        <ele>732.18</ele>
        <time>2015-06-14T07:53:31Z</time>
      </trkpt>
      <trkpt lat="43.39563" lon="2.37194">
        <ele>733.62</ele>
        <time>2015-06-14T07:53:43Z</time>
      </trkpt>
      <trkpt lat="43.39592" lon="2.37179">
        <ele>736.51</ele>
        <time>2015-06-14T07:53:55Z</time>
      </trkpt>
      <trkpt lat="43.39628" lon="2.37146">
        <ele>738.91</ele>
        <time>2015-06-14T07:54:10Z</time>
      </trkpt>
      <trkpt lat="43.39652" lon="2.37122">
        <ele>740.35</ele>
        <time>2015-06-14T07:54:24Z</time>
      </trkpt>
      <trkpt lat="43.39678" lon="2.37097">
        <ele>741.31</ele>
        <time>2015-06-14T07:54:37Z</time>
      </trkpt>
      <trkpt lat="43.39693" lon="2.37091">
        <ele>742.76</ele>
        <time>2015-06-14T07:54:42Z</time>
      </trkpt>
      <trkpt lat="43.39711" lon="2.37097">
        <ele>744.2</ele>
        <time>2015-06-14T07:54:52Z</time>
      </trkpt>
      <trkpt lat="43.39716" lon="2.37099">
        <ele>744.2</ele>
        <time>2015-06-14T07:55:05Z</time>
      </trkpt>
      <trkpt lat="43.39714" lon="2.37099">
        <ele>744.68</ele>
        <time>2015-06-14T07:55:17Z</time>
      </trkpt>
      <trkpt lat="43.39714" lon="2.37098">
        <ele>745.64</ele>
        <time>2015-06-14T07:55:43Z</time>
      </trkpt>
      <trkpt lat="43.39715" lon="2.37096">
        <ele>745.16</ele>
        <time>2015-06-14T07:56:11Z</time>
      </trkpt>
      <trkpt lat="43.39713" lon="2.37101">
        <ele>746.6</ele>
        <time>2015-06-14T07:56:31Z</time>
      </trkpt>
      <trkpt lat="43.39713" lon="2.37101">
        <ele>745.64</ele>
        <time>2015-06-14T07:57:00Z</time>
      </trkpt>
      <trkpt lat="43.39704" lon="2.37096">
        <ele>745.64</ele>
        <time>2015-06-14T07:57:13Z</time>
      </trkpt>
      <trkpt lat="43.39702" lon="2.37095">
        <ele>745.16</ele>
        <time>2015-06-14T07:57:14Z</time>
      </trkpt>
      <trkpt lat="43.39701" lon="2.37093">
        <ele>745.64</ele>
        <time>2015-06-14T07:57:15Z</time>
      </trkpt>
      <trkpt lat="43.39699" lon="2.3709">
        <ele>746.12</ele>
        <time>2015-06-14T07:57:16Z</time>
      </trkpt>
      <trkpt lat="43.39698" lon="2.37088">
        <ele>746.6</ele>
        <time>2015-06-14T07:57:17Z</time>
      </trkpt>
      <trkpt lat="43.39694" lon="2.37078">
        <ele>749</ele>
        <time>2015-06-14T07:57:21Z</time>
      </trkpt>
      <trkpt lat="43.39693" lon="2.37075">
        <ele>749</ele>
        <time>2015-06-14T07:57:22Z</time>
      </trkpt>
      <trkpt lat="43.397" lon="2.3705">
        <ele>752.37</ele>
        <time>2015-06-14T07:57:35Z</time>
      </trkpt>
      <trkpt lat="43.39701" lon="2.37051">
        <ele>754.77</ele>
        <time>2015-06-14T07:58:05Z</time>
      </trkpt>
      <trkpt lat="43.397" lon="2.37052">
        <ele>754.77</ele>
        <time>2015-06-14T07:58:36Z</time>
      </trkpt>
      <trkpt lat="43.39703" lon="2.37049">
        <ele>753.81</ele>
        <time>2015-06-14T07:58:52Z</time>
      </trkpt>
      <trkpt lat="43.39711" lon="2.37038">
        <ele>753.33</ele>
        <time>2015-06-14T07:59:06Z</time>
      </trkpt>
      <trkpt lat="43.39721" lon="2.37021">
        <ele>754.29</ele>
        <time>2015-06-14T07:59:23Z</time>
      </trkpt>
      <trkpt lat="43.39723" lon="2.37017">
        <ele>754.77</ele>
        <time>2015-06-14T07:59:24Z</time>
      </trkpt>
      <trkpt lat="43.39741" lon="2.36979">
        <ele>754.29</ele>
        <time>2015-06-14T07:59:36Z</time>
      </trkpt>
      <trkpt lat="43.39769" lon="2.3694">
        <ele>754.77</ele>
        <time>2015-06-14T07:59:45Z</time>
      </trkpt>
      <trkpt lat="43.39801" lon="2.36897">
        <ele>754.29</ele>
        <time>2015-06-14T07:59:50Z</time>
      </trkpt>
      <trkpt lat="43.39829" lon="2.36843">
        <ele>751.41</ele>
        <time>2015-06-14T07:59:55Z</time>
      </trkpt>
      <trkpt lat="43.39842" lon="2.36825">
        <ele>749.97</ele>
        <time>2015-06-14T07:59:58Z</time>
      </trkpt>
      <trkpt lat="43.39845" lon="2.36823">
        <ele>749.49</ele>
        <time>2015-06-14T07:59:59Z</time>
      </trkpt>
      <trkpt lat="43.3985" lon="2.36824">
        <ele>749</ele>
        <time>2015-06-14T08:00:00Z</time>
      </trkpt>
      <trkpt lat="43.39855" lon="2.36828">
        <ele>748.52</ele>
        <time>2015-06-14T08:00:01Z</time>
      </trkpt>
      <trkpt lat="43.39859" lon="2.36833">
        <ele>748.04</ele>
        <time>2015-06-14T08:00:02Z</time>
      </trkpt>
      <trkpt lat="43.39861" lon="2.36838">
        <ele>747.56</ele>
        <time>2015-06-14T08:00:03Z</time>
      </trkpt>
      <trkpt lat="43.39862" lon="2.36842">
        <ele>747.56</ele>
        <time>2015-06-14T08:00:04Z</time>
      </trkpt>
      <trkpt lat="43.39861" lon="2.36846">
        <ele>747.56</ele>
        <time>2015-06-14T08:00:05Z</time>
      </trkpt>
      <trkpt lat="43.39861" lon="2.36848">
        <ele>747.56</ele>
        <time>2015-06-14T08:00:06Z</time>
      </trkpt>
      <trkpt lat="43.3986" lon="2.36851">
        <ele>747.56</ele>
        <time>2015-06-14T08:00:07Z</time>
      </trkpt>
      <trkpt lat="43.39859" lon="2.36855">
        <ele>747.08</ele>
        <time>2015-06-14T08:00:08Z</time>
      </trkpt>
      <trkpt lat="43.39859" lon="2.36858">
        <ele>747.08</ele>
        <time>2015-06-14T08:00:09Z</time>
      </trkpt>
      <trkpt lat="43.39859" lon="2.36861">
        <ele>747.08</ele>
        <time>2015-06-14T08:00:10Z</time>
      </trkpt>
      <trkpt lat="43.39858" lon="2.36864">
        <ele>747.08</ele>
        <time>2015-06-14T08:00:11Z</time>
      </trkpt>
      <trkpt lat="43.39858" lon="2.36867">
        <ele>747.08</ele>
        <time>2015-06-14T08:00:12Z</time>
      </trkpt>
      <trkpt lat="43.39855" lon="2.36922">
        <ele>751.89</ele>
        <time>2015-06-14T08:00:29Z</time>
      </trkpt>
      <trkpt lat="43.39852" lon="2.3697">
        <ele>757.18</ele>
        <time>2015-06-14T08:00:44Z</time>
      </trkpt>
      <trkpt lat="43.39851" lon="2.37022">
        <ele>762.94</ele>
        <time>2015-06-14T08:00:59Z</time>
      </trkpt>
      <trkpt lat="43.39865" lon="2.37063">
        <ele>766.31</ele>
        <time>2015-06-14T08:01:12Z</time>
      </trkpt>
      <trkpt lat="43.39882" lon="2.37077">
        <ele>766.31</ele>
        <time>2015-06-14T08:01:24Z</time>
      </trkpt>
      <trkpt lat="43.3988" lon="2.37075">
        <ele>766.79</ele>
        <time>2015-06-14T08:01:26Z</time>
      </trkpt>
      <trkpt lat="43.39879" lon="2.37075">
        <ele>766.79</ele>
        <time>2015-06-14T08:01:27Z</time>
      </trkpt>
      <trkpt lat="43.39879" lon="2.37079">
        <ele>766.79</ele>
        <time>2015-06-14T08:01:31Z</time>
      </trkpt>
      <trkpt lat="43.3988" lon="2.37079">
        <ele>766.79</ele>
        <time>2015-06-14T08:01:32Z</time>
      </trkpt>
      <trkpt lat="43.39881" lon="2.37079">
        <ele>766.31</ele>
        <time>2015-06-14T08:01:33Z</time>
      </trkpt>
      <trkpt lat="43.39883" lon="2.37079">
        <ele>766.31</ele>
        <time>2015-06-14T08:01:34Z</time>
      </trkpt>
      <trkpt lat="43.39884" lon="2.3708">
        <ele>766.79</ele>
        <time>2015-06-14T08:01:35Z</time>
      </trkpt>
      <trkpt lat="43.39891" lon="2.37085">
        <ele>766.31</ele>
        <time>2015-06-14T08:01:43Z</time>
      </trkpt>
      <trkpt lat="43.39893" lon="2.37086">
        <ele>765.83</ele>
        <time>2015-06-14T08:01:44Z</time>
      </trkpt>
      <trkpt lat="43.39894" lon="2.37087">
        <ele>765.83</ele>
        <time>2015-06-14T08:01:45Z</time>
      </trkpt>
      <trkpt lat="43.39896" lon="2.37088">
        <ele>765.83</ele>
        <time>2015-06-14T08:01:46Z</time>
      </trkpt>
      <trkpt lat="43.39898" lon="2.37088">
        <ele>765.83</ele>
        <time>2015-06-14T08:01:47Z</time>
      </trkpt>
      <trkpt lat="43.39899" lon="2.37089">
        <ele>765.83</ele>
        <time>2015-06-14T08:01:48Z</time>
      </trkpt>
      <trkpt lat="43.39901" lon="2.3709">
        <ele>765.83</ele>
        <time>2015-06-14T08:01:49Z</time>
      </trkpt>
      <trkpt lat="43.39902" lon="2.37091">
        <ele>765.83</ele>
        <time>2015-06-14T08:01:50Z</time>
      </trkpt>
      <trkpt lat="43.39904" lon="2.37093">
        <ele>765.83</ele>
        <time>2015-06-14T08:01:51Z</time>
      </trkpt>
      <trkpt lat="43.39905" lon="2.37094">
        <ele>765.83</ele>
        <time>2015-06-14T08:01:52Z</time>
      </trkpt>
      <trkpt lat="43.39906" lon="2.37095">
        <ele>765.83</ele>
        <time>2015-06-14T08:01:53Z</time>
      </trkpt>
      <trkpt lat="43.39908" lon="2.37097">
        <ele>765.83</ele>
        <time>2015-06-14T08:01:54Z</time>
      </trkpt>
      <trkpt lat="43.3991" lon="2.37098">
        <ele>766.31</ele>
        <time>2015-06-14T08:01:55Z</time>
      </trkpt>
      <trkpt lat="43.39911" lon="2.37099">
        <ele>766.31</ele>
        <time>2015-06-14T08:01:56Z</time>
      </trkpt>
      <trkpt lat="43.39913" lon="2.37101">
        <ele>766.31</ele>
        <time>2015-06-14T08:01:57Z</time>
      </trkpt>
      <trkpt lat="43.39921" lon="2.37115">
        <ele>765.83</ele>
        <time>2015-06-14T08:02:01Z</time>
      </trkpt>
      <trkpt lat="43.39924" lon="2.37121">
        <ele>765.35</ele>
        <time>2015-06-14T08:02:02Z</time>
      </trkpt>
      <trkpt lat="43.39937" lon="2.37148">
        <ele>763.9</ele>
        <time>2015-06-14T08:02:06Z</time>
      </trkpt>
      <trkpt lat="43.39942" lon="2.37155">
        <ele>763.42</ele>
        <time>2015-06-14T08:02:07Z</time>
      </trkpt>
      <trkpt lat="43.39947" lon="2.37161">
        <ele>762.94</ele>
        <time>2015-06-14T08:02:08Z</time>
      </trkpt>
      <trkpt lat="43.39953" lon="2.37165">
        <ele>762.46</ele>
        <time>2015-06-14T08:02:09Z</time>
      </trkpt>
      <trkpt lat="43.39959" lon="2.37168">
        <ele>761.98</ele>
        <time>2015-06-14T08:02:10Z</time>
      </trkpt>
      <trkpt lat="43.39966" lon="2.37169">
        <ele>761.98</ele>
        <time>2015-06-14T08:02:11Z</time>
      </trkpt>
      <trkpt lat="43.39972" lon="2.37169">
        <ele>761.02</ele>
        <time>2015-06-14T08:02:12Z</time>
      </trkpt>
      <trkpt lat="43.39979" lon="2.37169">
        <ele>760.54</ele>
        <time>2015-06-14T08:02:13Z</time>
      </trkpt>
      <trkpt lat="43.39987" lon="2.3717">
        <ele>759.58</ele>
        <time>2015-06-14T08:02:14Z</time>
      </trkpt>
      <trkpt lat="43.39995" lon="2.37174">
        <ele>758.62</ele>
        <time>2015-06-14T08:02:15Z</time>
      </trkpt>
      <trkpt lat="43.40003" lon="2.37179">
        <ele>757.66</ele>
        <time>2015-06-14T08:02:16Z</time>
      </trkpt>
      <trkpt lat="43.40032" lon="2.37195">
        <ele>753.81</ele>
        <time>2015-06-14T08:02:20Z</time>
      </trkpt>
      <trkpt lat="43.40039" lon="2.37201">
        <ele>752.85</ele>
        <time>2015-06-14T08:02:21Z</time>
      </trkpt>
      <trkpt lat="43.40053" lon="2.37213">
        <ele>750.93</ele>
        <time>2015-06-14T08:02:23Z</time>
      </trkpt>
      <trkpt lat="43.40059" lon="2.37221">
        <ele>749.97</ele>
        <time>2015-06-14T08:02:24Z</time>
      </trkpt>
      <trkpt lat="43.40068" lon="2.37237">
        <ele>748.04</ele>
        <time>2015-06-14T08:02:26Z</time>
      </trkpt>
      <trkpt lat="43.40072" lon="2.37246">
        <ele>747.08</ele>
        <time>2015-06-14T08:02:27Z</time>
      </trkpt>
      <trkpt lat="43.40077" lon="2.37253">
        <ele>746.12</ele>
        <time>2015-06-14T08:02:28Z</time>
      </trkpt>
      <trkpt lat="43.40081" lon="2.37261">
        <ele>744.68</ele>
        <time>2015-06-14T08:02:29Z</time>
      </trkpt>
      <trkpt lat="43.40086" lon="2.37266">
        <ele>743.72</ele>
        <time>2015-06-14T08:02:30Z</time>
      </trkpt>
      <trkpt lat="43.40089" lon="2.37272">
        <ele>742.76</ele>
        <time>2015-06-14T08:02:31Z</time>
      </trkpt>
      <trkpt lat="43.4009" lon="2.37278">
        <ele>742.28</ele>
        <time>2015-06-14T08:02:32Z</time>
      </trkpt>
      <trkpt lat="43.4009" lon="2.37285">
        <ele>741.79</ele>
        <time>2015-06-14T08:02:33Z</time>
      </trkpt>
      <trkpt lat="43.40087" lon="2.37291">
        <ele>741.31</ele>
        <time>2015-06-14T08:02:34Z</time>
      </trkpt>
      <trkpt lat="43.40084" lon="2.37297">
        <ele>741.31</ele>
        <time>2015-06-14T08:02:35Z</time>
      </trkpt>
      <trkpt lat="43.40066" lon="2.37358">
        <ele>748.52</ele>
        <time>2015-06-14T08:02:47Z</time>
      </trkpt>
      <trkpt lat="43.40056" lon="2.37425">
        <ele>753.81</ele>
        <time>2015-06-14T08:03:02Z</time>
      </trkpt>
      <trkpt lat="43.40053" lon="2.37446">
        <ele>754.29</ele>
        <time>2015-06-14T08:03:06Z</time>
      </trkpt>
      <trkpt lat="43.40051" lon="2.37483">
        <ele>755.25</ele>
        <time>2015-06-14T08:03:12Z</time>
      </trkpt>
      <trkpt lat="43.40051" lon="2.37489">
        <ele>755.25</ele>
        <time>2015-06-14T08:03:13Z</time>
      </trkpt>
      <trkpt lat="43.40051" lon="2.37503">
        <ele>755.73</ele>
        <time>2015-06-14T08:03:15Z</time>
      </trkpt>
      <trkpt lat="43.4005" lon="2.37517">
        <ele>756.21</ele>
        <time>2015-06-14T08:03:17Z</time>
      </trkpt>
      <trkpt lat="43.40051" lon="2.37524">
        <ele>756.69</ele>
        <time>2015-06-14T08:03:18Z</time>
      </trkpt>
      <trkpt lat="43.40051" lon="2.3753">
        <ele>756.69</ele>
        <time>2015-06-14T08:03:19Z</time>
      </trkpt>
      <trkpt lat="43.40052" lon="2.37591">
        <ele>762.46</ele>
        <time>2015-06-14T08:03:31Z</time>
      </trkpt>
      <trkpt lat="43.40053" lon="2.37645">
        <ele>771.6</ele>
        <time>2015-06-14T08:03:44Z</time>
      </trkpt>
      <trkpt lat="43.40052" lon="2.37648">
        <ele>772.56</ele>
        <time>2015-06-14T08:03:45Z</time>
      </trkpt>
      <trkpt lat="43.40052" lon="2.37652">
        <ele>773.52</ele>
        <time>2015-06-14T08:03:46Z</time>
      </trkpt>
      <trkpt lat="43.40052" lon="2.37712">
        <ele>786.5</ele>
        <time>2015-06-14T08:04:01Z</time>
      </trkpt>
      <trkpt lat="43.40053" lon="2.37735">
        <ele>792.74</ele>
        <time>2015-06-14T08:04:08Z</time>
      </trkpt>
      <trkpt lat="43.40055" lon="2.37738">
        <ele>792.74</ele>
        <time>2015-06-14T08:04:09Z</time>
      </trkpt>
      <trkpt lat="43.40058" lon="2.37742">
        <ele>793.22</ele>
        <time>2015-06-14T08:04:10Z</time>
      </trkpt>
      <trkpt lat="43.4006" lon="2.37745">
        <ele>793.71</ele>
        <time>2015-06-14T08:04:11Z</time>
      </trkpt>
      <trkpt lat="43.40062" lon="2.37749">
        <ele>794.19</ele>
        <time>2015-06-14T08:04:12Z</time>
      </trkpt>
      <trkpt lat="43.40065" lon="2.37752">
        <ele>794.67</ele>
        <time>2015-06-14T08:04:13Z</time>
      </trkpt>
      <trkpt lat="43.40067" lon="2.37755">
        <ele>795.15</ele>
        <time>2015-06-14T08:04:14Z</time>
      </trkpt>
      <trkpt lat="43.4007" lon="2.37758">
        <ele>795.15</ele>
        <time>2015-06-14T08:04:15Z</time>
      </trkpt>
      <trkpt lat="43.401" lon="2.3779">
        <ele>793.71</ele>
        <time>2015-06-14T08:04:28Z</time>
      </trkpt>
      <trkpt lat="43.40139" lon="2.37807">
        <ele>783.61</ele>
        <time>2015-06-14T08:04:35Z</time>
      </trkpt>
      <trkpt lat="43.40154" lon="2.3781">
        <ele>780.25</ele>
        <time>2015-06-14T08:04:38Z</time>
      </trkpt>
      <trkpt lat="43.40159" lon="2.37811">
        <ele>779.77</ele>
        <time>2015-06-14T08:04:39Z</time>
      </trkpt>
      <trkpt lat="43.40212" lon="2.37839">
        <ele>775.44</ele>
        <time>2015-06-14T08:04:53Z</time>
      </trkpt>
      <trkpt lat="43.40257" lon="2.37862">
        <ele>776.88</ele>
        <time>2015-06-14T08:05:07Z</time>
      </trkpt>
      <trkpt lat="43.40282" lon="2.37891">
        <ele>779.77</ele>
        <time>2015-06-14T08:05:18Z</time>
      </trkpt>
      <trkpt lat="43.40285" lon="2.37893">
        <ele>780.25</ele>
        <time>2015-06-14T08:05:19Z</time>
      </trkpt>
      <trkpt lat="43.40287" lon="2.37893">
        <ele>780.73</ele>
        <time>2015-06-14T08:05:20Z</time>
      </trkpt>
      <trkpt lat="43.4029" lon="2.37892">
        <ele>780.73</ele>
        <time>2015-06-14T08:05:21Z</time>
      </trkpt>
      <trkpt lat="43.40291" lon="2.37889">
        <ele>781.21</ele>
        <time>2015-06-14T08:05:22Z</time>
      </trkpt>
      <trkpt lat="43.40293" lon="2.37885">
        <ele>781.21</ele>
        <time>2015-06-14T08:05:23Z</time>
      </trkpt>
      <trkpt lat="43.40321" lon="2.37821">
        <ele>779.77</ele>
        <time>2015-06-14T08:05:38Z</time>
      </trkpt>
      <trkpt lat="43.40333" lon="2.37778">
        <ele>778.32</ele>
        <time>2015-06-14T08:05:46Z</time>
      </trkpt>
      <trkpt lat="43.40335" lon="2.37772">
        <ele>778.32</ele>
        <time>2015-06-14T08:05:47Z</time>
      </trkpt>
      <trkpt lat="43.4034" lon="2.37732">
        <ele>778.32</ele>
        <time>2015-06-14T08:05:54Z</time>
      </trkpt>
      <trkpt lat="43.40341" lon="2.37708">
        <ele>778.32</ele>
        <time>2015-06-14T08:05:58Z</time>
      </trkpt>
      <trkpt lat="43.40339" lon="2.37689">
        <ele>778.81</ele>
        <time>2015-06-14T08:06:01Z</time>
      </trkpt>
      <trkpt lat="43.40325" lon="2.37597">
        <ele>780.73</ele>
        <time>2015-06-14T08:06:18Z</time>
      </trkpt>
      <trkpt lat="43.40324" lon="2.37549">
        <ele>784.57</ele>
        <time>2015-06-14T08:06:30Z</time>
      </trkpt>
      <trkpt lat="43.40288" lon="2.37522">
        <ele>786.98</ele>
        <time>2015-06-14T08:06:42Z</time>
      </trkpt>
      <trkpt lat="43.40259" lon="2.37502">
        <ele>789.38</ele>
        <time>2015-06-14T08:06:52Z</time>
      </trkpt>
      <trkpt lat="43.40257" lon="2.37494">
        <ele>790.34</ele>
        <time>2015-06-14T08:06:54Z</time>
      </trkpt>
      <trkpt lat="43.40258" lon="2.3749">
        <ele>790.82</ele>
        <time>2015-06-14T08:06:55Z</time>
      </trkpt>
      <trkpt lat="43.40259" lon="2.37486">
        <ele>791.3</ele>
        <time>2015-06-14T08:06:56Z</time>
      </trkpt>
      <trkpt lat="43.40261" lon="2.37483">
        <ele>791.78</ele>
        <time>2015-06-14T08:06:57Z</time>
      </trkpt>
      <trkpt lat="43.40263" lon="2.3748">
        <ele>792.26</ele>
        <time>2015-06-14T08:06:58Z</time>
      </trkpt>
      <trkpt lat="43.40266" lon="2.37478">
        <ele>792.26</ele>
        <time>2015-06-14T08:06:59Z</time>
      </trkpt>
      <trkpt lat="43.40309" lon="2.37444">
        <ele>795.15</ele>
        <time>2015-06-14T08:07:16Z</time>
      </trkpt>
      <trkpt lat="43.40339" lon="2.37393">
        <ele>797.55</ele>
        <time>2015-06-14T08:07:31Z</time>
      </trkpt>
      <trkpt lat="43.40368" lon="2.37319">
        <ele>800.92</ele>
        <time>2015-06-14T08:07:49Z</time>
      </trkpt>
      <trkpt lat="43.40399" lon="2.37254">
        <ele>805.24</ele>
        <time>2015-06-14T08:08:03Z</time>
      </trkpt>
      <trkpt lat="43.40428" lon="2.37188">
        <ele>806.2</ele>
        <time>2015-06-14T08:08:17Z</time>
      </trkpt>
      <trkpt lat="43.4043" lon="2.37183">
        <ele>806.2</ele>
        <time>2015-06-14T08:08:18Z</time>
      </trkpt>
      <trkpt lat="43.40441" lon="2.37159">
        <ele>805.24</ele>
        <time>2015-06-14T08:08:23Z</time>
      </trkpt>
      <trkpt lat="43.40468" lon="2.37085">
        <ele>807.64</ele>
        <time>2015-06-14T08:08:39Z</time>
      </trkpt>
      <trkpt lat="43.4048" lon="2.37035">
        <ele>809.09</ele>
        <time>2015-06-14T08:08:50Z</time>
      </trkpt>
      <trkpt lat="43.40502" lon="2.36962">
        <ele>808.61</ele>
        <time>2015-06-14T08:09:06Z</time>
      </trkpt>
      <trkpt lat="43.40507" lon="2.36951">
        <ele>807.64</ele>
        <time>2015-06-14T08:09:08Z</time>
      </trkpt>
      <trkpt lat="43.4051" lon="2.36945">
        <ele>807.64</ele>
        <time>2015-06-14T08:09:09Z</time>
      </trkpt>
      <trkpt lat="43.4057" lon="2.36864">
        <ele>803.8</ele>
        <time>2015-06-14T08:09:24Z</time>
      </trkpt>
      <trkpt lat="43.40641" lon="2.3681">
        <ele>800.92</ele>
        <time>2015-06-14T08:09:36Z</time>
      </trkpt>
      <trkpt lat="43.40687" lon="2.36735">
        <ele>799.95</ele>
        <time>2015-06-14T08:09:47Z</time>
      </trkpt>
      <trkpt lat="43.4069" lon="2.36729">
        <ele>799.47</ele>
        <time>2015-06-14T08:09:48Z</time>
      </trkpt>
      <trkpt lat="43.40693" lon="2.36722">
        <ele>799.47</ele>
        <time>2015-06-14T08:09:49Z</time>
      </trkpt>
      <trkpt lat="43.40696" lon="2.36714">
        <ele>798.99</ele>
        <time>2015-06-14T08:09:50Z</time>
      </trkpt>
      <trkpt lat="43.40698" lon="2.36707">
        <ele>798.99</ele>
        <time>2015-06-14T08:09:51Z</time>
      </trkpt>
      <trkpt lat="43.40699" lon="2.36699">
        <ele>798.51</ele>
        <time>2015-06-14T08:09:52Z</time>
      </trkpt>
      <trkpt lat="43.40701" lon="2.36692">
        <ele>798.51</ele>
        <time>2015-06-14T08:09:53Z</time>
      </trkpt>
      <trkpt lat="43.40702" lon="2.36684">
        <ele>798.51</ele>
        <time>2015-06-14T08:09:54Z</time>
      </trkpt>
      <trkpt lat="43.40702" lon="2.36678">
        <ele>798.51</ele>
        <time>2015-06-14T08:09:55Z</time>
      </trkpt>
      <trkpt lat="43.40701" lon="2.36671">
        <ele>798.03</ele>
        <time>2015-06-14T08:09:56Z</time>
      </trkpt>
      <trkpt lat="43.40701" lon="2.36664">
        <ele>798.03</ele>
        <time>2015-06-14T08:09:57Z</time>
      </trkpt>
      <trkpt lat="43.407" lon="2.36658">
        <ele>798.03</ele>
        <time>2015-06-14T08:09:58Z</time>
      </trkpt>
      <trkpt lat="43.40698" lon="2.36653">
        <ele>798.51</ele>
        <time>2015-06-14T08:09:59Z</time>
      </trkpt>
      <trkpt lat="43.40696" lon="2.36648">
        <ele>798.51</ele>
        <time>2015-06-14T08:10:00Z</time>
      </trkpt>
      <trkpt lat="43.40691" lon="2.36637">
        <ele>798.51</ele>
        <time>2015-06-14T08:10:02Z</time>
      </trkpt>
      <trkpt lat="43.40689" lon="2.36632">
        <ele>798.99</ele>
        <time>2015-06-14T08:10:03Z</time>
      </trkpt>
      <trkpt lat="43.40668" lon="2.3656">
        <ele>802.84</ele>
        <time>2015-06-14T08:10:18Z</time>
      </trkpt>
      <trkpt lat="43.40674" lon="2.36512">
        <ele>804.28</ele>
        <time>2015-06-14T08:10:30Z</time>
      </trkpt>
      <trkpt lat="43.40682" lon="2.36463">
        <ele>807.64</ele>
        <time>2015-06-14T08:10:42Z</time>
      </trkpt>
      <trkpt lat="43.40694" lon="2.36394">
        <ele>814.37</ele>
        <time>2015-06-14T08:10:59Z</time>
      </trkpt>
      <trkpt lat="43.40706" lon="2.36317">
        <ele>818.7</ele>
        <time>2015-06-14T08:11:16Z</time>
      </trkpt>
      <trkpt lat="43.40712" lon="2.36245">
        <ele>821.1</ele>
        <time>2015-06-14T08:11:32Z</time>
      </trkpt>
      <trkpt lat="43.40716" lon="2.36186">
        <ele>822.06</ele>
        <time>2015-06-14T08:11:44Z</time>
      </trkpt>
      <trkpt lat="43.4072" lon="2.36131">
        <ele>821.1</ele>
        <time>2015-06-14T08:11:55Z</time>
      </trkpt>
      <trkpt lat="43.40714" lon="2.3606">
        <ele>820.62</ele>
        <time>2015-06-14T08:12:08Z</time>
      </trkpt>
      <trkpt lat="43.40707" lon="2.3599">
        <ele>820.14</ele>
        <time>2015-06-14T08:12:21Z</time>
      </trkpt>
      <trkpt lat="43.40703" lon="2.35973">
        <ele>820.62</ele>
        <time>2015-06-14T08:12:24Z</time>
      </trkpt>
      <trkpt lat="43.40657" lon="2.35856">
        <ele>813.41</ele>
        <time>2015-06-14T08:12:35Z</time>
      </trkpt>
      <trkpt lat="43.40654" lon="2.35815">
        <ele>811.01</ele>
        <time>2015-06-14T08:12:38Z</time>
      </trkpt>
      <trkpt lat="43.40655" lon="2.35799">
        <ele>809.57</ele>
        <time>2015-06-14T08:12:39Z</time>
      </trkpt>
      <trkpt lat="43.40659" lon="2.35784">
        <ele>808.13</ele>
        <time>2015-06-14T08:12:40Z</time>
      </trkpt>
      <trkpt lat="43.40664" lon="2.35769">
        <ele>806.68</ele>
        <time>2015-06-14T08:12:41Z</time>
      </trkpt>
      <trkpt lat="43.40669" lon="2.35756">
        <ele>804.76</ele>
        <time>2015-06-14T08:12:42Z</time>
      </trkpt>
      <trkpt lat="43.40674" lon="2.35743">
        <ele>802.84</ele>
        <time>2015-06-14T08:12:43Z</time>
      </trkpt>
      <trkpt lat="43.4068" lon="2.35732">
        <ele>801.88</ele>
        <time>2015-06-14T08:12:44Z</time>
      </trkpt>
      <trkpt lat="43.40685" lon="2.35721">
        <ele>800.44</ele>
        <time>2015-06-14T08:12:45Z</time>
      </trkpt>
      <trkpt lat="43.40688" lon="2.35709">
        <ele>798.51</ele>
        <time>2015-06-14T08:12:46Z</time>
      </trkpt>
      <trkpt lat="43.40688" lon="2.35695">
        <ele>796.59</ele>
        <time>2015-06-14T08:12:47Z</time>
      </trkpt>
      <trkpt lat="43.40683" lon="2.35682">
        <ele>795.15</ele>
        <time>2015-06-14T08:12:48Z</time>
      </trkpt>
      <trkpt lat="43.40677" lon="2.3567">
        <ele>793.71</ele>
        <time>2015-06-14T08:12:49Z</time>
      </trkpt>
      <trkpt lat="43.40675" lon="2.35657">
        <ele>793.22</ele>
        <time>2015-06-14T08:12:50Z</time>
      </trkpt>
      <trkpt lat="43.40674" lon="2.35645">
        <ele>793.71</ele>
        <time>2015-06-14T08:12:51Z</time>
      </trkpt>
      <trkpt lat="43.40675" lon="2.35633">
        <ele>793.71</ele>
        <time>2015-06-14T08:12:52Z</time>
      </trkpt>
      <trkpt lat="43.40677" lon="2.35613">
        <ele>793.71</ele>
        <time>2015-06-14T08:12:54Z</time>
      </trkpt>
      <trkpt lat="43.40681" lon="2.35599">
        <ele>794.19</ele>
        <time>2015-06-14T08:12:56Z</time>
      </trkpt>
      <trkpt lat="43.40683" lon="2.35594">
        <ele>794.19</ele>
        <time>2015-06-14T08:12:57Z</time>
      </trkpt>
      <trkpt lat="43.40684" lon="2.35589">
        <ele>794.67</ele>
        <time>2015-06-14T08:12:58Z</time>
      </trkpt>
      <trkpt lat="43.40698" lon="2.35534">
        <ele>797.55</ele>
        <time>2015-06-14T08:13:11Z</time>
      </trkpt>
      <trkpt lat="43.40709" lon="2.35485">
        <ele>800.44</ele>
        <time>2015-06-14T08:13:24Z</time>
      </trkpt>
      <trkpt lat="43.40724" lon="2.3544">
        <ele>808.13</ele>
        <time>2015-06-14T08:13:38Z</time>
      </trkpt>
      <trkpt lat="43.40749" lon="2.35393">
        <ele>815.82</ele>
        <time>2015-06-14T08:13:53Z</time>
      </trkpt>
      <trkpt lat="43.40767" lon="2.35344">
        <ele>826.39</ele>
        <time>2015-06-14T08:14:07Z</time>
      </trkpt>
      <trkpt lat="43.4077" lon="2.35327">
        <ele>829.27</ele>
        <time>2015-06-14T08:14:12Z</time>
      </trkpt>
      <trkpt lat="43.40771" lon="2.35324">
        <ele>829.76</ele>
        <time>2015-06-14T08:14:13Z</time>
      </trkpt>
      <trkpt lat="43.40772" lon="2.35321">
        <ele>830.24</ele>
        <time>2015-06-14T08:14:14Z</time>
      </trkpt>
      <trkpt lat="43.40773" lon="2.35318">
        <ele>830.72</ele>
        <time>2015-06-14T08:14:15Z</time>
      </trkpt>
      <trkpt lat="43.40774" lon="2.35315">
        <ele>831.2</ele>
        <time>2015-06-14T08:14:16Z</time>
      </trkpt>
      <trkpt lat="43.40775" lon="2.35292">
        <ele>834.56</ele>
        <time>2015-06-14T08:14:23Z</time>
      </trkpt>
      <trkpt lat="43.40777" lon="2.35289">
        <ele>835.04</ele>
        <time>2015-06-14T08:14:24Z</time>
      </trkpt>
      <trkpt lat="43.40785" lon="2.35238">
        <ele>833.12</ele>
        <time>2015-06-14T08:14:37Z</time>
      </trkpt>
      <trkpt lat="43.4079" lon="2.35168">
        <ele>836</ele>
        <time>2015-06-14T08:14:55Z</time>
      </trkpt>
      <trkpt lat="43.40794" lon="2.35103">
        <ele>835.52</ele>
        <time>2015-06-14T08:15:11Z</time>
      </trkpt>
      <trkpt lat="43.40808" lon="2.35034">
        <ele>834.08</ele>
        <time>2015-06-14T08:15:27Z</time>
      </trkpt>
      <trkpt lat="43.40825" lon="2.34978">
        <ele>832.64</ele>
        <time>2015-06-14T08:15:40Z</time>
      </trkpt>
      <trkpt lat="43.40847" lon="2.34922">
        <ele>833.12</ele>
        <time>2015-06-14T08:15:54Z</time>
      </trkpt>
      <trkpt lat="43.4088" lon="2.34851">
        <ele>836.96</ele>
        <time>2015-06-14T08:16:13Z</time>
      </trkpt>
      <trkpt lat="43.40906" lon="2.34786">
        <ele>838.89</ele>
        <time>2015-06-14T08:16:30Z</time>
      </trkpt>
      <trkpt lat="43.40928" lon="2.34718">
        <ele>839.85</ele>
        <time>2015-06-14T08:16:47Z</time>
      </trkpt>
      <trkpt lat="43.40949" lon="2.3463">
        <ele>840.81</ele>
        <time>2015-06-14T08:17:06Z</time>
      </trkpt>
      <trkpt lat="43.40971" lon="2.34569">
        <ele>841.77</ele>
        <time>2015-06-14T08:17:18Z</time>
      </trkpt>
      <trkpt lat="43.41001" lon="2.34501">
        <ele>846.58</ele>
        <time>2015-06-14T08:17:31Z</time>
      </trkpt>
      <trkpt lat="43.41006" lon="2.3449">
        <ele>847.54</ele>
        <time>2015-06-14T08:17:33Z</time>
      </trkpt>
      <trkpt lat="43.41008" lon="2.34485">
        <ele>848.02</ele>
        <time>2015-06-14T08:17:34Z</time>
      </trkpt>
      <trkpt lat="43.41029" lon="2.34442">
        <ele>850.9</ele>
        <time>2015-06-14T08:17:42Z</time>
      </trkpt>
      <trkpt lat="43.41067" lon="2.34349">
        <ele>854.75</ele>
        <time>2015-06-14T08:17:58Z</time>
      </trkpt>
      <trkpt lat="43.41116" lon="2.34248">
        <ele>861</ele>
        <time>2015-06-14T08:18:14Z</time>
      </trkpt>
      <trkpt lat="43.41154" lon="2.34149">
        <ele>865.32</ele>
        <time>2015-06-14T08:18:28Z</time>
      </trkpt>
      <trkpt lat="43.41205" lon="2.3407">
        <ele>861.48</ele>
        <time>2015-06-14T08:18:42Z</time>
      </trkpt>
      <trkpt lat="43.41263" lon="2.33985">
        <ele>856.19</ele>
        <time>2015-06-14T08:18:57Z</time>
      </trkpt>
      <trkpt lat="43.41272" lon="2.33977">
        <ele>855.23</ele>
        <time>2015-06-14T08:18:59Z</time>
      </trkpt>
      <trkpt lat="43.4136" lon="2.3392">
        <ele>853.79</ele>
        <time>2015-06-14T08:19:17Z</time>
      </trkpt>
      <trkpt lat="43.41465" lon="2.33861">
        <ele>854.75</ele>
        <time>2015-06-14T08:19:38Z</time>
      </trkpt>
      <trkpt lat="43.41557" lon="2.33807">
        <ele>854.27</ele>
        <time>2015-06-14T08:19:58Z</time>
      </trkpt>
      <trkpt lat="43.41626" lon="2.33769">
        <ele>854.75</ele>
        <time>2015-06-14T08:20:15Z</time>
      </trkpt>
      <trkpt lat="43.41626" lon="2.33768">
        <ele>854.27</ele>
        <time>2015-06-14T08:20:30Z</time>
      </trkpt>
      <trkpt lat="43.41627" lon="2.33767">
        <ele>853.79</ele>
        <time>2015-06-14T08:21:09Z</time>
      </trkpt>
      <trkpt lat="43.41626" lon="2.33768">
        <ele>854.27</ele>
        <time>2015-06-14T08:21:46Z</time>
      </trkpt>
      <trkpt lat="43.41626" lon="2.33768">
        <ele>854.75</ele>
        <time>2015-06-14T08:22:27Z</time>
      </trkpt>
      <trkpt lat="43.4163" lon="2.33765">
        <ele>854.75</ele>
        <time>2015-06-14T08:22:59Z</time>
      </trkpt>
      <trkpt lat="43.4164" lon="2.33759">
        <ele>854.27</ele>
        <time>2015-06-14T08:23:02Z</time>
      </trkpt>
      <trkpt lat="43.41648" lon="2.33754">
        <ele>854.27</ele>
        <time>2015-06-14T08:23:04Z</time>
      </trkpt>
      <trkpt lat="43.41725" lon="2.33708">
        <ele>854.27</ele>
        <time>2015-06-14T08:23:19Z</time>
      </trkpt>
      <trkpt lat="43.41777" lon="2.33678">
        <ele>855.71</ele>
        <time>2015-06-14T08:23:28Z</time>
      </trkpt>
      <trkpt lat="43.41782" lon="2.33675">
        <ele>856.19</ele>
        <time>2015-06-14T08:23:29Z</time>
      </trkpt>
      <trkpt lat="43.41809" lon="2.3366">
        <ele>858.11</ele>
        <time>2015-06-14T08:23:34Z</time>
      </trkpt>
      <trkpt lat="43.41827" lon="2.33648">
        <ele>860.04</ele>
        <time>2015-06-14T08:23:38Z</time>
      </trkpt>
      <trkpt lat="43.41836" lon="2.3364">
        <ele>861</ele>
        <time>2015-06-14T08:23:40Z</time>
      </trkpt>
      <trkpt lat="43.41841" lon="2.33636">
        <ele>861.48</ele>
        <time>2015-06-14T08:23:41Z</time>
      </trkpt>
      <trkpt lat="43.41845" lon="2.33632">
        <ele>862.44</ele>
        <time>2015-06-14T08:23:42Z</time>
      </trkpt>
      <trkpt lat="43.41849" lon="2.33628">
        <ele>862.92</ele>
        <time>2015-06-14T08:23:43Z</time>
      </trkpt>
      <trkpt lat="43.41852" lon="2.33624">
        <ele>863.4</ele>
        <time>2015-06-14T08:23:44Z</time>
      </trkpt>
      <trkpt lat="43.41859" lon="2.33615">
        <ele>864.84</ele>
        <time>2015-06-14T08:23:46Z</time>
      </trkpt>
      <trkpt lat="43.41872" lon="2.33599">
        <ele>866.77</ele>
        <time>2015-06-14T08:23:50Z</time>
      </trkpt>
      <trkpt lat="43.41876" lon="2.33594">
        <ele>867.25</ele>
        <time>2015-06-14T08:23:51Z</time>
      </trkpt>
      <trkpt lat="43.41882" lon="2.33585">
        <ele>868.21</ele>
        <time>2015-06-14T08:23:53Z</time>
      </trkpt>
      <trkpt lat="43.41892" lon="2.33571">
        <ele>869.17</ele>
        <time>2015-06-14T08:23:56Z</time>
      </trkpt>
      <trkpt lat="43.41895" lon="2.33567">
        <ele>869.65</ele>
        <time>2015-06-14T08:23:57Z</time>
      </trkpt>
      <trkpt lat="43.41899" lon="2.33563">
        <ele>869.65</ele>
        <time>2015-06-14T08:23:58Z</time>
      </trkpt>
      <trkpt lat="43.4191" lon="2.33549">
        <ele>870.13</ele>
        <time>2015-06-14T08:24:01Z</time>
      </trkpt>
      <trkpt lat="43.41913" lon="2.33544">
        <ele>870.13</ele>
        <time>2015-06-14T08:24:02Z</time>
      </trkpt>
      <trkpt lat="43.41972" lon="2.3347">
        <ele>868.69</ele>
        <time>2015-06-14T08:24:18Z</time>
      </trkpt>
      <trkpt lat="43.42025" lon="2.3342">
        <ele>868.21</ele>
        <time>2015-06-14T08:24:30Z</time>
      </trkpt>
      <trkpt lat="43.42029" lon="2.33415">
        <ele>868.21</ele>
        <time>2015-06-14T08:24:31Z</time>
      </trkpt>
      <trkpt lat="43.42099" lon="2.33322">
        <ele>866.29</ele>
        <time>2015-06-14T08:24:47Z</time>
      </trkpt>
      <trkpt lat="43.42121" lon="2.33291">
        <ele>865.8</ele>
        <time>2015-06-14T08:24:52Z</time>
      </trkpt>
      <trkpt lat="43.42127" lon="2.33286">
        <ele>865.32</ele>
        <time>2015-06-14T08:24:53Z</time>
      </trkpt>
      <trkpt lat="43.42132" lon="2.33281">
        <ele>865.32</ele>
        <time>2015-06-14T08:24:54Z</time>
      </trkpt>
      <trkpt lat="43.42139" lon="2.33279">
        <ele>864.84</ele>
        <time>2015-06-14T08:24:55Z</time>
      </trkpt>
      <trkpt lat="43.42146" lon="2.33279">
        <ele>864.84</ele>
        <time>2015-06-14T08:24:56Z</time>
      </trkpt>
      <trkpt lat="43.42152" lon="2.33281">
        <ele>864.84</ele>
        <time>2015-06-14T08:24:57Z</time>
      </trkpt>
      <trkpt lat="43.42158" lon="2.33284">
        <ele>864.84</ele>
        <time>2015-06-14T08:24:58Z</time>
      </trkpt>
      <trkpt lat="43.42164" lon="2.3329">
        <ele>864.84</ele>
        <time>2015-06-14T08:24:59Z</time>
      </trkpt>
      <trkpt lat="43.42169" lon="2.33295">
        <ele>864.84</ele>
        <time>2015-06-14T08:25:00Z</time>
      </trkpt>
      <trkpt lat="43.42174" lon="2.33302">
        <ele>864.84</ele>
        <time>2015-06-14T08:25:01Z</time>
      </trkpt>
      <trkpt lat="43.4222" lon="2.33365">
        <ele>868.21</ele>
        <time>2015-06-14T08:25:13Z</time>
      </trkpt>
      <trkpt lat="43.42229" lon="2.33374">
        <ele>869.65</ele>
        <time>2015-06-14T08:25:16Z</time>
      </trkpt>
      <trkpt lat="43.42233" lon="2.33376">
        <ele>870.13</ele>
        <time>2015-06-14T08:25:17Z</time>
      </trkpt>
      <trkpt lat="43.42237" lon="2.33378">
        <ele>870.61</ele>
        <time>2015-06-14T08:25:18Z</time>
      </trkpt>
      <trkpt lat="43.42241" lon="2.33379">
        <ele>871.09</ele>
        <time>2015-06-14T08:25:19Z</time>
      </trkpt>
      <trkpt lat="43.42245" lon="2.3338">
        <ele>871.57</ele>
        <time>2015-06-14T08:25:20Z</time>
      </trkpt>
      <trkpt lat="43.42249" lon="2.33381">
        <ele>872.53</ele>
        <time>2015-06-14T08:25:21Z</time>
      </trkpt>
      <trkpt lat="43.42254" lon="2.33381">
        <ele>873.01</ele>
        <time>2015-06-14T08:25:22Z</time>
      </trkpt>
      <trkpt lat="43.42258" lon="2.3338">
        <ele>873.5</ele>
        <time>2015-06-14T08:25:23Z</time>
      </trkpt>
      <trkpt lat="43.42275" lon="2.33376">
        <ele>875.9</ele>
        <time>2015-06-14T08:25:27Z</time>
      </trkpt>
      <trkpt lat="43.4228" lon="2.33375">
        <ele>876.38</ele>
        <time>2015-06-14T08:25:28Z</time>
      </trkpt>
      <trkpt lat="43.42306" lon="2.33369">
        <ele>880.22</ele>
        <time>2015-06-14T08:25:34Z</time>
      </trkpt>
      <trkpt lat="43.4237" lon="2.33352">
        <ele>885.51</ele>
        <time>2015-06-14T08:25:47Z</time>
      </trkpt>
      <trkpt lat="43.42409" lon="2.33343">
        <ele>889.36</ele>
        <time>2015-06-14T08:25:55Z</time>
      </trkpt>
      <trkpt lat="43.42454" lon="2.33331">
        <ele>888.88</ele>
        <time>2015-06-14T08:26:04Z</time>
      </trkpt>
      <trkpt lat="43.42463" lon="2.33328">
        <ele>888.88</ele>
        <time>2015-06-14T08:26:06Z</time>
      </trkpt>
      <trkpt lat="43.42472" lon="2.33324">
        <ele>889.36</ele>
        <time>2015-06-14T08:26:08Z</time>
      </trkpt>
      <trkpt lat="43.42476" lon="2.33322">
        <ele>889.36</ele>
        <time>2015-06-14T08:26:09Z</time>
      </trkpt>
      <trkpt lat="43.4248" lon="2.3332">
        <ele>889.36</ele>
        <time>2015-06-14T08:26:10Z</time>
      </trkpt>
      <trkpt lat="43.42484" lon="2.33318">
        <ele>889.36</ele>
        <time>2015-06-14T08:26:11Z</time>
      </trkpt>
      <trkpt lat="43.42488" lon="2.33316">
        <ele>889.84</ele>
        <time>2015-06-14T08:26:12Z</time>
      </trkpt>
      <trkpt lat="43.42492" lon="2.33313">
        <ele>890.32</ele>
        <time>2015-06-14T08:26:13Z</time>
      </trkpt>
      <trkpt lat="43.42495" lon="2.33311">
        <ele>890.32</ele>
        <time>2015-06-14T08:26:14Z</time>
      </trkpt>
      <trkpt lat="43.42503" lon="2.33306">
        <ele>890.32</ele>
        <time>2015-06-14T08:26:16Z</time>
      </trkpt>
      <trkpt lat="43.42511" lon="2.33302">
        <ele>890.8</ele>
        <time>2015-06-14T08:26:18Z</time>
      </trkpt>
      <trkpt lat="43.42519" lon="2.33297">
        <ele>890.8</ele>
        <time>2015-06-14T08:26:20Z</time>
      </trkpt>
      <trkpt lat="43.42528" lon="2.33292">
        <ele>890.8</ele>
        <time>2015-06-14T08:26:22Z</time>
      </trkpt>
      <trkpt lat="43.42536" lon="2.33287">
        <ele>891.28</ele>
        <time>2015-06-14T08:26:24Z</time>
      </trkpt>
      <trkpt lat="43.4254" lon="2.33286">
        <ele>891.28</ele>
        <time>2015-06-14T08:26:25Z</time>
      </trkpt>
      <trkpt lat="43.42545" lon="2.33283">
        <ele>891.28</ele>
        <time>2015-06-14T08:26:26Z</time>
      </trkpt>
      <trkpt lat="43.42562" lon="2.33274">
        <ele>892.24</ele>
        <time>2015-06-14T08:26:30Z</time>
      </trkpt>
      <trkpt lat="43.42632" lon="2.33236">
        <ele>898.49</ele>
        <time>2015-06-14T08:26:46Z</time>
      </trkpt>
      <trkpt lat="43.42654" lon="2.3323">
        <ele>899.45</ele>
        <time>2015-06-14T08:26:51Z</time>
      </trkpt>
      <trkpt lat="43.42658" lon="2.33229">
        <ele>899.45</ele>
        <time>2015-06-14T08:26:52Z</time>
      </trkpt>
      <trkpt lat="43.42662" lon="2.33229">
        <ele>899.45</ele>
        <time>2015-06-14T08:26:53Z</time>
      </trkpt>
      <trkpt lat="43.4268" lon="2.3323">
        <ele>898.49</ele>
        <time>2015-06-14T08:27:03Z</time>
      </trkpt>
      <trkpt lat="43.42681" lon="2.3323">
        <ele>897.53</ele>
        <time>2015-06-14T08:27:34Z</time>
      </trkpt>
      <trkpt lat="43.42678" lon="2.3323">
        <ele>897.05</ele>
        <time>2015-06-14T08:28:02Z</time>
      </trkpt>
      <trkpt lat="43.42679" lon="2.3323">
        <ele>898.49</ele>
        <time>2015-06-14T08:28:26Z</time>
      </trkpt>
      <trkpt lat="43.4268" lon="2.33231">
        <ele>899.45</ele>
        <time>2015-06-14T08:28:45Z</time>
      </trkpt>
      <trkpt lat="43.42685" lon="2.33227">
        <ele>899.45</ele>
        <time>2015-06-14T08:29:05Z</time>
      </trkpt>
      <trkpt lat="43.42684" lon="2.33227">
        <ele>900.89</ele>
        <time>2015-06-14T08:29:28Z</time>
      </trkpt>
      <trkpt lat="43.42685" lon="2.33229">
        <ele>901.37</ele>
        <time>2015-06-14T08:29:49Z</time>
      </trkpt>
      <trkpt lat="43.4269" lon="2.33229">
        <ele>902.33</ele>
        <time>2015-06-14T08:30:01Z</time>
      </trkpt>
      <trkpt lat="43.42691" lon="2.33228">
        <ele>902.33</ele>
        <time>2015-06-14T08:30:02Z</time>
      </trkpt>
      <trkpt lat="43.42692" lon="2.33227">
        <ele>901.85</ele>
        <time>2015-06-14T08:30:03Z</time>
      </trkpt>
      <trkpt lat="43.42694" lon="2.33227">
        <ele>901.85</ele>
        <time>2015-06-14T08:30:04Z</time>
      </trkpt>
      <trkpt lat="43.42696" lon="2.33228">
        <ele>901.37</ele>
        <time>2015-06-14T08:30:05Z</time>
      </trkpt>
      <trkpt lat="43.42699" lon="2.33229">
        <ele>901.37</ele>
        <time>2015-06-14T08:30:06Z</time>
      </trkpt>
      <trkpt lat="43.42741" lon="2.33228">
        <ele>898.49</ele>
        <time>2015-06-14T08:30:16Z</time>
      </trkpt>
      <trkpt lat="43.42746" lon="2.33227">
        <ele>898.01</ele>
        <time>2015-06-14T08:30:17Z</time>
      </trkpt>
      <trkpt lat="43.42752" lon="2.33226">
        <ele>898.01</ele>
        <time>2015-06-14T08:30:18Z</time>
      </trkpt>
      <trkpt lat="43.42858" lon="2.3321">
        <ele>892.24</ele>
        <time>2015-06-14T08:30:36Z</time>
      </trkpt>
      <trkpt lat="43.42928" lon="2.33182">
        <ele>889.84</ele>
        <time>2015-06-14T08:30:46Z</time>
      </trkpt>
      <trkpt lat="43.43005" lon="2.33185">
        <ele>890.8</ele>
        <time>2015-06-14T08:30:57Z</time>
      </trkpt>
      <trkpt lat="43.43102" lon="2.33233">
        <ele>886.47</ele>
        <time>2015-06-14T08:31:10Z</time>
      </trkpt>
      <trkpt lat="43.43195" lon="2.33297">
        <ele>875.42</ele>
        <time>2015-06-14T08:31:20Z</time>
      </trkpt>
      <trkpt lat="43.43309" lon="2.33356">
        <ele>861.96</ele>
        <time>2015-06-14T08:31:29Z</time>
      </trkpt>
      <trkpt lat="43.43445" lon="2.3345">
        <ele>848.98</ele>
        <time>2015-06-14T08:31:39Z</time>
      </trkpt>
      <trkpt lat="43.43458" lon="2.33458">
        <ele>847.54</ele>
        <time>2015-06-14T08:31:40Z</time>
      </trkpt>
      <trkpt lat="43.43472" lon="2.33464">
        <ele>846.58</ele>
        <time>2015-06-14T08:31:41Z</time>
      </trkpt>
      <trkpt lat="43.43605" lon="2.335">
        <ele>834.56</ele>
        <time>2015-06-14T08:31:51Z</time>
      </trkpt>
      <trkpt lat="43.4367" lon="2.33512">
        <ele>826.87</ele>
        <time>2015-06-14T08:31:56Z</time>
      </trkpt>
      <trkpt lat="43.43684" lon="2.3351">
        <ele>825.91</ele>
        <time>2015-06-14T08:31:57Z</time>
      </trkpt>
      <trkpt lat="43.43697" lon="2.33503">
        <ele>823.99</ele>
        <time>2015-06-14T08:31:58Z</time>
      </trkpt>
      <trkpt lat="43.43708" lon="2.33492">
        <ele>822.55</ele>
        <time>2015-06-14T08:31:59Z</time>
      </trkpt>
      <trkpt lat="43.43718" lon="2.3348">
        <ele>821.1</ele>
        <time>2015-06-14T08:32:00Z</time>
      </trkpt>
      <trkpt lat="43.43738" lon="2.33454">
        <ele>818.22</ele>
        <time>2015-06-14T08:32:02Z</time>
      </trkpt>
      <trkpt lat="43.43749" lon="2.33444">
        <ele>817.26</ele>
        <time>2015-06-14T08:32:03Z</time>
      </trkpt>
      <trkpt lat="43.4376" lon="2.33435">
        <ele>816.3</ele>
        <time>2015-06-14T08:32:04Z</time>
      </trkpt>
      <trkpt lat="43.43772" lon="2.33427">
        <ele>815.34</ele>
        <time>2015-06-14T08:32:05Z</time>
      </trkpt>
      <trkpt lat="43.43783" lon="2.33422">
        <ele>814.37</ele>
        <time>2015-06-14T08:32:06Z</time>
      </trkpt>
      <trkpt lat="43.43795" lon="2.33418">
        <ele>813.41</ele>
        <time>2015-06-14T08:32:07Z</time>
      </trkpt>
      <trkpt lat="43.43807" lon="2.33416">
        <ele>812.93</ele>
        <time>2015-06-14T08:32:08Z</time>
      </trkpt>
      <trkpt lat="43.43819" lon="2.33415">
        <ele>812.45</ele>
        <time>2015-06-14T08:32:09Z</time>
      </trkpt>
      <trkpt lat="43.43829" lon="2.33416">
        <ele>811.97</ele>
        <time>2015-06-14T08:32:10Z</time>
      </trkpt>
      <trkpt lat="43.4384" lon="2.33417">
        <ele>811.49</ele>
        <time>2015-06-14T08:32:11Z</time>
      </trkpt>
      <trkpt lat="43.4386" lon="2.33417">
        <ele>811.01</ele>
        <time>2015-06-14T08:32:13Z</time>
      </trkpt>
      <trkpt lat="43.43879" lon="2.33413">
        <ele>810.05</ele>
        <time>2015-06-14T08:32:15Z</time>
      </trkpt>
      <trkpt lat="43.43889" lon="2.33409">
        <ele>809.57</ele>
        <time>2015-06-14T08:32:16Z</time>
      </trkpt>
      <trkpt lat="43.43898" lon="2.33402">
        <ele>809.09</ele>
        <time>2015-06-14T08:32:17Z</time>
      </trkpt>
      <trkpt lat="43.43905" lon="2.33392">
        <ele>808.13</ele>
        <time>2015-06-14T08:32:18Z</time>
      </trkpt>
      <trkpt lat="43.43912" lon="2.33381">
        <ele>807.16</ele>
        <time>2015-06-14T08:32:19Z</time>
      </trkpt>
      <trkpt lat="43.43917" lon="2.33372">
        <ele>806.68</ele>
        <time>2015-06-14T08:32:20Z</time>
      </trkpt>
      <trkpt lat="43.43923" lon="2.33363">
        <ele>806.2</ele>
        <time>2015-06-14T08:32:21Z</time>
      </trkpt>
      <trkpt lat="43.43929" lon="2.33357">
        <ele>805.24</ele>
        <time>2015-06-14T08:32:22Z</time>
      </trkpt>
      <trkpt lat="43.43934" lon="2.33353">
        <ele>804.76</ele>
        <time>2015-06-14T08:32:23Z</time>
      </trkpt>
      <trkpt lat="43.43938" lon="2.3335">
        <ele>804.28</ele>
        <time>2015-06-14T08:32:24Z</time>
      </trkpt>
      <trkpt lat="43.43941" lon="2.33347">
        <ele>803.8</ele>
        <time>2015-06-14T08:32:25Z</time>
      </trkpt>
      <trkpt lat="43.43943" lon="2.33345">
        <ele>803.32</ele>
        <time>2015-06-14T08:32:26Z</time>
      </trkpt>
      <trkpt lat="43.43944" lon="2.33342">
        <ele>803.32</ele>
        <time>2015-06-14T08:32:27Z</time>
      </trkpt>
      <trkpt lat="43.43944" lon="2.33339">
        <ele>803.32</ele>
        <time>2015-06-14T08:32:28Z</time>
      </trkpt>
      <trkpt lat="43.43942" lon="2.33337">
        <ele>803.32</ele>
        <time>2015-06-14T08:32:29Z</time>
      </trkpt>
      <trkpt lat="43.4394" lon="2.33335">
        <ele>803.8</ele>
        <time>2015-06-14T08:32:30Z</time>
      </trkpt>
      <trkpt lat="43.43936" lon="2.33334">
        <ele>803.8</ele>
        <time>2015-06-14T08:32:31Z</time>
      </trkpt>
      <trkpt lat="43.43908" lon="2.33318">
        <ele>805.72</ele>
        <time>2015-06-14T08:32:39Z</time>
      </trkpt>
      <trkpt lat="43.43843" lon="2.33304">
        <ele>809.09</ele>
        <time>2015-06-14T08:32:52Z</time>
      </trkpt>
      <trkpt lat="43.43751" lon="2.333">
        <ele>809.09</ele>
        <time>2015-06-14T08:33:07Z</time>
      </trkpt>
      <trkpt lat="43.43705" lon="2.33304">
        <ele>808.61</ele>
        <time>2015-06-14T08:33:14Z</time>
      </trkpt>
      <trkpt lat="43.43685" lon="2.33295">
        <ele>808.61</ele>
        <time>2015-06-14T08:33:17Z</time>
      </trkpt>
      <trkpt lat="43.43679" lon="2.3329">
        <ele>808.61</ele>
        <time>2015-06-14T08:33:18Z</time>
      </trkpt>
      <trkpt lat="43.43674" lon="2.33284">
        <ele>808.61</ele>
        <time>2015-06-14T08:33:19Z</time>
      </trkpt>
      <trkpt lat="43.43669" lon="2.33277">
        <ele>808.61</ele>
        <time>2015-06-14T08:33:20Z</time>
      </trkpt>
      <trkpt lat="43.43664" lon="2.3327">
        <ele>808.61</ele>
        <time>2015-06-14T08:33:21Z</time>
      </trkpt>
      <trkpt lat="43.43659" lon="2.33262">
        <ele>808.13</ele>
        <time>2015-06-14T08:33:22Z</time>
      </trkpt>
      <trkpt lat="43.43655" lon="2.33254">
        <ele>808.13</ele>
        <time>2015-06-14T08:33:23Z</time>
      </trkpt>
      <trkpt lat="43.43635" lon="2.33205">
        <ele>808.61</ele>
        <time>2015-06-14T08:33:29Z</time>
      </trkpt>
      <trkpt lat="43.43632" lon="2.33197">
        <ele>808.61</ele>
        <time>2015-06-14T08:33:30Z</time>
      </trkpt>
      <trkpt lat="43.43629" lon="2.33189">
        <ele>808.13</ele>
        <time>2015-06-14T08:33:31Z</time>
      </trkpt>
      <trkpt lat="43.4361" lon="2.33149">
        <ele>807.64</ele>
        <time>2015-06-14T08:33:36Z</time>
      </trkpt>
      <trkpt lat="43.43603" lon="2.33143">
        <ele>807.16</ele>
        <time>2015-06-14T08:33:37Z</time>
      </trkpt>
      <trkpt lat="43.43594" lon="2.33139">
        <ele>806.68</ele>
        <time>2015-06-14T08:33:38Z</time>
      </trkpt>
      <trkpt lat="43.43586" lon="2.33139">
        <ele>806.68</ele>
        <time>2015-06-14T08:33:39Z</time>
      </trkpt>
      <trkpt lat="43.43576" lon="2.33139">
        <ele>806.2</ele>
        <time>2015-06-14T08:33:40Z</time>
      </trkpt>
      <trkpt lat="43.43568" lon="2.33141">
        <ele>805.72</ele>
        <time>2015-06-14T08:33:41Z</time>
      </trkpt>
      <trkpt lat="43.43559" lon="2.33143">
        <ele>805.72</ele>
        <time>2015-06-14T08:33:42Z</time>
      </trkpt>
      <trkpt lat="43.43486" lon="2.33159">
        <ele>803.32</ele>
        <time>2015-06-14T08:33:51Z</time>
      </trkpt>
      <trkpt lat="43.43476" lon="2.33155">
        <ele>803.32</ele>
        <time>2015-06-14T08:33:52Z</time>
      </trkpt>
      <trkpt lat="43.43468" lon="2.33149">
        <ele>803.32</ele>
        <time>2015-06-14T08:33:53Z</time>
      </trkpt>
      <trkpt lat="43.43462" lon="2.33142">
        <ele>803.32</ele>
        <time>2015-06-14T08:33:54Z</time>
      </trkpt>
      <trkpt lat="43.43455" lon="2.33133">
        <ele>803.32</ele>
        <time>2015-06-14T08:33:55Z</time>
      </trkpt>
      <trkpt lat="43.4345" lon="2.33124">
        <ele>803.32</ele>
        <time>2015-06-14T08:33:56Z</time>
      </trkpt>
      <trkpt lat="43.43388" lon="2.33027">
        <ele>804.76</ele>
        <time>2015-06-14T08:34:07Z</time>
      </trkpt>
      <trkpt lat="43.4338" lon="2.33019">
        <ele>804.76</ele>
        <time>2015-06-14T08:34:08Z</time>
      </trkpt>
      <trkpt lat="43.43373" lon="2.33013">
        <ele>804.76</ele>
        <time>2015-06-14T08:34:09Z</time>
      </trkpt>
      <trkpt lat="43.43364" lon="2.33008">
        <ele>804.76</ele>
        <time>2015-06-14T08:34:10Z</time>
      </trkpt>
      <trkpt lat="43.43356" lon="2.33003">
        <ele>804.76</ele>
        <time>2015-06-14T08:34:11Z</time>
      </trkpt>
      <trkpt lat="43.43347" lon="2.33">
        <ele>805.24</ele>
        <time>2015-06-14T08:34:12Z</time>
      </trkpt>
      <trkpt lat="43.43255" lon="2.32968">
        <ele>805.24</ele>
        <time>2015-06-14T08:34:23Z</time>
      </trkpt>
      <trkpt lat="43.4325" lon="2.32961">
        <ele>804.76</ele>
        <time>2015-06-14T08:34:24Z</time>
      </trkpt>
      <trkpt lat="43.43245" lon="2.32953">
        <ele>805.24</ele>
        <time>2015-06-14T08:34:25Z</time>
      </trkpt>
      <trkpt lat="43.43212" lon="2.32894">
        <ele>805.24</ele>
        <time>2015-06-14T08:34:32Z</time>
      </trkpt>
      <trkpt lat="43.43206" lon="2.32886">
        <ele>805.24</ele>
        <time>2015-06-14T08:34:33Z</time>
      </trkpt>
      <trkpt lat="43.43192" lon="2.3287">
        <ele>805.24</ele>
        <time>2015-06-14T08:34:35Z</time>
      </trkpt>
      <trkpt lat="43.43118" lon="2.32819">
        <ele>802.36</ele>
        <time>2015-06-14T08:34:44Z</time>
      </trkpt>
      <trkpt lat="43.4311" lon="2.32813">
        <ele>801.88</ele>
        <time>2015-06-14T08:34:45Z</time>
      </trkpt>
      <trkpt lat="43.43102" lon="2.32805">
        <ele>801.88</ele>
        <time>2015-06-14T08:34:46Z</time>
      </trkpt>
      <trkpt lat="43.43084" lon="2.32779">
        <ele>801.88</ele>
        <time>2015-06-14T08:34:49Z</time>
      </trkpt>
      <trkpt lat="43.4306" lon="2.32732">
        <ele>800.92</ele>
        <time>2015-06-14T08:34:54Z</time>
      </trkpt>
      <trkpt lat="43.4302" lon="2.32673">
        <ele>798.03</ele>
        <time>2015-06-14T08:35:00Z</time>
      </trkpt>
      <trkpt lat="43.43016" lon="2.32662">
        <ele>797.55</ele>
        <time>2015-06-14T08:35:01Z</time>
      </trkpt>
      <trkpt lat="43.42996" lon="2.32585">
        <ele>795.63</ele>
        <time>2015-06-14T08:35:08Z</time>
      </trkpt>
      <trkpt lat="43.4299" lon="2.32574">
        <ele>795.15</ele>
        <time>2015-06-14T08:35:09Z</time>
      </trkpt>
      <trkpt lat="43.42982" lon="2.32564">
        <ele>794.67</ele>
        <time>2015-06-14T08:35:10Z</time>
      </trkpt>
      <trkpt lat="43.42974" lon="2.32556">
        <ele>794.19</ele>
        <time>2015-06-14T08:35:11Z</time>
      </trkpt>
      <trkpt lat="43.42966" lon="2.3255">
        <ele>793.71</ele>
        <time>2015-06-14T08:35:12Z</time>
      </trkpt>
      <trkpt lat="43.42956" lon="2.32544">
        <ele>793.22</ele>
        <time>2015-06-14T08:35:13Z</time>
      </trkpt>
      <trkpt lat="43.42945" lon="2.32538">
        <ele>792.74</ele>
        <time>2015-06-14T08:35:14Z</time>
      </trkpt>
      <trkpt lat="43.42935" lon="2.32535">
        <ele>792.26</ele>
        <time>2015-06-14T08:35:15Z</time>
      </trkpt>
      <trkpt lat="43.4285" lon="2.32504">
        <ele>788.42</ele>
        <time>2015-06-14T08:35:24Z</time>
      </trkpt>
      <trkpt lat="43.42842" lon="2.32499">
        <ele>787.94</ele>
        <time>2015-06-14T08:35:25Z</time>
      </trkpt>
      <trkpt lat="43.42835" lon="2.32492">
        <ele>787.94</ele>
        <time>2015-06-14T08:35:26Z</time>
      </trkpt>
      <trkpt lat="43.42828" lon="2.32484">
        <ele>787.94</ele>
        <time>2015-06-14T08:35:27Z</time>
      </trkpt>
      <trkpt lat="43.42822" lon="2.32475">
        <ele>787.94</ele>
        <time>2015-06-14T08:35:28Z</time>
      </trkpt>
      <trkpt lat="43.42817" lon="2.32466">
        <ele>787.94</ele>
        <time>2015-06-14T08:35:29Z</time>
      </trkpt>
      <trkpt lat="43.42812" lon="2.32454">
        <ele>787.94</ele>
        <time>2015-06-14T08:35:30Z</time>
      </trkpt>
      <trkpt lat="43.4281" lon="2.3244">
        <ele>787.94</ele>
        <time>2015-06-14T08:35:31Z</time>
      </trkpt>
      <trkpt lat="43.42807" lon="2.32426">
        <ele>787.94</ele>
        <time>2015-06-14T08:35:32Z</time>
      </trkpt>
      <trkpt lat="43.42806" lon="2.32412">
        <ele>788.42</ele>
        <time>2015-06-14T08:35:33Z</time>
      </trkpt>
      <trkpt lat="43.42805" lon="2.32398">
        <ele>788.42</ele>
        <time>2015-06-14T08:35:34Z</time>
      </trkpt>
      <trkpt lat="43.42799" lon="2.32346">
        <ele>788.42</ele>
        <time>2015-06-14T08:35:38Z</time>
      </trkpt>
      <trkpt lat="43.42798" lon="2.32335">
        <ele>787.94</ele>
        <time>2015-06-14T08:35:39Z</time>
      </trkpt>
      <trkpt lat="43.42796" lon="2.32323">
        <ele>787.94</ele>
        <time>2015-06-14T08:35:40Z</time>
      </trkpt>
      <trkpt lat="43.42793" lon="2.32312">
        <ele>787.46</ele>
        <time>2015-06-14T08:35:41Z</time>
      </trkpt>
      <trkpt lat="43.42792" lon="2.32303">
        <ele>787.46</ele>
        <time>2015-06-14T08:35:42Z</time>
      </trkpt>
      <trkpt lat="43.42789" lon="2.32295">
        <ele>787.94</ele>
        <time>2015-06-14T08:35:43Z</time>
      </trkpt>
      <trkpt lat="43.42785" lon="2.32286">
        <ele>787.94</ele>
        <time>2015-06-14T08:35:44Z</time>
      </trkpt>
      <trkpt lat="43.42778" lon="2.32277">
        <ele>787.94</ele>
        <time>2015-06-14T08:35:45Z</time>
      </trkpt>
      <trkpt lat="43.42771" lon="2.32268">
        <ele>787.46</ele>
        <time>2015-06-14T08:35:46Z</time>
      </trkpt>
      <trkpt lat="43.42674" lon="2.32153">
        <ele>774</ele>
        <time>2015-06-14T08:35:59Z</time>
      </trkpt>
      <trkpt lat="43.42668" lon="2.32144">
        <ele>773.04</ele>
        <time>2015-06-14T08:36:00Z</time>
      </trkpt>
      <trkpt lat="43.42663" lon="2.32134">
        <ele>772.08</ele>
        <time>2015-06-14T08:36:01Z</time>
      </trkpt>
      <trkpt lat="43.42644" lon="2.32094">
        <ele>770.15</ele>
        <time>2015-06-14T08:36:05Z</time>
      </trkpt>
      <trkpt lat="43.42609" lon="2.31976">
        <ele>764.87</ele>
        <time>2015-06-14T08:36:16Z</time>
      </trkpt>
      <trkpt lat="43.42604" lon="2.31967">
        <ele>764.87</ele>
        <time>2015-06-14T08:36:17Z</time>
      </trkpt>
      <trkpt lat="43.42527" lon="2.31878">
        <ele>763.42</ele>
        <time>2015-06-14T08:36:27Z</time>
      </trkpt>
      <trkpt lat="43.42439" lon="2.31766">
        <ele>762.94</ele>
        <time>2015-06-14T08:36:39Z</time>
      </trkpt>
      <trkpt lat="43.4239" lon="2.31674">
        <ele>761.02</ele>
        <time>2015-06-14T08:36:47Z</time>
      </trkpt>
      <trkpt lat="43.42381" lon="2.31632">
        <ele>759.1</ele>
        <time>2015-06-14T08:36:50Z</time>
      </trkpt>
      <trkpt lat="43.42377" lon="2.31494">
        <ele>754.77</ele>
        <time>2015-06-14T08:37:01Z</time>
      </trkpt>
      <trkpt lat="43.42387" lon="2.31358">
        <ele>755.73</ele>
        <time>2015-06-14T08:37:15Z</time>
      </trkpt>
      <trkpt lat="43.42381" lon="2.31308">
        <ele>757.66</ele>
        <time>2015-06-14T08:37:21Z</time>
      </trkpt>
      <trkpt lat="43.42338" lon="2.31211">
        <ele>761.5</ele>
        <time>2015-06-14T08:37:34Z</time>
      </trkpt>
      <trkpt lat="43.42288" lon="2.31118">
        <ele>762.94</ele>
        <time>2015-06-14T08:37:47Z</time>
      </trkpt>
      <trkpt lat="43.42285" lon="2.31112">
        <ele>762.46</ele>
        <time>2015-06-14T08:37:48Z</time>
      </trkpt>
      <trkpt lat="43.42281" lon="2.31105">
        <ele>762.46</ele>
        <time>2015-06-14T08:37:49Z</time>
      </trkpt>
      <trkpt lat="43.42278" lon="2.31098">
        <ele>761.98</ele>
        <time>2015-06-14T08:37:50Z</time>
      </trkpt>
      <trkpt lat="43.42236" lon="2.31025">
        <ele>760.06</ele>
        <time>2015-06-14T08:38:00Z</time>
      </trkpt>
      <trkpt lat="43.4221" lon="2.31">
        <ele>760.06</ele>
        <time>2015-06-14T08:38:04Z</time>
      </trkpt>
      <trkpt lat="43.42129" lon="2.30924">
        <ele>757.18</ele>
        <time>2015-06-14T08:38:16Z</time>
      </trkpt>
      <trkpt lat="43.42032" lon="2.30829">
        <ele>751.41</ele>
        <time>2015-06-14T08:38:30Z</time>
      </trkpt>
      <trkpt lat="43.42025" lon="2.30823">
        <ele>751.41</ele>
        <time>2015-06-14T08:38:31Z</time>
      </trkpt>
      <trkpt lat="43.42017" lon="2.30818">
        <ele>750.93</ele>
        <time>2015-06-14T08:38:32Z</time>
      </trkpt>
      <trkpt lat="43.41933" lon="2.30767">
        <ele>749</ele>
        <time>2015-06-14T08:38:41Z</time>
      </trkpt>
      <trkpt lat="43.41917" lon="2.30755">
        <ele>749</ele>
        <time>2015-06-14T08:38:43Z</time>
      </trkpt>
      <trkpt lat="43.41911" lon="2.30748">
        <ele>749.49</ele>
        <time>2015-06-14T08:38:44Z</time>
      </trkpt>
      <trkpt lat="43.41906" lon="2.30741">
        <ele>749.97</ele>
        <time>2015-06-14T08:38:45Z</time>
      </trkpt>
      <trkpt lat="43.41902" lon="2.30733">
        <ele>750.45</ele>
        <time>2015-06-14T08:38:46Z</time>
      </trkpt>
      <trkpt lat="43.41898" lon="2.30726">
        <ele>750.93</ele>
        <time>2015-06-14T08:38:47Z</time>
      </trkpt>
      <trkpt lat="43.41895" lon="2.30718">
        <ele>751.41</ele>
        <time>2015-06-14T08:38:48Z</time>
      </trkpt>
      <trkpt lat="43.41889" lon="2.30705">
        <ele>752.37</ele>
        <time>2015-06-14T08:38:50Z</time>
      </trkpt>
      <trkpt lat="43.41888" lon="2.30699">
        <ele>752.85</ele>
        <time>2015-06-14T08:38:51Z</time>
      </trkpt>
      <trkpt lat="43.41887" lon="2.30693">
        <ele>753.33</ele>
        <time>2015-06-14T08:38:52Z</time>
      </trkpt>
      <trkpt lat="43.41884" lon="2.30681">
        <ele>753.81</ele>
        <time>2015-06-14T08:38:54Z</time>
      </trkpt>
      <trkpt lat="43.41883" lon="2.30676">
        <ele>754.29</ele>
        <time>2015-06-14T08:38:55Z</time>
      </trkpt>
      <trkpt lat="43.41881" lon="2.3067">
        <ele>754.77</ele>
        <time>2015-06-14T08:38:56Z</time>
      </trkpt>
      <trkpt lat="43.41876" lon="2.30633">
        <ele>758.14</ele>
        <time>2015-06-14T08:39:03Z</time>
      </trkpt>
      <trkpt lat="43.41873" lon="2.30626">
        <ele>758.62</ele>
        <time>2015-06-14T08:39:04Z</time>
      </trkpt>
      <trkpt lat="43.41855" lon="2.30582">
        <ele>761.02</ele>
        <time>2015-06-14T08:39:10Z</time>
      </trkpt>
      <trkpt lat="43.4183" lon="2.3052">
        <ele>761.5</ele>
        <time>2015-06-14T08:39:20Z</time>
      </trkpt>
      <trkpt lat="43.41826" lon="2.30514">
        <ele>761.5</ele>
        <time>2015-06-14T08:39:21Z</time>
      </trkpt>
      <trkpt lat="43.41824" lon="2.30508">
        <ele>761.98</ele>
        <time>2015-06-14T08:39:22Z</time>
      </trkpt>
      <trkpt lat="43.41821" lon="2.30501">
        <ele>761.98</ele>
        <time>2015-06-14T08:39:23Z</time>
      </trkpt>
      <trkpt lat="43.41818" lon="2.30495">
        <ele>762.46</ele>
        <time>2015-06-14T08:39:24Z</time>
      </trkpt>
      <trkpt lat="43.41815" lon="2.30487">
        <ele>762.46</ele>
        <time>2015-06-14T08:39:25Z</time>
      </trkpt>
      <trkpt lat="43.41801" lon="2.30456">
        <ele>763.9</ele>
        <time>2015-06-14T08:39:30Z</time>
      </trkpt>
      <trkpt lat="43.41798" lon="2.3045">
        <ele>763.9</ele>
        <time>2015-06-14T08:39:31Z</time>
      </trkpt>
      <trkpt lat="43.41796" lon="2.30444">
        <ele>764.39</ele>
        <time>2015-06-14T08:39:32Z</time>
      </trkpt>
      <trkpt lat="43.41779" lon="2.304">
        <ele>766.79</ele>
        <time>2015-06-14T08:39:39Z</time>
      </trkpt>
      <trkpt lat="43.41755" lon="2.30327">
        <ele>767.75</ele>
        <time>2015-06-14T08:39:52Z</time>
      </trkpt>
      <trkpt lat="43.41753" lon="2.30322">
        <ele>767.75</ele>
        <time>2015-06-14T08:39:53Z</time>
      </trkpt>
      <trkpt lat="43.41751" lon="2.30316">
        <ele>767.75</ele>
        <time>2015-06-14T08:39:54Z</time>
      </trkpt>
      <trkpt lat="43.41749" lon="2.30311">
        <ele>767.75</ele>
        <time>2015-06-14T08:39:55Z</time>
      </trkpt>
      <trkpt lat="43.41746" lon="2.30306">
        <ele>767.75</ele>
        <time>2015-06-14T08:39:56Z</time>
      </trkpt>
      <trkpt lat="43.41744" lon="2.303">
        <ele>768.23</ele>
        <time>2015-06-14T08:39:57Z</time>
      </trkpt>
      <trkpt lat="43.41743" lon="2.30295">
        <ele>768.23</ele>
        <time>2015-06-14T08:39:58Z</time>
      </trkpt>
      <trkpt lat="43.41741" lon="2.3029">
        <ele>768.23</ele>
        <time>2015-06-14T08:39:59Z</time>
      </trkpt>
      <trkpt lat="43.4172" lon="2.30244">
        <ele>769.67</ele>
        <time>2015-06-14T08:40:07Z</time>
      </trkpt>
      <trkpt lat="43.41718" lon="2.30238">
        <ele>770.15</ele>
        <time>2015-06-14T08:40:08Z</time>
      </trkpt>
      <trkpt lat="43.41697" lon="2.30187">
        <ele>773.04</ele>
        <time>2015-06-14T08:40:17Z</time>
      </trkpt>
      <trkpt lat="43.41694" lon="2.30182">
        <ele>773.04</ele>
        <time>2015-06-14T08:40:18Z</time>
      </trkpt>
      <trkpt lat="43.41691" lon="2.30176">
        <ele>773.04</ele>
        <time>2015-06-14T08:40:19Z</time>
      </trkpt>
      <trkpt lat="43.41676" lon="2.3015">
        <ele>774</ele>
        <time>2015-06-14T08:40:25Z</time>
      </trkpt>
      <trkpt lat="43.41636" lon="2.30088">
        <ele>775.92</ele>
        <time>2015-06-14T08:40:39Z</time>
      </trkpt>
      <trkpt lat="43.41605" lon="2.30053">
        <ele>779.77</ele>
        <time>2015-06-14T08:40:47Z</time>
      </trkpt>
      <trkpt lat="43.41576" lon="2.30025">
        <ele>781.69</ele>
        <time>2015-06-14T08:40:54Z</time>
      </trkpt>
      <trkpt lat="43.41571" lon="2.30022">
        <ele>782.17</ele>
        <time>2015-06-14T08:40:55Z</time>
      </trkpt>
      <trkpt lat="43.41509" lon="2.30012">
        <ele>788.42</ele>
        <time>2015-06-14T08:41:09Z</time>
      </trkpt>
      <trkpt lat="43.41441" lon="2.29992">
        <ele>785.05</ele>
        <time>2015-06-14T08:41:22Z</time>
      </trkpt>
      <trkpt lat="43.41436" lon="2.29988">
        <ele>784.57</ele>
        <time>2015-06-14T08:41:23Z</time>
      </trkpt>
      <trkpt lat="43.41395" lon="2.29938">
        <ele>782.65</ele>
        <time>2015-06-14T08:41:33Z</time>
      </trkpt>
      <trkpt lat="43.41393" lon="2.29931">
        <ele>782.65</ele>
        <time>2015-06-14T08:41:34Z</time>
      </trkpt>
      <trkpt lat="43.41393" lon="2.29923">
        <ele>782.65</ele>
        <time>2015-06-14T08:41:35Z</time>
      </trkpt>
      <trkpt lat="43.41393" lon="2.29915">
        <ele>782.65</ele>
        <time>2015-06-14T08:41:36Z</time>
      </trkpt>
      <trkpt lat="43.41394" lon="2.2991">
        <ele>782.17</ele>
        <time>2015-06-14T08:41:37Z</time>
      </trkpt>
      <trkpt lat="43.41396" lon="2.29902">
        <ele>782.17</ele>
        <time>2015-06-14T08:41:38Z</time>
      </trkpt>
      <trkpt lat="43.41414" lon="2.29804">
        <ele>779.29</ele>
        <time>2015-06-14T08:41:49Z</time>
      </trkpt>
      <trkpt lat="43.41421" lon="2.29769">
        <ele>777.84</ele>
        <time>2015-06-14T08:41:53Z</time>
      </trkpt>
      <trkpt lat="43.41422" lon="2.29759">
        <ele>777.36</ele>
        <time>2015-06-14T08:41:54Z</time>
      </trkpt>
      <trkpt lat="43.41412" lon="2.29669">
        <ele>775.92</ele>
        <time>2015-06-14T08:42:04Z</time>
      </trkpt>
      <trkpt lat="43.41409" lon="2.29661">
        <ele>775.92</ele>
        <time>2015-06-14T08:42:05Z</time>
      </trkpt>
      <trkpt lat="43.41386" lon="2.29579">
        <ele>775.92</ele>
        <time>2015-06-14T08:42:15Z</time>
      </trkpt>
      <trkpt lat="43.41383" lon="2.29572">
        <ele>776.4</ele>
        <time>2015-06-14T08:42:16Z</time>
      </trkpt>
      <trkpt lat="43.41379" lon="2.29565">
        <ele>776.88</ele>
        <time>2015-06-14T08:42:17Z</time>
      </trkpt>
      <trkpt lat="43.41374" lon="2.2956">
        <ele>776.88</ele>
        <time>2015-06-14T08:42:18Z</time>
      </trkpt>
      <trkpt lat="43.41368" lon="2.29557">
        <ele>776.88</ele>
        <time>2015-06-14T08:42:19Z</time>
      </trkpt>
      <trkpt lat="43.41363" lon="2.29555">
        <ele>777.36</ele>
        <time>2015-06-14T08:42:20Z</time>
      </trkpt>
      <trkpt lat="43.41358" lon="2.29553">
        <ele>777.36</ele>
        <time>2015-06-14T08:42:21Z</time>
      </trkpt>
      <trkpt lat="43.41339" lon="2.29547">
        <ele>777.84</ele>
        <time>2015-06-14T08:42:24Z</time>
      </trkpt>
      <trkpt lat="43.41333" lon="2.29544">
        <ele>777.84</ele>
        <time>2015-06-14T08:42:25Z</time>
      </trkpt>
      <trkpt lat="43.41328" lon="2.2954">
        <ele>777.84</ele>
        <time>2015-06-14T08:42:26Z</time>
      </trkpt>
      <trkpt lat="43.41316" lon="2.29529">
        <ele>776.88</ele>
        <time>2015-06-14T08:42:28Z</time>
      </trkpt>
      <trkpt lat="43.41311" lon="2.29523">
        <ele>776.4</ele>
        <time>2015-06-14T08:42:29Z</time>
      </trkpt>
      <trkpt lat="43.41286" lon="2.29475">
        <ele>776.88</ele>
        <time>2015-06-14T08:42:36Z</time>
      </trkpt>
      <trkpt lat="43.41283" lon="2.2946">
        <ele>777.36</ele>
        <time>2015-06-14T08:42:38Z</time>
      </trkpt>
      <trkpt lat="43.41282" lon="2.29453">
        <ele>777.84</ele>
        <time>2015-06-14T08:42:39Z</time>
      </trkpt>
      <trkpt lat="43.41279" lon="2.29424">
        <ele>780.25</ele>
        <time>2015-06-14T08:42:43Z</time>
      </trkpt>
      <trkpt lat="43.41278" lon="2.29416">
        <ele>780.73</ele>
        <time>2015-06-14T08:42:44Z</time>
      </trkpt>
      <trkpt lat="43.41278" lon="2.29402">
        <ele>781.21</ele>
        <time>2015-06-14T08:42:46Z</time>
      </trkpt>
      <trkpt lat="43.41278" lon="2.29387">
        <ele>782.17</ele>
        <time>2015-06-14T08:42:48Z</time>
      </trkpt>
      <trkpt lat="43.41276" lon="2.29379">
        <ele>781.69</ele>
        <time>2015-06-14T08:42:49Z</time>
      </trkpt>
      <trkpt lat="43.41269" lon="2.29238">
        <ele>779.29</ele>
        <time>2015-06-14T08:43:06Z</time>
      </trkpt>
      <trkpt lat="43.41274" lon="2.29184">
        <ele>777.36</ele>
        <time>2015-06-14T08:43:12Z</time>
      </trkpt>
      <trkpt lat="43.41292" lon="2.29068">
        <ele>773.04</ele>
        <time>2015-06-14T08:43:24Z</time>
      </trkpt>
      <trkpt lat="43.41295" lon="2.29059">
        <ele>773.04</ele>
        <time>2015-06-14T08:43:25Z</time>
      </trkpt>
      <trkpt lat="43.41309" lon="2.29029">
        <ele>773.52</ele>
        <time>2015-06-14T08:43:29Z</time>
      </trkpt>
      <trkpt lat="43.41316" lon="2.29017">
        <ele>774</ele>
        <time>2015-06-14T08:43:31Z</time>
      </trkpt>
      <trkpt lat="43.41347" lon="2.2897">
        <ele>776.88</ele>
        <time>2015-06-14T08:43:40Z</time>
      </trkpt>
      <trkpt lat="43.41354" lon="2.2896">
        <ele>777.36</ele>
        <time>2015-06-14T08:43:42Z</time>
      </trkpt>
      <trkpt lat="43.41357" lon="2.28955">
        <ele>777.36</ele>
        <time>2015-06-14T08:43:43Z</time>
      </trkpt>
      <trkpt lat="43.41372" lon="2.28931">
        <ele>778.81</ele>
        <time>2015-06-14T08:43:48Z</time>
      </trkpt>
      <trkpt lat="43.41387" lon="2.28909">
        <ele>780.25</ele>
        <time>2015-06-14T08:43:53Z</time>
      </trkpt>
      <trkpt lat="43.41389" lon="2.28905">
        <ele>780.73</ele>
        <time>2015-06-14T08:43:54Z</time>
      </trkpt>
      <trkpt lat="43.41391" lon="2.289">
        <ele>781.21</ele>
        <time>2015-06-14T08:43:55Z</time>
      </trkpt>
      <trkpt lat="43.41394" lon="2.28896">
        <ele>781.21</ele>
        <time>2015-06-14T08:43:56Z</time>
      </trkpt>
      <trkpt lat="43.41397" lon="2.28892">
        <ele>781.69</ele>
        <time>2015-06-14T08:43:57Z</time>
      </trkpt>
      <trkpt lat="43.414" lon="2.28887">
        <ele>781.69</ele>
        <time>2015-06-14T08:43:58Z</time>
      </trkpt>
      <trkpt lat="43.41403" lon="2.28883">
        <ele>782.17</ele>
        <time>2015-06-14T08:43:59Z</time>
      </trkpt>
      <trkpt lat="43.41406" lon="2.28878">
        <ele>782.65</ele>
        <time>2015-06-14T08:44:00Z</time>
      </trkpt>
      <trkpt lat="43.41409" lon="2.28874">
        <ele>782.65</ele>
        <time>2015-06-14T08:44:01Z</time>
      </trkpt>
      <trkpt lat="43.41415" lon="2.28865">
        <ele>783.13</ele>
        <time>2015-06-14T08:44:03Z</time>
      </trkpt>
      <trkpt lat="43.41429" lon="2.28842">
        <ele>784.57</ele>
        <time>2015-06-14T08:44:08Z</time>
      </trkpt>
      <trkpt lat="43.41435" lon="2.28833">
        <ele>785.05</ele>
        <time>2015-06-14T08:44:10Z</time>
      </trkpt>
      <trkpt lat="43.41441" lon="2.28824">
        <ele>786.02</ele>
        <time>2015-06-14T08:44:12Z</time>
      </trkpt>
      <trkpt lat="43.41444" lon="2.2882">
        <ele>786.02</ele>
        <time>2015-06-14T08:44:13Z</time>
      </trkpt>
      <trkpt lat="43.41454" lon="2.28807">
        <ele>787.46</ele>
        <time>2015-06-14T08:44:16Z</time>
      </trkpt>
      <trkpt lat="43.41458" lon="2.28804">
        <ele>787.94</ele>
        <time>2015-06-14T08:44:17Z</time>
      </trkpt>
      <trkpt lat="43.41469" lon="2.28793">
        <ele>788.9</ele>
        <time>2015-06-14T08:44:20Z</time>
      </trkpt>
      <trkpt lat="43.41473" lon="2.2879">
        <ele>789.38</ele>
        <time>2015-06-14T08:44:21Z</time>
      </trkpt>
      <trkpt lat="43.41477" lon="2.28788">
        <ele>789.86</ele>
        <time>2015-06-14T08:44:22Z</time>
      </trkpt>
      <trkpt lat="43.41544" lon="2.28755">
        <ele>793.71</ele>
        <time>2015-06-14T08:44:38Z</time>
      </trkpt>
      <trkpt lat="43.41564" lon="2.28738">
        <ele>795.15</ele>
        <time>2015-06-14T08:44:43Z</time>
      </trkpt>
      <trkpt lat="43.41616" lon="2.28687">
        <ele>795.15</ele>
        <time>2015-06-14T08:44:57Z</time>
      </trkpt>
      <trkpt lat="43.41629" lon="2.28667">
        <ele>795.63</ele>
        <time>2015-06-14T08:45:01Z</time>
      </trkpt>
      <trkpt lat="43.41632" lon="2.28662">
        <ele>795.63</ele>
        <time>2015-06-14T08:45:02Z</time>
      </trkpt>
      <trkpt lat="43.41635" lon="2.28656">
        <ele>796.11</ele>
        <time>2015-06-14T08:45:03Z</time>
      </trkpt>
      <trkpt lat="43.41638" lon="2.28651">
        <ele>796.11</ele>
        <time>2015-06-14T08:45:04Z</time>
      </trkpt>
      <trkpt lat="43.41641" lon="2.28645">
        <ele>796.59</ele>
        <time>2015-06-14T08:45:05Z</time>
      </trkpt>
      <trkpt lat="43.41649" lon="2.28629">
        <ele>797.07</ele>
        <time>2015-06-14T08:45:08Z</time>
      </trkpt>
      <trkpt lat="43.41659" lon="2.286">
        <ele>797.07</ele>
        <time>2015-06-14T08:45:13Z</time>
      </trkpt>
      <trkpt lat="43.41674" lon="2.2853">
        <ele>796.11</ele>
        <time>2015-06-14T08:45:28Z</time>
      </trkpt>
      <trkpt lat="43.41677" lon="2.28514">
        <ele>795.63</ele>
        <time>2015-06-14T08:45:31Z</time>
      </trkpt>
      <trkpt lat="43.41677" lon="2.28508">
        <ele>795.15</ele>
        <time>2015-06-14T08:45:32Z</time>
      </trkpt>
      <trkpt lat="43.41678" lon="2.28502">
        <ele>795.15</ele>
        <time>2015-06-14T08:45:33Z</time>
      </trkpt>
      <trkpt lat="43.41694" lon="2.28418">
        <ele>792.26</ele>
        <time>2015-06-14T08:45:46Z</time>
      </trkpt>
      <trkpt lat="43.41696" lon="2.28411">
        <ele>791.78</ele>
        <time>2015-06-14T08:45:47Z</time>
      </trkpt>
      <trkpt lat="43.41699" lon="2.28405">
        <ele>791.78</ele>
        <time>2015-06-14T08:45:48Z</time>
      </trkpt>
      <trkpt lat="43.41703" lon="2.28399">
        <ele>791.3</ele>
        <time>2015-06-14T08:45:49Z</time>
      </trkpt>
      <trkpt lat="43.41706" lon="2.28394">
        <ele>790.82</ele>
        <time>2015-06-14T08:45:50Z</time>
      </trkpt>
      <trkpt lat="43.41711" lon="2.28389">
        <ele>790.82</ele>
        <time>2015-06-14T08:45:51Z</time>
      </trkpt>
      <trkpt lat="43.41716" lon="2.28384">
        <ele>790.34</ele>
        <time>2015-06-14T08:45:52Z</time>
      </trkpt>
      <trkpt lat="43.41721" lon="2.2838">
        <ele>790.34</ele>
        <time>2015-06-14T08:45:53Z</time>
      </trkpt>
      <trkpt lat="43.41773" lon="2.2834">
        <ele>787.94</ele>
        <time>2015-06-14T08:46:02Z</time>
      </trkpt>
      <trkpt lat="43.4178" lon="2.28338">
        <ele>787.94</ele>
        <time>2015-06-14T08:46:03Z</time>
      </trkpt>
      <trkpt lat="43.41788" lon="2.28338">
        <ele>787.46</ele>
        <time>2015-06-14T08:46:04Z</time>
      </trkpt>
      <trkpt lat="43.41796" lon="2.28339">
        <ele>786.98</ele>
        <time>2015-06-14T08:46:05Z</time>
      </trkpt>
      <trkpt lat="43.41803" lon="2.2834">
        <ele>786.98</ele>
        <time>2015-06-14T08:46:06Z</time>
      </trkpt>
      <trkpt lat="43.41878" lon="2.28353">
        <ele>783.61</ele>
        <time>2015-06-14T08:46:16Z</time>
      </trkpt>
      <trkpt lat="43.41922" lon="2.28365">
        <ele>781.69</ele>
        <time>2015-06-14T08:46:21Z</time>
      </trkpt>
      <trkpt lat="43.41978" lon="2.28374">
        <ele>777.36</ele>
        <time>2015-06-14T08:46:28Z</time>
      </trkpt>
      <trkpt lat="43.41986" lon="2.28373">
        <ele>776.88</ele>
        <time>2015-06-14T08:46:29Z</time>
      </trkpt>
      <trkpt lat="43.41996" lon="2.2837">
        <ele>776.4</ele>
        <time>2015-06-14T08:46:30Z</time>
      </trkpt>
      <trkpt lat="43.42004" lon="2.28364">
        <ele>775.44</ele>
        <time>2015-06-14T08:46:31Z</time>
      </trkpt>
      <trkpt lat="43.42013" lon="2.28357">
        <ele>774.96</ele>
        <time>2015-06-14T08:46:32Z</time>
      </trkpt>
      <trkpt lat="43.42028" lon="2.28341">
        <ele>774</ele>
        <time>2015-06-14T08:46:34Z</time>
      </trkpt>
      <trkpt lat="43.42034" lon="2.28332">
        <ele>773.52</ele>
        <time>2015-06-14T08:46:35Z</time>
      </trkpt>
      <trkpt lat="43.42042" lon="2.28313">
        <ele>772.56</ele>
        <time>2015-06-14T08:46:37Z</time>
      </trkpt>
      <trkpt lat="43.42085" lon="2.2821">
        <ele>769.67</ele>
        <time>2015-06-14T08:46:50Z</time>
      </trkpt>
      <trkpt lat="43.4211" lon="2.28163">
        <ele>772.08</ele>
        <time>2015-06-14T08:46:56Z</time>
      </trkpt>
      <trkpt lat="43.42113" lon="2.28153">
        <ele>773.04</ele>
        <time>2015-06-14T08:46:57Z</time>
      </trkpt>
      <trkpt lat="43.42115" lon="2.28144">
        <ele>773.52</ele>
        <time>2015-06-14T08:46:58Z</time>
      </trkpt>
      <trkpt lat="43.42125" lon="2.28107">
        <ele>774.96</ele>
        <time>2015-06-14T08:47:02Z</time>
      </trkpt>
      <trkpt lat="43.42129" lon="2.28099">
        <ele>775.44</ele>
        <time>2015-06-14T08:47:03Z</time>
      </trkpt>
      <trkpt lat="43.42133" lon="2.28092">
        <ele>775.44</ele>
        <time>2015-06-14T08:47:04Z</time>
      </trkpt>
      <trkpt lat="43.42138" lon="2.28086">
        <ele>775.92</ele>
        <time>2015-06-14T08:47:05Z</time>
      </trkpt>
      <trkpt lat="43.42144" lon="2.2808">
        <ele>775.92</ele>
        <time>2015-06-14T08:47:06Z</time>
      </trkpt>
      <trkpt lat="43.4215" lon="2.28076">
        <ele>776.4</ele>
        <time>2015-06-14T08:47:07Z</time>
      </trkpt>
      <trkpt lat="43.42194" lon="2.28038">
        <ele>777.84</ele>
        <time>2015-06-14T08:47:15Z</time>
      </trkpt>
      <trkpt lat="43.422" lon="2.28035">
        <ele>778.32</ele>
        <time>2015-06-14T08:47:16Z</time>
      </trkpt>
      <trkpt lat="43.42206" lon="2.28033">
        <ele>778.32</ele>
        <time>2015-06-14T08:47:17Z</time>
      </trkpt>
      <trkpt lat="43.42212" lon="2.28032">
        <ele>778.32</ele>
        <time>2015-06-14T08:47:18Z</time>
      </trkpt>
      <trkpt lat="43.42218" lon="2.28033">
        <ele>778.32</ele>
        <time>2015-06-14T08:47:19Z</time>
      </trkpt>
      <trkpt lat="43.42224" lon="2.28036">
        <ele>778.81</ele>
        <time>2015-06-14T08:47:20Z</time>
      </trkpt>
      <trkpt lat="43.4223" lon="2.28039">
        <ele>779.29</ele>
        <time>2015-06-14T08:47:21Z</time>
      </trkpt>
      <trkpt lat="43.42235" lon="2.28042">
        <ele>779.29</ele>
        <time>2015-06-14T08:47:22Z</time>
      </trkpt>
      <trkpt lat="43.4224" lon="2.28046">
        <ele>779.77</ele>
        <time>2015-06-14T08:47:23Z</time>
      </trkpt>
      <trkpt lat="43.42244" lon="2.28051">
        <ele>779.77</ele>
        <time>2015-06-14T08:47:24Z</time>
      </trkpt>
      <trkpt lat="43.42257" lon="2.28066">
        <ele>779.77</ele>
        <time>2015-06-14T08:47:27Z</time>
      </trkpt>
      <trkpt lat="43.42286" lon="2.28107">
        <ele>778.32</ele>
        <time>2015-06-14T08:47:34Z</time>
      </trkpt>
      <trkpt lat="43.42335" lon="2.2818">
        <ele>777.84</ele>
        <time>2015-06-14T08:47:46Z</time>
      </trkpt>
      <trkpt lat="43.42395" lon="2.28237">
        <ele>776.88</ele>
        <time>2015-06-14T08:47:57Z</time>
      </trkpt>
      <trkpt lat="43.42402" lon="2.2824">
        <ele>776.88</ele>
        <time>2015-06-14T08:47:58Z</time>
      </trkpt>
      <trkpt lat="43.42409" lon="2.28241">
        <ele>776.88</ele>
        <time>2015-06-14T08:47:59Z</time>
      </trkpt>
      <trkpt lat="43.42416" lon="2.28242">
        <ele>777.36</ele>
        <time>2015-06-14T08:48:00Z</time>
      </trkpt>
      <trkpt lat="43.42423" lon="2.28242">
        <ele>777.36</ele>
        <time>2015-06-14T08:48:01Z</time>
      </trkpt>
      <trkpt lat="43.42429" lon="2.28241">
        <ele>777.36</ele>
        <time>2015-06-14T08:48:02Z</time>
      </trkpt>
      <trkpt lat="43.42436" lon="2.2824">
        <ele>777.84</ele>
        <time>2015-06-14T08:48:03Z</time>
      </trkpt>
      <trkpt lat="43.42449" lon="2.28235">
        <ele>777.84</ele>
        <time>2015-06-14T08:48:05Z</time>
      </trkpt>
      <trkpt lat="43.42455" lon="2.28232">
        <ele>777.84</ele>
        <time>2015-06-14T08:48:06Z</time>
      </trkpt>
      <trkpt lat="43.42461" lon="2.28227">
        <ele>778.32</ele>
        <time>2015-06-14T08:48:07Z</time>
      </trkpt>
      <trkpt lat="43.42466" lon="2.28222">
        <ele>778.32</ele>
        <time>2015-06-14T08:48:08Z</time>
      </trkpt>
      <trkpt lat="43.42472" lon="2.28217">
        <ele>778.81</ele>
        <time>2015-06-14T08:48:09Z</time>
      </trkpt>
      <trkpt lat="43.42477" lon="2.28211">
        <ele>778.81</ele>
        <time>2015-06-14T08:48:10Z</time>
      </trkpt>
      <trkpt lat="43.42486" lon="2.28198">
        <ele>778.81</ele>
        <time>2015-06-14T08:48:12Z</time>
      </trkpt>
      <trkpt lat="43.4249" lon="2.28192">
        <ele>778.81</ele>
        <time>2015-06-14T08:48:13Z</time>
      </trkpt>
      <trkpt lat="43.42493" lon="2.28184">
        <ele>778.81</ele>
        <time>2015-06-14T08:48:14Z</time>
      </trkpt>
      <trkpt lat="43.42497" lon="2.28177">
        <ele>778.81</ele>
        <time>2015-06-14T08:48:15Z</time>
      </trkpt>
      <trkpt lat="43.42499" lon="2.28169">
        <ele>778.81</ele>
        <time>2015-06-14T08:48:16Z</time>
      </trkpt>
      <trkpt lat="43.42537" lon="2.28043">
        <ele>778.81</ele>
        <time>2015-06-14T08:48:31Z</time>
      </trkpt>
      <trkpt lat="43.42555" lon="2.27944">
        <ele>778.32</ele>
        <time>2015-06-14T08:48:42Z</time>
      </trkpt>
      <trkpt lat="43.42582" lon="2.27789">
        <ele>778.32</ele>
        <time>2015-06-14T08:48:59Z</time>
      </trkpt>
      <trkpt lat="43.42585" lon="2.27763">
        <ele>778.81</ele>
        <time>2015-06-14T08:49:02Z</time>
      </trkpt>
      <trkpt lat="43.42581" lon="2.2767">
        <ele>779.77</ele>
        <time>2015-06-14T08:49:14Z</time>
      </trkpt>
      <trkpt lat="43.42581" lon="2.27663">
        <ele>779.77</ele>
        <time>2015-06-14T08:49:15Z</time>
      </trkpt>
      <trkpt lat="43.42574" lon="2.2758">
        <ele>783.13</ele>
        <time>2015-06-14T08:49:27Z</time>
      </trkpt>
      <trkpt lat="43.42562" lon="2.27498">
        <ele>786.5</ele>
        <time>2015-06-14T08:49:40Z</time>
      </trkpt>
      <trkpt lat="43.42532" lon="2.27401">
        <ele>790.34</ele>
        <time>2015-06-14T08:49:57Z</time>
      </trkpt>
      <trkpt lat="43.42529" lon="2.27396">
        <ele>790.34</ele>
        <time>2015-06-14T08:49:58Z</time>
      </trkpt>
      <trkpt lat="43.4247" lon="2.27341">
        <ele>791.78</ele>
        <time>2015-06-14T08:50:13Z</time>
      </trkpt>
      <trkpt lat="43.42414" lon="2.27315">
        <ele>793.22</ele>
        <time>2015-06-14T08:50:26Z</time>
      </trkpt>
      <trkpt lat="43.4241" lon="2.27312">
        <ele>793.22</ele>
        <time>2015-06-14T08:50:27Z</time>
      </trkpt>
      <trkpt lat="43.42406" lon="2.27308">
        <ele>793.71</ele>
        <time>2015-06-14T08:50:28Z</time>
      </trkpt>
      <trkpt lat="43.42403" lon="2.27303">
        <ele>793.71</ele>
        <time>2015-06-14T08:50:29Z</time>
      </trkpt>
      <trkpt lat="43.42401" lon="2.27297">
        <ele>794.19</ele>
        <time>2015-06-14T08:50:30Z</time>
      </trkpt>
      <trkpt lat="43.42399" lon="2.27292">
        <ele>794.19</ele>
        <time>2015-06-14T08:50:31Z</time>
      </trkpt>
      <trkpt lat="43.42397" lon="2.27286">
        <ele>794.19</ele>
        <time>2015-06-14T08:50:32Z</time>
      </trkpt>
      <trkpt lat="43.42397" lon="2.2728">
        <ele>794.67</ele>
        <time>2015-06-14T08:50:33Z</time>
      </trkpt>
      <trkpt lat="43.42396" lon="2.27274">
        <ele>794.67</ele>
        <time>2015-06-14T08:50:34Z</time>
      </trkpt>
      <trkpt lat="43.42396" lon="2.27268">
        <ele>794.67</ele>
        <time>2015-06-14T08:50:35Z</time>
      </trkpt>
      <trkpt lat="43.42397" lon="2.27262">
        <ele>794.67</ele>
        <time>2015-06-14T08:50:36Z</time>
      </trkpt>
      <trkpt lat="43.42399" lon="2.2725">
        <ele>795.15</ele>
        <time>2015-06-14T08:50:38Z</time>
      </trkpt>
      <trkpt lat="43.42403" lon="2.27234">
        <ele>795.63</ele>
        <time>2015-06-14T08:50:41Z</time>
      </trkpt>
      <trkpt lat="43.42438" lon="2.2715">
        <ele>800.92</ele>
        <time>2015-06-14T08:50:57Z</time>
      </trkpt>
      <trkpt lat="43.42481" lon="2.27095">
        <ele>807.64</ele>
        <time>2015-06-14T08:51:11Z</time>
      </trkpt>
      <trkpt lat="43.42523" lon="2.27067">
        <ele>810.53</ele>
        <time>2015-06-14T08:51:21Z</time>
      </trkpt>
      <trkpt lat="43.42526" lon="2.27065">
        <ele>810.05</ele>
        <time>2015-06-14T08:51:22Z</time>
      </trkpt>
      <trkpt lat="43.42534" lon="2.2706">
        <ele>810.05</ele>
        <time>2015-06-14T08:51:24Z</time>
      </trkpt>
      <trkpt lat="43.42553" lon="2.27046">
        <ele>810.53</ele>
        <time>2015-06-14T08:51:29Z</time>
      </trkpt>
      <trkpt lat="43.426" lon="2.27">
        <ele>811.01</ele>
        <time>2015-06-14T08:51:42Z</time>
      </trkpt>
      <trkpt lat="43.42615" lon="2.26986">
        <ele>811.49</ele>
        <time>2015-06-14T08:51:46Z</time>
      </trkpt>
      <trkpt lat="43.42619" lon="2.26984">
        <ele>811.97</ele>
        <time>2015-06-14T08:51:47Z</time>
      </trkpt>
      <trkpt lat="43.42635" lon="2.26979">
        <ele>812.45</ele>
        <time>2015-06-14T08:51:50Z</time>
      </trkpt>
      <trkpt lat="43.4264" lon="2.2698">
        <ele>812.45</ele>
        <time>2015-06-14T08:51:51Z</time>
      </trkpt>
      <trkpt lat="43.42645" lon="2.2698">
        <ele>811.97</ele>
        <time>2015-06-14T08:51:52Z</time>
      </trkpt>
      <trkpt lat="43.4265" lon="2.2698">
        <ele>811.97</ele>
        <time>2015-06-14T08:51:53Z</time>
      </trkpt>
      <trkpt lat="43.42655" lon="2.26981">
        <ele>811.97</ele>
        <time>2015-06-14T08:51:54Z</time>
      </trkpt>
      <trkpt lat="43.42664" lon="2.26981">
        <ele>812.45</ele>
        <time>2015-06-14T08:51:56Z</time>
      </trkpt>
      <trkpt lat="43.42668" lon="2.2698">
        <ele>812.45</ele>
        <time>2015-06-14T08:51:57Z</time>
      </trkpt>
      <trkpt lat="43.42672" lon="2.26977">
        <ele>812.45</ele>
        <time>2015-06-14T08:51:58Z</time>
      </trkpt>
      <trkpt lat="43.42676" lon="2.26974">
        <ele>812.93</ele>
        <time>2015-06-14T08:51:59Z</time>
      </trkpt>
      <trkpt lat="43.4268" lon="2.26971">
        <ele>812.93</ele>
        <time>2015-06-14T08:52:00Z</time>
      </trkpt>
      <trkpt lat="43.42683" lon="2.26968">
        <ele>813.41</ele>
        <time>2015-06-14T08:52:01Z</time>
      </trkpt>
      <trkpt lat="43.42686" lon="2.26963">
        <ele>813.89</ele>
        <time>2015-06-14T08:52:02Z</time>
      </trkpt>
      <trkpt lat="43.42688" lon="2.26959">
        <ele>813.89</ele>
        <time>2015-06-14T08:52:03Z</time>
      </trkpt>
      <trkpt lat="43.4269" lon="2.26954">
        <ele>814.37</ele>
        <time>2015-06-14T08:52:04Z</time>
      </trkpt>
      <trkpt lat="43.42694" lon="2.26942">
        <ele>814.37</ele>
        <time>2015-06-14T08:52:06Z</time>
      </trkpt>
      <trkpt lat="43.42718" lon="2.26845">
        <ele>818.22</ele>
        <time>2015-06-14T08:52:22Z</time>
      </trkpt>
      <trkpt lat="43.4272" lon="2.26839">
        <ele>818.7</ele>
        <time>2015-06-14T08:52:23Z</time>
      </trkpt>
      <trkpt lat="43.42728" lon="2.26817">
        <ele>818.7</ele>
        <time>2015-06-14T08:52:27Z</time>
      </trkpt>
      <trkpt lat="43.42766" lon="2.26744">
        <ele>819.66</ele>
        <time>2015-06-14T08:52:41Z</time>
      </trkpt>
      <trkpt lat="43.42796" lon="2.26693">
        <ele>823.99</ele>
        <time>2015-06-14T08:52:51Z</time>
      </trkpt>
      <trkpt lat="43.42807" lon="2.26665">
        <ele>825.91</ele>
        <time>2015-06-14T08:52:56Z</time>
      </trkpt>
      <trkpt lat="43.4281" lon="2.2666">
        <ele>825.91</ele>
        <time>2015-06-14T08:52:57Z</time>
      </trkpt>
      <trkpt lat="43.42814" lon="2.26655">
        <ele>826.39</ele>
        <time>2015-06-14T08:52:58Z</time>
      </trkpt>
      <trkpt lat="43.42817" lon="2.26652">
        <ele>826.39</ele>
        <time>2015-06-14T08:52:59Z</time>
      </trkpt>
      <trkpt lat="43.42821" lon="2.26649">
        <ele>826.39</ele>
        <time>2015-06-14T08:53:00Z</time>
      </trkpt>
      <trkpt lat="43.42825" lon="2.26646">
        <ele>826.39</ele>
        <time>2015-06-14T08:53:01Z</time>
      </trkpt>
      <trkpt lat="43.4283" lon="2.26645">
        <ele>826.87</ele>
        <time>2015-06-14T08:53:02Z</time>
      </trkpt>
      <trkpt lat="43.42834" lon="2.26643">
        <ele>826.87</ele>
        <time>2015-06-14T08:53:03Z</time>
      </trkpt>
      <trkpt lat="43.42852" lon="2.26637">
        <ele>827.83</ele>
        <time>2015-06-14T08:53:07Z</time>
      </trkpt>
      <trkpt lat="43.42861" lon="2.26631">
        <ele>828.79</ele>
        <time>2015-06-14T08:53:09Z</time>
      </trkpt>
      <trkpt lat="43.42864" lon="2.26627">
        <ele>828.79</ele>
        <time>2015-06-14T08:53:10Z</time>
      </trkpt>
      <trkpt lat="43.42868" lon="2.26623">
        <ele>829.27</ele>
        <time>2015-06-14T08:53:11Z</time>
      </trkpt>
      <trkpt lat="43.42872" lon="2.26619">
        <ele>829.76</ele>
        <time>2015-06-14T08:53:12Z</time>
      </trkpt>
      <trkpt lat="43.42875" lon="2.26615">
        <ele>830.24</ele>
        <time>2015-06-14T08:53:13Z</time>
      </trkpt>
      <trkpt lat="43.42879" lon="2.2661">
        <ele>830.72</ele>
        <time>2015-06-14T08:53:14Z</time>
      </trkpt>
      <trkpt lat="43.42899" lon="2.26575">
        <ele>833.6</ele>
        <time>2015-06-14T08:53:21Z</time>
      </trkpt>
      <trkpt lat="43.4291" lon="2.26548">
        <ele>835.04</ele>
        <time>2015-06-14T08:53:26Z</time>
      </trkpt>
      <trkpt lat="43.42917" lon="2.26532">
        <ele>836.48</ele>
        <time>2015-06-14T08:53:29Z</time>
      </trkpt>
      <trkpt lat="43.42937" lon="2.26493">
        <ele>838.41</ele>
        <time>2015-06-14T08:53:36Z</time>
      </trkpt>
      <trkpt lat="43.4294" lon="2.26487">
        <ele>838.41</ele>
        <time>2015-06-14T08:53:37Z</time>
      </trkpt>
      <trkpt lat="43.42944" lon="2.26482">
        <ele>838.41</ele>
        <time>2015-06-14T08:53:38Z</time>
      </trkpt>
      <trkpt lat="43.42981" lon="2.26425">
        <ele>836.96</ele>
        <time>2015-06-14T08:53:50Z</time>
      </trkpt>
      <trkpt lat="43.43006" lon="2.26393">
        <ele>836</ele>
        <time>2015-06-14T08:53:57Z</time>
      </trkpt>
      <trkpt lat="43.43018" lon="2.26381">
        <ele>836</ele>
        <time>2015-06-14T08:54:00Z</time>
      </trkpt>
      <trkpt lat="43.43023" lon="2.26378">
        <ele>835.52</ele>
        <time>2015-06-14T08:54:01Z</time>
      </trkpt>
      <trkpt lat="43.43027" lon="2.26376">
        <ele>835.52</ele>
        <time>2015-06-14T08:54:02Z</time>
      </trkpt>
      <trkpt lat="43.43061" lon="2.26364">
        <ele>835.52</ele>
        <time>2015-06-14T08:54:09Z</time>
      </trkpt>
      <trkpt lat="43.4311" lon="2.26324">
        <ele>830.24</ele>
        <time>2015-06-14T08:54:21Z</time>
      </trkpt>
      <trkpt lat="43.43133" lon="2.26296">
        <ele>828.79</ele>
        <time>2015-06-14T08:54:28Z</time>
      </trkpt>
      <trkpt lat="43.43135" lon="2.26289">
        <ele>828.79</ele>
        <time>2015-06-14T08:54:29Z</time>
      </trkpt>
      <trkpt lat="43.43155" lon="2.26243">
        <ele>831.68</ele>
        <time>2015-06-14T08:54:37Z</time>
      </trkpt>
      <trkpt lat="43.43158" lon="2.26239">
        <ele>832.16</ele>
        <time>2015-06-14T08:54:38Z</time>
      </trkpt>
      <trkpt lat="43.4316" lon="2.26238">
        <ele>832.16</ele>
        <time>2015-06-14T08:54:39Z</time>
      </trkpt>
      <trkpt lat="43.43163" lon="2.26236">
        <ele>833.12</ele>
        <time>2015-06-14T08:54:40Z</time>
      </trkpt>
      <trkpt lat="43.43166" lon="2.26237">
        <ele>833.12</ele>
        <time>2015-06-14T08:54:41Z</time>
      </trkpt>
      <trkpt lat="43.43168" lon="2.26239">
        <ele>833.6</ele>
        <time>2015-06-14T08:54:42Z</time>
      </trkpt>
      <trkpt lat="43.43171" lon="2.26241">
        <ele>833.6</ele>
        <time>2015-06-14T08:54:43Z</time>
      </trkpt>
      <trkpt lat="43.43205" lon="2.26264">
        <ele>835.04</ele>
        <time>2015-06-14T08:54:51Z</time>
      </trkpt>
      <trkpt lat="43.4322" lon="2.26267">
        <ele>835.52</ele>
        <time>2015-06-14T08:54:54Z</time>
      </trkpt>
      <trkpt lat="43.43224" lon="2.26268">
        <ele>835.52</ele>
        <time>2015-06-14T08:54:55Z</time>
      </trkpt>
      <trkpt lat="43.43228" lon="2.26269">
        <ele>835.52</ele>
        <time>2015-06-14T08:54:56Z</time>
      </trkpt>
      <trkpt lat="43.43268" lon="2.26281">
        <ele>834.56</ele>
        <time>2015-06-14T08:55:09Z</time>
      </trkpt>
      <trkpt lat="43.43302" lon="2.26298">
        <ele>836</ele>
        <time>2015-06-14T08:55:18Z</time>
      </trkpt>
      <trkpt lat="43.43313" lon="2.26298">
        <ele>836.48</ele>
        <time>2015-06-14T08:55:20Z</time>
      </trkpt>
      <trkpt lat="43.43331" lon="2.26296">
        <ele>836.96</ele>
        <time>2015-06-14T08:55:23Z</time>
      </trkpt>
      <trkpt lat="43.43336" lon="2.26294">
        <ele>837.45</ele>
        <time>2015-06-14T08:55:24Z</time>
      </trkpt>
      <trkpt lat="43.4334" lon="2.26292">
        <ele>837.45</ele>
        <time>2015-06-14T08:55:25Z</time>
      </trkpt>
      <trkpt lat="43.43351" lon="2.2629">
        <ele>837.45</ele>
        <time>2015-06-14T08:55:27Z</time>
      </trkpt>
      <trkpt lat="43.43367" lon="2.26288">
        <ele>837.45</ele>
        <time>2015-06-14T08:55:30Z</time>
      </trkpt>
      <trkpt lat="43.43377" lon="2.26284">
        <ele>837.93</ele>
        <time>2015-06-14T08:55:32Z</time>
      </trkpt>
      <trkpt lat="43.43454" lon="2.26231">
        <ele>841.77</ele>
        <time>2015-06-14T08:55:48Z</time>
      </trkpt>
      <trkpt lat="43.43506" lon="2.26187">
        <ele>845.62</ele>
        <time>2015-06-14T08:55:59Z</time>
      </trkpt>
      <trkpt lat="43.43539" lon="2.26163">
        <ele>849.94</ele>
        <time>2015-06-14T08:56:06Z</time>
      </trkpt>
      <trkpt lat="43.43608" lon="2.26107">
        <ele>857.63</ele>
        <time>2015-06-14T08:56:22Z</time>
      </trkpt>
      <trkpt lat="43.43625" lon="2.26095">
        <ele>859.56</ele>
        <time>2015-06-14T08:56:26Z</time>
      </trkpt>
      <trkpt lat="43.43633" lon="2.26088">
        <ele>860.04</ele>
        <time>2015-06-14T08:56:28Z</time>
      </trkpt>
      <trkpt lat="43.43637" lon="2.26085">
        <ele>860.52</ele>
        <time>2015-06-14T08:56:29Z</time>
      </trkpt>
      <trkpt lat="43.4364" lon="2.26081">
        <ele>860.52</ele>
        <time>2015-06-14T08:56:30Z</time>
      </trkpt>
      <trkpt lat="43.43642" lon="2.26076">
        <ele>861</ele>
        <time>2015-06-14T08:56:31Z</time>
      </trkpt>
      <trkpt lat="43.43641" lon="2.26071">
        <ele>861.48</ele>
        <time>2015-06-14T08:56:32Z</time>
      </trkpt>
      <trkpt lat="43.43639" lon="2.26069">
        <ele>861.96</ele>
        <time>2015-06-14T08:56:33Z</time>
      </trkpt>
      <trkpt lat="43.43637" lon="2.26067">
        <ele>862.44</ele>
        <time>2015-06-14T08:56:34Z</time>
      </trkpt>
      <trkpt lat="43.43635" lon="2.26067">
        <ele>862.44</ele>
        <time>2015-06-14T08:56:35Z</time>
      </trkpt>
      <trkpt lat="43.43633" lon="2.26067">
        <ele>862.92</ele>
        <time>2015-06-14T08:56:36Z</time>
      </trkpt>
      <trkpt lat="43.43631" lon="2.26067">
        <ele>863.4</ele>
        <time>2015-06-14T08:56:47Z</time>
      </trkpt>
      <trkpt lat="43.43631" lon="2.2607">
        <ele>863.88</ele>
        <time>2015-06-14T08:57:26Z</time>
      </trkpt>
      <trkpt lat="43.43628" lon="2.26073">
        <ele>863.88</ele>
        <time>2015-06-14T08:58:03Z</time>
      </trkpt>
      <trkpt lat="43.43628" lon="2.26066">
        <ele>867.73</ele>
        <time>2015-06-14T08:58:39Z</time>
      </trkpt>
      <trkpt lat="43.43627" lon="2.2607">
        <ele>868.69</ele>
        <time>2015-06-14T08:59:18Z</time>
      </trkpt>
      <trkpt lat="43.43623" lon="2.2607">
        <ele>868.21</ele>
        <time>2015-06-14T08:59:46Z</time>
      </trkpt>
      <trkpt lat="43.43623" lon="2.26069">
        <ele>871.57</ele>
        <time>2015-06-14T09:00:23Z</time>
      </trkpt>
      <trkpt lat="43.43627" lon="2.2607">
        <ele>872.05</ele>
        <time>2015-06-14T09:01:03Z</time>
      </trkpt>
      <trkpt lat="43.43631" lon="2.26073">
        <ele>874.46</ele>
        <time>2015-06-14T09:01:44Z</time>
      </trkpt>
      <trkpt lat="43.43634" lon="2.26073">
        <ele>875.42</ele>
        <time>2015-06-14T09:02:24Z</time>
      </trkpt>
      <trkpt lat="43.43633" lon="2.26073">
        <ele>874.46</ele>
        <time>2015-06-14T09:02:58Z</time>
      </trkpt>
      <trkpt lat="43.43633" lon="2.26074">
        <ele>873.5</ele>
        <time>2015-06-14T09:03:17Z</time>
      </trkpt>
      <trkpt lat="43.43634" lon="2.26071">
        <ele>873.98</ele>
        <time>2015-06-14T09:03:38Z</time>
      </trkpt>
      <trkpt lat="43.43633" lon="2.26072">
        <ele>873.98</ele>
        <time>2015-06-14T09:04:13Z</time>
      </trkpt>
      <trkpt lat="43.43633" lon="2.26067">
        <ele>871.57</ele>
        <time>2015-06-14T09:04:35Z</time>
      </trkpt>
      <trkpt lat="43.43625" lon="2.26065">
        <ele>873.5</ele>
        <time>2015-06-14T09:04:42Z</time>
      </trkpt>
      <trkpt lat="43.43594" lon="2.26063">
        <ele>880.22</ele>
        <time>2015-06-14T09:04:53Z</time>
      </trkpt>
      <trkpt lat="43.43544" lon="2.26056">
        <ele>884.07</ele>
        <time>2015-06-14T09:05:06Z</time>
      </trkpt>
      <trkpt lat="43.43503" lon="2.26046">
        <ele>881.67</ele>
        <time>2015-06-14T09:05:15Z</time>
      </trkpt>
      <trkpt lat="43.43498" lon="2.26044">
        <ele>881.67</ele>
        <time>2015-06-14T09:05:16Z</time>
      </trkpt>
      <trkpt lat="43.4344" lon="2.26029">
        <ele>881.19</ele>
        <time>2015-06-14T09:05:29Z</time>
      </trkpt>
      <trkpt lat="43.43396" lon="2.26016">
        <ele>880.71</ele>
        <time>2015-06-14T09:05:39Z</time>
      </trkpt>
      <trkpt lat="43.43392" lon="2.26014">
        <ele>880.71</ele>
        <time>2015-06-14T09:05:40Z</time>
      </trkpt>
      <trkpt lat="43.43379" lon="2.26009">
        <ele>881.19</ele>
        <time>2015-06-14T09:05:43Z</time>
      </trkpt>
      <trkpt lat="43.4331" lon="2.25961">
        <ele>880.22</ele>
        <time>2015-06-14T09:05:59Z</time>
      </trkpt>
      <trkpt lat="43.43301" lon="2.25955">
        <ele>879.26</ele>
        <time>2015-06-14T09:06:01Z</time>
      </trkpt>
      <trkpt lat="43.43261" lon="2.2593">
        <ele>876.86</ele>
        <time>2015-06-14T09:06:10Z</time>
      </trkpt>
      <trkpt lat="43.43233" lon="2.25923">
        <ele>877.34</ele>
        <time>2015-06-14T09:06:16Z</time>
      </trkpt>
      <trkpt lat="43.43228" lon="2.25923">
        <ele>877.34</ele>
        <time>2015-06-14T09:06:17Z</time>
      </trkpt>
      <trkpt lat="43.43224" lon="2.25922">
        <ele>877.82</ele>
        <time>2015-06-14T09:06:18Z</time>
      </trkpt>
      <trkpt lat="43.4322" lon="2.25921">
        <ele>877.82</ele>
        <time>2015-06-14T09:06:19Z</time>
      </trkpt>
      <trkpt lat="43.43216" lon="2.25921">
        <ele>878.3</ele>
        <time>2015-06-14T09:06:20Z</time>
      </trkpt>
      <trkpt lat="43.43213" lon="2.2592">
        <ele>878.3</ele>
        <time>2015-06-14T09:06:21Z</time>
      </trkpt>
      <trkpt lat="43.43209" lon="2.25919">
        <ele>878.78</ele>
        <time>2015-06-14T09:06:22Z</time>
      </trkpt>
      <trkpt lat="43.43205" lon="2.25919">
        <ele>878.78</ele>
        <time>2015-06-14T09:06:23Z</time>
      </trkpt>
      <trkpt lat="43.43196" lon="2.25919">
        <ele>879.26</ele>
        <time>2015-06-14T09:06:25Z</time>
      </trkpt>
      <trkpt lat="43.43169" lon="2.25918">
        <ele>880.71</ele>
        <time>2015-06-14T09:06:31Z</time>
      </trkpt>
      <trkpt lat="43.43164" lon="2.25918">
        <ele>880.71</ele>
        <time>2015-06-14T09:06:32Z</time>
      </trkpt>
      <trkpt lat="43.4313" lon="2.25916">
        <ele>883.59</ele>
        <time>2015-06-14T09:06:40Z</time>
      </trkpt>
      <trkpt lat="43.43125" lon="2.25916">
        <ele>884.07</ele>
        <time>2015-06-14T09:06:41Z</time>
      </trkpt>
      <trkpt lat="43.43084" lon="2.25913">
        <ele>889.84</ele>
        <time>2015-06-14T09:06:51Z</time>
      </trkpt>
      <trkpt lat="43.43033" lon="2.25906">
        <ele>897.05</ele>
        <time>2015-06-14T09:07:03Z</time>
      </trkpt>
      <trkpt lat="43.43028" lon="2.25904">
        <ele>897.53</ele>
        <time>2015-06-14T09:07:04Z</time>
      </trkpt>
      <trkpt lat="43.43004" lon="2.25888">
        <ele>898.97</ele>
        <time>2015-06-14T09:07:09Z</time>
      </trkpt>
      <trkpt lat="43.42998" lon="2.25882">
        <ele>898.01</ele>
        <time>2015-06-14T09:07:10Z</time>
      </trkpt>
      <trkpt lat="43.42993" lon="2.25875">
        <ele>897.53</ele>
        <time>2015-06-14T09:07:11Z</time>
      </trkpt>
      <trkpt lat="43.42989" lon="2.25867">
        <ele>896.57</ele>
        <time>2015-06-14T09:07:12Z</time>
      </trkpt>
      <trkpt lat="43.42984" lon="2.25859">
        <ele>896.09</ele>
        <time>2015-06-14T09:07:13Z</time>
      </trkpt>
      <trkpt lat="43.42981" lon="2.25851">
        <ele>895.61</ele>
        <time>2015-06-14T09:07:14Z</time>
      </trkpt>
      <trkpt lat="43.42948" lon="2.25733">
        <ele>887.91</ele>
        <time>2015-06-14T09:07:25Z</time>
      </trkpt>
      <trkpt lat="43.42936" lon="2.25675">
        <ele>885.51</ele>
        <time>2015-06-14T09:07:30Z</time>
      </trkpt>
      <trkpt lat="43.4293" lon="2.25665">
        <ele>885.03</ele>
        <time>2015-06-14T09:07:31Z</time>
      </trkpt>
      <trkpt lat="43.42923" lon="2.25654">
        <ele>884.55</ele>
        <time>2015-06-14T09:07:32Z</time>
      </trkpt>
      <trkpt lat="43.42916" lon="2.25644">
        <ele>884.07</ele>
        <time>2015-06-14T09:07:33Z</time>
      </trkpt>
      <trkpt lat="43.42907" lon="2.25636">
        <ele>884.07</ele>
        <time>2015-06-14T09:07:34Z</time>
      </trkpt>
      <trkpt lat="43.42899" lon="2.25627">
        <ele>883.59</ele>
        <time>2015-06-14T09:07:35Z</time>
      </trkpt>
      <trkpt lat="43.42892" lon="2.25618">
        <ele>883.59</ele>
        <time>2015-06-14T09:07:36Z</time>
      </trkpt>
      <trkpt lat="43.42884" lon="2.2561">
        <ele>883.59</ele>
        <time>2015-06-14T09:07:37Z</time>
      </trkpt>
      <trkpt lat="43.42793" lon="2.25525">
        <ele>879.26</ele>
        <time>2015-06-14T09:07:48Z</time>
      </trkpt>
      <trkpt lat="43.42718" lon="2.25454">
        <ele>877.82</ele>
        <time>2015-06-14T09:08:00Z</time>
      </trkpt>
      <trkpt lat="43.42713" lon="2.25448">
        <ele>877.82</ele>
        <time>2015-06-14T09:08:01Z</time>
      </trkpt>
      <trkpt lat="43.42709" lon="2.25441">
        <ele>877.34</ele>
        <time>2015-06-14T09:08:02Z</time>
      </trkpt>
      <trkpt lat="43.42695" lon="2.25422">
        <ele>876.38</ele>
        <time>2015-06-14T09:08:05Z</time>
      </trkpt>
      <trkpt lat="43.42691" lon="2.25416">
        <ele>876.38</ele>
        <time>2015-06-14T09:08:06Z</time>
      </trkpt>
      <trkpt lat="43.42687" lon="2.2541">
        <ele>876.38</ele>
        <time>2015-06-14T09:08:07Z</time>
      </trkpt>
      <trkpt lat="43.42627" lon="2.25321">
        <ele>875.42</ele>
        <time>2015-06-14T09:08:22Z</time>
      </trkpt>
      <trkpt lat="43.42623" lon="2.25314">
        <ele>875.42</ele>
        <time>2015-06-14T09:08:23Z</time>
      </trkpt>
      <trkpt lat="43.42619" lon="2.25309">
        <ele>875.42</ele>
        <time>2015-06-14T09:08:24Z</time>
      </trkpt>
      <trkpt lat="43.42616" lon="2.25303">
        <ele>875.42</ele>
        <time>2015-06-14T09:08:25Z</time>
      </trkpt>
      <trkpt lat="43.42612" lon="2.25297">
        <ele>875.42</ele>
        <time>2015-06-14T09:08:26Z</time>
      </trkpt>
      <trkpt lat="43.42609" lon="2.25291">
        <ele>875.42</ele>
        <time>2015-06-14T09:08:27Z</time>
      </trkpt>
      <trkpt lat="43.42605" lon="2.25286">
        <ele>875.9</ele>
        <time>2015-06-14T09:08:28Z</time>
      </trkpt>
      <trkpt lat="43.4258" lon="2.25239">
        <ele>876.86</ele>
        <time>2015-06-14T09:08:35Z</time>
      </trkpt>
      <trkpt lat="43.42576" lon="2.25231">
        <ele>876.86</ele>
        <time>2015-06-14T09:08:36Z</time>
      </trkpt>
      <trkpt lat="43.42566" lon="2.25203">
        <ele>875.42</ele>
        <time>2015-06-14T09:08:39Z</time>
      </trkpt>
      <trkpt lat="43.42564" lon="2.25193">
        <ele>874.94</ele>
        <time>2015-06-14T09:08:40Z</time>
      </trkpt>
      <trkpt lat="43.42562" lon="2.25183">
        <ele>874.94</ele>
        <time>2015-06-14T09:08:41Z</time>
      </trkpt>
      <trkpt lat="43.4256" lon="2.25163">
        <ele>874.94</ele>
        <time>2015-06-14T09:08:43Z</time>
      </trkpt>
      <trkpt lat="43.42561" lon="2.25145">
        <ele>875.42</ele>
        <time>2015-06-14T09:08:45Z</time>
      </trkpt>
      <trkpt lat="43.42576" lon="2.25026">
        <ele>877.34</ele>
        <time>2015-06-14T09:08:57Z</time>
      </trkpt>
      <trkpt lat="43.42577" lon="2.25017">
        <ele>877.82</ele>
        <time>2015-06-14T09:08:58Z</time>
      </trkpt>
      <trkpt lat="43.42574" lon="2.24999">
        <ele>878.78</ele>
        <time>2015-06-14T09:09:00Z</time>
      </trkpt>
      <trkpt lat="43.4257" lon="2.24988">
        <ele>879.26</ele>
        <time>2015-06-14T09:09:01Z</time>
      </trkpt>
      <trkpt lat="43.42529" lon="2.24873">
        <ele>878.3</ele>
        <time>2015-06-14T09:09:12Z</time>
      </trkpt>
      <trkpt lat="43.42523" lon="2.24863">
        <ele>877.34</ele>
        <time>2015-06-14T09:09:13Z</time>
      </trkpt>
      <trkpt lat="43.42517" lon="2.24852">
        <ele>876.38</ele>
        <time>2015-06-14T09:09:14Z</time>
      </trkpt>
      <trkpt lat="43.4251" lon="2.24843">
        <ele>875.42</ele>
        <time>2015-06-14T09:09:15Z</time>
      </trkpt>
      <trkpt lat="43.42503" lon="2.24834">
        <ele>874.46</ele>
        <time>2015-06-14T09:09:16Z</time>
      </trkpt>
      <trkpt lat="43.42483" lon="2.2481">
        <ele>871.57</ele>
        <time>2015-06-14T09:09:19Z</time>
      </trkpt>
      <trkpt lat="43.42456" lon="2.24787">
        <ele>869.65</ele>
        <time>2015-06-14T09:09:23Z</time>
      </trkpt>
      <trkpt lat="43.42448" lon="2.24783">
        <ele>869.17</ele>
        <time>2015-06-14T09:09:24Z</time>
      </trkpt>
      <trkpt lat="43.42359" lon="2.24752">
        <ele>869.65</ele>
        <time>2015-06-14T09:09:36Z</time>
      </trkpt>
      <trkpt lat="43.4235" lon="2.24751">
        <ele>870.13</ele>
        <time>2015-06-14T09:09:37Z</time>
      </trkpt>
      <trkpt lat="43.42274" lon="2.24749">
        <ele>869.65</ele>
        <time>2015-06-14T09:09:46Z</time>
      </trkpt>
      <trkpt lat="43.42259" lon="2.24747">
        <ele>869.17</ele>
        <time>2015-06-14T09:09:48Z</time>
      </trkpt>
      <trkpt lat="43.42251" lon="2.24744">
        <ele>868.69</ele>
        <time>2015-06-14T09:09:49Z</time>
      </trkpt>
      <trkpt lat="43.42243" lon="2.2474">
        <ele>868.69</ele>
        <time>2015-06-14T09:09:50Z</time>
      </trkpt>
      <trkpt lat="43.42234" lon="2.24735">
        <ele>868.21</ele>
        <time>2015-06-14T09:09:51Z</time>
      </trkpt>
      <trkpt lat="43.42226" lon="2.24728">
        <ele>867.25</ele>
        <time>2015-06-14T09:09:52Z</time>
      </trkpt>
      <trkpt lat="43.42219" lon="2.24721">
        <ele>867.25</ele>
        <time>2015-06-14T09:09:53Z</time>
      </trkpt>
      <trkpt lat="43.42213" lon="2.24714">
        <ele>866.77</ele>
        <time>2015-06-14T09:09:54Z</time>
      </trkpt>
      <trkpt lat="43.42207" lon="2.24706">
        <ele>866.29</ele>
        <time>2015-06-14T09:09:55Z</time>
      </trkpt>
      <trkpt lat="43.42201" lon="2.24698">
        <ele>865.32</ele>
        <time>2015-06-14T09:09:56Z</time>
      </trkpt>
      <trkpt lat="43.42195" lon="2.24689">
        <ele>864.36</ele>
        <time>2015-06-14T09:09:57Z</time>
      </trkpt>
      <trkpt lat="43.42186" lon="2.24684">
        <ele>862.92</ele>
        <time>2015-06-14T09:09:58Z</time>
      </trkpt>
      <trkpt lat="43.42177" lon="2.24679">
        <ele>861.96</ele>
        <time>2015-06-14T09:09:59Z</time>
      </trkpt>
      <trkpt lat="43.4217" lon="2.24676">
        <ele>861.48</ele>
        <time>2015-06-14T09:10:00Z</time>
      </trkpt>
      <trkpt lat="43.42162" lon="2.24674">
        <ele>861.48</ele>
        <time>2015-06-14T09:10:01Z</time>
      </trkpt>
      <trkpt lat="43.42146" lon="2.2467">
        <ele>861</ele>
        <time>2015-06-14T09:10:03Z</time>
      </trkpt>
      <trkpt lat="43.42051" lon="2.24637">
        <ele>861.48</ele>
        <time>2015-06-14T09:10:15Z</time>
      </trkpt>
      <trkpt lat="43.41958" lon="2.24635">
        <ele>859.56</ele>
        <time>2015-06-14T09:10:26Z</time>
      </trkpt>
      <trkpt lat="43.41839" lon="2.24641">
        <ele>856.67</ele>
        <time>2015-06-14T09:10:40Z</time>
      </trkpt>
      <trkpt lat="43.41749" lon="2.24653">
        <ele>856.19</ele>
        <time>2015-06-14T09:10:51Z</time>
      </trkpt>
      <trkpt lat="43.41664" lon="2.24657">
        <ele>854.27</ele>
        <time>2015-06-14T09:11:01Z</time>
      </trkpt>
      <trkpt lat="43.41648" lon="2.24658">
        <ele>854.27</ele>
        <time>2015-06-14T09:11:03Z</time>
      </trkpt>
      <trkpt lat="43.41639" lon="2.24656">
        <ele>854.75</ele>
        <time>2015-06-14T09:11:04Z</time>
      </trkpt>
      <trkpt lat="43.41534" lon="2.24659">
        <ele>852.35</ele>
        <time>2015-06-14T09:11:16Z</time>
      </trkpt>
      <trkpt lat="43.41526" lon="2.24662">
        <ele>851.87</ele>
        <time>2015-06-14T09:11:17Z</time>
      </trkpt>
      <trkpt lat="43.41517" lon="2.24667">
        <ele>851.38</ele>
        <time>2015-06-14T09:11:18Z</time>
      </trkpt>
      <trkpt lat="43.41509" lon="2.24673">
        <ele>850.9</ele>
        <time>2015-06-14T09:11:19Z</time>
      </trkpt>
      <trkpt lat="43.415" lon="2.2468">
        <ele>850.42</ele>
        <time>2015-06-14T09:11:20Z</time>
      </trkpt>
      <trkpt lat="43.41399" lon="2.24756">
        <ele>838.41</ele>
        <time>2015-06-14T09:11:32Z</time>
      </trkpt>
      <trkpt lat="43.41389" lon="2.2476">
        <ele>837.45</ele>
        <time>2015-06-14T09:11:33Z</time>
      </trkpt>
      <trkpt lat="43.41379" lon="2.24761">
        <ele>836</ele>
        <time>2015-06-14T09:11:34Z</time>
      </trkpt>
      <trkpt lat="43.41369" lon="2.2476">
        <ele>835.04</ele>
        <time>2015-06-14T09:11:35Z</time>
      </trkpt>
      <trkpt lat="43.41358" lon="2.24756">
        <ele>834.08</ele>
        <time>2015-06-14T09:11:36Z</time>
      </trkpt>
      <trkpt lat="43.41349" lon="2.24751">
        <ele>833.12</ele>
        <time>2015-06-14T09:11:37Z</time>
      </trkpt>
      <trkpt lat="43.41339" lon="2.24747">
        <ele>832.16</ele>
        <time>2015-06-14T09:11:38Z</time>
      </trkpt>
      <trkpt lat="43.4133" lon="2.24743">
        <ele>831.68</ele>
        <time>2015-06-14T09:11:39Z</time>
      </trkpt>
      <trkpt lat="43.4132" lon="2.2474">
        <ele>830.72</ele>
        <time>2015-06-14T09:11:40Z</time>
      </trkpt>
      <trkpt lat="43.4131" lon="2.24741">
        <ele>829.27</ele>
        <time>2015-06-14T09:11:41Z</time>
      </trkpt>
      <trkpt lat="43.41302" lon="2.24748">
        <ele>827.83</ele>
        <time>2015-06-14T09:11:42Z</time>
      </trkpt>
      <trkpt lat="43.41299" lon="2.24758">
        <ele>826.87</ele>
        <time>2015-06-14T09:11:43Z</time>
      </trkpt>
      <trkpt lat="43.41301" lon="2.2477">
        <ele>825.43</ele>
        <time>2015-06-14T09:11:44Z</time>
      </trkpt>
      <trkpt lat="43.41307" lon="2.2478">
        <ele>824.95</ele>
        <time>2015-06-14T09:11:45Z</time>
      </trkpt>
      <trkpt lat="43.41317" lon="2.24789">
        <ele>823.99</ele>
        <time>2015-06-14T09:11:46Z</time>
      </trkpt>
      <trkpt lat="43.41326" lon="2.24797">
        <ele>823.03</ele>
        <time>2015-06-14T09:11:47Z</time>
      </trkpt>
      <trkpt lat="43.41363" lon="2.24825">
        <ele>818.7</ele>
        <time>2015-06-14T09:11:51Z</time>
      </trkpt>
      <trkpt lat="43.41372" lon="2.24827">
        <ele>817.74</ele>
        <time>2015-06-14T09:11:52Z</time>
      </trkpt>
      <trkpt lat="43.41382" lon="2.24828">
        <ele>817.26</ele>
        <time>2015-06-14T09:11:53Z</time>
      </trkpt>
      <trkpt lat="43.41392" lon="2.24828">
        <ele>816.3</ele>
        <time>2015-06-14T09:11:54Z</time>
      </trkpt>
      <trkpt lat="43.41402" lon="2.24825">
        <ele>815.82</ele>
        <time>2015-06-14T09:11:55Z</time>
      </trkpt>
      <trkpt lat="43.41412" lon="2.24822">
        <ele>814.85</ele>
        <time>2015-06-14T09:11:56Z</time>
      </trkpt>
      <trkpt lat="43.41423" lon="2.24817">
        <ele>813.89</ele>
        <time>2015-06-14T09:11:57Z</time>
      </trkpt>
      <trkpt lat="43.4144" lon="2.24809">
        <ele>812.45</ele>
        <time>2015-06-14T09:11:59Z</time>
      </trkpt>
      <trkpt lat="43.41448" lon="2.24807">
        <ele>811.97</ele>
        <time>2015-06-14T09:12:00Z</time>
      </trkpt>
      <trkpt lat="43.41455" lon="2.24806">
        <ele>811.49</ele>
        <time>2015-06-14T09:12:01Z</time>
      </trkpt>
      <trkpt lat="43.41461" lon="2.24808">
        <ele>811.01</ele>
        <time>2015-06-14T09:12:02Z</time>
      </trkpt>
      <trkpt lat="43.41465" lon="2.24812">
        <ele>810.53</ele>
        <time>2015-06-14T09:12:03Z</time>
      </trkpt>
      <trkpt lat="43.4147" lon="2.24816">
        <ele>810.53</ele>
        <time>2015-06-14T09:12:04Z</time>
      </trkpt>
      <trkpt lat="43.41477" lon="2.24826">
        <ele>809.57</ele>
        <time>2015-06-14T09:12:06Z</time>
      </trkpt>
      <trkpt lat="43.41479" lon="2.24836">
        <ele>809.57</ele>
        <time>2015-06-14T09:12:07Z</time>
      </trkpt>
      <trkpt lat="43.4148" lon="2.24847">
        <ele>809.09</ele>
        <time>2015-06-14T09:12:08Z</time>
      </trkpt>
      <trkpt lat="43.41479" lon="2.2486">
        <ele>809.09</ele>
        <time>2015-06-14T09:12:09Z</time>
      </trkpt>
      <trkpt lat="43.41477" lon="2.24874">
        <ele>808.61</ele>
        <time>2015-06-14T09:12:10Z</time>
      </trkpt>
      <trkpt lat="43.41474" lon="2.24888">
        <ele>808.61</ele>
        <time>2015-06-14T09:12:11Z</time>
      </trkpt>
      <trkpt lat="43.4147" lon="2.24904">
        <ele>808.13</ele>
        <time>2015-06-14T09:12:12Z</time>
      </trkpt>
      <trkpt lat="43.41466" lon="2.24916">
        <ele>808.13</ele>
        <time>2015-06-14T09:12:13Z</time>
      </trkpt>
      <trkpt lat="43.4146" lon="2.24929">
        <ele>807.64</ele>
        <time>2015-06-14T09:12:14Z</time>
      </trkpt>
      <trkpt lat="43.41455" lon="2.2494">
        <ele>807.16</ele>
        <time>2015-06-14T09:12:15Z</time>
      </trkpt>
      <trkpt lat="43.41447" lon="2.24953">
        <ele>807.16</ele>
        <time>2015-06-14T09:12:16Z</time>
      </trkpt>
      <trkpt lat="43.4144" lon="2.24964">
        <ele>806.68</ele>
        <time>2015-06-14T09:12:17Z</time>
      </trkpt>
      <trkpt lat="43.41373" lon="2.25079">
        <ele>800.92</ele>
        <time>2015-06-14T09:12:27Z</time>
      </trkpt>
      <trkpt lat="43.41304" lon="2.25176">
        <ele>791.3</ele>
        <time>2015-06-14T09:12:37Z</time>
      </trkpt>
      <trkpt lat="43.41305" lon="2.25187">
        <ele>789.86</ele>
        <time>2015-06-14T09:12:38Z</time>
      </trkpt>
      <trkpt lat="43.41307" lon="2.25194">
        <ele>787.94</ele>
        <time>2015-06-14T09:12:39Z</time>
      </trkpt>
      <trkpt lat="43.41312" lon="2.25201">
        <ele>786.98</ele>
        <time>2015-06-14T09:12:40Z</time>
      </trkpt>
      <trkpt lat="43.41319" lon="2.25207">
        <ele>785.53</ele>
        <time>2015-06-14T09:12:41Z</time>
      </trkpt>
      <trkpt lat="43.41327" lon="2.25212">
        <ele>784.57</ele>
        <time>2015-06-14T09:12:42Z</time>
      </trkpt>
      <trkpt lat="43.41337" lon="2.25214">
        <ele>783.13</ele>
        <time>2015-06-14T09:12:43Z</time>
      </trkpt>
      <trkpt lat="43.41345" lon="2.25216">
        <ele>783.13</ele>
        <time>2015-06-14T09:12:44Z</time>
      </trkpt>
      <trkpt lat="43.41356" lon="2.25211">
        <ele>782.17</ele>
        <time>2015-06-14T09:12:45Z</time>
      </trkpt>
      <trkpt lat="43.41377" lon="2.25213">
        <ele>779.77</ele>
        <time>2015-06-14T09:12:47Z</time>
      </trkpt>
      <trkpt lat="43.41387" lon="2.25215">
        <ele>779.29</ele>
        <time>2015-06-14T09:12:48Z</time>
      </trkpt>
      <trkpt lat="43.41397" lon="2.25219">
        <ele>777.84</ele>
        <time>2015-06-14T09:12:49Z</time>
      </trkpt>
      <trkpt lat="43.41489" lon="2.25276">
        <ele>770.15</ele>
        <time>2015-06-14T09:12:58Z</time>
      </trkpt>
      <trkpt lat="43.41509" lon="2.25289">
        <ele>768.23</ele>
        <time>2015-06-14T09:13:00Z</time>
      </trkpt>
      <trkpt lat="43.41518" lon="2.25294">
        <ele>767.27</ele>
        <time>2015-06-14T09:13:01Z</time>
      </trkpt>
      <trkpt lat="43.41529" lon="2.25299">
        <ele>765.83</ele>
        <time>2015-06-14T09:13:02Z</time>
      </trkpt>
      <trkpt lat="43.41537" lon="2.25306">
        <ele>764.87</ele>
        <time>2015-06-14T09:13:03Z</time>
      </trkpt>
      <trkpt lat="43.41544" lon="2.25315">
        <ele>763.9</ele>
        <time>2015-06-14T09:13:04Z</time>
      </trkpt>
      <trkpt lat="43.4155" lon="2.25325">
        <ele>763.42</ele>
        <time>2015-06-14T09:13:05Z</time>
      </trkpt>
      <trkpt lat="43.41555" lon="2.25335">
        <ele>762.46</ele>
        <time>2015-06-14T09:13:06Z</time>
      </trkpt>
      <trkpt lat="43.41558" lon="2.25345">
        <ele>761.02</ele>
        <time>2015-06-14T09:13:07Z</time>
      </trkpt>
      <trkpt lat="43.41562" lon="2.25355">
        <ele>760.06</ele>
        <time>2015-06-14T09:13:08Z</time>
      </trkpt>
      <trkpt lat="43.41567" lon="2.25372">
        <ele>757.66</ele>
        <time>2015-06-14T09:13:10Z</time>
      </trkpt>
      <trkpt lat="43.41558" lon="2.25381">
        <ele>758.62</ele>
        <time>2015-06-14T09:13:11Z</time>
      </trkpt>
      <trkpt lat="43.41551" lon="2.25392">
        <ele>758.62</ele>
        <time>2015-06-14T09:13:12Z</time>
      </trkpt>
      <trkpt lat="43.41522" lon="2.25422">
        <ele>756.69</ele>
        <time>2015-06-14T09:13:15Z</time>
      </trkpt>
      <trkpt lat="43.41506" lon="2.25438">
        <ele>755.25</ele>
        <time>2015-06-14T09:13:17Z</time>
      </trkpt>
      <trkpt lat="43.41497" lon="2.25445">
        <ele>754.77</ele>
        <time>2015-06-14T09:13:18Z</time>
      </trkpt>
      <trkpt lat="43.41488" lon="2.2545">
        <ele>753.81</ele>
        <time>2015-06-14T09:13:19Z</time>
      </trkpt>
      <trkpt lat="43.41479" lon="2.25457">
        <ele>752.85</ele>
        <time>2015-06-14T09:13:20Z</time>
      </trkpt>
      <trkpt lat="43.4147" lon="2.25464">
        <ele>752.37</ele>
        <time>2015-06-14T09:13:21Z</time>
      </trkpt>
      <trkpt lat="43.41462" lon="2.25472">
        <ele>751.89</ele>
        <time>2015-06-14T09:13:22Z</time>
      </trkpt>
      <trkpt lat="43.41432" lon="2.25503">
        <ele>749.49</ele>
        <time>2015-06-14T09:13:26Z</time>
      </trkpt>
      <trkpt lat="43.41423" lon="2.25509">
        <ele>749.97</ele>
        <time>2015-06-14T09:13:27Z</time>
      </trkpt>
      <trkpt lat="43.41413" lon="2.25512">
        <ele>749.97</ele>
        <time>2015-06-14T09:13:28Z</time>
      </trkpt>
      <trkpt lat="43.41306" lon="2.25545">
        <ele>749.97</ele>
        <time>2015-06-14T09:13:38Z</time>
      </trkpt>
      <trkpt lat="43.41202" lon="2.2558">
        <ele>747.56</ele>
        <time>2015-06-14T09:13:47Z</time>
      </trkpt>
      <trkpt lat="43.41193" lon="2.25581">
        <ele>747.08</ele>
        <time>2015-06-14T09:13:48Z</time>
      </trkpt>
      <trkpt lat="43.41184" lon="2.25582">
        <ele>747.08</ele>
        <time>2015-06-14T09:13:49Z</time>
      </trkpt>
      <trkpt lat="43.41126" lon="2.25603">
        <ele>746.6</ele>
        <time>2015-06-14T09:13:55Z</time>
      </trkpt>
      <trkpt lat="43.41112" lon="2.25619">
        <ele>746.12</ele>
        <time>2015-06-14T09:13:56Z</time>
      </trkpt>
      <trkpt lat="43.41101" lon="2.25634">
        <ele>746.12</ele>
        <time>2015-06-14T09:13:57Z</time>
      </trkpt>
      <trkpt lat="43.4109" lon="2.25646">
        <ele>746.12</ele>
        <time>2015-06-14T09:13:58Z</time>
      </trkpt>
      <trkpt lat="43.4108" lon="2.25656">
        <ele>746.12</ele>
        <time>2015-06-14T09:13:59Z</time>
      </trkpt>
      <trkpt lat="43.41062" lon="2.25676">
        <ele>746.12</ele>
        <time>2015-06-14T09:14:01Z</time>
      </trkpt>
      <trkpt lat="43.41056" lon="2.25686">
        <ele>746.12</ele>
        <time>2015-06-14T09:14:02Z</time>
      </trkpt>
      <trkpt lat="43.4096" lon="2.25736">
        <ele>744.2</ele>
        <time>2015-06-14T09:14:12Z</time>
      </trkpt>
      <trkpt lat="43.40952" lon="2.25743">
        <ele>743.72</ele>
        <time>2015-06-14T09:14:13Z</time>
      </trkpt>
      <trkpt lat="43.40943" lon="2.25752">
        <ele>742.76</ele>
        <time>2015-06-14T09:14:14Z</time>
      </trkpt>
      <trkpt lat="43.40935" lon="2.25763">
        <ele>741.79</ele>
        <time>2015-06-14T09:14:15Z</time>
      </trkpt>
      <trkpt lat="43.40928" lon="2.25771">
        <ele>741.79</ele>
        <time>2015-06-14T09:14:16Z</time>
      </trkpt>
      <trkpt lat="43.40921" lon="2.25774">
        <ele>741.79</ele>
        <time>2015-06-14T09:14:17Z</time>
      </trkpt>
      <trkpt lat="43.40916" lon="2.25776">
        <ele>741.79</ele>
        <time>2015-06-14T09:14:18Z</time>
      </trkpt>
      <trkpt lat="43.40911" lon="2.25774">
        <ele>741.79</ele>
        <time>2015-06-14T09:14:19Z</time>
      </trkpt>
      <trkpt lat="43.40907" lon="2.25771">
        <ele>741.79</ele>
        <time>2015-06-14T09:14:20Z</time>
      </trkpt>
      <trkpt lat="43.409" lon="2.25764">
        <ele>740.83</ele>
        <time>2015-06-14T09:14:21Z</time>
      </trkpt>
      <trkpt lat="43.40891" lon="2.25758">
        <ele>740.35</ele>
        <time>2015-06-14T09:14:22Z</time>
      </trkpt>
      <trkpt lat="43.40882" lon="2.25755">
        <ele>739.87</ele>
        <time>2015-06-14T09:14:23Z</time>
      </trkpt>
      <trkpt lat="43.40873" lon="2.25753">
        <ele>739.39</ele>
        <time>2015-06-14T09:14:24Z</time>
      </trkpt>
      <trkpt lat="43.40849" lon="2.25744">
        <ele>738.91</ele>
        <time>2015-06-14T09:14:27Z</time>
      </trkpt>
      <trkpt lat="43.40841" lon="2.25736">
        <ele>738.43</ele>
        <time>2015-06-14T09:14:28Z</time>
      </trkpt>
      <trkpt lat="43.40835" lon="2.25727">
        <ele>737.95</ele>
        <time>2015-06-14T09:14:29Z</time>
      </trkpt>
      <trkpt lat="43.40817" lon="2.25698">
        <ele>737.47</ele>
        <time>2015-06-14T09:14:32Z</time>
      </trkpt>
      <trkpt lat="43.4081" lon="2.25691">
        <ele>737.47</ele>
        <time>2015-06-14T09:14:33Z</time>
      </trkpt>
      <trkpt lat="43.40802" lon="2.25687">
        <ele>736.99</ele>
        <time>2015-06-14T09:14:34Z</time>
      </trkpt>
      <trkpt lat="43.40795" lon="2.25684">
        <ele>736.99</ele>
        <time>2015-06-14T09:14:35Z</time>
      </trkpt>
      <trkpt lat="43.40788" lon="2.25681">
        <ele>736.51</ele>
        <time>2015-06-14T09:14:36Z</time>
      </trkpt>
      <trkpt lat="43.40777" lon="2.25682">
        <ele>735.07</ele>
        <time>2015-06-14T09:14:42Z</time>
      </trkpt>
      <trkpt lat="43.40779" lon="2.25683">
        <ele>733.14</ele>
        <time>2015-06-14T09:14:49Z</time>
      </trkpt>
      <trkpt lat="43.40783" lon="2.2568">
        <ele>730.74</ele>
        <time>2015-06-14T09:14:54Z</time>
      </trkpt>
      <trkpt lat="43.408" lon="2.25687">
        <ele>729.3</ele>
        <time>2015-06-14T09:15:05Z</time>
      </trkpt>
      <trkpt lat="43.40817" lon="2.2572">
        <ele>729.3</ele>
        <time>2015-06-14T09:15:18Z</time>
      </trkpt>
      <trkpt lat="43.40818" lon="2.25722">
        <ele>729.78</ele>
        <time>2015-06-14T09:15:19Z</time>
      </trkpt>
      <trkpt lat="43.4082" lon="2.25724">
        <ele>729.78</ele>
        <time>2015-06-14T09:15:20Z</time>
      </trkpt>
      <trkpt lat="43.40821" lon="2.25725">
        <ele>730.26</ele>
        <time>2015-06-14T09:15:21Z</time>
      </trkpt>
      <trkpt lat="43.40823" lon="2.25727">
        <ele>730.26</ele>
        <time>2015-06-14T09:15:22Z</time>
      </trkpt>
      <trkpt lat="43.40824" lon="2.25729">
        <ele>730.74</ele>
        <time>2015-06-14T09:15:23Z</time>
      </trkpt>
      <trkpt lat="43.40825" lon="2.25732">
        <ele>730.74</ele>
        <time>2015-06-14T09:15:24Z</time>
      </trkpt>
      <trkpt lat="43.40827" lon="2.25734">
        <ele>731.22</ele>
        <time>2015-06-14T09:15:25Z</time>
      </trkpt>
      <trkpt lat="43.40828" lon="2.25736">
        <ele>731.7</ele>
        <time>2015-06-14T09:15:26Z</time>
      </trkpt>
      <trkpt lat="43.40851" lon="2.25755">
        <ele>731.7</ele>
        <time>2015-06-14T09:15:39Z</time>
      </trkpt>
      <trkpt lat="43.40879" lon="2.25784">
        <ele>731.7</ele>
        <time>2015-06-14T09:15:52Z</time>
      </trkpt>
      <trkpt lat="43.40892" lon="2.25798">
        <ele>737.47</ele>
        <time>2015-06-14T09:16:02Z</time>
      </trkpt>
      <trkpt lat="43.40893" lon="2.258">
        <ele>737.95</ele>
        <time>2015-06-14T09:16:03Z</time>
      </trkpt>
      <trkpt lat="43.40897" lon="2.25807">
        <ele>741.31</ele>
        <time>2015-06-14T09:16:09Z</time>
      </trkpt>
      <trkpt lat="43.40908" lon="2.25835">
        <ele>744.2</ele>
        <time>2015-06-14T09:16:22Z</time>
      </trkpt>
      <trkpt lat="43.40926" lon="2.2586">
        <ele>744.68</ele>
        <time>2015-06-14T09:16:30Z</time>
      </trkpt>
      <trkpt lat="43.40928" lon="2.25862">
        <ele>744.68</ele>
        <time>2015-06-14T09:16:31Z</time>
      </trkpt>
      <trkpt lat="43.4093" lon="2.25866">
        <ele>745.16</ele>
        <time>2015-06-14T09:16:32Z</time>
      </trkpt>
      <trkpt lat="43.40951" lon="2.25903">
        <ele>746.12</ele>
        <time>2015-06-14T09:16:47Z</time>
      </trkpt>
      <trkpt lat="43.40963" lon="2.25937">
        <ele>749.49</ele>
        <time>2015-06-14T09:17:01Z</time>
      </trkpt>
      <trkpt lat="43.40951" lon="2.25977">
        <ele>750.45</ele>
        <time>2015-06-14T09:17:15Z</time>
      </trkpt>
      <trkpt lat="43.40948" lon="2.25981">
        <ele>752.37</ele>
        <time>2015-06-14T09:17:18Z</time>
      </trkpt>
      <trkpt lat="43.40945" lon="2.25985">
        <ele>753.81</ele>
        <time>2015-06-14T09:17:20Z</time>
      </trkpt>
      <trkpt lat="43.40944" lon="2.25987">
        <ele>754.29</ele>
        <time>2015-06-14T09:17:21Z</time>
      </trkpt>
      <trkpt lat="43.4092" lon="2.26001">
        <ele>764.87</ele>
        <time>2015-06-14T09:17:32Z</time>
      </trkpt>
      <trkpt lat="43.40891" lon="2.26017">
        <ele>778.32</ele>
        <time>2015-06-14T09:17:44Z</time>
      </trkpt>
      <trkpt lat="43.40868" lon="2.26032">
        <ele>790.82</ele>
        <time>2015-06-14T09:17:56Z</time>
      </trkpt>
      <trkpt lat="43.40852" lon="2.26055">
        <ele>796.11</ele>
        <time>2015-06-14T09:18:04Z</time>
      </trkpt>
      <trkpt lat="43.40833" lon="2.26099">
        <ele>801.4</ele>
        <time>2015-06-14T09:18:18Z</time>
      </trkpt>
      <trkpt lat="43.40834" lon="2.26124">
        <ele>807.16</ele>
        <time>2015-06-14T09:18:27Z</time>
      </trkpt>
      <trkpt lat="43.40833" lon="2.26127">
        <ele>808.13</ele>
        <time>2015-06-14T09:18:28Z</time>
      </trkpt>
      <trkpt lat="43.40805" lon="2.26169">
        <ele>819.18</ele>
        <time>2015-06-14T09:18:43Z</time>
      </trkpt>
      <trkpt lat="43.40786" lon="2.26201">
        <ele>828.31</ele>
        <time>2015-06-14T09:18:55Z</time>
      </trkpt>
      <trkpt lat="43.40787" lon="2.26211">
        <ele>829.76</ele>
        <time>2015-06-14T09:18:58Z</time>
      </trkpt>
      <trkpt lat="43.40795" lon="2.26244">
        <ele>831.2</ele>
        <time>2015-06-14T09:19:08Z</time>
      </trkpt>
      <trkpt lat="43.40802" lon="2.26287">
        <ele>827.35</ele>
        <time>2015-06-14T09:19:19Z</time>
      </trkpt>
      <trkpt lat="43.40805" lon="2.26309">
        <ele>823.03</ele>
        <time>2015-06-14T09:19:28Z</time>
      </trkpt>
      <trkpt lat="43.40806" lon="2.26314">
        <ele>823.03</ele>
        <time>2015-06-14T09:19:29Z</time>
      </trkpt>
      <trkpt lat="43.40806" lon="2.26317">
        <ele>822.55</ele>
        <time>2015-06-14T09:19:30Z</time>
      </trkpt>
      <trkpt lat="43.40806" lon="2.26321">
        <ele>822.55</ele>
        <time>2015-06-14T09:19:31Z</time>
      </trkpt>
      <trkpt lat="43.40807" lon="2.26325">
        <ele>822.55</ele>
        <time>2015-06-14T09:19:32Z</time>
      </trkpt>
      <trkpt lat="43.40807" lon="2.26331">
        <ele>822.06</ele>
        <time>2015-06-14T09:19:33Z</time>
      </trkpt>
      <trkpt lat="43.40808" lon="2.26337">
        <ele>822.06</ele>
        <time>2015-06-14T09:19:34Z</time>
      </trkpt>
      <trkpt lat="43.40804" lon="2.26395">
        <ele>820.62</ele>
        <time>2015-06-14T09:19:45Z</time>
      </trkpt>
      <trkpt lat="43.40805" lon="2.26427">
        <ele>819.18</ele>
        <time>2015-06-14T09:19:51Z</time>
      </trkpt>
      <trkpt lat="43.40813" lon="2.26504">
        <ele>811.49</ele>
        <time>2015-06-14T09:20:05Z</time>
      </trkpt>
      <trkpt lat="43.40814" lon="2.26525">
        <ele>810.53</ele>
        <time>2015-06-14T09:20:10Z</time>
      </trkpt>
      <trkpt lat="43.40813" lon="2.26531">
        <ele>810.53</ele>
        <time>2015-06-14T09:20:11Z</time>
      </trkpt>
      <trkpt lat="43.40801" lon="2.26581">
        <ele>811.97</ele>
        <time>2015-06-14T09:20:23Z</time>
      </trkpt>
      <trkpt lat="43.40803" lon="2.26624">
        <ele>816.78</ele>
        <time>2015-06-14T09:20:37Z</time>
      </trkpt>
      <trkpt lat="43.40809" lon="2.26644">
        <ele>815.34</ele>
        <time>2015-06-14T09:20:43Z</time>
      </trkpt>
      <trkpt lat="43.40813" lon="2.26657">
        <ele>814.37</ele>
        <time>2015-06-14T09:20:44Z</time>
      </trkpt>
      <trkpt lat="43.40817" lon="2.26666">
        <ele>814.37</ele>
        <time>2015-06-14T09:20:45Z</time>
      </trkpt>
      <trkpt lat="43.40819" lon="2.26669">
        <ele>814.37</ele>
        <time>2015-06-14T09:20:46Z</time>
      </trkpt>
      <trkpt lat="43.40823" lon="2.26677">
        <ele>814.85</ele>
        <time>2015-06-14T09:20:47Z</time>
      </trkpt>
      <trkpt lat="43.40825" lon="2.26683">
        <ele>814.85</ele>
        <time>2015-06-14T09:20:48Z</time>
      </trkpt>
      <trkpt lat="43.40842" lon="2.26747">
        <ele>811.97</ele>
        <time>2015-06-14T09:20:59Z</time>
      </trkpt>
      <trkpt lat="43.40841" lon="2.26754">
        <ele>812.45</ele>
        <time>2015-06-14T09:21:01Z</time>
      </trkpt>
      <trkpt lat="43.40841" lon="2.26757">
        <ele>811.97</ele>
        <time>2015-06-14T09:21:02Z</time>
      </trkpt>
      <trkpt lat="43.40843" lon="2.26765">
        <ele>811.49</ele>
        <time>2015-06-14T09:21:03Z</time>
      </trkpt>
      <trkpt lat="43.40844" lon="2.2678">
        <ele>809.57</ele>
        <time>2015-06-14T09:21:17Z</time>
      </trkpt>
      <trkpt lat="43.40844" lon="2.2678">
        <ele>809.09</ele>
        <time>2015-06-14T09:21:27Z</time>
      </trkpt>
      <trkpt lat="43.40845" lon="2.26779">
        <ele>809.57</ele>
        <time>2015-06-14T09:21:28Z</time>
      </trkpt>
      <trkpt lat="43.40846" lon="2.26778">
        <ele>809.57</ele>
        <time>2015-06-14T09:21:29Z</time>
      </trkpt>
      <trkpt lat="43.4085" lon="2.26775">
        <ele>810.05</ele>
        <time>2015-06-14T09:21:32Z</time>
      </trkpt>
      <trkpt lat="43.4085" lon="2.26777">
        <ele>810.53</ele>
        <time>2015-06-14T09:21:33Z</time>
      </trkpt>
      <trkpt lat="43.4085" lon="2.26778">
        <ele>810.53</ele>
        <time>2015-06-14T09:21:34Z</time>
      </trkpt>
      <trkpt lat="43.40849" lon="2.26779">
        <ele>811.01</ele>
        <time>2015-06-14T09:21:35Z</time>
      </trkpt>
      <trkpt lat="43.40848" lon="2.26779">
        <ele>811.49</ele>
        <time>2015-06-14T09:21:36Z</time>
      </trkpt>
      <trkpt lat="43.4084" lon="2.26784">
        <ele>813.89</ele>
        <time>2015-06-14T09:21:46Z</time>
      </trkpt>
      <trkpt lat="43.40839" lon="2.26784">
        <ele>813.89</ele>
        <time>2015-06-14T09:21:47Z</time>
      </trkpt>
      <trkpt lat="43.40838" lon="2.26785">
        <ele>813.89</ele>
        <time>2015-06-14T09:21:48Z</time>
      </trkpt>
      <trkpt lat="43.40837" lon="2.26785">
        <ele>813.89</ele>
        <time>2015-06-14T09:21:49Z</time>
      </trkpt>
      <trkpt lat="43.40836" lon="2.26784">
        <ele>813.89</ele>
        <time>2015-06-14T09:21:50Z</time>
      </trkpt>
      <trkpt lat="43.40834" lon="2.26784">
        <ele>814.85</ele>
        <time>2015-06-14T09:21:52Z</time>
      </trkpt>
      <trkpt lat="43.40832" lon="2.26785">
        <ele>815.34</ele>
        <time>2015-06-14T09:21:53Z</time>
      </trkpt>
      <trkpt lat="43.4083" lon="2.26784">
        <ele>815.82</ele>
        <time>2015-06-14T09:21:54Z</time>
      </trkpt>
      <trkpt lat="43.40828" lon="2.26784">
        <ele>815.82</ele>
        <time>2015-06-14T09:21:55Z</time>
      </trkpt>
      <trkpt lat="43.40826" lon="2.26784">
        <ele>816.78</ele>
        <time>2015-06-14T09:21:56Z</time>
      </trkpt>
      <trkpt lat="43.40824" lon="2.26784">
        <ele>817.26</ele>
        <time>2015-06-14T09:21:57Z</time>
      </trkpt>
      <trkpt lat="43.40793" lon="2.26783">
        <ele>828.79</ele>
        <time>2015-06-14T09:22:09Z</time>
      </trkpt>
      <trkpt lat="43.40785" lon="2.26782">
        <ele>830.72</ele>
        <time>2015-06-14T09:22:11Z</time>
      </trkpt>
      <trkpt lat="43.40744" lon="2.26775">
        <ele>830.24</ele>
        <time>2015-06-14T09:22:19Z</time>
      </trkpt>
      <trkpt lat="43.40738" lon="2.26776">
        <ele>830.24</ele>
        <time>2015-06-14T09:22:20Z</time>
      </trkpt>
      <trkpt lat="43.40727" lon="2.26778">
        <ele>830.24</ele>
        <time>2015-06-14T09:22:22Z</time>
      </trkpt>
      <trkpt lat="43.40722" lon="2.26778">
        <ele>830.24</ele>
        <time>2015-06-14T09:22:23Z</time>
      </trkpt>
      <trkpt lat="43.40717" lon="2.26779">
        <ele>830.24</ele>
        <time>2015-06-14T09:22:24Z</time>
      </trkpt>
      <trkpt lat="43.40712" lon="2.26779">
        <ele>830.24</ele>
        <time>2015-06-14T09:22:25Z</time>
      </trkpt>
      <trkpt lat="43.40706" lon="2.26781">
        <ele>830.24</ele>
        <time>2015-06-14T09:22:26Z</time>
      </trkpt>
      <trkpt lat="43.407" lon="2.26784">
        <ele>829.76</ele>
        <time>2015-06-14T09:22:27Z</time>
      </trkpt>
      <trkpt lat="43.40693" lon="2.26787">
        <ele>829.76</ele>
        <time>2015-06-14T09:22:28Z</time>
      </trkpt>
      <trkpt lat="43.40688" lon="2.26791">
        <ele>829.76</ele>
        <time>2015-06-14T09:22:29Z</time>
      </trkpt>
      <trkpt lat="43.40682" lon="2.26796">
        <ele>830.24</ele>
        <time>2015-06-14T09:22:30Z</time>
      </trkpt>
      <trkpt lat="43.40676" lon="2.26802">
        <ele>829.76</ele>
        <time>2015-06-14T09:22:31Z</time>
      </trkpt>
      <trkpt lat="43.40669" lon="2.26809">
        <ele>829.27</ele>
        <time>2015-06-14T09:22:32Z</time>
      </trkpt>
      <trkpt lat="43.40649" lon="2.26826">
        <ele>827.83</ele>
        <time>2015-06-14T09:22:34Z</time>
      </trkpt>
      <trkpt lat="43.40638" lon="2.26833">
        <ele>826.87</ele>
        <time>2015-06-14T09:22:35Z</time>
      </trkpt>
      <trkpt lat="43.40627" lon="2.26838">
        <ele>826.87</ele>
        <time>2015-06-14T09:22:36Z</time>
      </trkpt>
      <trkpt lat="43.40615" lon="2.26839">
        <ele>825.91</ele>
        <time>2015-06-14T09:22:37Z</time>
      </trkpt>
      <trkpt lat="43.40604" lon="2.26838">
        <ele>824.95</ele>
        <time>2015-06-14T09:22:38Z</time>
      </trkpt>
      <trkpt lat="43.40594" lon="2.26833">
        <ele>824.47</ele>
        <time>2015-06-14T09:22:39Z</time>
      </trkpt>
      <trkpt lat="43.40585" lon="2.26828">
        <ele>823.99</ele>
        <time>2015-06-14T09:22:40Z</time>
      </trkpt>
      <trkpt lat="43.40576" lon="2.26824">
        <ele>823.51</ele>
        <time>2015-06-14T09:22:41Z</time>
      </trkpt>
      <trkpt lat="43.40567" lon="2.2682">
        <ele>823.51</ele>
        <time>2015-06-14T09:22:42Z</time>
      </trkpt>
      <trkpt lat="43.40558" lon="2.26818">
        <ele>823.03</ele>
        <time>2015-06-14T09:22:43Z</time>
      </trkpt>
      <trkpt lat="43.40542" lon="2.26815">
        <ele>822.55</ele>
        <time>2015-06-14T09:22:45Z</time>
      </trkpt>
      <trkpt lat="43.40534" lon="2.26812">
        <ele>822.55</ele>
        <time>2015-06-14T09:22:46Z</time>
      </trkpt>
      <trkpt lat="43.40527" lon="2.26808">
        <ele>822.06</ele>
        <time>2015-06-14T09:22:47Z</time>
      </trkpt>
      <trkpt lat="43.40514" lon="2.26799">
        <ele>821.1</ele>
        <time>2015-06-14T09:22:49Z</time>
      </trkpt>
      <trkpt lat="43.40504" lon="2.2679">
        <ele>820.62</ele>
        <time>2015-06-14T09:22:51Z</time>
      </trkpt>
      <trkpt lat="43.40499" lon="2.26786">
        <ele>820.62</ele>
        <time>2015-06-14T09:22:52Z</time>
      </trkpt>
      <trkpt lat="43.40494" lon="2.26782">
        <ele>820.62</ele>
        <time>2015-06-14T09:22:53Z</time>
      </trkpt>
      <trkpt lat="43.4049" lon="2.26778">
        <ele>820.14</ele>
        <time>2015-06-14T09:22:54Z</time>
      </trkpt>
      <trkpt lat="43.40485" lon="2.26774">
        <ele>820.14</ele>
        <time>2015-06-14T09:22:55Z</time>
      </trkpt>
      <trkpt lat="43.40457" lon="2.26748">
        <ele>819.18</ele>
        <time>2015-06-14T09:23:01Z</time>
      </trkpt>
      <trkpt lat="43.40433" lon="2.26727">
        <ele>817.26</ele>
        <time>2015-06-14T09:23:06Z</time>
      </trkpt>
      <trkpt lat="43.40422" lon="2.2672">
        <ele>816.78</ele>
        <time>2015-06-14T09:23:08Z</time>
      </trkpt>
      <trkpt lat="43.4041" lon="2.26714">
        <ele>816.3</ele>
        <time>2015-06-14T09:23:10Z</time>
      </trkpt>
      <trkpt lat="43.40404" lon="2.26712">
        <ele>815.82</ele>
        <time>2015-06-14T09:23:11Z</time>
      </trkpt>
      <trkpt lat="43.40358" lon="2.26702">
        <ele>819.66</ele>
        <time>2015-06-14T09:23:20Z</time>
      </trkpt>
      <trkpt lat="43.40298" lon="2.26672">
        <ele>823.99</ele>
        <time>2015-06-14T09:23:31Z</time>
      </trkpt>
      <trkpt lat="43.40292" lon="2.26669">
        <ele>823.99</ele>
        <time>2015-06-14T09:23:32Z</time>
      </trkpt>
      <trkpt lat="43.4023" lon="2.2664">
        <ele>826.39</ele>
        <time>2015-06-14T09:23:42Z</time>
      </trkpt>
      <trkpt lat="43.4022" lon="2.26638">
        <ele>825.91</ele>
        <time>2015-06-14T09:23:43Z</time>
      </trkpt>
      <trkpt lat="43.40145" lon="2.26627">
        <ele>822.06</ele>
        <time>2015-06-14T09:23:52Z</time>
      </trkpt>
      <trkpt lat="43.4013" lon="2.2663">
        <ele>820.62</ele>
        <time>2015-06-14T09:23:54Z</time>
      </trkpt>
      <trkpt lat="43.40124" lon="2.26632">
        <ele>820.62</ele>
        <time>2015-06-14T09:23:55Z</time>
      </trkpt>
      <trkpt lat="43.40044" lon="2.26682">
        <ele>818.7</ele>
        <time>2015-06-14T09:24:08Z</time>
      </trkpt>
      <trkpt lat="43.40014" lon="2.26703">
        <ele>816.78</ele>
        <time>2015-06-14T09:24:13Z</time>
      </trkpt>
      <trkpt lat="43.40004" lon="2.26709">
        <ele>816.78</ele>
        <time>2015-06-14T09:24:15Z</time>
      </trkpt>
      <trkpt lat="43.4" lon="2.26711">
        <ele>816.78</ele>
        <time>2015-06-14T09:24:16Z</time>
      </trkpt>
      <trkpt lat="43.39969" lon="2.26729">
        <ele>818.7</ele>
        <time>2015-06-14T09:24:23Z</time>
      </trkpt>
      <trkpt lat="43.39965" lon="2.26732">
        <ele>818.7</ele>
        <time>2015-06-14T09:24:24Z</time>
      </trkpt>
      <trkpt lat="43.39934" lon="2.26755">
        <ele>823.51</ele>
        <time>2015-06-14T09:24:31Z</time>
      </trkpt>
      <trkpt lat="43.39929" lon="2.26759">
        <ele>823.99</ele>
        <time>2015-06-14T09:24:32Z</time>
      </trkpt>
      <trkpt lat="43.39917" lon="2.26769">
        <ele>825.91</ele>
        <time>2015-06-14T09:24:35Z</time>
      </trkpt>
      <trkpt lat="43.39913" lon="2.26773">
        <ele>826.39</ele>
        <time>2015-06-14T09:24:36Z</time>
      </trkpt>
      <trkpt lat="43.39905" lon="2.2678">
        <ele>826.87</ele>
        <time>2015-06-14T09:24:38Z</time>
      </trkpt>
      <trkpt lat="43.399" lon="2.26784">
        <ele>827.35</ele>
        <time>2015-06-14T09:24:39Z</time>
      </trkpt>
      <trkpt lat="43.39848" lon="2.26819">
        <ele>835.52</ele>
        <time>2015-06-14T09:24:52Z</time>
      </trkpt>
      <trkpt lat="43.39833" lon="2.2683">
        <ele>837.93</ele>
        <time>2015-06-14T09:24:56Z</time>
      </trkpt>
      <trkpt lat="43.39828" lon="2.26833">
        <ele>837.93</ele>
        <time>2015-06-14T09:24:57Z</time>
      </trkpt>
      <trkpt lat="43.3982" lon="2.2684">
        <ele>838.41</ele>
        <time>2015-06-14T09:24:59Z</time>
      </trkpt>
      <trkpt lat="43.39762" lon="2.26892">
        <ele>838.89</ele>
        <time>2015-06-14T09:25:13Z</time>
      </trkpt>
      <trkpt lat="43.39699" lon="2.26951">
        <ele>828.31</ele>
        <time>2015-06-14T09:25:28Z</time>
      </trkpt>
      <trkpt lat="43.3968" lon="2.26967">
        <ele>822.06</ele>
        <time>2015-06-14T09:25:33Z</time>
      </trkpt>
      <trkpt lat="43.39676" lon="2.2697">
        <ele>821.58</ele>
        <time>2015-06-14T09:25:34Z</time>
      </trkpt>
      <trkpt lat="43.39608" lon="2.27035">
        <ele>814.37</ele>
        <time>2015-06-14T09:25:51Z</time>
      </trkpt>
      <trkpt lat="43.39534" lon="2.27101">
        <ele>813.41</ele>
        <time>2015-06-14T09:26:07Z</time>
      </trkpt>
      <trkpt lat="43.395" lon="2.2713">
        <ele>813.41</ele>
        <time>2015-06-14T09:26:14Z</time>
      </trkpt>
      <trkpt lat="43.39455" lon="2.27163">
        <ele>814.37</ele>
        <time>2015-06-14T09:26:23Z</time>
      </trkpt>
      <trkpt lat="43.39449" lon="2.27165">
        <ele>814.85</ele>
        <time>2015-06-14T09:26:24Z</time>
      </trkpt>
      <trkpt lat="43.39444" lon="2.27166">
        <ele>814.85</ele>
        <time>2015-06-14T09:26:25Z</time>
      </trkpt>
      <trkpt lat="43.39438" lon="2.27167">
        <ele>814.85</ele>
        <time>2015-06-14T09:26:26Z</time>
      </trkpt>
      <trkpt lat="43.39432" lon="2.27167">
        <ele>814.85</ele>
        <time>2015-06-14T09:26:27Z</time>
      </trkpt>
      <trkpt lat="43.39427" lon="2.27167">
        <ele>814.37</ele>
        <time>2015-06-14T09:26:28Z</time>
      </trkpt>
      <trkpt lat="43.39381" lon="2.27163">
        <ele>811.49</ele>
        <time>2015-06-14T09:26:35Z</time>
      </trkpt>
      <trkpt lat="43.39366" lon="2.27165">
        <ele>810.05</ele>
        <time>2015-06-14T09:26:37Z</time>
      </trkpt>
      <trkpt lat="43.39358" lon="2.27168">
        <ele>809.57</ele>
        <time>2015-06-14T09:26:38Z</time>
      </trkpt>
      <trkpt lat="43.39245" lon="2.27222">
        <ele>800.44</ele>
        <time>2015-06-14T09:26:51Z</time>
      </trkpt>
      <trkpt lat="43.39126" lon="2.27261">
        <ele>791.3</ele>
        <time>2015-06-14T09:27:03Z</time>
      </trkpt>
      <trkpt lat="43.38984" lon="2.2729">
        <ele>779.77</ele>
        <time>2015-06-14T09:27:15Z</time>
      </trkpt>
      <trkpt lat="43.38809" lon="2.2731">
        <ele>763.42</ele>
        <time>2015-06-14T09:27:28Z</time>
      </trkpt>
      <trkpt lat="43.38615" lon="2.27323">
        <ele>744.2</ele>
        <time>2015-06-14T09:27:41Z</time>
      </trkpt>
      <trkpt lat="43.38453" lon="2.27331">
        <ele>728.82</ele>
        <time>2015-06-14T09:27:51Z</time>
      </trkpt>
      <trkpt lat="43.38437" lon="2.27334">
        <ele>727.86</ele>
        <time>2015-06-14T09:27:52Z</time>
      </trkpt>
      <trkpt lat="43.38274" lon="2.27362">
        <ele>716.8</ele>
        <time>2015-06-14T09:28:03Z</time>
      </trkpt>
      <trkpt lat="43.38147" lon="2.27343">
        <ele>709.59</ele>
        <time>2015-06-14T09:28:13Z</time>
      </trkpt>
      <trkpt lat="43.38074" lon="2.27319">
        <ele>705.75</ele>
        <time>2015-06-14T09:28:19Z</time>
      </trkpt>
      <trkpt lat="43.38063" lon="2.27311">
        <ele>705.26</ele>
        <time>2015-06-14T09:28:20Z</time>
      </trkpt>
      <trkpt lat="43.37929" lon="2.27179">
        <ele>693.73</ele>
        <time>2015-06-14T09:28:33Z</time>
      </trkpt>
      <trkpt lat="43.37832" lon="2.27079">
        <ele>686.04</ele>
        <time>2015-06-14T09:28:43Z</time>
      </trkpt>
      <trkpt lat="43.37821" lon="2.27075">
        <ele>685.08</ele>
        <time>2015-06-14T09:28:44Z</time>
      </trkpt>
      <trkpt lat="43.37809" lon="2.27076">
        <ele>684.12</ele>
        <time>2015-06-14T09:28:45Z</time>
      </trkpt>
      <trkpt lat="43.37797" lon="2.2708">
        <ele>683.15</ele>
        <time>2015-06-14T09:28:46Z</time>
      </trkpt>
      <trkpt lat="43.37787" lon="2.27088">
        <ele>681.71</ele>
        <time>2015-06-14T09:28:47Z</time>
      </trkpt>
      <trkpt lat="43.37778" lon="2.27097">
        <ele>680.75</ele>
        <time>2015-06-14T09:28:48Z</time>
      </trkpt>
      <trkpt lat="43.37659" lon="2.27247">
        <ele>667.29</ele>
        <time>2015-06-14T09:29:01Z</time>
      </trkpt>
      <trkpt lat="43.37524" lon="2.27456">
        <ele>653.83</ele>
        <time>2015-06-14T09:29:15Z</time>
      </trkpt>
      <trkpt lat="43.37456" lon="2.27559">
        <ele>641.82</ele>
        <time>2015-06-14T09:29:22Z</time>
      </trkpt>
      <trkpt lat="43.37446" lon="2.27578">
        <ele>639.41</ele>
        <time>2015-06-14T09:29:24Z</time>
      </trkpt>
      <trkpt lat="43.37441" lon="2.27582">
        <ele>637.97</ele>
        <time>2015-06-14T09:29:25Z</time>
      </trkpt>
      <trkpt lat="43.37436" lon="2.27582">
        <ele>637.01</ele>
        <time>2015-06-14T09:29:26Z</time>
      </trkpt>
      <trkpt lat="43.37431" lon="2.27577">
        <ele>636.53</ele>
        <time>2015-06-14T09:29:27Z</time>
      </trkpt>
      <trkpt lat="43.37429" lon="2.2757">
        <ele>636.05</ele>
        <time>2015-06-14T09:29:28Z</time>
      </trkpt>
      <trkpt lat="43.37428" lon="2.2756">
        <ele>635.57</ele>
        <time>2015-06-14T09:29:29Z</time>
      </trkpt>
      <trkpt lat="43.37428" lon="2.27549">
        <ele>634.61</ele>
        <time>2015-06-14T09:29:30Z</time>
      </trkpt>
      <trkpt lat="43.37428" lon="2.27537">
        <ele>633.65</ele>
        <time>2015-06-14T09:29:31Z</time>
      </trkpt>
      <trkpt lat="43.37435" lon="2.27445">
        <ele>628.36</ele>
        <time>2015-06-14T09:29:38Z</time>
      </trkpt>
      <trkpt lat="43.37471" lon="2.27292">
        <ele>619.23</ele>
        <time>2015-06-14T09:29:48Z</time>
      </trkpt>
      <trkpt lat="43.37493" lon="2.27223">
        <ele>614.9</ele>
        <time>2015-06-14T09:29:53Z</time>
      </trkpt>
      <trkpt lat="43.37492" lon="2.27216">
        <ele>614.42</ele>
        <time>2015-06-14T09:29:54Z</time>
      </trkpt>
      <trkpt lat="43.37489" lon="2.27211">
        <ele>613.94</ele>
        <time>2015-06-14T09:29:55Z</time>
      </trkpt>
      <trkpt lat="43.37484" lon="2.27211">
        <ele>613.94</ele>
        <time>2015-06-14T09:29:56Z</time>
      </trkpt>
      <trkpt lat="43.3748" lon="2.27215">
        <ele>612.98</ele>
        <time>2015-06-14T09:29:57Z</time>
      </trkpt>
      <trkpt lat="43.37476" lon="2.27222">
        <ele>612.02</ele>
        <time>2015-06-14T09:29:58Z</time>
      </trkpt>
      <trkpt lat="43.37473" lon="2.27231">
        <ele>611.54</ele>
        <time>2015-06-14T09:29:59Z</time>
      </trkpt>
      <trkpt lat="43.37451" lon="2.27282">
        <ele>608.17</ele>
        <time>2015-06-14T09:30:04Z</time>
      </trkpt>
      <trkpt lat="43.37366" lon="2.27415">
        <ele>602.4</ele>
        <time>2015-06-14T09:30:16Z</time>
      </trkpt>
      <trkpt lat="43.3727" lon="2.27554">
        <ele>594.71</ele>
        <time>2015-06-14T09:30:27Z</time>
      </trkpt>
      <trkpt lat="43.37152" lon="2.27668">
        <ele>583.66</ele>
        <time>2015-06-14T09:30:38Z</time>
      </trkpt>
      <trkpt lat="43.37117" lon="2.27697">
        <ele>579.81</ele>
        <time>2015-06-14T09:30:41Z</time>
      </trkpt>
      <trkpt lat="43.37065" lon="2.27768">
        <ele>572.6</ele>
        <time>2015-06-14T09:30:46Z</time>
      </trkpt>
      <trkpt lat="43.37057" lon="2.27785">
        <ele>571.16</ele>
        <time>2015-06-14T09:30:47Z</time>
      </trkpt>
      <trkpt lat="43.37051" lon="2.27802">
        <ele>569.24</ele>
        <time>2015-06-14T09:30:48Z</time>
      </trkpt>
      <trkpt lat="43.37021" lon="2.27905">
        <ele>559.62</ele>
        <time>2015-06-14T09:30:56Z</time>
      </trkpt>
      <trkpt lat="43.37019" lon="2.27912">
        <ele>558.66</ele>
        <time>2015-06-14T09:30:57Z</time>
      </trkpt>
      <trkpt lat="43.37006" lon="2.27935">
        <ele>553.86</ele>
        <time>2015-06-14T09:31:05Z</time>
      </trkpt>
      <trkpt lat="43.37001" lon="2.27931">
        <ele>552.9</ele>
        <time>2015-06-14T09:31:06Z</time>
      </trkpt>
      <trkpt lat="43.36985" lon="2.27922">
        <ele>550.49</ele>
        <time>2015-06-14T09:31:08Z</time>
      </trkpt>
      <trkpt lat="43.36969" lon="2.27903">
        <ele>549.05</ele>
        <time>2015-06-14T09:31:10Z</time>
      </trkpt>
      <trkpt lat="43.36961" lon="2.27889">
        <ele>548.57</ele>
        <time>2015-06-14T09:31:11Z</time>
      </trkpt>
      <trkpt lat="43.36954" lon="2.27874">
        <ele>547.61</ele>
        <time>2015-06-14T09:31:12Z</time>
      </trkpt>
      <trkpt lat="43.36937" lon="2.27819">
        <ele>544.24</ele>
        <time>2015-06-14T09:31:15Z</time>
      </trkpt>
      <trkpt lat="43.36935" lon="2.27798">
        <ele>542.8</ele>
        <time>2015-06-14T09:31:16Z</time>
      </trkpt>
      <trkpt lat="43.36935" lon="2.27776">
        <ele>541.36</ele>
        <time>2015-06-14T09:31:17Z</time>
      </trkpt>
      <trkpt lat="43.36936" lon="2.27753">
        <ele>539.92</ele>
        <time>2015-06-14T09:31:18Z</time>
      </trkpt>
      <trkpt lat="43.36939" lon="2.27729">
        <ele>537.99</ele>
        <time>2015-06-14T09:31:19Z</time>
      </trkpt>
      <trkpt lat="43.36944" lon="2.27707">
        <ele>536.07</ele>
        <time>2015-06-14T09:31:20Z</time>
      </trkpt>
      <trkpt lat="43.3695" lon="2.27684">
        <ele>534.63</ele>
        <time>2015-06-14T09:31:21Z</time>
      </trkpt>
      <trkpt lat="43.36981" lon="2.27548">
        <ele>520.69</ele>
        <time>2015-06-14T09:31:28Z</time>
      </trkpt>
      <trkpt lat="43.36983" lon="2.27537">
        <ele>518.77</ele>
        <time>2015-06-14T09:31:29Z</time>
      </trkpt>
      <trkpt lat="43.36984" lon="2.2753">
        <ele>516.85</ele>
        <time>2015-06-14T09:31:30Z</time>
      </trkpt>
      <trkpt lat="43.36983" lon="2.27524">
        <ele>514.92</ele>
        <time>2015-06-14T09:31:31Z</time>
      </trkpt>
      <trkpt lat="43.36982" lon="2.27518">
        <ele>513.48</ele>
        <time>2015-06-14T09:31:32Z</time>
      </trkpt>
      <trkpt lat="43.36981" lon="2.27512">
        <ele>512.52</ele>
        <time>2015-06-14T09:31:33Z</time>
      </trkpt>
      <trkpt lat="43.3698" lon="2.27504">
        <ele>511.56</ele>
        <time>2015-06-14T09:31:34Z</time>
      </trkpt>
      <trkpt lat="43.36979" lon="2.27495">
        <ele>511.08</ele>
        <time>2015-06-14T09:31:35Z</time>
      </trkpt>
      <trkpt lat="43.36977" lon="2.27488">
        <ele>510.6</ele>
        <time>2015-06-14T09:31:36Z</time>
      </trkpt>
      <trkpt lat="43.36963" lon="2.2742">
        <ele>508.19</ele>
        <time>2015-06-14T09:31:44Z</time>
      </trkpt>
      <trkpt lat="43.36948" lon="2.27386">
        <ele>507.23</ele>
        <time>2015-06-14T09:31:48Z</time>
      </trkpt>
      <trkpt lat="43.36943" lon="2.27378">
        <ele>507.23</ele>
        <time>2015-06-14T09:31:49Z</time>
      </trkpt>
      <trkpt lat="43.36937" lon="2.27372">
        <ele>507.23</ele>
        <time>2015-06-14T09:31:50Z</time>
      </trkpt>
      <trkpt lat="43.36902" lon="2.2733">
        <ele>508.19</ele>
        <time>2015-06-14T09:31:56Z</time>
      </trkpt>
      <trkpt lat="43.36879" lon="2.27285">
        <ele>508.19</ele>
        <time>2015-06-14T09:32:01Z</time>
      </trkpt>
      <trkpt lat="43.36873" lon="2.27278">
        <ele>508.19</ele>
        <time>2015-06-14T09:32:02Z</time>
      </trkpt>
      <trkpt lat="43.36866" lon="2.27272">
        <ele>508.19</ele>
        <time>2015-06-14T09:32:03Z</time>
      </trkpt>
      <trkpt lat="43.36838" lon="2.27256">
        <ele>507.71</ele>
        <time>2015-06-14T09:32:07Z</time>
      </trkpt>
      <trkpt lat="43.36804" lon="2.27238">
        <ele>506.75</ele>
        <time>2015-06-14T09:32:12Z</time>
      </trkpt>
      <trkpt lat="43.36791" lon="2.27231">
        <ele>506.75</ele>
        <time>2015-06-14T09:32:14Z</time>
      </trkpt>
      <trkpt lat="43.36759" lon="2.27214">
        <ele>506.27</ele>
        <time>2015-06-14T09:32:19Z</time>
      </trkpt>
      <trkpt lat="43.36754" lon="2.27209">
        <ele>505.79</ele>
        <time>2015-06-14T09:32:20Z</time>
      </trkpt>
      <trkpt lat="43.3675" lon="2.27202">
        <ele>505.31</ele>
        <time>2015-06-14T09:32:21Z</time>
      </trkpt>
      <trkpt lat="43.36747" lon="2.27193">
        <ele>504.83</ele>
        <time>2015-06-14T09:32:22Z</time>
      </trkpt>
      <trkpt lat="43.36747" lon="2.27184">
        <ele>504.35</ele>
        <time>2015-06-14T09:32:23Z</time>
      </trkpt>
      <trkpt lat="43.36749" lon="2.27175">
        <ele>504.35</ele>
        <time>2015-06-14T09:32:24Z</time>
      </trkpt>
      <trkpt lat="43.36752" lon="2.27166">
        <ele>503.87</ele>
        <time>2015-06-14T09:32:25Z</time>
      </trkpt>
      <trkpt lat="43.36755" lon="2.27159">
        <ele>503.87</ele>
        <time>2015-06-14T09:32:26Z</time>
      </trkpt>
      <trkpt lat="43.36765" lon="2.27137">
        <ele>502.91</ele>
        <time>2015-06-14T09:32:29Z</time>
      </trkpt>
      <trkpt lat="43.36767" lon="2.27129">
        <ele>502.91</ele>
        <time>2015-06-14T09:32:30Z</time>
      </trkpt>
      <trkpt lat="43.36768" lon="2.2712">
        <ele>502.91</ele>
        <time>2015-06-14T09:32:31Z</time>
      </trkpt>
      <trkpt lat="43.36767" lon="2.27112">
        <ele>502.91</ele>
        <time>2015-06-14T09:32:32Z</time>
      </trkpt>
      <trkpt lat="43.36765" lon="2.27104">
        <ele>502.91</ele>
        <time>2015-06-14T09:32:33Z</time>
      </trkpt>
      <trkpt lat="43.36762" lon="2.27096">
        <ele>502.43</ele>
        <time>2015-06-14T09:32:34Z</time>
      </trkpt>
      <trkpt lat="43.36759" lon="2.27088">
        <ele>502.43</ele>
        <time>2015-06-14T09:32:35Z</time>
      </trkpt>
      <trkpt lat="43.36754" lon="2.27081">
        <ele>502.43</ele>
        <time>2015-06-14T09:32:36Z</time>
      </trkpt>
      <trkpt lat="43.36749" lon="2.27075">
        <ele>501.95</ele>
        <time>2015-06-14T09:32:37Z</time>
      </trkpt>
      <trkpt lat="43.36743" lon="2.27069">
        <ele>501.95</ele>
        <time>2015-06-14T09:32:38Z</time>
      </trkpt>
      <trkpt lat="43.36736" lon="2.27064">
        <ele>501.95</ele>
        <time>2015-06-14T09:32:39Z</time>
      </trkpt>
      <trkpt lat="43.3673" lon="2.27059">
        <ele>502.43</ele>
        <time>2015-06-14T09:32:40Z</time>
      </trkpt>
      <trkpt lat="43.3671" lon="2.27046">
        <ele>502.43</ele>
        <time>2015-06-14T09:32:43Z</time>
      </trkpt>
      <trkpt lat="43.36691" lon="2.27045">
        <ele>503.39</ele>
        <time>2015-06-14T09:32:46Z</time>
      </trkpt>
      <trkpt lat="43.36677" lon="2.27047">
        <ele>504.83</ele>
        <time>2015-06-14T09:32:48Z</time>
      </trkpt>
      <trkpt lat="43.3667" lon="2.27043">
        <ele>504.83</ele>
        <time>2015-06-14T09:32:49Z</time>
      </trkpt>
      <trkpt lat="43.36664" lon="2.27035">
        <ele>504.83</ele>
        <time>2015-06-14T09:32:50Z</time>
      </trkpt>
      <trkpt lat="43.36661" lon="2.27026">
        <ele>504.83</ele>
        <time>2015-06-14T09:32:51Z</time>
      </trkpt>
      <trkpt lat="43.3666" lon="2.27016">
        <ele>504.83</ele>
        <time>2015-06-14T09:32:52Z</time>
      </trkpt>
      <trkpt lat="43.36662" lon="2.27008">
        <ele>504.83</ele>
        <time>2015-06-14T09:32:53Z</time>
      </trkpt>
      <trkpt lat="43.36665" lon="2.26999">
        <ele>504.83</ele>
        <time>2015-06-14T09:32:54Z</time>
      </trkpt>
      <trkpt lat="43.36679" lon="2.26948">
        <ele>504.83</ele>
        <time>2015-06-14T09:33:00Z</time>
      </trkpt>
      <trkpt lat="43.3668" lon="2.2694">
        <ele>504.83</ele>
        <time>2015-06-14T09:33:01Z</time>
      </trkpt>
      <trkpt lat="43.3668" lon="2.26932">
        <ele>505.31</ele>
        <time>2015-06-14T09:33:02Z</time>
      </trkpt>
      <trkpt lat="43.36679" lon="2.26922">
        <ele>505.79</ele>
        <time>2015-06-14T09:33:03Z</time>
      </trkpt>
      <trkpt lat="43.36677" lon="2.26913">
        <ele>505.79</ele>
        <time>2015-06-14T09:33:04Z</time>
      </trkpt>
      <trkpt lat="43.36674" lon="2.26904">
        <ele>506.27</ele>
        <time>2015-06-14T09:33:05Z</time>
      </trkpt>
      <trkpt lat="43.3667" lon="2.26896">
        <ele>506.75</ele>
        <time>2015-06-14T09:33:06Z</time>
      </trkpt>
      <trkpt lat="43.36664" lon="2.26888">
        <ele>507.23</ele>
        <time>2015-06-14T09:33:07Z</time>
      </trkpt>
      <trkpt lat="43.36657" lon="2.26881">
        <ele>507.71</ele>
        <time>2015-06-14T09:33:08Z</time>
      </trkpt>
      <trkpt lat="43.36651" lon="2.26876">
        <ele>508.19</ele>
        <time>2015-06-14T09:33:09Z</time>
      </trkpt>
      <trkpt lat="43.36643" lon="2.26872">
        <ele>508.67</ele>
        <time>2015-06-14T09:33:10Z</time>
      </trkpt>
      <trkpt lat="43.36616" lon="2.26852">
        <ele>510.12</ele>
        <time>2015-06-14T09:33:14Z</time>
      </trkpt>
      <trkpt lat="43.36611" lon="2.26846">
        <ele>510.6</ele>
        <time>2015-06-14T09:33:15Z</time>
      </trkpt>
      <trkpt lat="43.36606" lon="2.26839">
        <ele>511.08</ele>
        <time>2015-06-14T09:33:16Z</time>
      </trkpt>
      <trkpt lat="43.3655" lon="2.26739">
        <ele>512.04</ele>
        <time>2015-06-14T09:33:28Z</time>
      </trkpt>
      <trkpt lat="43.3652" lon="2.26681">
        <ele>511.56</ele>
        <time>2015-06-14T09:33:35Z</time>
      </trkpt>
      <trkpt lat="43.36515" lon="2.26675">
        <ele>511.56</ele>
        <time>2015-06-14T09:33:36Z</time>
      </trkpt>
      <trkpt lat="43.36509" lon="2.2667">
        <ele>511.56</ele>
        <time>2015-06-14T09:33:37Z</time>
      </trkpt>
      <trkpt lat="43.36502" lon="2.26666">
        <ele>511.56</ele>
        <time>2015-06-14T09:33:38Z</time>
      </trkpt>
      <trkpt lat="43.36495" lon="2.26662">
        <ele>512.04</ele>
        <time>2015-06-14T09:33:39Z</time>
      </trkpt>
      <trkpt lat="43.36487" lon="2.2666">
        <ele>512.04</ele>
        <time>2015-06-14T09:33:40Z</time>
      </trkpt>
      <trkpt lat="43.3648" lon="2.26658">
        <ele>512.04</ele>
        <time>2015-06-14T09:33:41Z</time>
      </trkpt>
      <trkpt lat="43.36472" lon="2.26657">
        <ele>512.04</ele>
        <time>2015-06-14T09:33:42Z</time>
      </trkpt>
      <trkpt lat="43.36465" lon="2.26655">
        <ele>512.04</ele>
        <time>2015-06-14T09:33:43Z</time>
      </trkpt>
      <trkpt lat="43.36381" lon="2.26641">
        <ele>515.88</ele>
        <time>2015-06-14T09:33:54Z</time>
      </trkpt>
      <trkpt lat="43.36374" lon="2.26637">
        <ele>515.88</ele>
        <time>2015-06-14T09:33:55Z</time>
      </trkpt>
      <trkpt lat="43.36368" lon="2.26631">
        <ele>515.88</ele>
        <time>2015-06-14T09:33:56Z</time>
      </trkpt>
      <trkpt lat="43.36362" lon="2.26625">
        <ele>515.88</ele>
        <time>2015-06-14T09:33:57Z</time>
      </trkpt>
      <trkpt lat="43.36356" lon="2.26618">
        <ele>515.4</ele>
        <time>2015-06-14T09:33:58Z</time>
      </trkpt>
      <trkpt lat="43.36351" lon="2.2661">
        <ele>515.4</ele>
        <time>2015-06-14T09:33:59Z</time>
      </trkpt>
      <trkpt lat="43.36347" lon="2.26601">
        <ele>514.92</ele>
        <time>2015-06-14T09:34:00Z</time>
      </trkpt>
      <trkpt lat="43.36344" lon="2.26592">
        <ele>514.92</ele>
        <time>2015-06-14T09:34:01Z</time>
      </trkpt>
      <trkpt lat="43.36342" lon="2.26582">
        <ele>514.92</ele>
        <time>2015-06-14T09:34:02Z</time>
      </trkpt>
      <trkpt lat="43.3634" lon="2.26572">
        <ele>514.44</ele>
        <time>2015-06-14T09:34:03Z</time>
      </trkpt>
      <trkpt lat="43.36338" lon="2.26562">
        <ele>514.44</ele>
        <time>2015-06-14T09:34:04Z</time>
      </trkpt>
      <trkpt lat="43.36337" lon="2.26552">
        <ele>513.96</ele>
        <time>2015-06-14T09:34:05Z</time>
      </trkpt>
      <trkpt lat="43.3633" lon="2.26521">
        <ele>513</ele>
        <time>2015-06-14T09:34:08Z</time>
      </trkpt>
      <trkpt lat="43.36326" lon="2.26512">
        <ele>513</ele>
        <time>2015-06-14T09:34:09Z</time>
      </trkpt>
      <trkpt lat="43.36321" lon="2.26502">
        <ele>512.52</ele>
        <time>2015-06-14T09:34:10Z</time>
      </trkpt>
      <trkpt lat="43.36316" lon="2.26494">
        <ele>512.52</ele>
        <time>2015-06-14T09:34:11Z</time>
      </trkpt>
      <trkpt lat="43.3631" lon="2.26485">
        <ele>511.56</ele>
        <time>2015-06-14T09:34:12Z</time>
      </trkpt>
      <trkpt lat="43.36245" lon="2.26403">
        <ele>507.23</ele>
        <time>2015-06-14T09:34:23Z</time>
      </trkpt>
      <trkpt lat="43.36238" lon="2.26397">
        <ele>506.75</ele>
        <time>2015-06-14T09:34:24Z</time>
      </trkpt>
      <trkpt lat="43.3623" lon="2.26395">
        <ele>506.27</ele>
        <time>2015-06-14T09:34:25Z</time>
      </trkpt>
      <trkpt lat="43.36222" lon="2.26396">
        <ele>505.79</ele>
        <time>2015-06-14T09:34:26Z</time>
      </trkpt>
      <trkpt lat="43.36215" lon="2.26399">
        <ele>505.31</ele>
        <time>2015-06-14T09:34:27Z</time>
      </trkpt>
      <trkpt lat="43.36208" lon="2.26405">
        <ele>504.83</ele>
        <time>2015-06-14T09:34:28Z</time>
      </trkpt>
      <trkpt lat="43.36202" lon="2.26412">
        <ele>504.83</ele>
        <time>2015-06-14T09:34:29Z</time>
      </trkpt>
      <trkpt lat="43.36197" lon="2.2642">
        <ele>504.35</ele>
        <time>2015-06-14T09:34:30Z</time>
      </trkpt>
      <trkpt lat="43.36192" lon="2.26429">
        <ele>503.87</ele>
        <time>2015-06-14T09:34:31Z</time>
      </trkpt>
      <trkpt lat="43.36181" lon="2.26445">
        <ele>502.91</ele>
        <time>2015-06-14T09:34:33Z</time>
      </trkpt>
      <trkpt lat="43.36174" lon="2.26452">
        <ele>502.91</ele>
        <time>2015-06-14T09:34:34Z</time>
      </trkpt>
      <trkpt lat="43.36168" lon="2.26458">
        <ele>502.43</ele>
        <time>2015-06-14T09:34:35Z</time>
      </trkpt>
      <trkpt lat="43.3616" lon="2.26462">
        <ele>501.95</ele>
        <time>2015-06-14T09:34:36Z</time>
      </trkpt>
      <trkpt lat="43.36153" lon="2.26465">
        <ele>501.95</ele>
        <time>2015-06-14T09:34:37Z</time>
      </trkpt>
      <trkpt lat="43.36136" lon="2.26469">
        <ele>501.46</ele>
        <time>2015-06-14T09:34:39Z</time>
      </trkpt>
      <trkpt lat="43.36128" lon="2.26469">
        <ele>501.46</ele>
        <time>2015-06-14T09:34:40Z</time>
      </trkpt>
      <trkpt lat="43.3612" lon="2.26467">
        <ele>501.46</ele>
        <time>2015-06-14T09:34:41Z</time>
      </trkpt>
      <trkpt lat="43.36112" lon="2.26464">
        <ele>501.46</ele>
        <time>2015-06-14T09:34:42Z</time>
      </trkpt>
      <trkpt lat="43.36104" lon="2.26461">
        <ele>501.46</ele>
        <time>2015-06-14T09:34:43Z</time>
      </trkpt>
      <trkpt lat="43.36096" lon="2.26456">
        <ele>501.46</ele>
        <time>2015-06-14T09:34:44Z</time>
      </trkpt>
      <trkpt lat="43.3609" lon="2.26451">
        <ele>501.46</ele>
        <time>2015-06-14T09:34:45Z</time>
      </trkpt>
      <trkpt lat="43.36015" lon="2.26399">
        <ele>500.02</ele>
        <time>2015-06-14T09:34:57Z</time>
      </trkpt>
      <trkpt lat="43.3596" lon="2.26379">
        <ele>506.27</ele>
        <time>2015-06-14T09:35:07Z</time>
      </trkpt>
      <trkpt lat="43.35943" lon="2.26372">
        <ele>508.19</ele>
        <time>2015-06-14T09:35:10Z</time>
      </trkpt>
      <trkpt lat="43.35932" lon="2.26369">
        <ele>509.64</ele>
        <time>2015-06-14T09:35:12Z</time>
      </trkpt>
      <trkpt lat="43.35927" lon="2.26366">
        <ele>510.12</ele>
        <time>2015-06-14T09:35:13Z</time>
      </trkpt>
      <trkpt lat="43.35922" lon="2.26364">
        <ele>510.6</ele>
        <time>2015-06-14T09:35:14Z</time>
      </trkpt>
      <trkpt lat="43.35917" lon="2.26362">
        <ele>511.08</ele>
        <time>2015-06-14T09:35:15Z</time>
      </trkpt>
      <trkpt lat="43.35911" lon="2.2636">
        <ele>512.04</ele>
        <time>2015-06-14T09:35:16Z</time>
      </trkpt>
      <trkpt lat="43.35905" lon="2.26359">
        <ele>512.52</ele>
        <time>2015-06-14T09:35:17Z</time>
      </trkpt>
      <trkpt lat="43.3589" lon="2.26354">
        <ele>514.44</ele>
        <time>2015-06-14T09:35:20Z</time>
      </trkpt>
      <trkpt lat="43.35885" lon="2.26353">
        <ele>514.92</ele>
        <time>2015-06-14T09:35:21Z</time>
      </trkpt>
      <trkpt lat="43.35868" lon="2.26352">
        <ele>516.37</ele>
        <time>2015-06-14T09:35:24Z</time>
      </trkpt>
      <trkpt lat="43.35863" lon="2.26353">
        <ele>516.85</ele>
        <time>2015-06-14T09:35:25Z</time>
      </trkpt>
      <trkpt lat="43.35843" lon="2.26359">
        <ele>519.25</ele>
        <time>2015-06-14T09:35:29Z</time>
      </trkpt>
      <trkpt lat="43.35838" lon="2.26361">
        <ele>519.73</ele>
        <time>2015-06-14T09:35:30Z</time>
      </trkpt>
      <trkpt lat="43.35834" lon="2.26364">
        <ele>520.21</ele>
        <time>2015-06-14T09:35:31Z</time>
      </trkpt>
      <trkpt lat="43.35829" lon="2.26367">
        <ele>520.69</ele>
        <time>2015-06-14T09:35:32Z</time>
      </trkpt>
      <trkpt lat="43.35824" lon="2.2637">
        <ele>521.17</ele>
        <time>2015-06-14T09:35:33Z</time>
      </trkpt>
      <trkpt lat="43.35801" lon="2.26382">
        <ele>523.09</ele>
        <time>2015-06-14T09:35:38Z</time>
      </trkpt>
      <trkpt lat="43.35796" lon="2.26385">
        <ele>523.09</ele>
        <time>2015-06-14T09:35:39Z</time>
      </trkpt>
      <trkpt lat="43.35776" lon="2.26396">
        <ele>522.61</ele>
        <time>2015-06-14T09:35:43Z</time>
      </trkpt>
      <trkpt lat="43.35765" lon="2.264">
        <ele>521.65</ele>
        <time>2015-06-14T09:35:45Z</time>
      </trkpt>
      <trkpt lat="43.3576" lon="2.26401">
        <ele>521.17</ele>
        <time>2015-06-14T09:35:46Z</time>
      </trkpt>
      <trkpt lat="43.35755" lon="2.26401">
        <ele>519.73</ele>
        <time>2015-06-14T09:35:47Z</time>
      </trkpt>
      <trkpt lat="43.35751" lon="2.26399">
        <ele>518.77</ele>
        <time>2015-06-14T09:35:48Z</time>
      </trkpt>
      <trkpt lat="43.35746" lon="2.26394">
        <ele>516.85</ele>
        <time>2015-06-14T09:35:49Z</time>
      </trkpt>
      <trkpt lat="43.35742" lon="2.26389">
        <ele>515.88</ele>
        <time>2015-06-14T09:35:50Z</time>
      </trkpt>
      <trkpt lat="43.3574" lon="2.26384">
        <ele>515.4</ele>
        <time>2015-06-14T09:35:51Z</time>
      </trkpt>
      <trkpt lat="43.35738" lon="2.26378">
        <ele>514.44</ele>
        <time>2015-06-14T09:35:52Z</time>
      </trkpt>
      <trkpt lat="43.35737" lon="2.26371">
        <ele>513.48</ele>
        <time>2015-06-14T09:35:53Z</time>
      </trkpt>
      <trkpt lat="43.35737" lon="2.26365">
        <ele>513</ele>
        <time>2015-06-14T09:35:54Z</time>
      </trkpt>
      <trkpt lat="43.35738" lon="2.26359">
        <ele>513</ele>
        <time>2015-06-14T09:35:55Z</time>
      </trkpt>
      <trkpt lat="43.3574" lon="2.26353">
        <ele>512.52</ele>
        <time>2015-06-14T09:35:56Z</time>
      </trkpt>
      <trkpt lat="43.35742" lon="2.26348">
        <ele>512.52</ele>
        <time>2015-06-14T09:35:57Z</time>
      </trkpt>
      <trkpt lat="43.35748" lon="2.26332">
        <ele>512.04</ele>
        <time>2015-06-14T09:36:00Z</time>
      </trkpt>
      <trkpt lat="43.35757" lon="2.26307">
        <ele>512.04</ele>
        <time>2015-06-14T09:36:05Z</time>
      </trkpt>
      <trkpt lat="43.35757" lon="2.263">
        <ele>512.04</ele>
        <time>2015-06-14T09:36:06Z</time>
      </trkpt>
      <trkpt lat="43.35756" lon="2.26293">
        <ele>512.04</ele>
        <time>2015-06-14T09:36:07Z</time>
      </trkpt>
      <trkpt lat="43.35755" lon="2.26287">
        <ele>512.52</ele>
        <time>2015-06-14T09:36:08Z</time>
      </trkpt>
      <trkpt lat="43.35754" lon="2.26281">
        <ele>513</ele>
        <time>2015-06-14T09:36:09Z</time>
      </trkpt>
      <trkpt lat="43.35752" lon="2.26276">
        <ele>513.48</ele>
        <time>2015-06-14T09:36:10Z</time>
      </trkpt>
      <trkpt lat="43.35749" lon="2.26272">
        <ele>513.96</ele>
        <time>2015-06-14T09:36:11Z</time>
      </trkpt>
      <trkpt lat="43.35745" lon="2.26267">
        <ele>514.44</ele>
        <time>2015-06-14T09:36:12Z</time>
      </trkpt>
      <trkpt lat="43.35742" lon="2.26262">
        <ele>514.44</ele>
        <time>2015-06-14T09:36:13Z</time>
      </trkpt>
      <trkpt lat="43.35738" lon="2.26258">
        <ele>514.92</ele>
        <time>2015-06-14T09:36:14Z</time>
      </trkpt>
      <trkpt lat="43.35734" lon="2.26253">
        <ele>514.92</ele>
        <time>2015-06-14T09:36:15Z</time>
      </trkpt>
      <trkpt lat="43.35728" lon="2.26243">
        <ele>514.92</ele>
        <time>2015-06-14T09:36:17Z</time>
      </trkpt>
      <trkpt lat="43.35725" lon="2.26236">
        <ele>514.92</ele>
        <time>2015-06-14T09:36:18Z</time>
      </trkpt>
      <trkpt lat="43.35724" lon="2.2623">
        <ele>514.92</ele>
        <time>2015-06-14T09:36:19Z</time>
      </trkpt>
      <trkpt lat="43.35722" lon="2.26223">
        <ele>514.92</ele>
        <time>2015-06-14T09:36:20Z</time>
      </trkpt>
      <trkpt lat="43.35721" lon="2.26216">
        <ele>514.92</ele>
        <time>2015-06-14T09:36:21Z</time>
      </trkpt>
      <trkpt lat="43.35716" lon="2.26181">
        <ele>515.4</ele>
        <time>2015-06-14T09:36:26Z</time>
      </trkpt>
      <trkpt lat="43.35689" lon="2.26112">
        <ele>522.13</ele>
        <time>2015-06-14T09:36:38Z</time>
      </trkpt>
      <trkpt lat="43.3568" lon="2.26097">
        <ele>524.06</ele>
        <time>2015-06-14T09:36:41Z</time>
      </trkpt>
      <trkpt lat="43.35677" lon="2.26092">
        <ele>524.54</ele>
        <time>2015-06-14T09:36:42Z</time>
      </trkpt>
      <trkpt lat="43.35642" lon="2.26043">
        <ele>525.5</ele>
        <time>2015-06-14T09:36:51Z</time>
      </trkpt>
      <trkpt lat="43.3563" lon="2.26021">
        <ele>524.54</ele>
        <time>2015-06-14T09:36:55Z</time>
      </trkpt>
      <trkpt lat="43.35628" lon="2.26014">
        <ele>524.54</ele>
        <time>2015-06-14T09:36:56Z</time>
      </trkpt>
      <trkpt lat="43.35626" lon="2.26008">
        <ele>524.54</ele>
        <time>2015-06-14T09:36:57Z</time>
      </trkpt>
      <trkpt lat="43.35624" lon="2.26001">
        <ele>524.54</ele>
        <time>2015-06-14T09:36:58Z</time>
      </trkpt>
      <trkpt lat="43.35623" lon="2.25994">
        <ele>524.06</ele>
        <time>2015-06-14T09:36:59Z</time>
      </trkpt>
      <trkpt lat="43.3562" lon="2.25973">
        <ele>523.09</ele>
        <time>2015-06-14T09:37:02Z</time>
      </trkpt>
      <trkpt lat="43.3562" lon="2.25967">
        <ele>523.09</ele>
        <time>2015-06-14T09:37:03Z</time>
      </trkpt>
      <trkpt lat="43.35618" lon="2.25954">
        <ele>522.61</ele>
        <time>2015-06-14T09:37:05Z</time>
      </trkpt>
      <trkpt lat="43.35627" lon="2.25886">
        <ele>519.73</ele>
        <time>2015-06-14T09:37:16Z</time>
      </trkpt>
      <trkpt lat="43.35659" lon="2.25801">
        <ele>520.69</ele>
        <time>2015-06-14T09:37:31Z</time>
      </trkpt>
      <trkpt lat="43.35674" lon="2.25768">
        <ele>523.09</ele>
        <time>2015-06-14T09:37:42Z</time>
      </trkpt>
      <trkpt lat="43.35674" lon="2.25766">
        <ele>523.09</ele>
        <time>2015-06-14T09:37:43Z</time>
      </trkpt>
      <trkpt lat="43.35671" lon="2.25764">
        <ele>523.58</ele>
        <time>2015-06-14T09:37:48Z</time>
      </trkpt>
      <trkpt lat="43.3567" lon="2.25765">
        <ele>523.58</ele>
        <time>2015-06-14T09:37:49Z</time>
      </trkpt>
      <trkpt lat="43.35655" lon="2.25794">
        <ele>519.25</ele>
        <time>2015-06-14T09:38:02Z</time>
      </trkpt>
      <trkpt lat="43.35649" lon="2.25809">
        <ele>518.29</ele>
        <time>2015-06-14T09:38:07Z</time>
      </trkpt>
      <trkpt lat="43.3565" lon="2.25811">
        <ele>518.29</ele>
        <time>2015-06-14T09:38:08Z</time>
      </trkpt>
      <trkpt lat="43.35652" lon="2.25811">
        <ele>518.29</ele>
        <time>2015-06-14T09:38:09Z</time>
      </trkpt>
      <trkpt lat="43.35653" lon="2.2581">
        <ele>518.77</ele>
        <time>2015-06-14T09:38:10Z</time>
      </trkpt>
      <trkpt lat="43.35653" lon="2.25807">
        <ele>518.29</ele>
        <time>2015-06-14T09:38:11Z</time>
      </trkpt>
      <trkpt lat="43.35653" lon="2.25803">
        <ele>518.29</ele>
        <time>2015-06-14T09:38:12Z</time>
      </trkpt>
      <trkpt lat="43.35654" lon="2.25799">
        <ele>518.29</ele>
        <time>2015-06-14T09:38:13Z</time>
      </trkpt>
      <trkpt lat="43.35656" lon="2.25795">
        <ele>518.29</ele>
        <time>2015-06-14T09:38:14Z</time>
      </trkpt>
      <trkpt lat="43.35658" lon="2.25791">
        <ele>518.29</ele>
        <time>2015-06-14T09:38:15Z</time>
      </trkpt>
      <trkpt lat="43.3566" lon="2.25787">
        <ele>518.29</ele>
        <time>2015-06-14T09:38:16Z</time>
      </trkpt>
      <trkpt lat="43.35662" lon="2.25783">
        <ele>518.29</ele>
        <time>2015-06-14T09:38:17Z</time>
      </trkpt>
      <trkpt lat="43.35664" lon="2.2578">
        <ele>518.29</ele>
        <time>2015-06-14T09:38:18Z</time>
      </trkpt>
      <trkpt lat="43.35665" lon="2.25777">
        <ele>518.29</ele>
        <time>2015-06-14T09:38:19Z</time>
      </trkpt>
      <trkpt lat="43.35666" lon="2.25774">
        <ele>518.77</ele>
        <time>2015-06-14T09:38:20Z</time>
      </trkpt>
      <trkpt lat="43.35666" lon="2.25772">
        <ele>518.77</ele>
        <time>2015-06-14T09:38:21Z</time>
      </trkpt>
      <trkpt lat="43.35667" lon="2.25771">
        <ele>519.73</ele>
        <time>2015-06-14T09:38:35Z</time>
      </trkpt>
      <trkpt lat="43.35671" lon="2.25762">
        <ele>522.61</ele>
        <time>2015-06-14T09:38:44Z</time>
      </trkpt>
      <trkpt lat="43.35693" lon="2.25744">
        <ele>524.54</ele>
        <time>2015-06-14T09:38:51Z</time>
      </trkpt>
      <trkpt lat="43.35697" lon="2.25741">
        <ele>525.02</ele>
        <time>2015-06-14T09:38:52Z</time>
      </trkpt>
      <trkpt lat="43.35737" lon="2.25711">
        <ele>531.75</ele>
        <time>2015-06-14T09:39:05Z</time>
      </trkpt>
      <trkpt lat="43.3578" lon="2.25683">
        <ele>537.03</ele>
        <time>2015-06-14T09:39:18Z</time>
      </trkpt>
      <trkpt lat="43.35818" lon="2.25668">
        <ele>537.99</ele>
        <time>2015-06-14T09:39:28Z</time>
      </trkpt>
      <trkpt lat="43.35854" lon="2.25657">
        <ele>538.96</ele>
        <time>2015-06-14T09:39:37Z</time>
      </trkpt>
      <trkpt lat="43.35858" lon="2.25656">
        <ele>538.96</ele>
        <time>2015-06-14T09:39:38Z</time>
      </trkpt>
      <trkpt lat="43.35862" lon="2.25655">
        <ele>539.44</ele>
        <time>2015-06-14T09:39:39Z</time>
      </trkpt>
      <trkpt lat="43.35889" lon="2.25646">
        <ele>541.36</ele>
        <time>2015-06-14T09:39:46Z</time>
      </trkpt>
      <trkpt lat="43.35893" lon="2.25644">
        <ele>541.36</ele>
        <time>2015-06-14T09:39:47Z</time>
      </trkpt>
      <trkpt lat="43.35897" lon="2.25642">
        <ele>541.36</ele>
        <time>2015-06-14T09:39:48Z</time>
      </trkpt>
      <trkpt lat="43.35916" lon="2.25628">
        <ele>543.28</ele>
        <time>2015-06-14T09:39:53Z</time>
      </trkpt>
      <trkpt lat="43.35952" lon="2.25571">
        <ele>547.61</ele>
        <time>2015-06-14T09:40:06Z</time>
      </trkpt>
      <trkpt lat="43.35984" lon="2.25511">
        <ele>549.53</ele>
        <time>2015-06-14T09:40:19Z</time>
      </trkpt>
      <trkpt lat="43.35989" lon="2.25501">
        <ele>549.05</ele>
        <time>2015-06-14T09:40:21Z</time>
      </trkpt>
      <trkpt lat="43.35992" lon="2.25497">
        <ele>549.05</ele>
        <time>2015-06-14T09:40:22Z</time>
      </trkpt>
      <trkpt lat="43.35995" lon="2.25492">
        <ele>549.05</ele>
        <time>2015-06-14T09:40:23Z</time>
      </trkpt>
      <trkpt lat="43.36007" lon="2.25475">
        <ele>549.53</ele>
        <time>2015-06-14T09:40:27Z</time>
      </trkpt>
      <trkpt lat="43.3601" lon="2.25471">
        <ele>550.01</ele>
        <time>2015-06-14T09:40:28Z</time>
      </trkpt>
      <trkpt lat="43.36063" lon="2.25425">
        <ele>557.22</ele>
        <time>2015-06-14T09:40:43Z</time>
      </trkpt>
      <trkpt lat="43.36101" lon="2.25393">
        <ele>560.11</ele>
        <time>2015-06-14T09:40:53Z</time>
      </trkpt>
      <trkpt lat="43.36105" lon="2.25389">
        <ele>560.11</ele>
        <time>2015-06-14T09:40:54Z</time>
      </trkpt>
      <trkpt lat="43.36163" lon="2.25343">
        <ele>562.51</ele>
        <time>2015-06-14T09:41:09Z</time>
      </trkpt>
      <trkpt lat="43.36182" lon="2.25328">
        <ele>562.99</ele>
        <time>2015-06-14T09:41:14Z</time>
      </trkpt>
      <trkpt lat="43.36241" lon="2.25294">
        <ele>567.32</ele>
        <time>2015-06-14T09:41:28Z</time>
      </trkpt>
      <trkpt lat="43.36322" lon="2.2527">
        <ele>571.64</ele>
        <time>2015-06-14T09:41:46Z</time>
      </trkpt>
      <trkpt lat="43.36397" lon="2.25249">
        <ele>574.53</ele>
        <time>2015-06-14T09:42:03Z</time>
      </trkpt>
      <trkpt lat="43.36401" lon="2.25248">
        <ele>574.53</ele>
        <time>2015-06-14T09:42:04Z</time>
      </trkpt>
      <trkpt lat="43.36431" lon="2.25241">
        <ele>577.41</ele>
        <time>2015-06-14T09:42:11Z</time>
      </trkpt>
      <trkpt lat="43.36436" lon="2.25239">
        <ele>577.89</ele>
        <time>2015-06-14T09:42:12Z</time>
      </trkpt>
      <trkpt lat="43.36493" lon="2.2522">
        <ele>582.22</ele>
        <time>2015-06-14T09:42:25Z</time>
      </trkpt>
      <trkpt lat="43.36502" lon="2.25218">
        <ele>582.7</ele>
        <time>2015-06-14T09:42:27Z</time>
      </trkpt>
      <trkpt lat="43.36526" lon="2.25208">
        <ele>584.14</ele>
        <time>2015-06-14T09:42:33Z</time>
      </trkpt>
      <trkpt lat="43.36534" lon="2.25205">
        <ele>584.14</ele>
        <time>2015-06-14T09:42:35Z</time>
      </trkpt>
      <trkpt lat="43.36596" lon="2.25188">
        <ele>585.1</ele>
        <time>2015-06-14T09:42:49Z</time>
      </trkpt>
      <trkpt lat="43.366" lon="2.25188">
        <ele>585.58</ele>
        <time>2015-06-14T09:42:50Z</time>
      </trkpt>
      <trkpt lat="43.36643" lon="2.25188">
        <ele>586.06</ele>
        <time>2015-06-14T09:42:59Z</time>
      </trkpt>
      <trkpt lat="43.36656" lon="2.25189">
        <ele>586.54</ele>
        <time>2015-06-14T09:43:02Z</time>
      </trkpt>
      <trkpt lat="43.36711" lon="2.25223">
        <ele>588.95</ele>
        <time>2015-06-14T09:43:16Z</time>
      </trkpt>
      <trkpt lat="43.36726" lon="2.25238">
        <ele>589.43</ele>
        <time>2015-06-14T09:43:20Z</time>
      </trkpt>
      <trkpt lat="43.36729" lon="2.25242">
        <ele>589.91</ele>
        <time>2015-06-14T09:43:21Z</time>
      </trkpt>
      <trkpt lat="43.36754" lon="2.25276">
        <ele>589.43</ele>
        <time>2015-06-14T09:43:29Z</time>
      </trkpt>
      <trkpt lat="43.36758" lon="2.2528">
        <ele>589.43</ele>
        <time>2015-06-14T09:43:30Z</time>
      </trkpt>
      <trkpt lat="43.36766" lon="2.25288">
        <ele>588.95</ele>
        <time>2015-06-14T09:43:32Z</time>
      </trkpt>
      <trkpt lat="43.36779" lon="2.25299">
        <ele>588.95</ele>
        <time>2015-06-14T09:43:35Z</time>
      </trkpt>
      <trkpt lat="43.36784" lon="2.25301">
        <ele>588.95</ele>
        <time>2015-06-14T09:43:36Z</time>
      </trkpt>
      <trkpt lat="43.36798" lon="2.25306">
        <ele>588.95</ele>
        <time>2015-06-14T09:43:39Z</time>
      </trkpt>
      <trkpt lat="43.36803" lon="2.25308">
        <ele>588.95</ele>
        <time>2015-06-14T09:43:40Z</time>
      </trkpt>
      <trkpt lat="43.36808" lon="2.25309">
        <ele>588.95</ele>
        <time>2015-06-14T09:43:41Z</time>
      </trkpt>
      <trkpt lat="43.36812" lon="2.25309">
        <ele>588.95</ele>
        <time>2015-06-14T09:43:42Z</time>
      </trkpt>
      <trkpt lat="43.36817" lon="2.25309">
        <ele>588.95</ele>
        <time>2015-06-14T09:43:43Z</time>
      </trkpt>
      <trkpt lat="43.36822" lon="2.25307">
        <ele>588.95</ele>
        <time>2015-06-14T09:43:44Z</time>
      </trkpt>
      <trkpt lat="43.36826" lon="2.25305">
        <ele>588.95</ele>
        <time>2015-06-14T09:43:45Z</time>
      </trkpt>
      <trkpt lat="43.3683" lon="2.25302">
        <ele>589.43</ele>
        <time>2015-06-14T09:43:46Z</time>
      </trkpt>
      <trkpt lat="43.36834" lon="2.25299">
        <ele>589.43</ele>
        <time>2015-06-14T09:43:47Z</time>
      </trkpt>
      <trkpt lat="43.36838" lon="2.25297">
        <ele>589.43</ele>
        <time>2015-06-14T09:43:48Z</time>
      </trkpt>
      <trkpt lat="43.36849" lon="2.25288">
        <ele>590.39</ele>
        <time>2015-06-14T09:43:51Z</time>
      </trkpt>
      <trkpt lat="43.36861" lon="2.25276">
        <ele>590.87</ele>
        <time>2015-06-14T09:43:54Z</time>
      </trkpt>
      <trkpt lat="43.36919" lon="2.25212">
        <ele>594.23</ele>
        <time>2015-06-14T09:44:09Z</time>
      </trkpt>
      <trkpt lat="43.36926" lon="2.25204">
        <ele>594.71</ele>
        <time>2015-06-14T09:44:11Z</time>
      </trkpt>
      <trkpt lat="43.3695" lon="2.25177">
        <ele>595.67</ele>
        <time>2015-06-14T09:44:18Z</time>
      </trkpt>
      <trkpt lat="43.36957" lon="2.25169">
        <ele>596.15</ele>
        <time>2015-06-14T09:44:20Z</time>
      </trkpt>
      <trkpt lat="43.36961" lon="2.25165">
        <ele>596.64</ele>
        <time>2015-06-14T09:44:21Z</time>
      </trkpt>
      <trkpt lat="43.36964" lon="2.25161">
        <ele>596.64</ele>
        <time>2015-06-14T09:44:22Z</time>
      </trkpt>
      <trkpt lat="43.36974" lon="2.2515">
        <ele>598.08</ele>
        <time>2015-06-14T09:44:25Z</time>
      </trkpt>
      <trkpt lat="43.36984" lon="2.25137">
        <ele>599.04</ele>
        <time>2015-06-14T09:44:28Z</time>
      </trkpt>
      <trkpt lat="43.36986" lon="2.25132">
        <ele>599.52</ele>
        <time>2015-06-14T09:44:29Z</time>
      </trkpt>
      <trkpt lat="43.36988" lon="2.25126">
        <ele>600</ele>
        <time>2015-06-14T09:44:30Z</time>
      </trkpt>
      <trkpt lat="43.3699" lon="2.2512">
        <ele>600.48</ele>
        <time>2015-06-14T09:44:31Z</time>
      </trkpt>
      <trkpt lat="43.36991" lon="2.25114">
        <ele>600.96</ele>
        <time>2015-06-14T09:44:32Z</time>
      </trkpt>
      <trkpt lat="43.36992" lon="2.25108">
        <ele>601.44</ele>
        <time>2015-06-14T09:44:33Z</time>
      </trkpt>
      <trkpt lat="43.37001" lon="2.2507">
        <ele>602.88</ele>
        <time>2015-06-14T09:44:39Z</time>
      </trkpt>
      <trkpt lat="43.37004" lon="2.25058">
        <ele>603.85</ele>
        <time>2015-06-14T09:44:41Z</time>
      </trkpt>
      <trkpt lat="43.37007" lon="2.25053">
        <ele>603.85</ele>
        <time>2015-06-14T09:44:42Z</time>
      </trkpt>
      <trkpt lat="43.37019" lon="2.25027">
        <ele>605.29</ele>
        <time>2015-06-14T09:44:47Z</time>
      </trkpt>
      <trkpt lat="43.37022" lon="2.25022">
        <ele>605.29</ele>
        <time>2015-06-14T09:44:48Z</time>
      </trkpt>
      <trkpt lat="43.37032" lon="2.25011">
        <ele>605.77</ele>
        <time>2015-06-14T09:44:51Z</time>
      </trkpt>
      <trkpt lat="43.37036" lon="2.25007">
        <ele>606.25</ele>
        <time>2015-06-14T09:44:52Z</time>
      </trkpt>
      <trkpt lat="43.37039" lon="2.25004">
        <ele>606.25</ele>
        <time>2015-06-14T09:44:53Z</time>
      </trkpt>
      <trkpt lat="43.37055" lon="2.24984">
        <ele>607.21</ele>
        <time>2015-06-14T09:44:58Z</time>
      </trkpt>
      <trkpt lat="43.37057" lon="2.24979">
        <ele>607.21</ele>
        <time>2015-06-14T09:44:59Z</time>
      </trkpt>
      <trkpt lat="43.37062" lon="2.24969">
        <ele>607.69</ele>
        <time>2015-06-14T09:45:01Z</time>
      </trkpt>
      <trkpt lat="43.37084" lon="2.24927">
        <ele>607.69</ele>
        <time>2015-06-14T09:45:10Z</time>
      </trkpt>
      <trkpt lat="43.37087" lon="2.24923">
        <ele>607.69</ele>
        <time>2015-06-14T09:45:11Z</time>
      </trkpt>
      <trkpt lat="43.3709" lon="2.24918">
        <ele>607.69</ele>
        <time>2015-06-14T09:45:12Z</time>
      </trkpt>
      <trkpt lat="43.37095" lon="2.24909">
        <ele>607.69</ele>
        <time>2015-06-14T09:45:14Z</time>
      </trkpt>
      <trkpt lat="43.37105" lon="2.24897">
        <ele>608.17</ele>
        <time>2015-06-14T09:45:17Z</time>
      </trkpt>
      <trkpt lat="43.37115" lon="2.24886">
        <ele>608.65</ele>
        <time>2015-06-14T09:45:20Z</time>
      </trkpt>
      <trkpt lat="43.37122" lon="2.24878">
        <ele>608.65</ele>
        <time>2015-06-14T09:45:22Z</time>
      </trkpt>
      <trkpt lat="43.37125" lon="2.24874">
        <ele>608.65</ele>
        <time>2015-06-14T09:45:23Z</time>
      </trkpt>
      <trkpt lat="43.37128" lon="2.24869">
        <ele>608.65</ele>
        <time>2015-06-14T09:45:24Z</time>
      </trkpt>
      <trkpt lat="43.37159" lon="2.248">
        <ele>609.13</ele>
        <time>2015-06-14T09:45:38Z</time>
      </trkpt>
      <trkpt lat="43.37164" lon="2.24764">
        <ele>609.13</ele>
        <time>2015-06-14T09:45:45Z</time>
      </trkpt>
      <trkpt lat="43.37163" lon="2.24758">
        <ele>609.13</ele>
        <time>2015-06-14T09:45:46Z</time>
      </trkpt>
      <trkpt lat="43.37162" lon="2.24752">
        <ele>609.13</ele>
        <time>2015-06-14T09:45:47Z</time>
      </trkpt>
      <trkpt lat="43.3716" lon="2.24748">
        <ele>609.13</ele>
        <time>2015-06-14T09:45:48Z</time>
      </trkpt>
      <trkpt lat="43.37157" lon="2.24743">
        <ele>609.13</ele>
        <time>2015-06-14T09:45:49Z</time>
      </trkpt>
      <trkpt lat="43.37154" lon="2.24741">
        <ele>609.13</ele>
        <time>2015-06-14T09:45:50Z</time>
      </trkpt>
      <trkpt lat="43.3715" lon="2.2474">
        <ele>609.13</ele>
        <time>2015-06-14T09:45:51Z</time>
      </trkpt>
      <trkpt lat="43.37109" lon="2.24732">
        <ele>612.02</ele>
        <time>2015-06-14T09:46:01Z</time>
      </trkpt>
      <trkpt lat="43.37073" lon="2.24734">
        <ele>616.82</ele>
        <time>2015-06-14T09:46:11Z</time>
      </trkpt>
      <trkpt lat="43.37036" lon="2.24748">
        <ele>618.75</ele>
        <time>2015-06-14T09:46:22Z</time>
      </trkpt>
      <trkpt lat="43.37027" lon="2.2475">
        <ele>618.75</ele>
        <time>2015-06-14T09:46:24Z</time>
      </trkpt>
      <trkpt lat="43.36974" lon="2.24758">
        <ele>622.59</ele>
        <time>2015-06-14T09:46:38Z</time>
      </trkpt>
      <trkpt lat="43.36951" lon="2.24726">
        <ele>624.99</ele>
        <time>2015-06-14T09:46:50Z</time>
      </trkpt>
      <trkpt lat="43.3695" lon="2.24686">
        <ele>628.36</ele>
        <time>2015-06-14T09:47:02Z</time>
      </trkpt>
      <trkpt lat="43.3695" lon="2.24641">
        <ele>630.76</ele>
        <time>2015-06-14T09:47:15Z</time>
      </trkpt>
      <trkpt lat="43.36956" lon="2.24617">
        <ele>633.65</ele>
        <time>2015-06-14T09:47:28Z</time>
      </trkpt>
      <trkpt lat="43.36962" lon="2.24606">
        <ele>635.57</ele>
        <time>2015-06-14T09:47:39Z</time>
      </trkpt>
      <trkpt lat="43.3696" lon="2.24605">
        <ele>635.57</ele>
        <time>2015-06-14T09:47:40Z</time>
      </trkpt>
      <trkpt lat="43.36959" lon="2.24605">
        <ele>635.57</ele>
        <time>2015-06-14T09:47:41Z</time>
      </trkpt>
      <trkpt lat="43.36958" lon="2.24607">
        <ele>635.57</ele>
        <time>2015-06-14T09:47:42Z</time>
      </trkpt>
      <trkpt lat="43.36957" lon="2.24608">
        <ele>635.57</ele>
        <time>2015-06-14T09:47:43Z</time>
      </trkpt>
      <trkpt lat="43.36956" lon="2.2461">
        <ele>635.57</ele>
        <time>2015-06-14T09:47:44Z</time>
      </trkpt>
      <trkpt lat="43.36955" lon="2.24611">
        <ele>635.57</ele>
        <time>2015-06-14T09:47:45Z</time>
      </trkpt>
      <trkpt lat="43.36954" lon="2.24613">
        <ele>635.09</ele>
        <time>2015-06-14T09:47:46Z</time>
      </trkpt>
      <trkpt lat="43.36952" lon="2.24616">
        <ele>635.09</ele>
        <time>2015-06-14T09:47:47Z</time>
      </trkpt>
      <trkpt lat="43.36946" lon="2.24655">
        <ele>633.17</ele>
        <time>2015-06-14T09:47:59Z</time>
      </trkpt>
      <trkpt lat="43.36948" lon="2.24698">
        <ele>630.28</ele>
        <time>2015-06-14T09:48:09Z</time>
      </trkpt>
      <trkpt lat="43.36958" lon="2.24741">
        <ele>627.88</ele>
        <time>2015-06-14T09:48:18Z</time>
      </trkpt>
      <trkpt lat="43.36961" lon="2.24745">
        <ele>627.4</ele>
        <time>2015-06-14T09:48:19Z</time>
      </trkpt>
      <trkpt lat="43.36964" lon="2.2475">
        <ele>627.4</ele>
        <time>2015-06-14T09:48:20Z</time>
      </trkpt>
      <trkpt lat="43.36967" lon="2.24753">
        <ele>626.92</ele>
        <time>2015-06-14T09:48:21Z</time>
      </trkpt>
      <trkpt lat="43.36971" lon="2.24756">
        <ele>626.92</ele>
        <time>2015-06-14T09:48:22Z</time>
      </trkpt>
      <trkpt lat="43.36988" lon="2.24764">
        <ele>626.44</ele>
        <time>2015-06-14T09:48:28Z</time>
      </trkpt>
      <trkpt lat="43.36989" lon="2.24762">
        <ele>627.4</ele>
        <time>2015-06-14T09:48:32Z</time>
      </trkpt>
      <trkpt lat="43.36987" lon="2.24761">
        <ele>627.4</ele>
        <time>2015-06-14T09:48:33Z</time>
      </trkpt>
      <trkpt lat="43.36985" lon="2.2476">
        <ele>627.88</ele>
        <time>2015-06-14T09:48:34Z</time>
      </trkpt>
      <trkpt lat="43.36955" lon="2.24735">
        <ele>629.8</ele>
        <time>2015-06-14T09:48:43Z</time>
      </trkpt>
      <trkpt lat="43.36953" lon="2.24729">
        <ele>630.28</ele>
        <time>2015-06-14T09:48:44Z</time>
      </trkpt>
      <trkpt lat="43.36951" lon="2.24717">
        <ele>630.76</ele>
        <time>2015-06-14T09:48:46Z</time>
      </trkpt>
      <trkpt lat="43.36951" lon="2.24711">
        <ele>631.24</ele>
        <time>2015-06-14T09:48:47Z</time>
      </trkpt>
      <trkpt lat="43.36951" lon="2.24705">
        <ele>631.24</ele>
        <time>2015-06-14T09:48:48Z</time>
      </trkpt>
      <trkpt lat="43.3695" lon="2.24699">
        <ele>631.72</ele>
        <time>2015-06-14T09:48:49Z</time>
      </trkpt>
      <trkpt lat="43.3695" lon="2.24693">
        <ele>631.72</ele>
        <time>2015-06-14T09:48:50Z</time>
      </trkpt>
      <trkpt lat="43.3695" lon="2.24688">
        <ele>631.24</ele>
        <time>2015-06-14T09:48:51Z</time>
      </trkpt>
      <trkpt lat="43.3695" lon="2.24682">
        <ele>631.24</ele>
        <time>2015-06-14T09:48:52Z</time>
      </trkpt>
      <trkpt lat="43.36953" lon="2.24625">
        <ele>632.2</ele>
        <time>2015-06-14T09:49:02Z</time>
      </trkpt>
      <trkpt lat="43.36955" lon="2.2462">
        <ele>632.2</ele>
        <time>2015-06-14T09:49:03Z</time>
      </trkpt>
      <trkpt lat="43.36965" lon="2.24593">
        <ele>632.68</ele>
        <time>2015-06-14T09:49:08Z</time>
      </trkpt>
      <trkpt lat="43.36967" lon="2.24589">
        <ele>632.68</ele>
        <time>2015-06-14T09:49:09Z</time>
      </trkpt>
      <trkpt lat="43.36999" lon="2.24518">
        <ele>635.57</ele>
        <time>2015-06-14T09:49:23Z</time>
      </trkpt>
      <trkpt lat="43.37031" lon="2.24436">
        <ele>635.57</ele>
        <time>2015-06-14T09:49:38Z</time>
      </trkpt>
      <trkpt lat="43.37057" lon="2.24381">
        <ele>637.49</ele>
        <time>2015-06-14T09:49:49Z</time>
      </trkpt>
      <trkpt lat="43.37099" lon="2.24337">
        <ele>640.38</ele>
        <time>2015-06-14T09:50:02Z</time>
      </trkpt>
      <trkpt lat="43.37143" lon="2.24296">
        <ele>636.53</ele>
        <time>2015-06-14T09:50:16Z</time>
      </trkpt>
      <trkpt lat="43.3718" lon="2.24253">
        <ele>637.01</ele>
        <time>2015-06-14T09:50:27Z</time>
      </trkpt>
      <trkpt lat="43.37197" lon="2.24232">
        <ele>637.97</ele>
        <time>2015-06-14T09:50:32Z</time>
      </trkpt>
      <trkpt lat="43.37207" lon="2.24219">
        <ele>639.41</ele>
        <time>2015-06-14T09:50:35Z</time>
      </trkpt>
      <trkpt lat="43.3721" lon="2.24215">
        <ele>639.89</ele>
        <time>2015-06-14T09:50:36Z</time>
      </trkpt>
      <trkpt lat="43.37233" lon="2.24182">
        <ele>644.22</ele>
        <time>2015-06-14T09:50:43Z</time>
      </trkpt>
      <trkpt lat="43.37257" lon="2.24141">
        <ele>646.14</ele>
        <time>2015-06-14T09:50:51Z</time>
      </trkpt>
      <trkpt lat="43.37261" lon="2.24135">
        <ele>646.14</ele>
        <time>2015-06-14T09:50:52Z</time>
      </trkpt>
      <trkpt lat="43.37301" lon="2.24076">
        <ele>647.1</ele>
        <time>2015-06-14T09:51:06Z</time>
      </trkpt>
      <trkpt lat="43.37304" lon="2.24071">
        <ele>647.1</ele>
        <time>2015-06-14T09:51:07Z</time>
      </trkpt>
      <trkpt lat="43.37306" lon="2.24067">
        <ele>647.1</ele>
        <time>2015-06-14T09:51:08Z</time>
      </trkpt>
      <trkpt lat="43.37309" lon="2.24063">
        <ele>647.1</ele>
        <time>2015-06-14T09:51:09Z</time>
      </trkpt>
      <trkpt lat="43.37321" lon="2.2405">
        <ele>647.1</ele>
        <time>2015-06-14T09:51:12Z</time>
      </trkpt>
      <trkpt lat="43.37361" lon="2.24008">
        <ele>645.18</ele>
        <time>2015-06-14T09:51:21Z</time>
      </trkpt>
      <trkpt lat="43.37364" lon="2.24002">
        <ele>644.7</ele>
        <time>2015-06-14T09:51:22Z</time>
      </trkpt>
      <trkpt lat="43.37367" lon="2.23995">
        <ele>644.7</ele>
        <time>2015-06-14T09:51:23Z</time>
      </trkpt>
      <trkpt lat="43.37369" lon="2.23987">
        <ele>644.7</ele>
        <time>2015-06-14T09:51:24Z</time>
      </trkpt>
      <trkpt lat="43.37371" lon="2.23979">
        <ele>644.22</ele>
        <time>2015-06-14T09:51:25Z</time>
      </trkpt>
      <trkpt lat="43.37372" lon="2.23971">
        <ele>644.22</ele>
        <time>2015-06-14T09:51:26Z</time>
      </trkpt>
      <trkpt lat="43.37373" lon="2.23962">
        <ele>643.74</ele>
        <time>2015-06-14T09:51:27Z</time>
      </trkpt>
      <trkpt lat="43.37373" lon="2.23952">
        <ele>643.74</ele>
        <time>2015-06-14T09:51:28Z</time>
      </trkpt>
      <trkpt lat="43.37363" lon="2.23807">
        <ele>641.82</ele>
        <time>2015-06-14T09:51:40Z</time>
      </trkpt>
      <trkpt lat="43.37363" lon="2.23792">
        <ele>641.82</ele>
        <time>2015-06-14T09:51:41Z</time>
      </trkpt>
      <trkpt lat="43.37364" lon="2.23778">
        <ele>641.82</ele>
        <time>2015-06-14T09:51:42Z</time>
      </trkpt>
      <trkpt lat="43.37367" lon="2.23764">
        <ele>641.34</ele>
        <time>2015-06-14T09:51:43Z</time>
      </trkpt>
      <trkpt lat="43.37371" lon="2.2375">
        <ele>640.86</ele>
        <time>2015-06-14T09:51:44Z</time>
      </trkpt>
      <trkpt lat="43.37378" lon="2.23737">
        <ele>640.86</ele>
        <time>2015-06-14T09:51:45Z</time>
      </trkpt>
      <trkpt lat="43.37385" lon="2.23725">
        <ele>640.38</ele>
        <time>2015-06-14T09:51:46Z</time>
      </trkpt>
      <trkpt lat="43.37393" lon="2.23714">
        <ele>639.41</ele>
        <time>2015-06-14T09:51:47Z</time>
      </trkpt>
      <trkpt lat="43.37491" lon="2.23583">
        <ele>629.32</ele>
        <time>2015-06-14T09:51:58Z</time>
      </trkpt>
      <trkpt lat="43.37496" lon="2.23569">
        <ele>628.84</ele>
        <time>2015-06-14T09:51:59Z</time>
      </trkpt>
      <trkpt lat="43.37499" lon="2.23554">
        <ele>628.36</ele>
        <time>2015-06-14T09:52:00Z</time>
      </trkpt>
      <trkpt lat="43.37497" lon="2.23538">
        <ele>627.88</ele>
        <time>2015-06-14T09:52:01Z</time>
      </trkpt>
      <trkpt lat="43.37494" lon="2.23523">
        <ele>627.88</ele>
        <time>2015-06-14T09:52:02Z</time>
      </trkpt>
      <trkpt lat="43.3749" lon="2.23509">
        <ele>627.88</ele>
        <time>2015-06-14T09:52:03Z</time>
      </trkpt>
      <trkpt lat="43.37465" lon="2.23376">
        <ele>627.4</ele>
        <time>2015-06-14T09:52:13Z</time>
      </trkpt>
      <trkpt lat="43.37451" lon="2.23313">
        <ele>626.92</ele>
        <time>2015-06-14T09:52:19Z</time>
      </trkpt>
      <trkpt lat="43.37437" lon="2.2328">
        <ele>626.92</ele>
        <time>2015-06-14T09:52:23Z</time>
      </trkpt>
      <trkpt lat="43.37432" lon="2.23273">
        <ele>626.92</ele>
        <time>2015-06-14T09:52:24Z</time>
      </trkpt>
      <trkpt lat="43.37426" lon="2.23266">
        <ele>626.92</ele>
        <time>2015-06-14T09:52:25Z</time>
      </trkpt>
      <trkpt lat="43.37419" lon="2.2326">
        <ele>626.92</ele>
        <time>2015-06-14T09:52:26Z</time>
      </trkpt>
      <trkpt lat="43.37412" lon="2.23256">
        <ele>626.92</ele>
        <time>2015-06-14T09:52:27Z</time>
      </trkpt>
      <trkpt lat="43.37386" lon="2.23235">
        <ele>625.96</ele>
        <time>2015-06-14T09:52:31Z</time>
      </trkpt>
      <trkpt lat="43.37381" lon="2.23229">
        <ele>625.47</ele>
        <time>2015-06-14T09:52:32Z</time>
      </trkpt>
      <trkpt lat="43.37349" lon="2.2319">
        <ele>624.99</ele>
        <time>2015-06-14T09:52:38Z</time>
      </trkpt>
      <trkpt lat="43.37339" lon="2.23174">
        <ele>624.99</ele>
        <time>2015-06-14T09:52:40Z</time>
      </trkpt>
      <trkpt lat="43.37335" lon="2.23166">
        <ele>624.99</ele>
        <time>2015-06-14T09:52:41Z</time>
      </trkpt>
      <trkpt lat="43.37331" lon="2.23157">
        <ele>624.99</ele>
        <time>2015-06-14T09:52:42Z</time>
      </trkpt>
      <trkpt lat="43.37327" lon="2.2315">
        <ele>624.99</ele>
        <time>2015-06-14T09:52:43Z</time>
      </trkpt>
      <trkpt lat="43.37323" lon="2.23142">
        <ele>624.99</ele>
        <time>2015-06-14T09:52:44Z</time>
      </trkpt>
      <trkpt lat="43.37318" lon="2.23135">
        <ele>624.99</ele>
        <time>2015-06-14T09:52:45Z</time>
      </trkpt>
      <trkpt lat="43.37283" lon="2.23099">
        <ele>625.96</ele>
        <time>2015-06-14T09:52:52Z</time>
      </trkpt>
      <trkpt lat="43.37261" lon="2.23085">
        <ele>626.92</ele>
        <time>2015-06-14T09:52:56Z</time>
      </trkpt>
      <trkpt lat="43.37256" lon="2.2308">
        <ele>626.92</ele>
        <time>2015-06-14T09:52:57Z</time>
      </trkpt>
      <trkpt lat="43.3725" lon="2.23073">
        <ele>626.44</ele>
        <time>2015-06-14T09:52:58Z</time>
      </trkpt>
      <trkpt lat="43.37189" lon="2.22964">
        <ele>620.67</ele>
        <time>2015-06-14T09:53:10Z</time>
      </trkpt>
      <trkpt lat="43.37121" lon="2.22833">
        <ele>615.38</ele>
        <time>2015-06-14T09:53:23Z</time>
      </trkpt>
      <trkpt lat="43.37115" lon="2.22813">
        <ele>614.9</ele>
        <time>2015-06-14T09:53:25Z</time>
      </trkpt>
      <trkpt lat="43.37113" lon="2.22802">
        <ele>614.9</ele>
        <time>2015-06-14T09:53:26Z</time>
      </trkpt>
      <trkpt lat="43.37112" lon="2.22792">
        <ele>614.9</ele>
        <time>2015-06-14T09:53:27Z</time>
      </trkpt>
      <trkpt lat="43.37112" lon="2.22781">
        <ele>614.42</ele>
        <time>2015-06-14T09:53:28Z</time>
      </trkpt>
      <trkpt lat="43.37112" lon="2.2277">
        <ele>614.42</ele>
        <time>2015-06-14T09:53:29Z</time>
      </trkpt>
      <trkpt lat="43.37115" lon="2.22671">
        <ele>611.06</ele>
        <time>2015-06-14T09:53:38Z</time>
      </trkpt>
      <trkpt lat="43.37114" lon="2.22662">
        <ele>611.06</ele>
        <time>2015-06-14T09:53:39Z</time>
      </trkpt>
      <trkpt lat="43.37111" lon="2.22654">
        <ele>610.57</ele>
        <time>2015-06-14T09:53:40Z</time>
      </trkpt>
      <trkpt lat="43.37108" lon="2.22647">
        <ele>610.57</ele>
        <time>2015-06-14T09:53:41Z</time>
      </trkpt>
      <trkpt lat="43.37104" lon="2.22641">
        <ele>610.09</ele>
        <time>2015-06-14T09:53:42Z</time>
      </trkpt>
      <trkpt lat="43.371" lon="2.22636">
        <ele>609.61</ele>
        <time>2015-06-14T09:53:43Z</time>
      </trkpt>
      <trkpt lat="43.37096" lon="2.22631">
        <ele>609.61</ele>
        <time>2015-06-14T09:53:44Z</time>
      </trkpt>
      <trkpt lat="43.37026" lon="2.2258">
        <ele>609.61</ele>
        <time>2015-06-14T09:53:55Z</time>
      </trkpt>
      <trkpt lat="43.37019" lon="2.22577">
        <ele>609.61</ele>
        <time>2015-06-14T09:53:56Z</time>
      </trkpt>
      <trkpt lat="43.37011" lon="2.22575">
        <ele>609.61</ele>
        <time>2015-06-14T09:53:57Z</time>
      </trkpt>
      <trkpt lat="43.37003" lon="2.22573">
        <ele>609.13</ele>
        <time>2015-06-14T09:53:58Z</time>
      </trkpt>
      <trkpt lat="43.3693" lon="2.22567">
        <ele>606.73</ele>
        <time>2015-06-14T09:54:06Z</time>
      </trkpt>
      <trkpt lat="43.36921" lon="2.22563">
        <ele>606.25</ele>
        <time>2015-06-14T09:54:07Z</time>
      </trkpt>
      <trkpt lat="43.36911" lon="2.22558">
        <ele>606.25</ele>
        <time>2015-06-14T09:54:08Z</time>
      </trkpt>
      <trkpt lat="43.36798" lon="2.22498">
        <ele>602.4</ele>
        <time>2015-06-14T09:54:21Z</time>
      </trkpt>
      <trkpt lat="43.36689" lon="2.22444">
        <ele>598.08</ele>
        <time>2015-06-14T09:54:33Z</time>
      </trkpt>
      <trkpt lat="43.36563" lon="2.22367">
        <ele>591.83</ele>
        <time>2015-06-14T09:54:44Z</time>
      </trkpt>
      <trkpt lat="43.36438" lon="2.2227">
        <ele>586.54</ele>
        <time>2015-06-14T09:54:54Z</time>
      </trkpt>
      <trkpt lat="43.36277" lon="2.22165">
        <ele>573.56</ele>
        <time>2015-06-14T09:55:06Z</time>
      </trkpt>
      <trkpt lat="43.36133" lon="2.22093">
        <ele>563.47</ele>
        <time>2015-06-14T09:55:17Z</time>
      </trkpt>
      <trkpt lat="43.36007" lon="2.22032">
        <ele>557.7</ele>
        <time>2015-06-14T09:55:29Z</time>
      </trkpt>
      <trkpt lat="43.35988" lon="2.22024">
        <ele>553.86</ele>
        <time>2015-06-14T09:55:34Z</time>
      </trkpt>
      <trkpt lat="43.35986" lon="2.22027">
        <ele>553.38</ele>
        <time>2015-06-14T09:55:35Z</time>
      </trkpt>
      <trkpt lat="43.35984" lon="2.2203">
        <ele>552.41</ele>
        <time>2015-06-14T09:55:36Z</time>
      </trkpt>
      <trkpt lat="43.3598" lon="2.22061">
        <ele>549.05</ele>
        <time>2015-06-14T09:55:41Z</time>
      </trkpt>
      <trkpt lat="43.35978" lon="2.22069">
        <ele>548.57</ele>
        <time>2015-06-14T09:55:42Z</time>
      </trkpt>
      <trkpt lat="43.35976" lon="2.22076">
        <ele>547.61</ele>
        <time>2015-06-14T09:55:43Z</time>
      </trkpt>
      <trkpt lat="43.35948" lon="2.2219">
        <ele>537.03</ele>
        <time>2015-06-14T09:55:56Z</time>
      </trkpt>
      <trkpt lat="43.35913" lon="2.22315">
        <ele>531.27</ele>
        <time>2015-06-14T09:56:07Z</time>
      </trkpt>
      <trkpt lat="43.35874" lon="2.22466">
        <ele>523.58</ele>
        <time>2015-06-14T09:56:19Z</time>
      </trkpt>
      <trkpt lat="43.35873" lon="2.2248">
        <ele>522.61</ele>
        <time>2015-06-14T09:56:20Z</time>
      </trkpt>
      <trkpt lat="43.35874" lon="2.22494">
        <ele>522.13</ele>
        <time>2015-06-14T09:56:21Z</time>
      </trkpt>
      <trkpt lat="43.35878" lon="2.22507">
        <ele>521.65</ele>
        <time>2015-06-14T09:56:22Z</time>
      </trkpt>
      <trkpt lat="43.35884" lon="2.22518">
        <ele>521.17</ele>
        <time>2015-06-14T09:56:23Z</time>
      </trkpt>
      <trkpt lat="43.35892" lon="2.22527">
        <ele>520.69</ele>
        <time>2015-06-14T09:56:24Z</time>
      </trkpt>
      <trkpt lat="43.359" lon="2.22535">
        <ele>520.21</ele>
        <time>2015-06-14T09:56:25Z</time>
      </trkpt>
      <trkpt lat="43.35982" lon="2.22596">
        <ele>517.81</ele>
        <time>2015-06-14T09:56:35Z</time>
      </trkpt>
      <trkpt lat="43.3599" lon="2.22602">
        <ele>517.33</ele>
        <time>2015-06-14T09:56:36Z</time>
      </trkpt>
      <trkpt lat="43.35997" lon="2.22612">
        <ele>517.33</ele>
        <time>2015-06-14T09:56:37Z</time>
      </trkpt>
      <trkpt lat="43.36001" lon="2.22621">
        <ele>515.88</ele>
        <time>2015-06-14T09:56:38Z</time>
      </trkpt>
      <trkpt lat="43.36001" lon="2.22633">
        <ele>515.88</ele>
        <time>2015-06-14T09:56:39Z</time>
      </trkpt>
      <trkpt lat="43.35999" lon="2.22645">
        <ele>515.88</ele>
        <time>2015-06-14T09:56:40Z</time>
      </trkpt>
      <trkpt lat="43.35996" lon="2.22655">
        <ele>515.88</ele>
        <time>2015-06-14T09:56:41Z</time>
      </trkpt>
      <trkpt lat="43.35991" lon="2.22665">
        <ele>515.88</ele>
        <time>2015-06-14T09:56:42Z</time>
      </trkpt>
      <trkpt lat="43.35985" lon="2.22673">
        <ele>515.88</ele>
        <time>2015-06-14T09:56:43Z</time>
      </trkpt>
      <trkpt lat="43.35979" lon="2.22677">
        <ele>515.88</ele>
        <time>2015-06-14T09:56:44Z</time>
      </trkpt>
      <trkpt lat="43.35975" lon="2.22679">
        <ele>516.37</ele>
        <time>2015-06-14T09:56:45Z</time>
      </trkpt>
      <trkpt lat="43.35973" lon="2.2268">
        <ele>516.37</ele>
        <time>2015-06-14T09:56:46Z</time>
      </trkpt>
      <trkpt lat="43.35971" lon="2.22681">
        <ele>516.37</ele>
        <time>2015-06-14T09:56:47Z</time>
      </trkpt>
      <trkpt lat="43.35971" lon="2.22682">
        <ele>516.85</ele>
        <time>2015-06-14T09:56:48Z</time>
      </trkpt>
      <trkpt lat="43.35976" lon="2.22681">
        <ele>516.85</ele>
        <time>2015-06-14T09:56:50Z</time>
      </trkpt>
      <trkpt lat="43.35979" lon="2.22679">
        <ele>517.33</ele>
        <time>2015-06-14T09:56:51Z</time>
      </trkpt>
      <trkpt lat="43.3598" lon="2.22675">
        <ele>517.33</ele>
        <time>2015-06-14T09:56:52Z</time>
      </trkpt>
      <trkpt lat="43.35978" lon="2.2267">
        <ele>516.85</ele>
        <time>2015-06-14T09:56:53Z</time>
      </trkpt>
      <trkpt lat="43.35975" lon="2.22668">
        <ele>516.37</ele>
        <time>2015-06-14T09:56:54Z</time>
      </trkpt>
      <trkpt lat="43.35969" lon="2.22667">
        <ele>515.88</ele>
        <time>2015-06-14T09:56:55Z</time>
      </trkpt>
      <trkpt lat="43.35963" lon="2.22667">
        <ele>515.4</ele>
        <time>2015-06-14T09:56:56Z</time>
      </trkpt>
      <trkpt lat="43.35882" lon="2.22662">
        <ele>511.08</ele>
        <time>2015-06-14T09:57:07Z</time>
      </trkpt>
      <trkpt lat="43.35799" lon="2.22694">
        <ele>508.19</ele>
        <time>2015-06-14T09:57:17Z</time>
      </trkpt>
      <trkpt lat="43.35674" lon="2.22748">
        <ele>503.87</ele>
        <time>2015-06-14T09:57:31Z</time>
      </trkpt>
      <trkpt lat="43.35543" lon="2.22803">
        <ele>499.06</ele>
        <time>2015-06-14T09:57:46Z</time>
      </trkpt>
      <trkpt lat="43.35392" lon="2.22864">
        <ele>492.33</ele>
        <time>2015-06-14T09:58:02Z</time>
      </trkpt>
      <trkpt lat="43.35303" lon="2.22906">
        <ele>488.49</ele>
        <time>2015-06-14T09:58:11Z</time>
      </trkpt>
      <trkpt lat="43.35293" lon="2.22913">
        <ele>488.01</ele>
        <time>2015-06-14T09:58:12Z</time>
      </trkpt>
      <trkpt lat="43.35285" lon="2.22922">
        <ele>488.01</ele>
        <time>2015-06-14T09:58:13Z</time>
      </trkpt>
      <trkpt lat="43.35277" lon="2.22932">
        <ele>487.53</ele>
        <time>2015-06-14T09:58:14Z</time>
      </trkpt>
      <trkpt lat="43.3527" lon="2.22944">
        <ele>487.05</ele>
        <time>2015-06-14T09:58:15Z</time>
      </trkpt>
      <trkpt lat="43.35265" lon="2.22957">
        <ele>486.56</ele>
        <time>2015-06-14T09:58:16Z</time>
      </trkpt>
      <trkpt lat="43.3526" lon="2.22971">
        <ele>486.08</ele>
        <time>2015-06-14T09:58:17Z</time>
      </trkpt>
      <trkpt lat="43.35256" lon="2.22985">
        <ele>485.6</ele>
        <time>2015-06-14T09:58:18Z</time>
      </trkpt>
      <trkpt lat="43.35252" lon="2.23">
        <ele>485.12</ele>
        <time>2015-06-14T09:58:19Z</time>
      </trkpt>
      <trkpt lat="43.35197" lon="2.23235">
        <ele>478.39</ele>
        <time>2015-06-14T09:58:35Z</time>
      </trkpt>
      <trkpt lat="43.35174" lon="2.23304">
        <ele>476.95</ele>
        <time>2015-06-14T09:58:40Z</time>
      </trkpt>
      <trkpt lat="43.35167" lon="2.23315">
        <ele>476.47</ele>
        <time>2015-06-14T09:58:41Z</time>
      </trkpt>
      <trkpt lat="43.35157" lon="2.23324">
        <ele>476.47</ele>
        <time>2015-06-14T09:58:42Z</time>
      </trkpt>
      <trkpt lat="43.35054" lon="2.23394">
        <ele>469.74</ele>
        <time>2015-06-14T09:58:52Z</time>
      </trkpt>
      <trkpt lat="43.35005" lon="2.23438">
        <ele>466.38</ele>
        <time>2015-06-14T09:58:57Z</time>
      </trkpt>
      <trkpt lat="43.34997" lon="2.23449">
        <ele>465.42</ele>
        <time>2015-06-14T09:58:58Z</time>
      </trkpt>
      <trkpt lat="43.34888" lon="2.23624">
        <ele>458.69</ele>
        <time>2015-06-14T09:59:12Z</time>
      </trkpt>
      <trkpt lat="43.34867" lon="2.23658">
        <ele>458.21</ele>
        <time>2015-06-14T09:59:15Z</time>
      </trkpt>
      <trkpt lat="43.34862" lon="2.23671">
        <ele>457.72</ele>
        <time>2015-06-14T09:59:16Z</time>
      </trkpt>
      <trkpt lat="43.34859" lon="2.23685">
        <ele>457.72</ele>
        <time>2015-06-14T09:59:17Z</time>
      </trkpt>
      <trkpt lat="43.34858" lon="2.237">
        <ele>457.72</ele>
        <time>2015-06-14T09:59:18Z</time>
      </trkpt>
      <trkpt lat="43.34858" lon="2.23715">
        <ele>457.72</ele>
        <time>2015-06-14T09:59:19Z</time>
      </trkpt>
      <trkpt lat="43.34858" lon="2.23729">
        <ele>457.72</ele>
        <time>2015-06-14T09:59:20Z</time>
      </trkpt>
      <trkpt lat="43.3486" lon="2.23744">
        <ele>457.72</ele>
        <time>2015-06-14T09:59:21Z</time>
      </trkpt>
      <trkpt lat="43.34873" lon="2.23945">
        <ele>453.88</ele>
        <time>2015-06-14T09:59:35Z</time>
      </trkpt>
      <trkpt lat="43.34851" lon="2.24115">
        <ele>449.07</ele>
        <time>2015-06-14T09:59:46Z</time>
      </trkpt>
      <trkpt lat="43.34837" lon="2.24206">
        <ele>446.19</ele>
        <time>2015-06-14T09:59:52Z</time>
      </trkpt>
      <trkpt lat="43.34837" lon="2.24222">
        <ele>445.71</ele>
        <time>2015-06-14T09:59:53Z</time>
      </trkpt>
      <trkpt lat="43.34841" lon="2.24237">
        <ele>444.75</ele>
        <time>2015-06-14T09:59:54Z</time>
      </trkpt>
      <trkpt lat="43.34847" lon="2.2425">
        <ele>444.27</ele>
        <time>2015-06-14T09:59:55Z</time>
      </trkpt>
      <trkpt lat="43.34853" lon="2.24263">
        <ele>443.79</ele>
        <time>2015-06-14T09:59:56Z</time>
      </trkpt>
      <trkpt lat="43.34883" lon="2.24307">
        <ele>442.34</ele>
        <time>2015-06-14T10:00:00Z</time>
      </trkpt>
      <trkpt lat="43.34892" lon="2.24313">
        <ele>442.34</ele>
        <time>2015-06-14T10:00:01Z</time>
      </trkpt>
      <trkpt lat="43.34903" lon="2.24315">
        <ele>442.34</ele>
        <time>2015-06-14T10:00:02Z</time>
      </trkpt>
      <trkpt lat="43.34913" lon="2.24315">
        <ele>441.86</ele>
        <time>2015-06-14T10:00:03Z</time>
      </trkpt>
      <trkpt lat="43.34923" lon="2.24316">
        <ele>441.38</ele>
        <time>2015-06-14T10:00:04Z</time>
      </trkpt>
      <trkpt lat="43.34932" lon="2.24321">
        <ele>440.9</ele>
        <time>2015-06-14T10:00:05Z</time>
      </trkpt>
      <trkpt lat="43.3494" lon="2.24329">
        <ele>440.42</ele>
        <time>2015-06-14T10:00:06Z</time>
      </trkpt>
      <trkpt lat="43.34947" lon="2.24336">
        <ele>439.94</ele>
        <time>2015-06-14T10:00:07Z</time>
      </trkpt>
      <trkpt lat="43.34952" lon="2.24343">
        <ele>439.46</ele>
        <time>2015-06-14T10:00:08Z</time>
      </trkpt>
      <trkpt lat="43.34962" lon="2.24355">
        <ele>438.5</ele>
        <time>2015-06-14T10:00:10Z</time>
      </trkpt>
      <trkpt lat="43.3498" lon="2.24355">
        <ele>435.61</ele>
        <time>2015-06-14T10:00:15Z</time>
      </trkpt>
      <trkpt lat="43.34988" lon="2.24344">
        <ele>434.65</ele>
        <time>2015-06-14T10:00:19Z</time>
      </trkpt>
      <trkpt lat="43.34817" lon="2.24431">
        <ele>436.1</ele>
        <time>2015-06-14T10:00:22Z</time>
      </trkpt>
      <trkpt lat="43.34699" lon="2.24518">
        <ele>433.69</ele>
        <time>2015-06-14T10:00:35Z</time>
      </trkpt>
      <trkpt lat="43.34688" lon="2.24523">
        <ele>433.21</ele>
        <time>2015-06-14T10:00:36Z</time>
      </trkpt>
      <trkpt lat="43.34678" lon="2.24526">
        <ele>433.21</ele>
        <time>2015-06-14T10:00:37Z</time>
      </trkpt>
      <trkpt lat="43.34668" lon="2.24528">
        <ele>433.21</ele>
        <time>2015-06-14T10:00:38Z</time>
      </trkpt>
      <trkpt lat="43.34657" lon="2.24529">
        <ele>433.21</ele>
        <time>2015-06-14T10:00:39Z</time>
      </trkpt>
      <trkpt lat="43.34616" lon="2.24538">
        <ele>432.73</ele>
        <time>2015-06-14T10:00:43Z</time>
      </trkpt>
      <trkpt lat="43.34526" lon="2.24589">
        <ele>425.04</ele>
        <time>2015-06-14T10:00:52Z</time>
      </trkpt>
      <trkpt lat="43.34518" lon="2.24598">
        <ele>424.08</ele>
        <time>2015-06-14T10:00:53Z</time>
      </trkpt>
      <trkpt lat="43.34434" lon="2.24705">
        <ele>417.35</ele>
        <time>2015-06-14T10:01:03Z</time>
      </trkpt>
      <trkpt lat="43.34423" lon="2.24711">
        <ele>416.39</ele>
        <time>2015-06-14T10:01:04Z</time>
      </trkpt>
      <trkpt lat="43.34358" lon="2.24745">
        <ele>413.98</ele>
        <time>2015-06-14T10:01:10Z</time>
      </trkpt>
      <trkpt lat="43.34348" lon="2.24753">
        <ele>413.5</ele>
        <time>2015-06-14T10:01:11Z</time>
      </trkpt>
      <trkpt lat="43.34339" lon="2.24763">
        <ele>413.02</ele>
        <time>2015-06-14T10:01:12Z</time>
      </trkpt>
      <trkpt lat="43.34331" lon="2.24775">
        <ele>412.06</ele>
        <time>2015-06-14T10:01:13Z</time>
      </trkpt>
      <trkpt lat="43.34324" lon="2.24788">
        <ele>411.1</ele>
        <time>2015-06-14T10:01:14Z</time>
      </trkpt>
      <trkpt lat="43.34318" lon="2.24801">
        <ele>410.62</ele>
        <time>2015-06-14T10:01:15Z</time>
      </trkpt>
      <trkpt lat="43.3421" lon="2.25081">
        <ele>400.53</ele>
        <time>2015-06-14T10:01:34Z</time>
      </trkpt>
      <trkpt lat="43.34209" lon="2.25097">
        <ele>400.05</ele>
        <time>2015-06-14T10:01:35Z</time>
      </trkpt>
      <trkpt lat="43.34213" lon="2.25112">
        <ele>399.57</ele>
        <time>2015-06-14T10:01:36Z</time>
      </trkpt>
      <trkpt lat="43.34221" lon="2.25122">
        <ele>399.08</ele>
        <time>2015-06-14T10:01:37Z</time>
      </trkpt>
      <trkpt lat="43.34231" lon="2.2513">
        <ele>398.6</ele>
        <time>2015-06-14T10:01:38Z</time>
      </trkpt>
      <trkpt lat="43.34242" lon="2.25137">
        <ele>398.12</ele>
        <time>2015-06-14T10:01:39Z</time>
      </trkpt>
      <trkpt lat="43.343" lon="2.25177">
        <ele>395.24</ele>
        <time>2015-06-14T10:01:45Z</time>
      </trkpt>
      <trkpt lat="43.34305" lon="2.25187">
        <ele>394.76</ele>
        <time>2015-06-14T10:01:46Z</time>
      </trkpt>
      <trkpt lat="43.34305" lon="2.25196">
        <ele>393.8</ele>
        <time>2015-06-14T10:01:47Z</time>
      </trkpt>
      <trkpt lat="43.34301" lon="2.25205">
        <ele>393.32</ele>
        <time>2015-06-14T10:01:48Z</time>
      </trkpt>
      <trkpt lat="43.34295" lon="2.25213">
        <ele>392.84</ele>
        <time>2015-06-14T10:01:49Z</time>
      </trkpt>
      <trkpt lat="43.34289" lon="2.2522">
        <ele>392.84</ele>
        <time>2015-06-14T10:01:50Z</time>
      </trkpt>
      <trkpt lat="43.34283" lon="2.25227">
        <ele>392.84</ele>
        <time>2015-06-14T10:01:51Z</time>
      </trkpt>
      <trkpt lat="43.34277" lon="2.25232">
        <ele>392.84</ele>
        <time>2015-06-14T10:01:52Z</time>
      </trkpt>
      <trkpt lat="43.3427" lon="2.25235">
        <ele>392.84</ele>
        <time>2015-06-14T10:01:53Z</time>
      </trkpt>
      <trkpt lat="43.34264" lon="2.25237">
        <ele>393.32</ele>
        <time>2015-06-14T10:01:54Z</time>
      </trkpt>
      <trkpt lat="43.34257" lon="2.25237">
        <ele>393.32</ele>
        <time>2015-06-14T10:01:55Z</time>
      </trkpt>
      <trkpt lat="43.34251" lon="2.25237">
        <ele>393.32</ele>
        <time>2015-06-14T10:01:56Z</time>
      </trkpt>
      <trkpt lat="43.34244" lon="2.25237">
        <ele>393.8</ele>
        <time>2015-06-14T10:01:57Z</time>
      </trkpt>
      <trkpt lat="43.34237" lon="2.25238">
        <ele>393.8</ele>
        <time>2015-06-14T10:01:58Z</time>
      </trkpt>
      <trkpt lat="43.34217" lon="2.25239">
        <ele>394.76</ele>
        <time>2015-06-14T10:02:01Z</time>
      </trkpt>
      <trkpt lat="43.34196" lon="2.25243">
        <ele>395.24</ele>
        <time>2015-06-14T10:02:04Z</time>
      </trkpt>
      <trkpt lat="43.3419" lon="2.25247">
        <ele>395.72</ele>
        <time>2015-06-14T10:02:05Z</time>
      </trkpt>
      <trkpt lat="43.34185" lon="2.25253">
        <ele>396.2</ele>
        <time>2015-06-14T10:02:06Z</time>
      </trkpt>
      <trkpt lat="43.34182" lon="2.25261">
        <ele>397.16</ele>
        <time>2015-06-14T10:02:07Z</time>
      </trkpt>
      <trkpt lat="43.34181" lon="2.25269">
        <ele>397.64</ele>
        <time>2015-06-14T10:02:08Z</time>
      </trkpt>
      <trkpt lat="43.3418" lon="2.25277">
        <ele>398.12</ele>
        <time>2015-06-14T10:02:09Z</time>
      </trkpt>
      <trkpt lat="43.34181" lon="2.25287">
        <ele>398.6</ele>
        <time>2015-06-14T10:02:10Z</time>
      </trkpt>
      <trkpt lat="43.34183" lon="2.25296">
        <ele>399.08</ele>
        <time>2015-06-14T10:02:11Z</time>
      </trkpt>
      <trkpt lat="43.34185" lon="2.25312">
        <ele>401.01</ele>
        <time>2015-06-14T10:02:13Z</time>
      </trkpt>
      <trkpt lat="43.34184" lon="2.25319">
        <ele>401.01</ele>
        <time>2015-06-14T10:02:14Z</time>
      </trkpt>
      <trkpt lat="43.34181" lon="2.25323">
        <ele>401.01</ele>
        <time>2015-06-14T10:02:15Z</time>
      </trkpt>
      <trkpt lat="43.34179" lon="2.25326">
        <ele>401.01</ele>
        <time>2015-06-14T10:02:16Z</time>
      </trkpt>
      <trkpt lat="43.34175" lon="2.2533">
        <ele>401.01</ele>
        <time>2015-06-14T10:02:17Z</time>
      </trkpt>
      <trkpt lat="43.3417" lon="2.25334">
        <ele>401.01</ele>
        <time>2015-06-14T10:02:18Z</time>
      </trkpt>
      <trkpt lat="43.34166" lon="2.25338">
        <ele>400.53</ele>
        <time>2015-06-14T10:02:19Z</time>
      </trkpt>
      <trkpt lat="43.34162" lon="2.25343">
        <ele>400.53</ele>
        <time>2015-06-14T10:02:20Z</time>
      </trkpt>
      <trkpt lat="43.34157" lon="2.25346">
        <ele>400.05</ele>
        <time>2015-06-14T10:02:21Z</time>
      </trkpt>
      <trkpt lat="43.34152" lon="2.2535">
        <ele>400.05</ele>
        <time>2015-06-14T10:02:22Z</time>
      </trkpt>
      <trkpt lat="43.34141" lon="2.25356">
        <ele>399.08</ele>
        <time>2015-06-14T10:02:24Z</time>
      </trkpt>
      <trkpt lat="43.34134" lon="2.25358">
        <ele>399.08</ele>
        <time>2015-06-14T10:02:25Z</time>
      </trkpt>
      <trkpt lat="43.34128" lon="2.25357">
        <ele>398.6</ele>
        <time>2015-06-14T10:02:26Z</time>
      </trkpt>
      <trkpt lat="43.34036" lon="2.25355">
        <ele>395.24</ele>
        <time>2015-06-14T10:02:38Z</time>
      </trkpt>
      <trkpt lat="43.33873" lon="2.25353">
        <ele>389.47</ele>
        <time>2015-06-14T10:02:55Z</time>
      </trkpt>
      <trkpt lat="43.33717" lon="2.25357">
        <ele>383.22</ele>
        <time>2015-06-14T10:03:11Z</time>
      </trkpt>
      <trkpt lat="43.33694" lon="2.25363">
        <ele>382.26</ele>
        <time>2015-06-14T10:03:13Z</time>
      </trkpt>
      <trkpt lat="43.33682" lon="2.25368">
        <ele>381.3</ele>
        <time>2015-06-14T10:03:14Z</time>
      </trkpt>
      <trkpt lat="43.33546" lon="2.25463">
        <ele>375.05</ele>
        <time>2015-06-14T10:03:27Z</time>
      </trkpt>
      <trkpt lat="43.334" lon="2.25595">
        <ele>368.8</ele>
        <time>2015-06-14T10:03:42Z</time>
      </trkpt>
      <trkpt lat="43.33268" lon="2.25723">
        <ele>365.44</ele>
        <time>2015-06-14T10:03:56Z</time>
      </trkpt>
      <trkpt lat="43.33124" lon="2.25856">
        <ele>362.55</ele>
        <time>2015-06-14T10:04:12Z</time>
      </trkpt>
      <trkpt lat="43.33115" lon="2.25865">
        <ele>362.07</ele>
        <time>2015-06-14T10:04:13Z</time>
      </trkpt>
      <trkpt lat="43.33108" lon="2.25876">
        <ele>362.07</ele>
        <time>2015-06-14T10:04:14Z</time>
      </trkpt>
      <trkpt lat="43.33101" lon="2.25887">
        <ele>361.11</ele>
        <time>2015-06-14T10:04:15Z</time>
      </trkpt>
      <trkpt lat="43.33045" lon="2.26">
        <ele>358.71</ele>
        <time>2015-06-14T10:04:24Z</time>
      </trkpt>
      <trkpt lat="43.33042" lon="2.26015">
        <ele>358.71</ele>
        <time>2015-06-14T10:04:25Z</time>
      </trkpt>
      <trkpt lat="43.33002" lon="2.26193">
        <ele>356.31</ele>
        <time>2015-06-14T10:04:37Z</time>
      </trkpt>
      <trkpt lat="43.3294" lon="2.2639">
        <ele>352.94</ele>
        <time>2015-06-14T10:04:51Z</time>
      </trkpt>
      <trkpt lat="43.32914" lon="2.26441">
        <ele>351.98</ele>
        <time>2015-06-14T10:04:55Z</time>
      </trkpt>
      <trkpt lat="43.32909" lon="2.26454">
        <ele>351.5</ele>
        <time>2015-06-14T10:04:56Z</time>
      </trkpt>
      <trkpt lat="43.32906" lon="2.26469">
        <ele>351.02</ele>
        <time>2015-06-14T10:04:57Z</time>
      </trkpt>
      <trkpt lat="43.32904" lon="2.26484">
        <ele>350.54</ele>
        <time>2015-06-14T10:04:58Z</time>
      </trkpt>
      <trkpt lat="43.32903" lon="2.26499">
        <ele>350.06</ele>
        <time>2015-06-14T10:04:59Z</time>
      </trkpt>
      <trkpt lat="43.32888" lon="2.26604">
        <ele>347.17</ele>
        <time>2015-06-14T10:05:06Z</time>
      </trkpt>
      <trkpt lat="43.32883" lon="2.26619">
        <ele>346.69</ele>
        <time>2015-06-14T10:05:07Z</time>
      </trkpt>
      <trkpt lat="43.32878" lon="2.26632">
        <ele>346.21</ele>
        <time>2015-06-14T10:05:08Z</time>
      </trkpt>
      <trkpt lat="43.32839" lon="2.26711">
        <ele>342.85</ele>
        <time>2015-06-14T10:05:14Z</time>
      </trkpt>
      <trkpt lat="43.32835" lon="2.26726">
        <ele>342.37</ele>
        <time>2015-06-14T10:05:15Z</time>
      </trkpt>
      <trkpt lat="43.32832" lon="2.26741">
        <ele>342.37</ele>
        <time>2015-06-14T10:05:16Z</time>
      </trkpt>
      <trkpt lat="43.32824" lon="2.26821">
        <ele>340.44</ele>
        <time>2015-06-14T10:05:21Z</time>
      </trkpt>
      <trkpt lat="43.3282" lon="2.26836">
        <ele>339.96</ele>
        <time>2015-06-14T10:05:22Z</time>
      </trkpt>
      <trkpt lat="43.32814" lon="2.26852">
        <ele>339.48</ele>
        <time>2015-06-14T10:05:23Z</time>
      </trkpt>
      <trkpt lat="43.3274" lon="2.2698">
        <ele>335.64</ele>
        <time>2015-06-14T10:05:33Z</time>
      </trkpt>
      <trkpt lat="43.32644" lon="2.27069">
        <ele>331.79</ele>
        <time>2015-06-14T10:05:43Z</time>
      </trkpt>
      <trkpt lat="43.32637" lon="2.27079">
        <ele>331.31</ele>
        <time>2015-06-14T10:05:44Z</time>
      </trkpt>
      <trkpt lat="43.3263" lon="2.27092">
        <ele>330.83</ele>
        <time>2015-06-14T10:05:45Z</time>
      </trkpt>
      <trkpt lat="43.32582" lon="2.2718">
        <ele>328.43</ele>
        <time>2015-06-14T10:05:53Z</time>
      </trkpt>
      <trkpt lat="43.32576" lon="2.27187">
        <ele>328.43</ele>
        <time>2015-06-14T10:05:54Z</time>
      </trkpt>
      <trkpt lat="43.32568" lon="2.27192">
        <ele>327.95</ele>
        <time>2015-06-14T10:05:55Z</time>
      </trkpt>
      <trkpt lat="43.32561" lon="2.27192">
        <ele>327.47</ele>
        <time>2015-06-14T10:05:56Z</time>
      </trkpt>
      <trkpt lat="43.32554" lon="2.27188">
        <ele>327.47</ele>
        <time>2015-06-14T10:05:57Z</time>
      </trkpt>
      <trkpt lat="43.32548" lon="2.27181">
        <ele>326.99</ele>
        <time>2015-06-14T10:05:58Z</time>
      </trkpt>
      <trkpt lat="43.32544" lon="2.27172">
        <ele>326.5</ele>
        <time>2015-06-14T10:05:59Z</time>
      </trkpt>
      <trkpt lat="43.32542" lon="2.27163">
        <ele>326.02</ele>
        <time>2015-06-14T10:06:00Z</time>
      </trkpt>
      <trkpt lat="43.32543" lon="2.27153">
        <ele>325.54</ele>
        <time>2015-06-14T10:06:01Z</time>
      </trkpt>
      <trkpt lat="43.32544" lon="2.27141">
        <ele>325.54</ele>
        <time>2015-06-14T10:06:02Z</time>
      </trkpt>
      <trkpt lat="43.32543" lon="2.27131">
        <ele>325.54</ele>
        <time>2015-06-14T10:06:03Z</time>
      </trkpt>
      <trkpt lat="43.3254" lon="2.27121">
        <ele>326.02</ele>
        <time>2015-06-14T10:06:04Z</time>
      </trkpt>
      <trkpt lat="43.32536" lon="2.27112">
        <ele>326.02</ele>
        <time>2015-06-14T10:06:05Z</time>
      </trkpt>
      <trkpt lat="43.32533" lon="2.27103">
        <ele>326.02</ele>
        <time>2015-06-14T10:06:06Z</time>
      </trkpt>
      <trkpt lat="43.32532" lon="2.27094">
        <ele>326.5</ele>
        <time>2015-06-14T10:06:07Z</time>
      </trkpt>
      <trkpt lat="43.32533" lon="2.27084">
        <ele>326.5</ele>
        <time>2015-06-14T10:06:08Z</time>
      </trkpt>
      <trkpt lat="43.32537" lon="2.27056">
        <ele>326.5</ele>
        <time>2015-06-14T10:06:11Z</time>
      </trkpt>
      <trkpt lat="43.32537" lon="2.27046">
        <ele>326.99</ele>
        <time>2015-06-14T10:06:12Z</time>
      </trkpt>
      <trkpt lat="43.32536" lon="2.27028">
        <ele>326.99</ele>
        <time>2015-06-14T10:06:14Z</time>
      </trkpt>
      <trkpt lat="43.3254" lon="2.26972">
        <ele>326.02</ele>
        <time>2015-06-14T10:06:20Z</time>
      </trkpt>
      <trkpt lat="43.32539" lon="2.26963">
        <ele>325.54</ele>
        <time>2015-06-14T10:06:21Z</time>
      </trkpt>
      <trkpt lat="43.32538" lon="2.26954">
        <ele>325.54</ele>
        <time>2015-06-14T10:06:22Z</time>
      </trkpt>
      <trkpt lat="43.32522" lon="2.26885">
        <ele>324.1</ele>
        <time>2015-06-14T10:06:30Z</time>
      </trkpt>
      <trkpt lat="43.3252" lon="2.26875">
        <ele>324.1</ele>
        <time>2015-06-14T10:06:31Z</time>
      </trkpt>
      <trkpt lat="43.3252" lon="2.26866">
        <ele>323.62</ele>
        <time>2015-06-14T10:06:32Z</time>
      </trkpt>
      <trkpt lat="43.3252" lon="2.26856">
        <ele>323.62</ele>
        <time>2015-06-14T10:06:33Z</time>
      </trkpt>
      <trkpt lat="43.32521" lon="2.26845">
        <ele>323.62</ele>
        <time>2015-06-14T10:06:34Z</time>
      </trkpt>
      <trkpt lat="43.32522" lon="2.26835">
        <ele>323.14</ele>
        <time>2015-06-14T10:06:35Z</time>
      </trkpt>
      <trkpt lat="43.32532" lon="2.26765">
        <ele>319.78</ele>
        <time>2015-06-14T10:06:42Z</time>
      </trkpt>
      <trkpt lat="43.32531" lon="2.26755">
        <ele>319.3</ele>
        <time>2015-06-14T10:06:43Z</time>
      </trkpt>
      <trkpt lat="43.32528" lon="2.26745">
        <ele>318.81</ele>
        <time>2015-06-14T10:06:44Z</time>
      </trkpt>
      <trkpt lat="43.32523" lon="2.26738">
        <ele>318.81</ele>
        <time>2015-06-14T10:06:45Z</time>
      </trkpt>
      <trkpt lat="43.32516" lon="2.26732">
        <ele>318.33</ele>
        <time>2015-06-14T10:06:46Z</time>
      </trkpt>
      <trkpt lat="43.32509" lon="2.26729">
        <ele>317.85</ele>
        <time>2015-06-14T10:06:47Z</time>
      </trkpt>
      <trkpt lat="43.32503" lon="2.26727">
        <ele>317.85</ele>
        <time>2015-06-14T10:06:48Z</time>
      </trkpt>
      <trkpt lat="43.32496" lon="2.26729">
        <ele>317.37</ele>
        <time>2015-06-14T10:06:49Z</time>
      </trkpt>
      <trkpt lat="43.3249" lon="2.26733">
        <ele>316.89</ele>
        <time>2015-06-14T10:06:50Z</time>
      </trkpt>
      <trkpt lat="43.32485" lon="2.2674">
        <ele>316.41</ele>
        <time>2015-06-14T10:06:51Z</time>
      </trkpt>
      <trkpt lat="43.32479" lon="2.26748">
        <ele>316.41</ele>
        <time>2015-06-14T10:06:52Z</time>
      </trkpt>
      <trkpt lat="43.32474" lon="2.26757">
        <ele>315.93</ele>
        <time>2015-06-14T10:06:53Z</time>
      </trkpt>
      <trkpt lat="43.32469" lon="2.26765">
        <ele>315.93</ele>
        <time>2015-06-14T10:06:54Z</time>
      </trkpt>
      <trkpt lat="43.32391" lon="2.26871">
        <ele>311.6</ele>
        <time>2015-06-14T10:07:06Z</time>
      </trkpt>
      <trkpt lat="43.3231" lon="2.26996">
        <ele>305.36</ele>
        <time>2015-06-14T10:07:18Z</time>
      </trkpt>
      <trkpt lat="43.32292" lon="2.27051">
        <ele>302.95</ele>
        <time>2015-06-14T10:07:22Z</time>
      </trkpt>
      <trkpt lat="43.32286" lon="2.27065">
        <ele>302.47</ele>
        <time>2015-06-14T10:07:23Z</time>
      </trkpt>
      <trkpt lat="43.32253" lon="2.27151">
        <ele>298.63</ele>
        <time>2015-06-14T10:07:29Z</time>
      </trkpt>
      <trkpt lat="43.32249" lon="2.27167">
        <ele>298.15</ele>
        <time>2015-06-14T10:07:30Z</time>
      </trkpt>
      <trkpt lat="43.32247" lon="2.27182">
        <ele>297.67</ele>
        <time>2015-06-14T10:07:31Z</time>
      </trkpt>
      <trkpt lat="43.32204" lon="2.27344">
        <ele>291.9</ele>
        <time>2015-06-14T10:07:41Z</time>
      </trkpt>
      <trkpt lat="43.32113" lon="2.276">
        <ele>279.4</ele>
        <time>2015-06-14T10:07:56Z</time>
      </trkpt>
      <trkpt lat="43.32028" lon="2.27756">
        <ele>270.27</ele>
        <time>2015-06-14T10:08:06Z</time>
      </trkpt>
      <trkpt lat="43.32008" lon="2.27786">
        <ele>268.35</ele>
        <time>2015-06-14T10:08:08Z</time>
      </trkpt>
      <trkpt lat="43.32001" lon="2.27803">
        <ele>267.38</ele>
        <time>2015-06-14T10:08:09Z</time>
      </trkpt>
      <trkpt lat="43.31996" lon="2.27822">
        <ele>266.42</ele>
        <time>2015-06-14T10:08:10Z</time>
      </trkpt>
      <trkpt lat="43.31994" lon="2.27841">
        <ele>265.46</ele>
        <time>2015-06-14T10:08:11Z</time>
      </trkpt>
      <trkpt lat="43.3199" lon="2.27861">
        <ele>264.5</ele>
        <time>2015-06-14T10:08:12Z</time>
      </trkpt>
      <trkpt lat="43.31985" lon="2.27879">
        <ele>263.54</ele>
        <time>2015-06-14T10:08:13Z</time>
      </trkpt>
      <trkpt lat="43.31977" lon="2.27895">
        <ele>263.06</ele>
        <time>2015-06-14T10:08:14Z</time>
      </trkpt>
      <trkpt lat="43.31967" lon="2.27907">
        <ele>262.58</ele>
        <time>2015-06-14T10:08:15Z</time>
      </trkpt>
      <trkpt lat="43.31956" lon="2.27918">
        <ele>262.1</ele>
        <time>2015-06-14T10:08:16Z</time>
      </trkpt>
      <trkpt lat="43.31944" lon="2.27929">
        <ele>262.1</ele>
        <time>2015-06-14T10:08:17Z</time>
      </trkpt>
      <trkpt lat="43.31767" lon="2.28087">
        <ele>256.33</ele>
        <time>2015-06-14T10:08:34Z</time>
      </trkpt>
      <trkpt lat="43.31639" lon="2.28177">
        <ele>254.41</ele>
        <time>2015-06-14T10:08:47Z</time>
      </trkpt>
      <trkpt lat="43.3163" lon="2.28187">
        <ele>254.41</ele>
        <time>2015-06-14T10:08:48Z</time>
      </trkpt>
      <trkpt lat="43.31623" lon="2.28197">
        <ele>253.93</ele>
        <time>2015-06-14T10:08:49Z</time>
      </trkpt>
      <trkpt lat="43.31616" lon="2.28208">
        <ele>253.93</ele>
        <time>2015-06-14T10:08:50Z</time>
      </trkpt>
      <trkpt lat="43.3161" lon="2.2822">
        <ele>253.93</ele>
        <time>2015-06-14T10:08:51Z</time>
      </trkpt>
      <trkpt lat="43.31605" lon="2.28232">
        <ele>253.93</ele>
        <time>2015-06-14T10:08:52Z</time>
      </trkpt>
      <trkpt lat="43.31518" lon="2.28429">
        <ele>250.56</ele>
        <time>2015-06-14T10:09:08Z</time>
      </trkpt>
      <trkpt lat="43.31449" lon="2.28615">
        <ele>248.16</ele>
        <time>2015-06-14T10:09:22Z</time>
      </trkpt>
      <trkpt lat="43.31442" lon="2.28627">
        <ele>247.68</ele>
        <time>2015-06-14T10:09:23Z</time>
      </trkpt>
      <trkpt lat="43.3137" lon="2.28721">
        <ele>246.23</ele>
        <time>2015-06-14T10:09:32Z</time>
      </trkpt>
      <trkpt lat="43.31351" lon="2.28737">
        <ele>245.75</ele>
        <time>2015-06-14T10:09:34Z</time>
      </trkpt>
      <trkpt lat="43.31342" lon="2.28746">
        <ele>245.27</ele>
        <time>2015-06-14T10:09:35Z</time>
      </trkpt>
      <trkpt lat="43.31335" lon="2.28756">
        <ele>244.79</ele>
        <time>2015-06-14T10:09:36Z</time>
      </trkpt>
      <trkpt lat="43.31322" lon="2.28776">
        <ele>244.31</ele>
        <time>2015-06-14T10:09:38Z</time>
      </trkpt>
      <trkpt lat="43.31317" lon="2.28788">
        <ele>243.83</ele>
        <time>2015-06-14T10:09:39Z</time>
      </trkpt>
      <trkpt lat="43.31313" lon="2.288">
        <ele>243.83</ele>
        <time>2015-06-14T10:09:40Z</time>
      </trkpt>
      <trkpt lat="43.3131" lon="2.28814">
        <ele>243.35</ele>
        <time>2015-06-14T10:09:41Z</time>
      </trkpt>
      <trkpt lat="43.31305" lon="2.28829">
        <ele>242.87</ele>
        <time>2015-06-14T10:09:42Z</time>
      </trkpt>
      <trkpt lat="43.31301" lon="2.28841">
        <ele>242.39</ele>
        <time>2015-06-14T10:09:43Z</time>
      </trkpt>
      <trkpt lat="43.31296" lon="2.28853">
        <ele>242.39</ele>
        <time>2015-06-14T10:09:44Z</time>
      </trkpt>
      <trkpt lat="43.31289" lon="2.28864">
        <ele>241.91</ele>
        <time>2015-06-14T10:09:45Z</time>
      </trkpt>
      <trkpt lat="43.31281" lon="2.28876">
        <ele>241.91</ele>
        <time>2015-06-14T10:09:46Z</time>
      </trkpt>
      <trkpt lat="43.31186" lon="2.29037">
        <ele>239.99</ele>
        <time>2015-06-14T10:10:00Z</time>
      </trkpt>
      <trkpt lat="43.31111" lon="2.29167">
        <ele>239.99</ele>
        <time>2015-06-14T10:10:12Z</time>
      </trkpt>
      <trkpt lat="43.31088" lon="2.29215">
        <ele>239.51</ele>
        <time>2015-06-14T10:10:16Z</time>
      </trkpt>
      <trkpt lat="43.31081" lon="2.29226">
        <ele>239.02</ele>
        <time>2015-06-14T10:10:17Z</time>
      </trkpt>
      <trkpt lat="43.30987" lon="2.29355">
        <ele>236.14</ele>
        <time>2015-06-14T10:10:30Z</time>
      </trkpt>
      <trkpt lat="43.30941" lon="2.29411">
        <ele>235.18</ele>
        <time>2015-06-14T10:10:36Z</time>
      </trkpt>
      <trkpt lat="43.30931" lon="2.29417">
        <ele>234.7</ele>
        <time>2015-06-14T10:10:37Z</time>
      </trkpt>
      <trkpt lat="43.3092" lon="2.29422">
        <ele>234.7</ele>
        <time>2015-06-14T10:10:38Z</time>
      </trkpt>
      <trkpt lat="43.30844" lon="2.29442">
        <ele>233.26</ele>
        <time>2015-06-14T10:10:45Z</time>
      </trkpt>
      <trkpt lat="43.30834" lon="2.29447">
        <ele>232.78</ele>
        <time>2015-06-14T10:10:46Z</time>
      </trkpt>
      <trkpt lat="43.30824" lon="2.29454">
        <ele>232.3</ele>
        <time>2015-06-14T10:10:47Z</time>
      </trkpt>
      <trkpt lat="43.30715" lon="2.29527">
        <ele>227.49</ele>
        <time>2015-06-14T10:10:58Z</time>
      </trkpt>
      <trkpt lat="43.30695" lon="2.29541">
        <ele>226.53</ele>
        <time>2015-06-14T10:11:00Z</time>
      </trkpt>
      <trkpt lat="43.30686" lon="2.2955">
        <ele>226.05</ele>
        <time>2015-06-14T10:11:01Z</time>
      </trkpt>
      <trkpt lat="43.30677" lon="2.2956">
        <ele>225.09</ele>
        <time>2015-06-14T10:11:02Z</time>
      </trkpt>
      <trkpt lat="43.30669" lon="2.29572">
        <ele>224.61</ele>
        <time>2015-06-14T10:11:03Z</time>
      </trkpt>
      <trkpt lat="43.30662" lon="2.29585">
        <ele>224.61</ele>
        <time>2015-06-14T10:11:04Z</time>
      </trkpt>
      <trkpt lat="43.30551" lon="2.29765">
        <ele>222.2</ele>
        <time>2015-06-14T10:11:19Z</time>
      </trkpt>
      <trkpt lat="43.30496" lon="2.29907">
        <ele>220.76</ele>
        <time>2015-06-14T10:11:29Z</time>
      </trkpt>
      <trkpt lat="43.3043" lon="2.3008">
        <ele>221.72</ele>
        <time>2015-06-14T10:11:43Z</time>
      </trkpt>
      <trkpt lat="43.30397" lon="2.30148">
        <ele>223.64</ele>
        <time>2015-06-14T10:11:49Z</time>
      </trkpt>
      <trkpt lat="43.30394" lon="2.3016">
        <ele>223.64</ele>
        <time>2015-06-14T10:11:50Z</time>
      </trkpt>
      <trkpt lat="43.30343" lon="2.30356">
        <ele>222.68</ele>
        <time>2015-06-14T10:12:05Z</time>
      </trkpt>
      <trkpt lat="43.3028" lon="2.30518">
        <ele>218.36</ele>
        <time>2015-06-14T10:12:17Z</time>
      </trkpt>
      <trkpt lat="43.30194" lon="2.30696">
        <ele>214.03</ele>
        <time>2015-06-14T10:12:30Z</time>
      </trkpt>
      <trkpt lat="43.30176" lon="2.30735">
        <ele>214.03</ele>
        <time>2015-06-14T10:12:33Z</time>
      </trkpt>
      <trkpt lat="43.30169" lon="2.30745">
        <ele>214.03</ele>
        <time>2015-06-14T10:12:34Z</time>
      </trkpt>
      <trkpt lat="43.30129" lon="2.30787">
        <ele>213.07</ele>
        <time>2015-06-14T10:12:39Z</time>
      </trkpt>
      <trkpt lat="43.30109" lon="2.308">
        <ele>212.11</ele>
        <time>2015-06-14T10:12:41Z</time>
      </trkpt>
      <trkpt lat="43.30099" lon="2.30806">
        <ele>212.11</ele>
        <time>2015-06-14T10:12:42Z</time>
      </trkpt>
      <trkpt lat="43.2999" lon="2.30906">
        <ele>204.42</ele>
        <time>2015-06-14T10:12:53Z</time>
      </trkpt>
      <trkpt lat="43.29905" lon="2.31062">
        <ele>196.25</ele>
        <time>2015-06-14T10:13:04Z</time>
      </trkpt>
      <trkpt lat="43.29859" lon="2.31147">
        <ele>195.77</ele>
        <time>2015-06-14T10:13:11Z</time>
      </trkpt>
      <trkpt lat="43.29851" lon="2.31156">
        <ele>195.77</ele>
        <time>2015-06-14T10:13:12Z</time>
      </trkpt>
      <trkpt lat="43.29843" lon="2.31163">
        <ele>195.77</ele>
        <time>2015-06-14T10:13:13Z</time>
      </trkpt>
      <trkpt lat="43.29834" lon="2.31168">
        <ele>196.25</ele>
        <time>2015-06-14T10:13:14Z</time>
      </trkpt>
      <trkpt lat="43.29823" lon="2.3117">
        <ele>196.25</ele>
        <time>2015-06-14T10:13:15Z</time>
      </trkpt>
      <trkpt lat="43.29812" lon="2.3117">
        <ele>196.25</ele>
        <time>2015-06-14T10:13:16Z</time>
      </trkpt>
      <trkpt lat="43.29802" lon="2.31168">
        <ele>196.73</ele>
        <time>2015-06-14T10:13:17Z</time>
      </trkpt>
      <trkpt lat="43.29793" lon="2.31168">
        <ele>197.21</ele>
        <time>2015-06-14T10:13:18Z</time>
      </trkpt>
      <trkpt lat="43.29767" lon="2.31173">
        <ele>198.17</ele>
        <time>2015-06-14T10:13:21Z</time>
      </trkpt>
      <trkpt lat="43.29759" lon="2.31179">
        <ele>198.17</ele>
        <time>2015-06-14T10:13:22Z</time>
      </trkpt>
      <trkpt lat="43.29753" lon="2.31185">
        <ele>198.17</ele>
        <time>2015-06-14T10:13:23Z</time>
      </trkpt>
      <trkpt lat="43.29747" lon="2.31194">
        <ele>198.17</ele>
        <time>2015-06-14T10:13:24Z</time>
      </trkpt>
      <trkpt lat="43.29742" lon="2.31204">
        <ele>198.65</ele>
        <time>2015-06-14T10:13:25Z</time>
      </trkpt>
      <trkpt lat="43.29738" lon="2.31214">
        <ele>198.65</ele>
        <time>2015-06-14T10:13:26Z</time>
      </trkpt>
      <trkpt lat="43.29731" lon="2.31231">
        <ele>199.13</ele>
        <time>2015-06-14T10:13:28Z</time>
      </trkpt>
      <trkpt lat="43.29728" lon="2.31242">
        <ele>199.61</ele>
        <time>2015-06-14T10:13:29Z</time>
      </trkpt>
      <trkpt lat="43.29726" lon="2.31252">
        <ele>200.09</ele>
        <time>2015-06-14T10:13:30Z</time>
      </trkpt>
      <trkpt lat="43.29726" lon="2.31261">
        <ele>200.57</ele>
        <time>2015-06-14T10:13:31Z</time>
      </trkpt>
      <trkpt lat="43.29726" lon="2.31271">
        <ele>201.05</ele>
        <time>2015-06-14T10:13:32Z</time>
      </trkpt>
      <trkpt lat="43.29727" lon="2.3128">
        <ele>201.53</ele>
        <time>2015-06-14T10:13:33Z</time>
      </trkpt>
      <trkpt lat="43.29728" lon="2.3129">
        <ele>202.01</ele>
        <time>2015-06-14T10:13:34Z</time>
      </trkpt>
      <trkpt lat="43.29725" lon="2.31419">
        <ele>202.98</ele>
        <time>2015-06-14T10:13:47Z</time>
      </trkpt>
      <trkpt lat="43.29718" lon="2.31438">
        <ele>202.49</ele>
        <time>2015-06-14T10:13:49Z</time>
      </trkpt>
      <trkpt lat="43.29659" lon="2.31529">
        <ele>200.09</ele>
        <time>2015-06-14T10:14:00Z</time>
      </trkpt>
      <trkpt lat="43.29647" lon="2.31541">
        <ele>200.09</ele>
        <time>2015-06-14T10:14:02Z</time>
      </trkpt>
      <trkpt lat="43.29642" lon="2.31545">
        <ele>200.09</ele>
        <time>2015-06-14T10:14:03Z</time>
      </trkpt>
      <trkpt lat="43.29622" lon="2.31556">
        <ele>199.61</ele>
        <time>2015-06-14T10:14:06Z</time>
      </trkpt>
      <trkpt lat="43.29616" lon="2.31557">
        <ele>199.61</ele>
        <time>2015-06-14T10:14:07Z</time>
      </trkpt>
      <trkpt lat="43.29609" lon="2.31558">
        <ele>199.61</ele>
        <time>2015-06-14T10:14:08Z</time>
      </trkpt>
      <trkpt lat="43.29603" lon="2.31557">
        <ele>199.61</ele>
        <time>2015-06-14T10:14:09Z</time>
      </trkpt>
      <trkpt lat="43.29597" lon="2.31556">
        <ele>200.09</ele>
        <time>2015-06-14T10:14:10Z</time>
      </trkpt>
      <trkpt lat="43.29591" lon="2.31554">
        <ele>200.09</ele>
        <time>2015-06-14T10:14:11Z</time>
      </trkpt>
      <trkpt lat="43.29586" lon="2.31551">
        <ele>200.09</ele>
        <time>2015-06-14T10:14:12Z</time>
      </trkpt>
      <trkpt lat="43.29582" lon="2.31544">
        <ele>200.09</ele>
        <time>2015-06-14T10:14:13Z</time>
      </trkpt>
      <trkpt lat="43.2958" lon="2.31535">
        <ele>200.57</ele>
        <time>2015-06-14T10:14:14Z</time>
      </trkpt>
      <trkpt lat="43.29579" lon="2.31527">
        <ele>200.57</ele>
        <time>2015-06-14T10:14:15Z</time>
      </trkpt>
      <trkpt lat="43.29579" lon="2.31517">
        <ele>200.57</ele>
        <time>2015-06-14T10:14:16Z</time>
      </trkpt>
      <trkpt lat="43.29579" lon="2.3151">
        <ele>200.57</ele>
        <time>2015-06-14T10:14:17Z</time>
      </trkpt>
      <trkpt lat="43.29581" lon="2.31499">
        <ele>200.57</ele>
        <time>2015-06-14T10:14:18Z</time>
      </trkpt>
      <trkpt lat="43.29584" lon="2.31491">
        <ele>200.57</ele>
        <time>2015-06-14T10:14:19Z</time>
      </trkpt>
      <trkpt lat="43.29591" lon="2.31469">
        <ele>200.57</ele>
        <time>2015-06-14T10:14:22Z</time>
      </trkpt>
      <trkpt lat="43.29605" lon="2.31433">
        <ele>201.05</ele>
        <time>2015-06-14T10:14:27Z</time>
      </trkpt>
      <trkpt lat="43.29619" lon="2.31378">
        <ele>202.01</ele>
        <time>2015-06-14T10:14:35Z</time>
      </trkpt>
      <trkpt lat="43.2962" lon="2.31372">
        <ele>202.49</ele>
        <time>2015-06-14T10:14:36Z</time>
      </trkpt>
      <trkpt lat="43.2962" lon="2.31367">
        <ele>202.49</ele>
        <time>2015-06-14T10:14:37Z</time>
      </trkpt>
      <trkpt lat="43.29619" lon="2.31361">
        <ele>202.49</ele>
        <time>2015-06-14T10:14:38Z</time>
      </trkpt>
      <trkpt lat="43.29619" lon="2.31356">
        <ele>202.49</ele>
        <time>2015-06-14T10:14:39Z</time>
      </trkpt>
      <trkpt lat="43.2962" lon="2.31348">
        <ele>202.49</ele>
        <time>2015-06-14T10:14:40Z</time>
      </trkpt>
      <trkpt lat="43.29623" lon="2.313">
        <ele>200.57</ele>
        <time>2015-06-14T10:14:46Z</time>
      </trkpt>
      <trkpt lat="43.2962" lon="2.31289">
        <ele>200.09</ele>
        <time>2015-06-14T10:14:47Z</time>
      </trkpt>
      <trkpt lat="43.29615" lon="2.31281">
        <ele>200.09</ele>
        <time>2015-06-14T10:14:48Z</time>
      </trkpt>
      <trkpt lat="43.29609" lon="2.31278">
        <ele>199.61</ele>
        <time>2015-06-14T10:14:49Z</time>
      </trkpt>
      <trkpt lat="43.29604" lon="2.31276">
        <ele>199.61</ele>
        <time>2015-06-14T10:14:50Z</time>
      </trkpt>
      <trkpt lat="43.29598" lon="2.31275">
        <ele>199.13</ele>
        <time>2015-06-14T10:14:51Z</time>
      </trkpt>
      <trkpt lat="43.29557" lon="2.31264">
        <ele>196.25</ele>
        <time>2015-06-14T10:15:01Z</time>
      </trkpt>
      <trkpt lat="43.2956" lon="2.31262">
        <ele>193.36</ele>
        <time>2015-06-14T10:15:24Z</time>
      </trkpt>
      <trkpt lat="43.2956" lon="2.31262">
        <ele>193.36</ele>
        <time>2015-06-14T10:15:52Z</time>
      </trkpt>
      <trkpt lat="43.2956" lon="2.31262">
        <ele>195.28</ele>
        <time>2015-06-14T10:16:16Z</time>
      </trkpt>
      <trkpt lat="43.29561" lon="2.31264">
        <ele>196.73</ele>
        <time>2015-06-14T10:16:45Z</time>
      </trkpt>
      <trkpt lat="43.2956" lon="2.31264">
        <ele>195.28</ele>
        <time>2015-06-14T10:17:23Z</time>
      </trkpt>
      <trkpt lat="43.29559" lon="2.31263">
        <ele>197.21</ele>
        <time>2015-06-14T10:17:48Z</time>
      </trkpt>
      <trkpt lat="43.29558" lon="2.31264">
        <ele>196.73</ele>
        <time>2015-06-14T10:18:29Z</time>
      </trkpt>
      <trkpt lat="43.2956" lon="2.31264">
        <ele>196.25</ele>
        <time>2015-06-14T10:18:46Z</time>
      </trkpt>
      <trkpt lat="43.2956" lon="2.31264">
        <ele>196.73</ele>
        <time>2015-06-14T10:19:14Z</time>
      </trkpt>
      <trkpt lat="43.29558" lon="2.31267">
        <ele>196.73</ele>
        <time>2015-06-14T10:19:26Z</time>
      </trkpt>
      <trkpt lat="43.29539" lon="2.31293">
        <ele>197.21</ele>
        <time>2015-06-14T10:19:36Z</time>
      </trkpt>
      <trkpt lat="43.29527" lon="2.3132">
        <ele>198.17</ele>
        <time>2015-06-14T10:19:42Z</time>
      </trkpt>
      <trkpt lat="43.29515" lon="2.31346">
        <ele>198.17</ele>
        <time>2015-06-14T10:19:47Z</time>
      </trkpt>
      <trkpt lat="43.2948" lon="2.31431">
        <ele>198.65</ele>
        <time>2015-06-14T10:20:02Z</time>
      </trkpt>
      <trkpt lat="43.2946" lon="2.31536">
        <ele>199.61</ele>
        <time>2015-06-14T10:20:17Z</time>
      </trkpt>
      <trkpt lat="43.29444" lon="2.31637">
        <ele>199.61</ele>
        <time>2015-06-14T10:20:30Z</time>
      </trkpt>
      <trkpt lat="43.2944" lon="2.31644">
        <ele>199.61</ele>
        <time>2015-06-14T10:20:31Z</time>
      </trkpt>
      <trkpt lat="43.29436" lon="2.31651">
        <ele>199.13</ele>
        <time>2015-06-14T10:20:32Z</time>
      </trkpt>
      <trkpt lat="43.2943" lon="2.31655">
        <ele>199.13</ele>
        <time>2015-06-14T10:20:33Z</time>
      </trkpt>
      <trkpt lat="43.29424" lon="2.31655">
        <ele>199.13</ele>
        <time>2015-06-14T10:20:34Z</time>
      </trkpt>
      <trkpt lat="43.29418" lon="2.31653">
        <ele>199.13</ele>
        <time>2015-06-14T10:20:35Z</time>
      </trkpt>
      <trkpt lat="43.29413" lon="2.31649">
        <ele>199.61</ele>
        <time>2015-06-14T10:20:36Z</time>
      </trkpt>
      <trkpt lat="43.29409" lon="2.31644">
        <ele>200.09</ele>
        <time>2015-06-14T10:20:37Z</time>
      </trkpt>
      <trkpt lat="43.29405" lon="2.31637">
        <ele>200.09</ele>
        <time>2015-06-14T10:20:38Z</time>
      </trkpt>
      <trkpt lat="43.29402" lon="2.31631">
        <ele>200.09</ele>
        <time>2015-06-14T10:20:39Z</time>
      </trkpt>
      <trkpt lat="43.29391" lon="2.31612">
        <ele>200.09</ele>
        <time>2015-06-14T10:20:42Z</time>
      </trkpt>
      <trkpt lat="43.29387" lon="2.31606">
        <ele>200.57</ele>
        <time>2015-06-14T10:20:43Z</time>
      </trkpt>
      <trkpt lat="43.29371" lon="2.31587">
        <ele>200.57</ele>
        <time>2015-06-14T10:20:47Z</time>
      </trkpt>
      <trkpt lat="43.29367" lon="2.31584">
        <ele>200.57</ele>
        <time>2015-06-14T10:20:48Z</time>
      </trkpt>
      <trkpt lat="43.29362" lon="2.31581">
        <ele>200.57</ele>
        <time>2015-06-14T10:20:49Z</time>
      </trkpt>
      <trkpt lat="43.29354" lon="2.31575">
        <ele>200.57</ele>
        <time>2015-06-14T10:20:51Z</time>
      </trkpt>
      <trkpt lat="43.29349" lon="2.31573">
        <ele>201.05</ele>
        <time>2015-06-14T10:20:52Z</time>
      </trkpt>
      <trkpt lat="43.29345" lon="2.31572">
        <ele>201.05</ele>
        <time>2015-06-14T10:20:53Z</time>
      </trkpt>
      <trkpt lat="43.2934" lon="2.31571">
        <ele>201.05</ele>
        <time>2015-06-14T10:20:54Z</time>
      </trkpt>
      <trkpt lat="43.29335" lon="2.31571">
        <ele>201.53</ele>
        <time>2015-06-14T10:20:55Z</time>
      </trkpt>
      <trkpt lat="43.29311" lon="2.31568">
        <ele>202.98</ele>
        <time>2015-06-14T10:21:00Z</time>
      </trkpt>
      <trkpt lat="43.29307" lon="2.31566">
        <ele>203.46</ele>
        <time>2015-06-14T10:21:01Z</time>
      </trkpt>
      <trkpt lat="43.29303" lon="2.31562">
        <ele>203.46</ele>
        <time>2015-06-14T10:21:02Z</time>
      </trkpt>
      <trkpt lat="43.293" lon="2.31558">
        <ele>203.46</ele>
        <time>2015-06-14T10:21:03Z</time>
      </trkpt>
      <trkpt lat="43.29297" lon="2.31553">
        <ele>203.46</ele>
        <time>2015-06-14T10:21:04Z</time>
      </trkpt>
      <trkpt lat="43.29287" lon="2.31525">
        <ele>204.42</ele>
        <time>2015-06-14T10:21:09Z</time>
      </trkpt>
      <trkpt lat="43.29286" lon="2.31519">
        <ele>204.42</ele>
        <time>2015-06-14T10:21:10Z</time>
      </trkpt>
      <trkpt lat="43.29282" lon="2.31502">
        <ele>204.9</ele>
        <time>2015-06-14T10:21:13Z</time>
      </trkpt>
      <trkpt lat="43.2928" lon="2.31496">
        <ele>204.9</ele>
        <time>2015-06-14T10:21:14Z</time>
      </trkpt>
      <trkpt lat="43.29253" lon="2.31434">
        <ele>206.34</ele>
        <time>2015-06-14T10:21:26Z</time>
      </trkpt>
      <trkpt lat="43.2925" lon="2.31429">
        <ele>206.82</ele>
        <time>2015-06-14T10:21:27Z</time>
      </trkpt>
      <trkpt lat="43.29248" lon="2.31424">
        <ele>206.82</ele>
        <time>2015-06-14T10:21:28Z</time>
      </trkpt>
      <trkpt lat="43.29237" lon="2.31406">
        <ele>207.78</ele>
        <time>2015-06-14T10:21:32Z</time>
      </trkpt>
      <trkpt lat="43.29234" lon="2.31403">
        <ele>208.26</ele>
        <time>2015-06-14T10:21:33Z</time>
      </trkpt>
      <trkpt lat="43.29226" lon="2.31398">
        <ele>208.74</ele>
        <time>2015-06-14T10:21:35Z</time>
      </trkpt>
      <trkpt lat="43.29222" lon="2.31396">
        <ele>209.22</ele>
        <time>2015-06-14T10:21:36Z</time>
      </trkpt>
      <trkpt lat="43.29218" lon="2.31394">
        <ele>209.7</ele>
        <time>2015-06-14T10:21:37Z</time>
      </trkpt>
      <trkpt lat="43.29187" lon="2.31387">
        <ele>211.15</ele>
        <time>2015-06-14T10:21:44Z</time>
      </trkpt>
      <trkpt lat="43.29179" lon="2.31382">
        <ele>211.63</ele>
        <time>2015-06-14T10:21:46Z</time>
      </trkpt>
      <trkpt lat="43.29175" lon="2.31379">
        <ele>211.63</ele>
        <time>2015-06-14T10:21:47Z</time>
      </trkpt>
      <trkpt lat="43.29171" lon="2.31376">
        <ele>212.11</ele>
        <time>2015-06-14T10:21:48Z</time>
      </trkpt>
      <trkpt lat="43.29168" lon="2.31372">
        <ele>212.11</ele>
        <time>2015-06-14T10:21:49Z</time>
      </trkpt>
      <trkpt lat="43.29165" lon="2.31367">
        <ele>212.11</ele>
        <time>2015-06-14T10:21:50Z</time>
      </trkpt>
      <trkpt lat="43.29162" lon="2.31362">
        <ele>212.11</ele>
        <time>2015-06-14T10:21:51Z</time>
      </trkpt>
      <trkpt lat="43.2916" lon="2.31357">
        <ele>212.11</ele>
        <time>2015-06-14T10:21:52Z</time>
      </trkpt>
      <trkpt lat="43.29158" lon="2.31351">
        <ele>212.59</ele>
        <time>2015-06-14T10:21:53Z</time>
      </trkpt>
      <trkpt lat="43.29156" lon="2.31345">
        <ele>212.11</ele>
        <time>2015-06-14T10:21:54Z</time>
      </trkpt>
      <trkpt lat="43.29155" lon="2.31339">
        <ele>212.59</ele>
        <time>2015-06-14T10:21:55Z</time>
      </trkpt>
      <trkpt lat="43.29154" lon="2.31333">
        <ele>212.59</ele>
        <time>2015-06-14T10:21:56Z</time>
      </trkpt>
      <trkpt lat="43.29148" lon="2.31309">
        <ele>213.55</ele>
        <time>2015-06-14T10:22:00Z</time>
      </trkpt>
      <trkpt lat="43.29146" lon="2.31304">
        <ele>213.55</ele>
        <time>2015-06-14T10:22:01Z</time>
      </trkpt>
      <trkpt lat="43.29133" lon="2.31284">
        <ele>214.03</ele>
        <time>2015-06-14T10:22:05Z</time>
      </trkpt>
      <trkpt lat="43.29129" lon="2.3128">
        <ele>214.03</ele>
        <time>2015-06-14T10:22:06Z</time>
      </trkpt>
      <trkpt lat="43.29121" lon="2.31274">
        <ele>214.51</ele>
        <time>2015-06-14T10:22:08Z</time>
      </trkpt>
      <trkpt lat="43.29117" lon="2.31273">
        <ele>214.99</ele>
        <time>2015-06-14T10:22:09Z</time>
      </trkpt>
      <trkpt lat="43.29107" lon="2.31271">
        <ele>215.47</ele>
        <time>2015-06-14T10:22:11Z</time>
      </trkpt>
      <trkpt lat="43.29102" lon="2.31271">
        <ele>215.47</ele>
        <time>2015-06-14T10:22:12Z</time>
      </trkpt>
      <trkpt lat="43.29097" lon="2.31273">
        <ele>215.95</ele>
        <time>2015-06-14T10:22:13Z</time>
      </trkpt>
      <trkpt lat="43.29092" lon="2.31275">
        <ele>215.95</ele>
        <time>2015-06-14T10:22:14Z</time>
      </trkpt>
      <trkpt lat="43.29088" lon="2.31278">
        <ele>215.95</ele>
        <time>2015-06-14T10:22:15Z</time>
      </trkpt>
      <trkpt lat="43.29084" lon="2.31283">
        <ele>216.43</ele>
        <time>2015-06-14T10:22:16Z</time>
      </trkpt>
      <trkpt lat="43.2908" lon="2.31288">
        <ele>216.91</ele>
        <time>2015-06-14T10:22:17Z</time>
      </trkpt>
      <trkpt lat="43.29078" lon="2.31294">
        <ele>216.91</ele>
        <time>2015-06-14T10:22:18Z</time>
      </trkpt>
      <trkpt lat="43.29076" lon="2.313">
        <ele>217.4</ele>
        <time>2015-06-14T10:22:19Z</time>
      </trkpt>
      <trkpt lat="43.29058" lon="2.31353">
        <ele>220.28</ele>
        <time>2015-06-14T10:22:28Z</time>
      </trkpt>
      <trkpt lat="43.29041" lon="2.31404">
        <ele>222.68</ele>
        <time>2015-06-14T10:22:37Z</time>
      </trkpt>
      <trkpt lat="43.29013" lon="2.31453">
        <ele>223.64</ele>
        <time>2015-06-14T10:22:46Z</time>
      </trkpt>
      <trkpt lat="43.28944" lon="2.31528">
        <ele>227.01</ele>
        <time>2015-06-14T10:23:03Z</time>
      </trkpt>
      <trkpt lat="43.28935" lon="2.31536">
        <ele>227.49</ele>
        <time>2015-06-14T10:23:05Z</time>
      </trkpt>
      <trkpt lat="43.2893" lon="2.31539">
        <ele>227.49</ele>
        <time>2015-06-14T10:23:06Z</time>
      </trkpt>
      <trkpt lat="43.28926" lon="2.31541">
        <ele>227.49</ele>
        <time>2015-06-14T10:23:07Z</time>
      </trkpt>
      <trkpt lat="43.28921" lon="2.31543">
        <ele>227.97</ele>
        <time>2015-06-14T10:23:08Z</time>
      </trkpt>
      <trkpt lat="43.28915" lon="2.31544">
        <ele>227.97</ele>
        <time>2015-06-14T10:23:09Z</time>
      </trkpt>
      <trkpt lat="43.2891" lon="2.31544">
        <ele>228.45</ele>
        <time>2015-06-14T10:23:10Z</time>
      </trkpt>
      <trkpt lat="43.28906" lon="2.31543">
        <ele>228.45</ele>
        <time>2015-06-14T10:23:11Z</time>
      </trkpt>
      <trkpt lat="43.28901" lon="2.31542">
        <ele>228.45</ele>
        <time>2015-06-14T10:23:12Z</time>
      </trkpt>
      <trkpt lat="43.28868" lon="2.31531">
        <ele>227.97</ele>
        <time>2015-06-14T10:23:19Z</time>
      </trkpt>
      <trkpt lat="43.28858" lon="2.31524">
        <ele>227.49</ele>
        <time>2015-06-14T10:23:21Z</time>
      </trkpt>
      <trkpt lat="43.28853" lon="2.31519">
        <ele>227.49</ele>
        <time>2015-06-14T10:23:22Z</time>
      </trkpt>
      <trkpt lat="43.28823" lon="2.31483">
        <ele>225.09</ele>
        <time>2015-06-14T10:23:29Z</time>
      </trkpt>
      <trkpt lat="43.28811" lon="2.31471">
        <ele>224.61</ele>
        <time>2015-06-14T10:23:32Z</time>
      </trkpt>
      <trkpt lat="43.28744" lon="2.31438">
        <ele>221.72</ele>
        <time>2015-06-14T10:23:43Z</time>
      </trkpt>
      <trkpt lat="43.28639" lon="2.31386">
        <ele>217.88</ele>
        <time>2015-06-14T10:23:57Z</time>
      </trkpt>
      <trkpt lat="43.28631" lon="2.31385">
        <ele>217.4</ele>
        <time>2015-06-14T10:23:58Z</time>
      </trkpt>
      <trkpt lat="43.28623" lon="2.31384">
        <ele>216.91</ele>
        <time>2015-06-14T10:23:59Z</time>
      </trkpt>
      <trkpt lat="43.28494" lon="2.31392">
        <ele>210.67</ele>
        <time>2015-06-14T10:24:14Z</time>
      </trkpt>
      <trkpt lat="43.2843" lon="2.31392">
        <ele>207.78</ele>
        <time>2015-06-14T10:24:21Z</time>
      </trkpt>
      <trkpt lat="43.28421" lon="2.31389">
        <ele>207.3</ele>
        <time>2015-06-14T10:24:22Z</time>
      </trkpt>
      <trkpt lat="43.28411" lon="2.31385">
        <ele>206.82</ele>
        <time>2015-06-14T10:24:23Z</time>
      </trkpt>
      <trkpt lat="43.28402" lon="2.3138">
        <ele>206.82</ele>
        <time>2015-06-14T10:24:24Z</time>
      </trkpt>
      <trkpt lat="43.28394" lon="2.31374">
        <ele>206.34</ele>
        <time>2015-06-14T10:24:25Z</time>
      </trkpt>
      <trkpt lat="43.28386" lon="2.31367">
        <ele>205.86</ele>
        <time>2015-06-14T10:24:26Z</time>
      </trkpt>
      <trkpt lat="43.28378" lon="2.31359">
        <ele>205.86</ele>
        <time>2015-06-14T10:24:27Z</time>
      </trkpt>
      <trkpt lat="43.28268" lon="2.31264">
        <ele>199.13</ele>
        <time>2015-06-14T10:24:40Z</time>
      </trkpt>
      <trkpt lat="43.2814" lon="2.31153">
        <ele>190</ele>
        <time>2015-06-14T10:24:55Z</time>
      </trkpt>
      <trkpt lat="43.2813" lon="2.3115">
        <ele>189.52</ele>
        <time>2015-06-14T10:24:56Z</time>
      </trkpt>
      <trkpt lat="43.28119" lon="2.3115">
        <ele>189.04</ele>
        <time>2015-06-14T10:24:57Z</time>
      </trkpt>
      <trkpt lat="43.2795" lon="2.31157">
        <ele>182.79</ele>
        <time>2015-06-14T10:25:14Z</time>
      </trkpt>
      <trkpt lat="43.2794" lon="2.31154">
        <ele>182.79</ele>
        <time>2015-06-14T10:25:15Z</time>
      </trkpt>
      <trkpt lat="43.27931" lon="2.31149">
        <ele>182.79</ele>
        <time>2015-06-14T10:25:16Z</time>
      </trkpt>
      <trkpt lat="43.27859" lon="2.31107">
        <ele>180.38</ele>
        <time>2015-06-14T10:25:24Z</time>
      </trkpt>
      <trkpt lat="43.2785" lon="2.31104">
        <ele>179.9</ele>
        <time>2015-06-14T10:25:25Z</time>
      </trkpt>
      <trkpt lat="43.2784" lon="2.31103">
        <ele>179.42</ele>
        <time>2015-06-14T10:25:26Z</time>
      </trkpt>
      <trkpt lat="43.2783" lon="2.31103">
        <ele>178.94</ele>
        <time>2015-06-14T10:25:27Z</time>
      </trkpt>
      <trkpt lat="43.27819" lon="2.31105">
        <ele>178.46</ele>
        <time>2015-06-14T10:25:28Z</time>
      </trkpt>
      <trkpt lat="43.27809" lon="2.31109">
        <ele>178.46</ele>
        <time>2015-06-14T10:25:29Z</time>
      </trkpt>
      <trkpt lat="43.27799" lon="2.31114">
        <ele>177.5</ele>
        <time>2015-06-14T10:25:30Z</time>
      </trkpt>
      <trkpt lat="43.2779" lon="2.31121">
        <ele>177.02</ele>
        <time>2015-06-14T10:25:31Z</time>
      </trkpt>
      <trkpt lat="43.27661" lon="2.31237">
        <ele>168.37</ele>
        <time>2015-06-14T10:25:44Z</time>
      </trkpt>
      <trkpt lat="43.27528" lon="2.31364">
        <ele>161.16</ele>
        <time>2015-06-14T10:25:57Z</time>
      </trkpt>
      <trkpt lat="43.2752" lon="2.31376">
        <ele>160.68</ele>
        <time>2015-06-14T10:25:58Z</time>
      </trkpt>
      <trkpt lat="43.27515" lon="2.3139">
        <ele>160.2</ele>
        <time>2015-06-14T10:25:59Z</time>
      </trkpt>
      <trkpt lat="43.2751" lon="2.31406">
        <ele>159.72</ele>
        <time>2015-06-14T10:26:00Z</time>
      </trkpt>
      <trkpt lat="43.27506" lon="2.31421">
        <ele>159.72</ele>
        <time>2015-06-14T10:26:01Z</time>
      </trkpt>
      <trkpt lat="43.2745" lon="2.31559">
        <ele>158.27</ele>
        <time>2015-06-14T10:26:11Z</time>
      </trkpt>
      <trkpt lat="43.27443" lon="2.3157">
        <ele>157.79</ele>
        <time>2015-06-14T10:26:12Z</time>
      </trkpt>
      <trkpt lat="43.27433" lon="2.31579">
        <ele>157.79</ele>
        <time>2015-06-14T10:26:13Z</time>
      </trkpt>
      <trkpt lat="43.27422" lon="2.31585">
        <ele>157.31</ele>
        <time>2015-06-14T10:26:14Z</time>
      </trkpt>
      <trkpt lat="43.27412" lon="2.31589">
        <ele>156.83</ele>
        <time>2015-06-14T10:26:15Z</time>
      </trkpt>
      <trkpt lat="43.274" lon="2.31592">
        <ele>155.87</ele>
        <time>2015-06-14T10:26:16Z</time>
      </trkpt>
      <trkpt lat="43.27222" lon="2.3165">
        <ele>151.54</ele>
        <time>2015-06-14T10:26:32Z</time>
      </trkpt>
      <trkpt lat="43.27093" lon="2.31692">
        <ele>153.47</ele>
        <time>2015-06-14T10:26:46Z</time>
      </trkpt>
      <trkpt lat="43.27003" lon="2.31732">
        <ele>152.51</ele>
        <time>2015-06-14T10:26:56Z</time>
      </trkpt>
      <trkpt lat="43.26993" lon="2.31734">
        <ele>152.51</ele>
        <time>2015-06-14T10:26:57Z</time>
      </trkpt>
      <trkpt lat="43.2685" lon="2.31742">
        <ele>152.99</ele>
        <time>2015-06-14T10:27:13Z</time>
      </trkpt>
      <trkpt lat="43.2674" lon="2.31756">
        <ele>156.83</ele>
        <time>2015-06-14T10:27:27Z</time>
      </trkpt>
      <trkpt lat="43.26694" lon="2.31763">
        <ele>159.24</ele>
        <time>2015-06-14T10:27:34Z</time>
      </trkpt>
      <trkpt lat="43.26648" lon="2.31764">
        <ele>162.12</ele>
        <time>2015-06-14T10:27:41Z</time>
      </trkpt>
      <trkpt lat="43.26576" lon="2.31767">
        <ele>165</ele>
        <time>2015-06-14T10:27:52Z</time>
      </trkpt>
      <trkpt lat="43.26569" lon="2.31766">
        <ele>165.48</ele>
        <time>2015-06-14T10:27:53Z</time>
      </trkpt>
      <trkpt lat="43.26562" lon="2.31766">
        <ele>165.96</ele>
        <time>2015-06-14T10:27:54Z</time>
      </trkpt>
      <trkpt lat="43.26556" lon="2.31766">
        <ele>166.45</ele>
        <time>2015-06-14T10:27:55Z</time>
      </trkpt>
      <trkpt lat="43.2655" lon="2.31767">
        <ele>166.45</ele>
        <time>2015-06-14T10:27:56Z</time>
      </trkpt>
      <trkpt lat="43.26469" lon="2.31787">
        <ele>167.41</ele>
        <time>2015-06-14T10:28:09Z</time>
      </trkpt>
      <trkpt lat="43.26362" lon="2.31808">
        <ele>160.68</ele>
        <time>2015-06-14T10:28:22Z</time>
      </trkpt>
      <trkpt lat="43.26204" lon="2.3182">
        <ele>153.47</ele>
        <time>2015-06-14T10:28:38Z</time>
      </trkpt>
      <trkpt lat="43.26052" lon="2.31831">
        <ele>151.06</ele>
        <time>2015-06-14T10:28:54Z</time>
      </trkpt>
      <trkpt lat="43.25951" lon="2.31848">
        <ele>153.47</ele>
        <time>2015-06-14T10:29:07Z</time>
      </trkpt>
      <trkpt lat="43.25842" lon="2.31875">
        <ele>152.03</ele>
        <time>2015-06-14T10:29:22Z</time>
      </trkpt>
      <trkpt lat="43.25718" lon="2.3193">
        <ele>149.62</ele>
        <time>2015-06-14T10:29:38Z</time>
      </trkpt>
      <trkpt lat="43.25593" lon="2.32003">
        <ele>146.26</ele>
        <time>2015-06-14T10:29:54Z</time>
      </trkpt>
      <trkpt lat="43.25518" lon="2.32053">
        <ele>145.78</ele>
        <time>2015-06-14T10:30:04Z</time>
      </trkpt>
      <trkpt lat="43.2551" lon="2.32056">
        <ele>145.78</ele>
        <time>2015-06-14T10:30:05Z</time>
      </trkpt>
      <trkpt lat="43.25501" lon="2.32057">
        <ele>145.78</ele>
        <time>2015-06-14T10:30:06Z</time>
      </trkpt>
      <trkpt lat="43.25494" lon="2.32058">
        <ele>145.78</ele>
        <time>2015-06-14T10:30:07Z</time>
      </trkpt>
      <trkpt lat="43.25486" lon="2.32057">
        <ele>145.78</ele>
        <time>2015-06-14T10:30:08Z</time>
      </trkpt>
      <trkpt lat="43.25367" lon="2.32043">
        <ele>146.26</ele>
        <time>2015-06-14T10:30:24Z</time>
      </trkpt>
      <trkpt lat="43.25318" lon="2.32046">
        <ele>147.22</ele>
        <time>2015-06-14T10:30:31Z</time>
      </trkpt>
      <trkpt lat="43.25291" lon="2.32041">
        <ele>147.7</ele>
        <time>2015-06-14T10:30:35Z</time>
      </trkpt>
      <trkpt lat="43.25216" lon="2.32008">
        <ele>149.62</ele>
        <time>2015-06-14T10:30:47Z</time>
      </trkpt>
      <trkpt lat="43.25118" lon="2.31953">
        <ele>147.7</ele>
        <time>2015-06-14T10:31:01Z</time>
      </trkpt>
      <trkpt lat="43.24992" lon="2.31884">
        <ele>139.53</ele>
        <time>2015-06-14T10:31:15Z</time>
      </trkpt>
      <trkpt lat="43.24838" lon="2.31836">
        <ele>131.36</ele>
        <time>2015-06-14T10:31:29Z</time>
      </trkpt>
      <trkpt lat="43.24754" lon="2.31818">
        <ele>128.95</ele>
        <time>2015-06-14T10:31:37Z</time>
      </trkpt>
      <trkpt lat="43.24744" lon="2.3182">
        <ele>128.47</ele>
        <time>2015-06-14T10:31:38Z</time>
      </trkpt>
      <trkpt lat="43.24736" lon="2.31825">
        <ele>127.99</ele>
        <time>2015-06-14T10:31:39Z</time>
      </trkpt>
      <trkpt lat="43.24729" lon="2.31833">
        <ele>127.99</ele>
        <time>2015-06-14T10:31:40Z</time>
      </trkpt>
      <trkpt lat="43.24722" lon="2.31843">
        <ele>127.51</ele>
        <time>2015-06-14T10:31:41Z</time>
      </trkpt>
      <trkpt lat="43.24717" lon="2.31853">
        <ele>127.03</ele>
        <time>2015-06-14T10:31:42Z</time>
      </trkpt>
      <trkpt lat="43.24712" lon="2.31864">
        <ele>126.55</ele>
        <time>2015-06-14T10:31:43Z</time>
      </trkpt>
      <trkpt lat="43.24707" lon="2.31875">
        <ele>126.55</ele>
        <time>2015-06-14T10:31:44Z</time>
      </trkpt>
      <trkpt lat="43.2469" lon="2.31909">
        <ele>125.59</ele>
        <time>2015-06-14T10:31:47Z</time>
      </trkpt>
      <trkpt lat="43.24686" lon="2.31923">
        <ele>125.11</ele>
        <time>2015-06-14T10:31:48Z</time>
      </trkpt>
      <trkpt lat="43.24675" lon="2.31961">
        <ele>124.15</ele>
        <time>2015-06-14T10:31:51Z</time>
      </trkpt>
      <trkpt lat="43.24667" lon="2.31969">
        <ele>123.19</ele>
        <time>2015-06-14T10:31:52Z</time>
      </trkpt>
      <trkpt lat="43.24658" lon="2.31971">
        <ele>123.19</ele>
        <time>2015-06-14T10:31:53Z</time>
      </trkpt>
      <trkpt lat="43.24647" lon="2.31967">
        <ele>122.71</ele>
        <time>2015-06-14T10:31:54Z</time>
      </trkpt>
      <trkpt lat="43.24638" lon="2.31962">
        <ele>122.22</ele>
        <time>2015-06-14T10:31:55Z</time>
      </trkpt>
      <trkpt lat="43.2461" lon="2.31949">
        <ele>120.3</ele>
        <time>2015-06-14T10:31:58Z</time>
      </trkpt>
      <trkpt lat="43.246" lon="2.31948">
        <ele>119.34</ele>
        <time>2015-06-14T10:31:59Z</time>
      </trkpt>
      <trkpt lat="43.2459" lon="2.31948">
        <ele>118.86</ele>
        <time>2015-06-14T10:32:00Z</time>
      </trkpt>
      <trkpt lat="43.24582" lon="2.31947">
        <ele>118.38</ele>
        <time>2015-06-14T10:32:01Z</time>
      </trkpt>
      <trkpt lat="43.24573" lon="2.31945">
        <ele>117.9</ele>
        <time>2015-06-14T10:32:02Z</time>
      </trkpt>
      <trkpt lat="43.24566" lon="2.3194">
        <ele>117.42</ele>
        <time>2015-06-14T10:32:03Z</time>
      </trkpt>
      <trkpt lat="43.24558" lon="2.31933">
        <ele>116.94</ele>
        <time>2015-06-14T10:32:04Z</time>
      </trkpt>
      <trkpt lat="43.24552" lon="2.31926">
        <ele>116.94</ele>
        <time>2015-06-14T10:32:05Z</time>
      </trkpt>
      <trkpt lat="43.24546" lon="2.31921">
        <ele>116.46</ele>
        <time>2015-06-14T10:32:06Z</time>
      </trkpt>
      <trkpt lat="43.24542" lon="2.31918">
        <ele>116.46</ele>
        <time>2015-06-14T10:32:07Z</time>
      </trkpt>
      <trkpt lat="43.2454" lon="2.31916">
        <ele>116.46</ele>
        <time>2015-06-14T10:32:08Z</time>
      </trkpt>
      <trkpt lat="43.24538" lon="2.31911">
        <ele>116.46</ele>
        <time>2015-06-14T10:32:09Z</time>
      </trkpt>
      <trkpt lat="43.24539" lon="2.31904">
        <ele>116.46</ele>
        <time>2015-06-14T10:32:10Z</time>
      </trkpt>
      <trkpt lat="43.24539" lon="2.31898">
        <ele>116.46</ele>
        <time>2015-06-14T10:32:11Z</time>
      </trkpt>
      <trkpt lat="43.24539" lon="2.3189">
        <ele>116.46</ele>
        <time>2015-06-14T10:32:12Z</time>
      </trkpt>
      <trkpt lat="43.24557" lon="2.31829">
        <ele>115.5</ele>
        <time>2015-06-14T10:32:17Z</time>
      </trkpt>
      <trkpt lat="43.24562" lon="2.31811">
        <ele>115.01</ele>
        <time>2015-06-14T10:32:18Z</time>
      </trkpt>
      <trkpt lat="43.24563" lon="2.31795">
        <ele>115.01</ele>
        <time>2015-06-14T10:32:19Z</time>
      </trkpt>
      <trkpt lat="43.24564" lon="2.3178">
        <ele>114.53</ele>
        <time>2015-06-14T10:32:20Z</time>
      </trkpt>
      <trkpt lat="43.24563" lon="2.31769">
        <ele>114.53</ele>
        <time>2015-06-14T10:32:21Z</time>
      </trkpt>
      <trkpt lat="43.24557" lon="2.3176">
        <ele>114.53</ele>
        <time>2015-06-14T10:32:22Z</time>
      </trkpt>
      <trkpt lat="43.24553" lon="2.31752">
        <ele>114.53</ele>
        <time>2015-06-14T10:32:23Z</time>
      </trkpt>
      <trkpt lat="43.24526" lon="2.31727">
        <ele>114.05</ele>
        <time>2015-06-14T10:32:27Z</time>
      </trkpt>
      <trkpt lat="43.24518" lon="2.31724">
        <ele>114.05</ele>
        <time>2015-06-14T10:32:28Z</time>
      </trkpt>
      <trkpt lat="43.24485" lon="2.31721">
        <ele>113.57</ele>
        <time>2015-06-14T10:32:32Z</time>
      </trkpt>
      <trkpt lat="43.24439" lon="2.31732">
        <ele>113.09</ele>
        <time>2015-06-14T10:32:39Z</time>
      </trkpt>
      <trkpt lat="43.24434" lon="2.31735">
        <ele>112.61</ele>
        <time>2015-06-14T10:32:40Z</time>
      </trkpt>
      <trkpt lat="43.2443" lon="2.31742">
        <ele>112.13</ele>
        <time>2015-06-14T10:32:41Z</time>
      </trkpt>
      <trkpt lat="43.24429" lon="2.3175">
        <ele>112.13</ele>
        <time>2015-06-14T10:32:42Z</time>
      </trkpt>
      <trkpt lat="43.24427" lon="2.31759">
        <ele>111.65</ele>
        <time>2015-06-14T10:32:43Z</time>
      </trkpt>
      <trkpt lat="43.24414" lon="2.31871">
        <ele>112.13</ele>
        <time>2015-06-14T10:32:57Z</time>
      </trkpt>
      <trkpt lat="43.24414" lon="2.31879">
        <ele>112.13</ele>
        <time>2015-06-14T10:32:58Z</time>
      </trkpt>
      <trkpt lat="43.24415" lon="2.31896">
        <ele>111.65</ele>
        <time>2015-06-14T10:33:00Z</time>
      </trkpt>
      <trkpt lat="43.24416" lon="2.31902">
        <ele>111.65</ele>
        <time>2015-06-14T10:33:01Z</time>
      </trkpt>
      <trkpt lat="43.24418" lon="2.3191">
        <ele>111.65</ele>
        <time>2015-06-14T10:33:02Z</time>
      </trkpt>
      <trkpt lat="43.2442" lon="2.31917">
        <ele>111.65</ele>
        <time>2015-06-14T10:33:03Z</time>
      </trkpt>
      <trkpt lat="43.24424" lon="2.31923">
        <ele>111.65</ele>
        <time>2015-06-14T10:33:04Z</time>
      </trkpt>
      <trkpt lat="43.24427" lon="2.31928">
        <ele>111.65</ele>
        <time>2015-06-14T10:33:05Z</time>
      </trkpt>
      <trkpt lat="43.24431" lon="2.31931">
        <ele>111.65</ele>
        <time>2015-06-14T10:33:06Z</time>
      </trkpt>
      <trkpt lat="43.24435" lon="2.31934">
        <ele>111.65</ele>
        <time>2015-06-14T10:33:07Z</time>
      </trkpt>
      <trkpt lat="43.24438" lon="2.31936">
        <ele>111.65</ele>
        <time>2015-06-14T10:33:08Z</time>
      </trkpt>
      <trkpt lat="43.24441" lon="2.31938">
        <ele>111.65</ele>
        <time>2015-06-14T10:33:09Z</time>
      </trkpt>
      <trkpt lat="43.24449" lon="2.31937">
        <ele>112.61</ele>
        <time>2015-06-14T10:33:10Z</time>
      </trkpt>
      <trkpt lat="43.24478" lon="2.31933">
        <ele>115.98</ele>
        <time>2015-06-14T10:33:15Z</time>
      </trkpt>
      <trkpt lat="43.24483" lon="2.31934">
        <ele>116.46</ele>
        <time>2015-06-14T10:33:16Z</time>
      </trkpt>
      <trkpt lat="43.24487" lon="2.31936">
        <ele>116.94</ele>
        <time>2015-06-14T10:33:17Z</time>
      </trkpt>
      <trkpt lat="43.24492" lon="2.31938">
        <ele>117.42</ele>
        <time>2015-06-14T10:33:18Z</time>
      </trkpt>
      <trkpt lat="43.24495" lon="2.31942">
        <ele>117.42</ele>
        <time>2015-06-14T10:33:19Z</time>
      </trkpt>
      <trkpt lat="43.24497" lon="2.31947">
        <ele>117.9</ele>
        <time>2015-06-14T10:33:20Z</time>
      </trkpt>
      <trkpt lat="43.24497" lon="2.31952">
        <ele>117.9</ele>
        <time>2015-06-14T10:33:21Z</time>
      </trkpt>
      <trkpt lat="43.24496" lon="2.31958">
        <ele>118.38</ele>
        <time>2015-06-14T10:33:22Z</time>
      </trkpt>
      <trkpt lat="43.24493" lon="2.31977">
        <ele>118.86</ele>
        <time>2015-06-14T10:33:25Z</time>
      </trkpt>
      <trkpt lat="43.24471" lon="2.321">
        <ele>123.19</ele>
        <time>2015-06-14T10:33:42Z</time>
      </trkpt>
      <trkpt lat="43.2444" lon="2.32171">
        <ele>122.71</ele>
        <time>2015-06-14T10:33:52Z</time>
      </trkpt>
      <trkpt lat="43.24403" lon="2.32277">
        <ele>122.71</ele>
        <time>2015-06-14T10:34:07Z</time>
      </trkpt>
      <trkpt lat="43.24371" lon="2.32411">
        <ele>125.11</ele>
        <time>2015-06-14T10:34:24Z</time>
      </trkpt>
      <trkpt lat="43.2434" lon="2.32549">
        <ele>128.47</ele>
        <time>2015-06-14T10:34:41Z</time>
      </trkpt>
      <trkpt lat="43.24328" lon="2.32665">
        <ele>131.36</ele>
        <time>2015-06-14T10:34:56Z</time>
      </trkpt>
      <trkpt lat="43.24319" lon="2.32725">
        <ele>131.36</ele>
        <time>2015-06-14T10:35:04Z</time>
      </trkpt>
      <trkpt lat="43.24317" lon="2.32733">
        <ele>131.36</ele>
        <time>2015-06-14T10:35:05Z</time>
      </trkpt>
      <trkpt lat="43.24276" lon="2.32857">
        <ele>128.47</ele>
        <time>2015-06-14T10:35:19Z</time>
      </trkpt>
      <trkpt lat="43.24231" lon="2.33008">
        <ele>126.55</ele>
        <time>2015-06-14T10:35:33Z</time>
      </trkpt>
      <trkpt lat="43.24184" lon="2.33237">
        <ele>123.67</ele>
        <time>2015-06-14T10:35:52Z</time>
      </trkpt>
      <trkpt lat="43.24151" lon="2.33448">
        <ele>123.67</ele>
        <time>2015-06-14T10:36:10Z</time>
      </trkpt>
      <trkpt lat="43.24118" lon="2.33657">
        <ele>119.34</ele>
        <time>2015-06-14T10:36:27Z</time>
      </trkpt>
      <trkpt lat="43.24087" lon="2.3382">
        <ele>118.38</ele>
        <time>2015-06-14T10:36:40Z</time>
      </trkpt>
      <trkpt lat="43.24085" lon="2.33832">
        <ele>118.38</ele>
        <time>2015-06-14T10:36:41Z</time>
      </trkpt>
      <trkpt lat="43.24066" lon="2.33979">
        <ele>121.26</ele>
        <time>2015-06-14T10:36:55Z</time>
      </trkpt>
      <trkpt lat="43.24038" lon="2.34194">
        <ele>121.26</ele>
        <time>2015-06-14T10:37:16Z</time>
      </trkpt>
      <trkpt lat="43.24028" lon="2.34272">
        <ele>118.86</ele>
        <time>2015-06-14T10:37:23Z</time>
      </trkpt>
      <trkpt lat="43.24024" lon="2.34281">
        <ele>118.38</ele>
        <time>2015-06-14T10:37:24Z</time>
      </trkpt>
      <trkpt lat="43.24017" lon="2.34286">
        <ele>117.9</ele>
        <time>2015-06-14T10:37:25Z</time>
      </trkpt>
      <trkpt lat="43.24009" lon="2.34287">
        <ele>117.42</ele>
        <time>2015-06-14T10:37:26Z</time>
      </trkpt>
      <trkpt lat="43.24002" lon="2.34287">
        <ele>116.94</ele>
        <time>2015-06-14T10:37:27Z</time>
      </trkpt>
      <trkpt lat="43.23994" lon="2.34286">
        <ele>116.46</ele>
        <time>2015-06-14T10:37:28Z</time>
      </trkpt>
      <trkpt lat="43.23987" lon="2.34286">
        <ele>115.98</ele>
        <time>2015-06-14T10:37:29Z</time>
      </trkpt>
      <trkpt lat="43.2398" lon="2.34288">
        <ele>115.5</ele>
        <time>2015-06-14T10:37:30Z</time>
      </trkpt>
      <trkpt lat="43.23974" lon="2.34291">
        <ele>115.01</ele>
        <time>2015-06-14T10:37:31Z</time>
      </trkpt>
      <trkpt lat="43.23968" lon="2.34298">
        <ele>114.53</ele>
        <time>2015-06-14T10:37:32Z</time>
      </trkpt>
      <trkpt lat="43.23963" lon="2.34306">
        <ele>114.05</ele>
        <time>2015-06-14T10:37:33Z</time>
      </trkpt>
      <trkpt lat="43.23958" lon="2.34315">
        <ele>114.05</ele>
        <time>2015-06-14T10:37:34Z</time>
      </trkpt>
      <trkpt lat="43.23954" lon="2.34325">
        <ele>113.57</ele>
        <time>2015-06-14T10:37:35Z</time>
      </trkpt>
      <trkpt lat="43.23941" lon="2.34355">
        <ele>113.57</ele>
        <time>2015-06-14T10:37:38Z</time>
      </trkpt>
      <trkpt lat="43.23935" lon="2.34363">
        <ele>113.57</ele>
        <time>2015-06-14T10:37:39Z</time>
      </trkpt>
      <trkpt lat="43.23927" lon="2.34371">
        <ele>114.05</ele>
        <time>2015-06-14T10:37:40Z</time>
      </trkpt>
      <trkpt lat="43.2392" lon="2.34378">
        <ele>113.57</ele>
        <time>2015-06-14T10:37:41Z</time>
      </trkpt>
      <trkpt lat="43.23914" lon="2.34387">
        <ele>113.57</ele>
        <time>2015-06-14T10:37:42Z</time>
      </trkpt>
      <trkpt lat="43.23909" lon="2.34397">
        <ele>113.57</ele>
        <time>2015-06-14T10:37:43Z</time>
      </trkpt>
      <trkpt lat="43.23905" lon="2.34408">
        <ele>113.09</ele>
        <time>2015-06-14T10:37:44Z</time>
      </trkpt>
      <trkpt lat="43.23878" lon="2.34515">
        <ele>111.17</ele>
        <time>2015-06-14T10:37:54Z</time>
      </trkpt>
      <trkpt lat="43.23878" lon="2.34527">
        <ele>111.17</ele>
        <time>2015-06-14T10:37:55Z</time>
      </trkpt>
      <trkpt lat="43.23878" lon="2.34538">
        <ele>111.65</ele>
        <time>2015-06-14T10:37:56Z</time>
      </trkpt>
      <trkpt lat="43.23881" lon="2.3455">
        <ele>111.65</ele>
        <time>2015-06-14T10:37:57Z</time>
      </trkpt>
      <trkpt lat="43.23921" lon="2.3471">
        <ele>114.05</ele>
        <time>2015-06-14T10:38:12Z</time>
      </trkpt>
      <trkpt lat="43.23928" lon="2.34741">
        <ele>115.01</ele>
        <time>2015-06-14T10:38:15Z</time>
      </trkpt>
      <trkpt lat="43.23949" lon="2.34867">
        <ele>117.42</ele>
        <time>2015-06-14T10:38:27Z</time>
      </trkpt>
      <trkpt lat="43.23969" lon="2.35005">
        <ele>118.86</ele>
        <time>2015-06-14T10:38:40Z</time>
      </trkpt>
      <trkpt lat="43.23973" lon="2.35038">
        <ele>119.34</ele>
        <time>2015-06-14T10:38:43Z</time>
      </trkpt>
      <trkpt lat="43.23989" lon="2.35178">
        <ele>119.82</ele>
        <time>2015-06-14T10:38:55Z</time>
      </trkpt>
      <trkpt lat="43.24027" lon="2.35341">
        <ele>118.86</ele>
        <time>2015-06-14T10:39:09Z</time>
      </trkpt>
      <trkpt lat="43.2408" lon="2.35524">
        <ele>119.34</ele>
        <time>2015-06-14T10:39:25Z</time>
      </trkpt>
      <trkpt lat="43.24107" lon="2.35681">
        <ele>119.34</ele>
        <time>2015-06-14T10:39:38Z</time>
      </trkpt>
      <trkpt lat="43.24103" lon="2.35866">
        <ele>116.46</ele>
        <time>2015-06-14T10:39:53Z</time>
      </trkpt>
      <trkpt lat="43.2409" lon="2.36068">
        <ele>114.53</ele>
        <time>2015-06-14T10:40:10Z</time>
      </trkpt>
      <trkpt lat="43.24084" lon="2.36171">
        <ele>113.09</ele>
        <time>2015-06-14T10:40:19Z</time>
      </trkpt>
      <trkpt lat="43.24102" lon="2.36295">
        <ele>107.81</ele>
        <time>2015-06-14T10:40:29Z</time>
      </trkpt>
      <trkpt lat="43.24103" lon="2.36305">
        <ele>107.32</ele>
        <time>2015-06-14T10:40:30Z</time>
      </trkpt>
      <trkpt lat="43.24103" lon="2.36314">
        <ele>106.84</ele>
        <time>2015-06-14T10:40:31Z</time>
      </trkpt>
      <trkpt lat="43.24102" lon="2.36321">
        <ele>106.36</ele>
        <time>2015-06-14T10:40:32Z</time>
      </trkpt>
      <trkpt lat="43.241" lon="2.36327">
        <ele>105.88</ele>
        <time>2015-06-14T10:40:33Z</time>
      </trkpt>
      <trkpt lat="43.24098" lon="2.36331">
        <ele>105.88</ele>
        <time>2015-06-14T10:40:34Z</time>
      </trkpt>
      <trkpt lat="43.24094" lon="2.36334">
        <ele>105.88</ele>
        <time>2015-06-14T10:40:35Z</time>
      </trkpt>
      <trkpt lat="43.2409" lon="2.36335">
        <ele>105.88</ele>
        <time>2015-06-14T10:40:36Z</time>
      </trkpt>
      <trkpt lat="43.24086" lon="2.36334">
        <ele>105.88</ele>
        <time>2015-06-14T10:40:37Z</time>
      </trkpt>
      <trkpt lat="43.24083" lon="2.36334">
        <ele>105.88</ele>
        <time>2015-06-14T10:40:38Z</time>
      </trkpt>
      <trkpt lat="43.24079" lon="2.36334">
        <ele>105.88</ele>
        <time>2015-06-14T10:40:39Z</time>
      </trkpt>
      <trkpt lat="43.24019" lon="2.36338">
        <ele>104.92</ele>
        <time>2015-06-14T10:40:53Z</time>
      </trkpt>
      <trkpt lat="43.23932" lon="2.36358">
        <ele>103.48</ele>
        <time>2015-06-14T10:41:06Z</time>
      </trkpt>
      <trkpt lat="43.23791" lon="2.36374">
        <ele>101.08</ele>
        <time>2015-06-14T10:41:24Z</time>
      </trkpt>
      <trkpt lat="43.23646" lon="2.36355">
        <ele>101.56</ele>
        <time>2015-06-14T10:41:43Z</time>
      </trkpt>
      <trkpt lat="43.2359" lon="2.36349">
        <ele>103</ele>
        <time>2015-06-14T10:41:51Z</time>
      </trkpt>
      <trkpt lat="43.23584" lon="2.36347">
        <ele>103</ele>
        <time>2015-06-14T10:41:52Z</time>
      </trkpt>
      <trkpt lat="43.23578" lon="2.36342">
        <ele>103</ele>
        <time>2015-06-14T10:41:53Z</time>
      </trkpt>
      <trkpt lat="43.23567" lon="2.36333">
        <ele>103.48</ele>
        <time>2015-06-14T10:41:55Z</time>
      </trkpt>
      <trkpt lat="43.23561" lon="2.36331">
        <ele>103.48</ele>
        <time>2015-06-14T10:41:56Z</time>
      </trkpt>
      <trkpt lat="43.23554" lon="2.36331">
        <ele>103.48</ele>
        <time>2015-06-14T10:41:57Z</time>
      </trkpt>
      <trkpt lat="43.23547" lon="2.36333">
        <ele>103.48</ele>
        <time>2015-06-14T10:41:58Z</time>
      </trkpt>
      <trkpt lat="43.23541" lon="2.36334">
        <ele>103.48</ele>
        <time>2015-06-14T10:41:59Z</time>
      </trkpt>
      <trkpt lat="43.23534" lon="2.36332">
        <ele>103.48</ele>
        <time>2015-06-14T10:42:00Z</time>
      </trkpt>
      <trkpt lat="43.23528" lon="2.36329">
        <ele>103.48</ele>
        <time>2015-06-14T10:42:01Z</time>
      </trkpt>
      <trkpt lat="43.23425" lon="2.36277">
        <ele>106.84</ele>
        <time>2015-06-14T10:42:18Z</time>
      </trkpt>
      <trkpt lat="43.23364" lon="2.36248">
        <ele>108.29</ele>
        <time>2015-06-14T10:42:29Z</time>
      </trkpt>
      <trkpt lat="43.23324" lon="2.36227">
        <ele>111.17</ele>
        <time>2015-06-14T10:42:37Z</time>
      </trkpt>
      <trkpt lat="43.23319" lon="2.36225">
        <ele>111.65</ele>
        <time>2015-06-14T10:42:38Z</time>
      </trkpt>
      <trkpt lat="43.23286" lon="2.3621">
        <ele>113.09</ele>
        <time>2015-06-14T10:42:45Z</time>
      </trkpt>
      <trkpt lat="43.23282" lon="2.36208">
        <ele>113.09</ele>
        <time>2015-06-14T10:42:46Z</time>
      </trkpt>
      <trkpt lat="43.23277" lon="2.36205">
        <ele>113.57</ele>
        <time>2015-06-14T10:42:47Z</time>
      </trkpt>
      <trkpt lat="43.2326" lon="2.36195">
        <ele>115.01</ele>
        <time>2015-06-14T10:42:51Z</time>
      </trkpt>
      <trkpt lat="43.23239" lon="2.36183">
        <ele>115.98</ele>
        <time>2015-06-14T10:42:56Z</time>
      </trkpt>
      <trkpt lat="43.23221" lon="2.36173">
        <ele>116.46</ele>
        <time>2015-06-14T10:43:00Z</time>
      </trkpt>
      <trkpt lat="43.23157" lon="2.36125">
        <ele>122.22</ele>
        <time>2015-06-14T10:43:15Z</time>
      </trkpt>
      <trkpt lat="43.23108" lon="2.36088">
        <ele>125.59</ele>
        <time>2015-06-14T10:43:28Z</time>
      </trkpt>
      <trkpt lat="43.23037" lon="2.36048">
        <ele>132.8</ele>
        <time>2015-06-14T10:43:46Z</time>
      </trkpt>
      <trkpt lat="43.22949" lon="2.36001">
        <ele>136.16</ele>
        <time>2015-06-14T10:44:05Z</time>
      </trkpt>
      <trkpt lat="43.22884" lon="2.35971">
        <ele>140.97</ele>
        <time>2015-06-14T10:44:19Z</time>
      </trkpt>
      <trkpt lat="43.22849" lon="2.35953">
        <ele>142.89</ele>
        <time>2015-06-14T10:44:31Z</time>
      </trkpt>
      <trkpt lat="43.22846" lon="2.35946">
        <ele>142.89</ele>
        <time>2015-06-14T10:44:34Z</time>
      </trkpt>
      <trkpt lat="43.22846" lon="2.35944">
        <ele>142.89</ele>
        <time>2015-06-14T10:44:35Z</time>
      </trkpt>
      <trkpt lat="43.22846" lon="2.35942">
        <ele>142.89</ele>
        <time>2015-06-14T10:44:36Z</time>
      </trkpt>
      <trkpt lat="43.22847" lon="2.35941">
        <ele>142.89</ele>
        <time>2015-06-14T10:44:37Z</time>
      </trkpt>
      <trkpt lat="43.22848" lon="2.3594">
        <ele>142.89</ele>
        <time>2015-06-14T10:44:38Z</time>
      </trkpt>
      <trkpt lat="43.22848" lon="2.35938">
        <ele>142.89</ele>
        <time>2015-06-14T10:44:39Z</time>
      </trkpt>
      <trkpt lat="43.22849" lon="2.35937">
        <ele>142.89</ele>
        <time>2015-06-14T10:44:40Z</time>
      </trkpt>
      <trkpt lat="43.2285" lon="2.35932">
        <ele>137.13</ele>
        <time>2015-06-14T10:44:56Z</time>
      </trkpt>
      <trkpt lat="43.22852" lon="2.35908">
        <ele>134.24</ele>
        <time>2015-06-14T10:45:14Z</time>
      </trkpt>
      <trkpt lat="43.22854" lon="2.35902">
        <ele>133.76</ele>
        <time>2015-06-14T10:45:15Z</time>
      </trkpt>
      <trkpt lat="43.22857" lon="2.3589">
        <ele>132.8</ele>
        <time>2015-06-14T10:45:17Z</time>
      </trkpt>
      <trkpt lat="43.22859" lon="2.35883">
        <ele>132.8</ele>
        <time>2015-06-14T10:45:18Z</time>
      </trkpt>
      <trkpt lat="43.22859" lon="2.35875">
        <ele>132.32</ele>
        <time>2015-06-14T10:45:19Z</time>
      </trkpt>
      <trkpt lat="43.22859" lon="2.35848">
        <ele>131.36</ele>
        <time>2015-06-14T10:45:22Z</time>
      </trkpt>
      <trkpt lat="43.22858" lon="2.35838">
        <ele>130.88</ele>
        <time>2015-06-14T10:45:23Z</time>
      </trkpt>
      <trkpt lat="43.22856" lon="2.35828">
        <ele>130.4</ele>
        <time>2015-06-14T10:45:24Z</time>
      </trkpt>
      <trkpt lat="43.2285" lon="2.35806">
        <ele>128.95</ele>
        <time>2015-06-14T10:45:26Z</time>
      </trkpt>
      <trkpt lat="43.22845" lon="2.35796">
        <ele>128.47</ele>
        <time>2015-06-14T10:45:27Z</time>
      </trkpt>
      <trkpt lat="43.22801" lon="2.35717">
        <ele>126.07</ele>
        <time>2015-06-14T10:45:36Z</time>
      </trkpt>
      <trkpt lat="43.22797" lon="2.35707">
        <ele>125.59</ele>
        <time>2015-06-14T10:45:37Z</time>
      </trkpt>
      <trkpt lat="43.22795" lon="2.35699">
        <ele>125.59</ele>
        <time>2015-06-14T10:45:38Z</time>
      </trkpt>
      <trkpt lat="43.22784" lon="2.3559">
        <ele>125.59</ele>
        <time>2015-06-14T10:45:50Z</time>
      </trkpt>
      <trkpt lat="43.22784" lon="2.35581">
        <ele>125.59</ele>
        <time>2015-06-14T10:45:51Z</time>
      </trkpt>
      <trkpt lat="43.22781" lon="2.35546">
        <ele>126.07</ele>
        <time>2015-06-14T10:45:55Z</time>
      </trkpt>
      <trkpt lat="43.22782" lon="2.35537">
        <ele>126.07</ele>
        <time>2015-06-14T10:45:56Z</time>
      </trkpt>
      <trkpt lat="43.22784" lon="2.35529">
        <ele>126.07</ele>
        <time>2015-06-14T10:45:57Z</time>
      </trkpt>
      <trkpt lat="43.22787" lon="2.35522">
        <ele>126.55</ele>
        <time>2015-06-14T10:45:58Z</time>
      </trkpt>
      <trkpt lat="43.2279" lon="2.35514">
        <ele>126.07</ele>
        <time>2015-06-14T10:45:59Z</time>
      </trkpt>
      <trkpt lat="43.2279" lon="2.35506">
        <ele>126.07</ele>
        <time>2015-06-14T10:46:00Z</time>
      </trkpt>
      <trkpt lat="43.22787" lon="2.35499">
        <ele>126.07</ele>
        <time>2015-06-14T10:46:01Z</time>
      </trkpt>
      <trkpt lat="43.22782" lon="2.35494">
        <ele>126.07</ele>
        <time>2015-06-14T10:46:02Z</time>
      </trkpt>
      <trkpt lat="43.22777" lon="2.35488">
        <ele>126.07</ele>
        <time>2015-06-14T10:46:03Z</time>
      </trkpt>
      <trkpt lat="43.22774" lon="2.35481">
        <ele>126.07</ele>
        <time>2015-06-14T10:46:04Z</time>
      </trkpt>
      <trkpt lat="43.22772" lon="2.35474">
        <ele>126.07</ele>
        <time>2015-06-14T10:46:05Z</time>
      </trkpt>
      <trkpt lat="43.22771" lon="2.35465">
        <ele>126.07</ele>
        <time>2015-06-14T10:46:06Z</time>
      </trkpt>
      <trkpt lat="43.22737" lon="2.35324">
        <ele>123.19</ele>
        <time>2015-06-14T10:46:22Z</time>
      </trkpt>
      <trkpt lat="43.22685" lon="2.35164">
        <ele>119.82</ele>
        <time>2015-06-14T10:46:39Z</time>
      </trkpt>
      <trkpt lat="43.22649" lon="2.35048">
        <ele>119.82</ele>
        <time>2015-06-14T10:46:52Z</time>
      </trkpt>
      <trkpt lat="43.22648" lon="2.35039">
        <ele>119.82</ele>
        <time>2015-06-14T10:46:53Z</time>
      </trkpt>
      <trkpt lat="43.22647" lon="2.3503">
        <ele>119.82</ele>
        <time>2015-06-14T10:46:54Z</time>
      </trkpt>
      <trkpt lat="43.22643" lon="2.35021">
        <ele>119.82</ele>
        <time>2015-06-14T10:46:55Z</time>
      </trkpt>
      <trkpt lat="43.22639" lon="2.35015">
        <ele>119.82</ele>
        <time>2015-06-14T10:46:56Z</time>
      </trkpt>
      <trkpt lat="43.22635" lon="2.35007">
        <ele>119.34</ele>
        <time>2015-06-14T10:46:57Z</time>
      </trkpt>
      <trkpt lat="43.226" lon="2.34904">
        <ele>118.38</ele>
        <time>2015-06-14T10:47:09Z</time>
      </trkpt>
      <trkpt lat="43.22596" lon="2.34897">
        <ele>118.38</ele>
        <time>2015-06-14T10:47:10Z</time>
      </trkpt>
      <trkpt lat="43.22591" lon="2.3489">
        <ele>118.38</ele>
        <time>2015-06-14T10:47:11Z</time>
      </trkpt>
      <trkpt lat="43.22586" lon="2.34885">
        <ele>118.38</ele>
        <time>2015-06-14T10:47:12Z</time>
      </trkpt>
      <trkpt lat="43.22581" lon="2.3488">
        <ele>118.38</ele>
        <time>2015-06-14T10:47:13Z</time>
      </trkpt>
      <trkpt lat="43.22575" lon="2.34875">
        <ele>118.38</ele>
        <time>2015-06-14T10:47:14Z</time>
      </trkpt>
      <trkpt lat="43.22569" lon="2.3487">
        <ele>118.38</ele>
        <time>2015-06-14T10:47:15Z</time>
      </trkpt>
      <trkpt lat="43.22564" lon="2.34864">
        <ele>118.38</ele>
        <time>2015-06-14T10:47:16Z</time>
      </trkpt>
      <trkpt lat="43.2256" lon="2.34857">
        <ele>118.86</ele>
        <time>2015-06-14T10:47:17Z</time>
      </trkpt>
      <trkpt lat="43.22556" lon="2.34849">
        <ele>118.86</ele>
        <time>2015-06-14T10:47:18Z</time>
      </trkpt>
      <trkpt lat="43.22552" lon="2.34841">
        <ele>118.86</ele>
        <time>2015-06-14T10:47:19Z</time>
      </trkpt>
      <trkpt lat="43.2255" lon="2.34832">
        <ele>118.86</ele>
        <time>2015-06-14T10:47:20Z</time>
      </trkpt>
      <trkpt lat="43.22547" lon="2.34823">
        <ele>118.86</ele>
        <time>2015-06-14T10:47:21Z</time>
      </trkpt>
      <trkpt lat="43.22546" lon="2.34814">
        <ele>118.86</ele>
        <time>2015-06-14T10:47:22Z</time>
      </trkpt>
      <trkpt lat="43.22546" lon="2.34805">
        <ele>119.34</ele>
        <time>2015-06-14T10:47:23Z</time>
      </trkpt>
      <trkpt lat="43.22546" lon="2.34796">
        <ele>119.34</ele>
        <time>2015-06-14T10:47:24Z</time>
      </trkpt>
      <trkpt lat="43.22547" lon="2.34724">
        <ele>120.3</ele>
        <time>2015-06-14T10:47:32Z</time>
      </trkpt>
      <trkpt lat="43.22545" lon="2.34715">
        <ele>120.78</ele>
        <time>2015-06-14T10:47:33Z</time>
      </trkpt>
      <trkpt lat="43.22542" lon="2.34708">
        <ele>120.78</ele>
        <time>2015-06-14T10:47:34Z</time>
      </trkpt>
      <trkpt lat="43.22537" lon="2.34702">
        <ele>120.3</ele>
        <time>2015-06-14T10:47:35Z</time>
      </trkpt>
      <trkpt lat="43.22531" lon="2.34699">
        <ele>120.3</ele>
        <time>2015-06-14T10:47:36Z</time>
      </trkpt>
      <trkpt lat="43.22524" lon="2.34698">
        <ele>119.82</ele>
        <time>2015-06-14T10:47:37Z</time>
      </trkpt>
      <trkpt lat="43.22517" lon="2.34698">
        <ele>119.82</ele>
        <time>2015-06-14T10:47:38Z</time>
      </trkpt>
      <trkpt lat="43.22511" lon="2.34698">
        <ele>119.34</ele>
        <time>2015-06-14T10:47:39Z</time>
      </trkpt>
      <trkpt lat="43.22483" lon="2.34698">
        <ele>119.34</ele>
        <time>2015-06-14T10:47:43Z</time>
      </trkpt>
      <trkpt lat="43.22476" lon="2.34696">
        <ele>119.34</ele>
        <time>2015-06-14T10:47:44Z</time>
      </trkpt>
      <trkpt lat="43.2247" lon="2.34694">
        <ele>119.34</ele>
        <time>2015-06-14T10:47:45Z</time>
      </trkpt>
      <trkpt lat="43.22464" lon="2.3469">
        <ele>119.34</ele>
        <time>2015-06-14T10:47:46Z</time>
      </trkpt>
      <trkpt lat="43.22458" lon="2.34685">
        <ele>119.34</ele>
        <time>2015-06-14T10:47:47Z</time>
      </trkpt>
      <trkpt lat="43.22453" lon="2.3468">
        <ele>119.82</ele>
        <time>2015-06-14T10:47:48Z</time>
      </trkpt>
      <trkpt lat="43.22448" lon="2.34675">
        <ele>119.82</ele>
        <time>2015-06-14T10:47:49Z</time>
      </trkpt>
      <trkpt lat="43.22443" lon="2.34668">
        <ele>119.82</ele>
        <time>2015-06-14T10:47:50Z</time>
      </trkpt>
      <trkpt lat="43.22439" lon="2.34662">
        <ele>119.82</ele>
        <time>2015-06-14T10:47:51Z</time>
      </trkpt>
      <trkpt lat="43.22435" lon="2.34657">
        <ele>120.3</ele>
        <time>2015-06-14T10:47:52Z</time>
      </trkpt>
      <trkpt lat="43.22423" lon="2.34642">
        <ele>120.78</ele>
        <time>2015-06-14T10:47:55Z</time>
      </trkpt>
      <trkpt lat="43.22396" lon="2.34609">
        <ele>121.26</ele>
        <time>2015-06-14T10:48:06Z</time>
      </trkpt>
      <trkpt lat="43.22395" lon="2.34607">
        <ele>121.26</ele>
        <time>2015-06-14T10:48:07Z</time>
      </trkpt>
      <trkpt lat="43.22394" lon="2.34605">
        <ele>121.74</ele>
        <time>2015-06-14T10:48:08Z</time>
      </trkpt>
      <trkpt lat="43.22393" lon="2.34602">
        <ele>121.74</ele>
        <time>2015-06-14T10:48:09Z</time>
      </trkpt>
      <trkpt lat="43.2239" lon="2.346">
        <ele>121.74</ele>
        <time>2015-06-14T10:48:10Z</time>
      </trkpt>
      <trkpt lat="43.22387" lon="2.34597">
        <ele>122.22</ele>
        <time>2015-06-14T10:48:11Z</time>
      </trkpt>
      <trkpt lat="43.22379" lon="2.34592">
        <ele>122.22</ele>
        <time>2015-06-14T10:48:13Z</time>
      </trkpt>
      <trkpt lat="43.22362" lon="2.34582">
        <ele>122.71</ele>
        <time>2015-06-14T10:48:17Z</time>
      </trkpt>
      <trkpt lat="43.22291" lon="2.34547">
        <ele>126.07</ele>
        <time>2015-06-14T10:48:30Z</time>
      </trkpt>
      <trkpt lat="43.22219" lon="2.34509">
        <ele>128.95</ele>
        <time>2015-06-14T10:48:43Z</time>
      </trkpt>
      <trkpt lat="43.22178" lon="2.34483">
        <ele>129.43</ele>
        <time>2015-06-14T10:48:51Z</time>
      </trkpt>
      <trkpt lat="43.22173" lon="2.3448">
        <ele>128.95</ele>
        <time>2015-06-14T10:48:52Z</time>
      </trkpt>
      <trkpt lat="43.22167" lon="2.34477">
        <ele>128.95</ele>
        <time>2015-06-14T10:48:53Z</time>
      </trkpt>
      <trkpt lat="43.22161" lon="2.34474">
        <ele>128.95</ele>
        <time>2015-06-14T10:48:54Z</time>
      </trkpt>
      <trkpt lat="43.22155" lon="2.34471">
        <ele>128.95</ele>
        <time>2015-06-14T10:48:55Z</time>
      </trkpt>
      <trkpt lat="43.22107" lon="2.3444">
        <ele>130.4</ele>
        <time>2015-06-14T10:49:04Z</time>
      </trkpt>
      <trkpt lat="43.22101" lon="2.34437">
        <ele>130.4</ele>
        <time>2015-06-14T10:49:05Z</time>
      </trkpt>
      <trkpt lat="43.22063" lon="2.34411">
        <ele>129.92</ele>
        <time>2015-06-14T10:49:12Z</time>
      </trkpt>
      <trkpt lat="43.22057" lon="2.34408">
        <ele>129.92</ele>
        <time>2015-06-14T10:49:13Z</time>
      </trkpt>
      <trkpt lat="43.22051" lon="2.34406">
        <ele>129.92</ele>
        <time>2015-06-14T10:49:14Z</time>
      </trkpt>
      <trkpt lat="43.22034" lon="2.34401">
        <ele>129.92</ele>
        <time>2015-06-14T10:49:17Z</time>
      </trkpt>
      <trkpt lat="43.21995" lon="2.34398">
        <ele>128.95</ele>
        <time>2015-06-14T10:49:23Z</time>
      </trkpt>
      <trkpt lat="43.21989" lon="2.34398">
        <ele>128.95</ele>
        <time>2015-06-14T10:49:24Z</time>
      </trkpt>
      <trkpt lat="43.21944" lon="2.34401">
        <ele>128.95</ele>
        <time>2015-06-14T10:49:31Z</time>
      </trkpt>
      <trkpt lat="43.21938" lon="2.34403">
        <ele>129.43</ele>
        <time>2015-06-14T10:49:32Z</time>
      </trkpt>
      <trkpt lat="43.21932" lon="2.34401">
        <ele>129.43</ele>
        <time>2015-06-14T10:49:33Z</time>
      </trkpt>
      <trkpt lat="43.21927" lon="2.34397">
        <ele>129.43</ele>
        <time>2015-06-14T10:49:34Z</time>
      </trkpt>
      <trkpt lat="43.21924" lon="2.34393">
        <ele>129.92</ele>
        <time>2015-06-14T10:49:35Z</time>
      </trkpt>
      <trkpt lat="43.21889" lon="2.34356">
        <ele>129.92</ele>
        <time>2015-06-14T10:49:43Z</time>
      </trkpt>
      <trkpt lat="43.21888" lon="2.34352">
        <ele>130.4</ele>
        <time>2015-06-14T10:49:44Z</time>
      </trkpt>
      <trkpt lat="43.21887" lon="2.34343">
        <ele>131.36</ele>
        <time>2015-06-14T10:49:53Z</time>
      </trkpt>
      <trkpt lat="43.21886" lon="2.3434">
        <ele>131.36</ele>
        <time>2015-06-14T10:49:54Z</time>
      </trkpt>
      <trkpt lat="43.21884" lon="2.34336">
        <ele>130.88</ele>
        <time>2015-06-14T10:49:55Z</time>
      </trkpt>
      <trkpt lat="43.21879" lon="2.34334">
        <ele>130.88</ele>
        <time>2015-06-14T10:49:56Z</time>
      </trkpt>
      <trkpt lat="43.21876" lon="2.34335">
        <ele>130.88</ele>
        <time>2015-06-14T10:49:57Z</time>
      </trkpt>
      <trkpt lat="43.21871" lon="2.34338">
        <ele>130.88</ele>
        <time>2015-06-14T10:49:58Z</time>
      </trkpt>
      <trkpt lat="43.21867" lon="2.34345">
        <ele>130.88</ele>
        <time>2015-06-14T10:49:59Z</time>
      </trkpt>
      <trkpt lat="43.21864" lon="2.34351">
        <ele>130.4</ele>
        <time>2015-06-14T10:50:00Z</time>
      </trkpt>
      <trkpt lat="43.21817" lon="2.34449">
        <ele>130.88</ele>
        <time>2015-06-14T10:50:14Z</time>
      </trkpt>
      <trkpt lat="43.21791" lon="2.34499">
        <ele>131.36</ele>
        <time>2015-06-14T10:50:21Z</time>
      </trkpt>
      <trkpt lat="43.21786" lon="2.34506">
        <ele>131.36</ele>
        <time>2015-06-14T10:50:22Z</time>
      </trkpt>
      <trkpt lat="43.2178" lon="2.34511">
        <ele>130.88</ele>
        <time>2015-06-14T10:50:23Z</time>
      </trkpt>
      <trkpt lat="43.21774" lon="2.34514">
        <ele>130.4</ele>
        <time>2015-06-14T10:50:24Z</time>
      </trkpt>
      <trkpt lat="43.21768" lon="2.34516">
        <ele>130.4</ele>
        <time>2015-06-14T10:50:25Z</time>
      </trkpt>
      <trkpt lat="43.21762" lon="2.34517">
        <ele>129.92</ele>
        <time>2015-06-14T10:50:26Z</time>
      </trkpt>
      <trkpt lat="43.21664" lon="2.34518">
        <ele>129.92</ele>
        <time>2015-06-14T10:50:40Z</time>
      </trkpt>
      <trkpt lat="43.21562" lon="2.34517">
        <ele>128.95</ele>
        <time>2015-06-14T10:50:55Z</time>
      </trkpt>
      <trkpt lat="43.21488" lon="2.34514">
        <ele>129.43</ele>
        <time>2015-06-14T10:51:08Z</time>
      </trkpt>
      <trkpt lat="43.21459" lon="2.3451">
        <ele>129.43</ele>
        <time>2015-06-14T10:51:18Z</time>
      </trkpt>
      <trkpt lat="43.21456" lon="2.3451">
        <ele>128.95</ele>
        <time>2015-06-14T10:51:19Z</time>
      </trkpt>
      <trkpt lat="43.21453" lon="2.34511">
        <ele>128.95</ele>
        <time>2015-06-14T10:51:20Z</time>
      </trkpt>
      <trkpt lat="43.2145" lon="2.34511">
        <ele>128.95</ele>
        <time>2015-06-14T10:51:21Z</time>
      </trkpt>
      <trkpt lat="43.21446" lon="2.34512">
        <ele>128.47</ele>
        <time>2015-06-14T10:51:22Z</time>
      </trkpt>
      <trkpt lat="43.21442" lon="2.34512">
        <ele>128.47</ele>
        <time>2015-06-14T10:51:23Z</time>
      </trkpt>
      <trkpt lat="43.21434" lon="2.34511">
        <ele>128.47</ele>
        <time>2015-06-14T10:51:25Z</time>
      </trkpt>
      <trkpt lat="43.21431" lon="2.34511">
        <ele>127.99</ele>
        <time>2015-06-14T10:51:26Z</time>
      </trkpt>
      <trkpt lat="43.21423" lon="2.3451">
        <ele>127.51</ele>
        <time>2015-06-14T10:51:28Z</time>
      </trkpt>
      <trkpt lat="43.21363" lon="2.34508">
        <ele>125.59</ele>
        <time>2015-06-14T10:51:40Z</time>
      </trkpt>
      <trkpt lat="43.21283" lon="2.34505">
        <ele>127.51</ele>
        <time>2015-06-14T10:51:54Z</time>
      </trkpt>
      <trkpt lat="43.21273" lon="2.34505">
        <ele>127.99</ele>
        <time>2015-06-14T10:51:56Z</time>
      </trkpt>
      <trkpt lat="43.21252" lon="2.34503">
        <ele>127.99</ele>
        <time>2015-06-14T10:52:02Z</time>
      </trkpt>
      <trkpt lat="43.21251" lon="2.34502">
        <ele>127.99</ele>
        <time>2015-06-14T10:52:03Z</time>
      </trkpt>
      <trkpt lat="43.21249" lon="2.34501">
        <ele>127.99</ele>
        <time>2015-06-14T10:52:04Z</time>
      </trkpt>
      <trkpt lat="43.21248" lon="2.345">
        <ele>127.99</ele>
        <time>2015-06-14T10:52:05Z</time>
      </trkpt>
      <trkpt lat="43.21246" lon="2.345">
        <ele>127.99</ele>
        <time>2015-06-14T10:52:06Z</time>
      </trkpt>
      <trkpt lat="43.21243" lon="2.345">
        <ele>127.99</ele>
        <time>2015-06-14T10:52:07Z</time>
      </trkpt>
      <trkpt lat="43.2124" lon="2.34501">
        <ele>127.99</ele>
        <time>2015-06-14T10:52:08Z</time>
      </trkpt>
      <trkpt lat="43.21236" lon="2.34502">
        <ele>127.99</ele>
        <time>2015-06-14T10:52:09Z</time>
      </trkpt>
      <trkpt lat="43.21232" lon="2.34504">
        <ele>128.47</ele>
        <time>2015-06-14T10:52:10Z</time>
      </trkpt>
      <trkpt lat="43.21228" lon="2.34504">
        <ele>127.99</ele>
        <time>2015-06-14T10:52:11Z</time>
      </trkpt>
      <trkpt lat="43.21223" lon="2.34505">
        <ele>127.99</ele>
        <time>2015-06-14T10:52:12Z</time>
      </trkpt>
      <trkpt lat="43.21219" lon="2.34504">
        <ele>127.99</ele>
        <time>2015-06-14T10:52:13Z</time>
      </trkpt>
      <trkpt lat="43.21213" lon="2.34504">
        <ele>127.51</ele>
        <time>2015-06-14T10:52:14Z</time>
      </trkpt>
      <trkpt lat="43.21184" lon="2.34501">
        <ele>127.03</ele>
        <time>2015-06-14T10:52:19Z</time>
      </trkpt>
      <trkpt lat="43.21154" lon="2.34502">
        <ele>126.55</ele>
        <time>2015-06-14T10:52:24Z</time>
      </trkpt>
      <trkpt lat="43.21148" lon="2.34503">
        <ele>127.03</ele>
        <time>2015-06-14T10:52:25Z</time>
      </trkpt>
      <trkpt lat="43.21113" lon="2.34503">
        <ele>127.03</ele>
        <time>2015-06-14T10:52:31Z</time>
      </trkpt>
      <trkpt lat="43.21107" lon="2.34503">
        <ele>126.55</ele>
        <time>2015-06-14T10:52:32Z</time>
      </trkpt>
      <trkpt lat="43.21034" lon="2.34503">
        <ele>129.43</ele>
        <time>2015-06-14T10:52:44Z</time>
      </trkpt>
      <trkpt lat="43.21023" lon="2.34502">
        <ele>129.92</ele>
        <time>2015-06-14T10:52:46Z</time>
      </trkpt>
      <trkpt lat="43.21018" lon="2.34502">
        <ele>129.92</ele>
        <time>2015-06-14T10:52:47Z</time>
      </trkpt>
      <trkpt lat="43.20931" lon="2.34498">
        <ele>131.36</ele>
        <time>2015-06-14T10:53:03Z</time>
      </trkpt>
      <trkpt lat="43.20887" lon="2.34496">
        <ele>131.84</ele>
        <time>2015-06-14T10:53:11Z</time>
      </trkpt>
      <trkpt lat="43.20882" lon="2.34495">
        <ele>132.32</ele>
        <time>2015-06-14T10:53:12Z</time>
      </trkpt>
      <trkpt lat="43.20871" lon="2.34493">
        <ele>132.8</ele>
        <time>2015-06-14T10:53:14Z</time>
      </trkpt>
      <trkpt lat="43.20834" lon="2.34485">
        <ele>134.24</ele>
        <time>2015-06-14T10:53:24Z</time>
      </trkpt>
      <trkpt lat="43.20831" lon="2.34481">
        <ele>133.76</ele>
        <time>2015-06-14T10:53:35Z</time>
      </trkpt>
      <trkpt lat="43.20832" lon="2.3448">
        <ele>133.28</ele>
        <time>2015-06-14T10:54:05Z</time>
      </trkpt>
      <trkpt lat="43.20833" lon="2.34481">
        <ele>133.76</ele>
        <time>2015-06-14T10:54:39Z</time>
      </trkpt>
      <trkpt lat="43.20834" lon="2.34481">
        <ele>134.24</ele>
        <time>2015-06-14T10:55:11Z</time>
      </trkpt>
      <trkpt lat="43.20834" lon="2.34482">
        <ele>134.72</ele>
        <time>2015-06-14T10:55:50Z</time>
      </trkpt>
      <trkpt lat="43.20833" lon="2.3448">
        <ele>132.8</ele>
        <time>2015-06-14T10:56:26Z</time>
      </trkpt>
      <trkpt lat="43.20833" lon="2.3448">
        <ele>132.8</ele>
        <time>2015-06-14T10:57:03Z</time>
      </trkpt>
      <trkpt lat="43.20833" lon="2.3448">
        <ele>132.8</ele>
        <time>2015-06-14T10:57:30Z</time>
      </trkpt>
      <trkpt lat="43.20835" lon="2.34483">
        <ele>136.64</ele>
        <time>2015-06-14T10:58:01Z</time>
      </trkpt>
      <trkpt lat="43.20835" lon="2.34483">
        <ele>136.16</ele>
        <time>2015-06-14T10:58:34Z</time>
      </trkpt>
      <trkpt lat="43.20837" lon="2.34479">
        <ele>134.72</ele>
        <time>2015-06-14T10:58:49Z</time>
      </trkpt>
      <trkpt lat="43.20846" lon="2.34484">
        <ele>135.2</ele>
        <time>2015-06-14T10:58:54Z</time>
      </trkpt>
      <trkpt lat="43.20848" lon="2.34485">
        <ele>135.2</ele>
        <time>2015-06-14T10:58:55Z</time>
      </trkpt>
      <trkpt lat="43.2085" lon="2.34486">
        <ele>134.72</ele>
        <time>2015-06-14T10:58:56Z</time>
      </trkpt>
      <trkpt lat="43.20852" lon="2.34486">
        <ele>134.72</ele>
        <time>2015-06-14T10:58:57Z</time>
      </trkpt>
      <trkpt lat="43.20854" lon="2.34487">
        <ele>134.72</ele>
        <time>2015-06-14T10:58:58Z</time>
      </trkpt>
      <trkpt lat="43.20857" lon="2.34487">
        <ele>134.72</ele>
        <time>2015-06-14T10:58:59Z</time>
      </trkpt>
      <trkpt lat="43.20878" lon="2.3449">
        <ele>133.28</ele>
        <time>2015-06-14T10:59:06Z</time>
      </trkpt>
      <trkpt lat="43.20877" lon="2.34493">
        <ele>133.28</ele>
        <time>2015-06-14T10:59:07Z</time>
      </trkpt>
      <trkpt lat="43.20875" lon="2.34497">
        <ele>132.8</ele>
        <time>2015-06-14T10:59:08Z</time>
      </trkpt>
      <trkpt lat="43.20872" lon="2.34498">
        <ele>132.8</ele>
        <time>2015-06-14T10:59:09Z</time>
      </trkpt>
      <trkpt lat="43.20868" lon="2.34498">
        <ele>132.8</ele>
        <time>2015-06-14T10:59:10Z</time>
      </trkpt>
      <trkpt lat="43.20864" lon="2.34499">
        <ele>132.32</ele>
        <time>2015-06-14T10:59:11Z</time>
      </trkpt>
      <trkpt lat="43.20837" lon="2.34498">
        <ele>130.4</ele>
        <time>2015-06-14T10:59:16Z</time>
      </trkpt>
      <trkpt lat="43.20831" lon="2.34497">
        <ele>129.92</ele>
        <time>2015-06-14T10:59:17Z</time>
      </trkpt>
      <trkpt lat="43.20825" lon="2.34495">
        <ele>129.43</ele>
        <time>2015-06-14T10:59:18Z</time>
      </trkpt>
      <trkpt lat="43.20812" lon="2.34489">
        <ele>128.47</ele>
        <time>2015-06-14T10:59:20Z</time>
      </trkpt>
      <trkpt lat="43.20784" lon="2.34475">
        <ele>127.03</ele>
        <time>2015-06-14T10:59:24Z</time>
      </trkpt>
      <trkpt lat="43.20771" lon="2.34465">
        <ele>126.07</ele>
        <time>2015-06-14T10:59:26Z</time>
      </trkpt>
      <trkpt lat="43.20766" lon="2.34458">
        <ele>125.59</ele>
        <time>2015-06-14T10:59:27Z</time>
      </trkpt>
      <trkpt lat="43.20762" lon="2.3445">
        <ele>125.11</ele>
        <time>2015-06-14T10:59:28Z</time>
      </trkpt>
      <trkpt lat="43.20759" lon="2.34442">
        <ele>124.15</ele>
        <time>2015-06-14T10:59:29Z</time>
      </trkpt>
      <trkpt lat="43.20757" lon="2.34434">
        <ele>123.67</ele>
        <time>2015-06-14T10:59:30Z</time>
      </trkpt>
      <trkpt lat="43.20753" lon="2.34417">
        <ele>122.22</ele>
        <time>2015-06-14T10:59:32Z</time>
      </trkpt>
      <trkpt lat="43.20753" lon="2.34407">
        <ele>121.26</ele>
        <time>2015-06-14T10:59:33Z</time>
      </trkpt>
      <trkpt lat="43.20753" lon="2.34398">
        <ele>120.78</ele>
        <time>2015-06-14T10:59:34Z</time>
      </trkpt>
      <trkpt lat="43.20754" lon="2.34387">
        <ele>119.82</ele>
        <time>2015-06-14T10:59:35Z</time>
      </trkpt>
      <trkpt lat="43.20757" lon="2.34377">
        <ele>118.86</ele>
        <time>2015-06-14T10:59:36Z</time>
      </trkpt>
      <trkpt lat="43.20761" lon="2.34366">
        <ele>117.9</ele>
        <time>2015-06-14T10:59:37Z</time>
      </trkpt>
      <trkpt lat="43.20768" lon="2.34358">
        <ele>117.42</ele>
        <time>2015-06-14T10:59:38Z</time>
      </trkpt>
      <trkpt lat="43.20776" lon="2.34352">
        <ele>116.46</ele>
        <time>2015-06-14T10:59:39Z</time>
      </trkpt>
      <trkpt lat="43.20786" lon="2.34349">
        <ele>115.5</ele>
        <time>2015-06-14T10:59:40Z</time>
      </trkpt>
      <trkpt lat="43.20795" lon="2.34349">
        <ele>115.01</ele>
        <time>2015-06-14T10:59:41Z</time>
      </trkpt>
      <trkpt lat="43.20804" lon="2.34349">
        <ele>114.53</ele>
        <time>2015-06-14T10:59:42Z</time>
      </trkpt>
      <trkpt lat="43.20863" lon="2.34345">
        <ele>112.13</ele>
        <time>2015-06-14T10:59:49Z</time>
      </trkpt>
      <trkpt lat="43.2087" lon="2.34341">
        <ele>112.13</ele>
        <time>2015-06-14T10:59:50Z</time>
      </trkpt>
      <trkpt lat="43.20875" lon="2.34333">
        <ele>112.13</ele>
        <time>2015-06-14T10:59:51Z</time>
      </trkpt>
      <trkpt lat="43.2088" lon="2.34325">
        <ele>111.65</ele>
        <time>2015-06-14T10:59:52Z</time>
      </trkpt>
      <trkpt lat="43.20884" lon="2.34317">
        <ele>111.65</ele>
        <time>2015-06-14T10:59:53Z</time>
      </trkpt>
      <trkpt lat="43.20922" lon="2.34251">
        <ele>112.61</ele>
        <time>2015-06-14T11:00:02Z</time>
      </trkpt>
      <trkpt lat="43.20925" lon="2.34243">
        <ele>112.61</ele>
        <time>2015-06-14T11:00:03Z</time>
      </trkpt>
      <trkpt lat="43.20926" lon="2.34233">
        <ele>112.61</ele>
        <time>2015-06-14T11:00:04Z</time>
      </trkpt>
      <trkpt lat="43.20927" lon="2.34225">
        <ele>112.61</ele>
        <time>2015-06-14T11:00:05Z</time>
      </trkpt>
      <trkpt lat="43.20927" lon="2.34215">
        <ele>112.61</ele>
        <time>2015-06-14T11:00:06Z</time>
      </trkpt>
      <trkpt lat="43.20927" lon="2.34171">
        <ele>113.09</ele>
        <time>2015-06-14T11:00:11Z</time>
      </trkpt>
      <trkpt lat="43.20931" lon="2.34163">
        <ele>113.57</ele>
        <time>2015-06-14T11:00:12Z</time>
      </trkpt>
      <trkpt lat="43.20936" lon="2.34159">
        <ele>113.57</ele>
        <time>2015-06-14T11:00:13Z</time>
      </trkpt>
      <trkpt lat="43.20946" lon="2.3415">
        <ele>114.05</ele>
        <time>2015-06-14T11:00:15Z</time>
      </trkpt>
      <trkpt lat="43.20956" lon="2.34142">
        <ele>114.53</ele>
        <time>2015-06-14T11:00:17Z</time>
      </trkpt>
      <trkpt lat="43.20981" lon="2.34123">
        <ele>115.5</ele>
        <time>2015-06-14T11:00:22Z</time>
      </trkpt>
      <trkpt lat="43.20986" lon="2.34119">
        <ele>115.98</ele>
        <time>2015-06-14T11:00:23Z</time>
      </trkpt>
      <trkpt lat="43.20991" lon="2.34115">
        <ele>115.98</ele>
        <time>2015-06-14T11:00:24Z</time>
      </trkpt>
      <trkpt lat="43.20996" lon="2.3411">
        <ele>116.46</ele>
        <time>2015-06-14T11:00:25Z</time>
      </trkpt>
      <trkpt lat="43.21001" lon="2.34107">
        <ele>116.94</ele>
        <time>2015-06-14T11:00:26Z</time>
      </trkpt>
      <trkpt lat="43.21006" lon="2.34103">
        <ele>116.94</ele>
        <time>2015-06-14T11:00:27Z</time>
      </trkpt>
      <trkpt lat="43.21011" lon="2.34098">
        <ele>117.42</ele>
        <time>2015-06-14T11:00:28Z</time>
      </trkpt>
      <trkpt lat="43.21056" lon="2.34063">
        <ele>119.82</ele>
        <time>2015-06-14T11:00:39Z</time>
      </trkpt>
      <trkpt lat="43.21059" lon="2.34065">
        <ele>120.3</ele>
        <time>2015-06-14T11:00:40Z</time>
      </trkpt>
      <trkpt lat="43.2106" lon="2.34067">
        <ele>120.78</ele>
        <time>2015-06-14T11:00:41Z</time>
      </trkpt>
      <trkpt lat="43.21073" lon="2.34094">
        <ele>123.19</ele>
        <time>2015-06-14T11:00:47Z</time>
      </trkpt>
      <trkpt lat="43.21079" lon="2.34112">
        <ele>123.67</ele>
        <time>2015-06-14T11:00:50Z</time>
      </trkpt>
      <trkpt lat="43.21081" lon="2.34119">
        <ele>124.15</ele>
        <time>2015-06-14T11:00:51Z</time>
      </trkpt>
      <trkpt lat="43.21082" lon="2.34126">
        <ele>124.15</ele>
        <time>2015-06-14T11:00:52Z</time>
      </trkpt>
      <trkpt lat="43.21084" lon="2.34131">
        <ele>124.15</ele>
        <time>2015-06-14T11:00:53Z</time>
      </trkpt>
      <trkpt lat="43.21088" lon="2.34135">
        <ele>124.15</ele>
        <time>2015-06-14T11:00:54Z</time>
      </trkpt>
      <trkpt lat="43.21092" lon="2.34135">
        <ele>124.63</ele>
        <time>2015-06-14T11:00:55Z</time>
      </trkpt>
      <trkpt lat="43.21094" lon="2.34133">
        <ele>125.11</ele>
        <time>2015-06-14T11:00:56Z</time>
      </trkpt>
      <trkpt lat="43.21096" lon="2.34128">
        <ele>125.59</ele>
        <time>2015-06-14T11:00:57Z</time>
      </trkpt>
      <trkpt lat="43.21095" lon="2.34123">
        <ele>126.07</ele>
        <time>2015-06-14T11:00:58Z</time>
      </trkpt>
      <trkpt lat="43.21093" lon="2.34118">
        <ele>126.55</ele>
        <time>2015-06-14T11:00:59Z</time>
      </trkpt>
      <trkpt lat="43.21091" lon="2.34112">
        <ele>126.55</ele>
        <time>2015-06-14T11:01:00Z</time>
      </trkpt>
      <trkpt lat="43.21089" lon="2.34105">
        <ele>127.03</ele>
        <time>2015-06-14T11:01:01Z</time>
      </trkpt>
      <trkpt lat="43.21089" lon="2.34099">
        <ele>127.51</ele>
        <time>2015-06-14T11:01:02Z</time>
      </trkpt>
      <trkpt lat="43.21088" lon="2.34092">
        <ele>127.99</ele>
        <time>2015-06-14T11:01:03Z</time>
      </trkpt>
      <trkpt lat="43.21089" lon="2.34086">
        <ele>127.99</ele>
        <time>2015-06-14T11:01:04Z</time>
      </trkpt>
      <trkpt lat="43.21092" lon="2.34082">
        <ele>128.47</ele>
        <time>2015-06-14T11:01:05Z</time>
      </trkpt>
      <trkpt lat="43.21095" lon="2.34081">
        <ele>128.95</ele>
        <time>2015-06-14T11:01:06Z</time>
      </trkpt>
      <trkpt lat="43.211" lon="2.34081">
        <ele>129.43</ele>
        <time>2015-06-14T11:01:07Z</time>
      </trkpt>
      <trkpt lat="43.21104" lon="2.34081">
        <ele>129.43</ele>
        <time>2015-06-14T11:01:08Z</time>
      </trkpt>
      <trkpt lat="43.21108" lon="2.34082">
        <ele>129.92</ele>
        <time>2015-06-14T11:01:09Z</time>
      </trkpt>
      <trkpt lat="43.21126" lon="2.34085">
        <ele>130.88</ele>
        <time>2015-06-14T11:01:13Z</time>
      </trkpt>
      <trkpt lat="43.2113" lon="2.34086">
        <ele>131.36</ele>
        <time>2015-06-14T11:01:14Z</time>
      </trkpt>
      <trkpt lat="43.21135" lon="2.34086">
        <ele>131.84</ele>
        <time>2015-06-14T11:01:15Z</time>
      </trkpt>
      <trkpt lat="43.21193" lon="2.34097">
        <ele>131.84</ele>
        <time>2015-06-14T11:01:26Z</time>
      </trkpt>
      <trkpt lat="43.21198" lon="2.34098">
        <ele>131.84</ele>
        <time>2015-06-14T11:01:27Z</time>
      </trkpt>
      <trkpt lat="43.21203" lon="2.34098">
        <ele>131.84</ele>
        <time>2015-06-14T11:01:28Z</time>
      </trkpt>
      <trkpt lat="43.21208" lon="2.34099">
        <ele>132.32</ele>
        <time>2015-06-14T11:01:29Z</time>
      </trkpt>
      <trkpt lat="43.21213" lon="2.341">
        <ele>132.8</ele>
        <time>2015-06-14T11:01:30Z</time>
      </trkpt>
      <trkpt lat="43.21218" lon="2.341">
        <ele>132.8</ele>
        <time>2015-06-14T11:01:31Z</time>
      </trkpt>
      <trkpt lat="43.21223" lon="2.34101">
        <ele>132.8</ele>
        <time>2015-06-14T11:01:32Z</time>
      </trkpt>
      <trkpt lat="43.21246" lon="2.34104">
        <ele>132.8</ele>
        <time>2015-06-14T11:01:36Z</time>
      </trkpt>
      <trkpt lat="43.21257" lon="2.34107">
        <ele>132.32</ele>
        <time>2015-06-14T11:01:38Z</time>
      </trkpt>
      <trkpt lat="43.21316" lon="2.34114">
        <ele>131.36</ele>
        <time>2015-06-14T11:01:49Z</time>
      </trkpt>
      <trkpt lat="43.2132" lon="2.34116">
        <ele>131.36</ele>
        <time>2015-06-14T11:01:50Z</time>
      </trkpt>
      <trkpt lat="43.21325" lon="2.34117">
        <ele>130.88</ele>
        <time>2015-06-14T11:01:51Z</time>
      </trkpt>
      <trkpt lat="43.21345" lon="2.34119">
        <ele>129.92</ele>
        <time>2015-06-14T11:01:56Z</time>
      </trkpt>
      <trkpt lat="43.21347" lon="2.34118">
        <ele>129.43</ele>
        <time>2015-06-14T11:01:57Z</time>
      </trkpt>
      <trkpt lat="43.2135" lon="2.34117">
        <ele>127.03</ele>
        <time>2015-06-14T11:02:07Z</time>
      </trkpt>
    </trkseg>
  </trk>
</gpx>